
Distance (Route):
Temperature : 19.5°C
Humidity : 61.7%
Pressure : 0hPa| Receiver | Frames | First received | Last received |
|---|---|---|---|
| IW2NTF | 955 | 2026-08-30 23:02:04 | 2026-08-31 01:21:43 |
| DO3MHA-11 | 459 | 2026-08-30 23:34:03 | 2026-08-31 01:09:41 |
| DB0UT-7 | 174 | 2026-08-30 23:31:12 | 2026-08-31 01:07:48 |
| OE5DRO-10 | 139 | 2026-08-31 00:05:08 | 2026-08-31 01:02:11 |
| NBG1-10 | 114 | 2026-08-30 23:41:16 | 2026-08-31 01:05:55 |
| DL1ZP-14 | 46 | 2026-08-31 00:21:40 | 2026-08-31 00:56:53 |
| S52SK | 45 | 2026-08-31 00:11:44 | 2026-08-31 00:58:33 |
| BAUMI2-15 | 38 | 2026-08-31 00:19:03 | 2026-08-31 00:36:27 |
| OE5DXL-15 | 38 | 2026-08-31 00:29:48 | 2026-08-31 00:58:55 |
| PG1ADW-2 | 37 | 2026-08-31 00:31:51 | 2026-08-31 00:55:51 |
| DF7PN | 36 | 2026-08-31 00:28:26 | 2026-08-31 00:56:55 |
| DK5PH-5 | 32 | 2026-08-31 00:31:18 | 2026-08-31 00:56:24 |
| RDZBGO | 19 | 2026-08-31 00:47:22 | 2026-08-31 00:57:38 |
| OE3JTB-15 | 8 | 2026-08-31 00:32:59 | 2026-08-31 00:57:05 |
| DM0DOS-11 | 6 | 2026-08-31 00:52:24 | 2026-08-31 00:53:13 |
| IN3HCDX | 4 | 2026-08-31 00:56:14 | 2026-08-31 00:57:51 |
| Receiver | Date | Latitude | Longitude | Direction | Speed | Altitude | Climb | Temperature | Humidity | Pressure | Voltage | Killtimer | Uptime | BKT | XDATA |
|---|---|---|---|---|---|---|---|---|---|---|---|---|---|---|---|
| IW2NTF | 2026-08-31 01:21:43 | 45.77502 | 9.88101 | 75° | 7km/h | 1200m | -9.1m/s | 19.5°C | 61.7% | 0hPa | 2.7V | 08:02:07 | 02:47:24 | 00:00:00 | |
| IW2NTF | 2026-08-31 01:21:43 | 45.77501 | 9.88095 | 68° | 7km/h | 1218m | -8.4m/s | 19.4°C | 61.7% | 0hPa | 2.7V | 08:02:09 | 02:47:22 | 00:00:00 | |
| IW2NTF | 2026-08-31 01:21:37 | 45.77500 | 9.88089 | 87° | 9km/h | 1234m | -8.1m/s | 19.3°C | 61.8% | 0hPa | 2.7V | 08:02:11 | 02:47:20 | 00:00:00 | |
| IW2NTF | 2026-08-31 01:21:37 | 45.77500 | 9.88083 | 88° | 9km/h | 1251m | -9.3m/s | 19.2°C | 61.9% | 0hPa | 2.6V | 08:02:13 | 02:47:18 | 00:00:00 | |
| IW2NTF | 2026-08-31 01:21:37 | 45.77499 | 9.88077 | 86° | 9km/h | 1268m | -9.4m/s | 19.1°C | 61.1% | 0hPa | 2.7V | 08:02:15 | 02:47:16 | 00:00:00 | |
| IW2NTF | 2026-08-31 01:21:31 | 45.77499 | 9.88070 | 81° | 9km/h | 1286m | -8.6m/s | 19°C | 60.3% | 0hPa | 2.7V | 08:02:17 | 02:47:14 | 00:00:00 | |
| IW2NTF | 2026-08-31 01:21:31 | 45.77498 | 9.88064 | 88° | 11km/h | 1303m | -8m/s | 18.8°C | 60.2% | 0hPa | 2.7V | 08:02:19 | 02:47:12 | 00:00:00 | |
| IW2NTF | 2026-08-31 01:21:31 | 45.77498 | 9.88056 | 94° | 13km/h | 1319m | -9m/s | 18.7°C | 60% | 0hPa | 2.7V | 08:02:21 | 02:47:10 | 00:00:00 | |
| IW2NTF | 2026-08-31 01:21:25 | 45.77498 | 9.88047 | 84° | 13km/h | 1337m | -9.2m/s | 18.6°C | 59.9% | 0hPa | 2.6V | 08:02:23 | 02:47:08 | 00:00:00 | |
| IW2NTF | 2026-08-31 01:21:25 | 45.77497 | 9.88039 | 81° | 9km/h | 1355m | -8.9m/s | 18.4°C | 60.2% | 0hPa | 2.7V | 08:02:25 | 02:47:06 | 00:00:00 | |
| IW2NTF | 2026-08-31 01:21:25 | 45.77497 | 9.88030 | 84° | 13km/h | 1374m | -9.2m/s | 18.3°C | 60.3% | 0hPa | 2.7V | 08:02:27 | 02:47:04 | 00:00:00 | |
| IW2NTF | 2026-08-31 01:21:19 | 45.77497 | 9.88022 | 100° | 11km/h | 1393m | -9.4m/s | 18.1°C | 60.5% | 0hPa | 2.7V | 08:02:29 | 02:47:02 | 00:00:00 | |
| IW2NTF | 2026-08-31 01:21:19 | 45.77497 | 9.88013 | 98° | 13km/h | 1409m | -8.8m/s | 18°C | 61.1% | 0hPa | 2.6V | 08:02:31 | 02:47:00 | 00:00:00 | |
| IW2NTF | 2026-08-31 01:21:19 | 45.77499 | 9.88003 | 93° | 15km/h | 1425m | -8.7m/s | 17.8°C | 61.4% | 0hPa | 2.7V | 08:02:33 | 02:46:58 | 00:00:00 | |
| IW2NTF | 2026-08-31 01:21:13 | 45.77499 | 9.87994 | 84° | 11km/h | 1442m | -9.1m/s | 17.7°C | 61.9% | 0hPa | 2.7V | 08:02:35 | 02:46:56 | 00:00:00 | |
| IW2NTF | 2026-08-31 01:21:13 | 45.77499 | 9.87984 | 86° | 15km/h | 1460m | -9.3m/s | 17.5°C | 62.5% | 0hPa | 2.7V | 08:02:37 | 02:46:54 | 00:00:00 | |
| IW2NTF | 2026-08-31 01:21:13 | 45.77499 | 9.87975 | 99° | 15km/h | 1479m | -9.5m/s | 17.3°C | 63% | 0hPa | 2.7V | 08:02:39 | 02:46:52 | 00:00:00 | |
| IW2NTF | 2026-08-31 01:21:07 | 45.77500 | 9.87965 | 104° | 15km/h | 1497m | -9.4m/s | 17.2°C | 63.8% | 0hPa | 2.6V | 08:02:41 | 02:46:50 | 00:00:00 | |
| IW2NTF | 2026-08-31 01:21:07 | 45.77501 | 9.87955 | 94° | 11km/h | 1516m | -9.4m/s | 17°C | 64.8% | 0hPa | 2.7V | 08:02:43 | 02:46:48 | 00:00:00 | |
| IW2NTF | 2026-08-31 01:21:07 | 45.77501 | 9.87945 | 93° | 13km/h | 1535m | -9.5m/s | 16.8°C | 65.2% | 0hPa | 2.7V | 08:02:45 | 02:46:46 | 00:00:00 | |
| IW2NTF | 2026-08-31 01:21:01 | 45.77501 | 9.87934 | 92° | 13km/h | 1554m | -9.6m/s | 16.7°C | 65.6% | 0hPa | 2.7V | 08:02:47 | 02:46:44 | 00:00:00 | |
| IW2NTF | 2026-08-31 01:21:01 | 45.77501 | 9.87923 | 94° | 13km/h | 1573m | -9.9m/s | 16.5°C | 66.2% | 0hPa | 2.6V | 08:02:49 | 02:46:42 | 00:00:00 | |
| IW2NTF | 2026-08-31 01:21:01 | 45.77502 | 9.87912 | 92° | 16km/h | 1593m | -11m/s | 16.3°C | 66.8% | 0hPa | 2.7V | 08:02:51 | 02:46:40 | 00:00:00 | |
| IW2NTF | 2026-08-31 01:20:56 | 45.77502 | 9.87901 | 89° | 15km/h | 1612m | -9.9m/s | 16.1°C | 67.6% | 0hPa | 2.7V | 08:02:53 | 02:46:38 | 00:00:00 | |
| IW2NTF | 2026-08-31 01:20:56 | 45.77503 | 9.87889 | 94° | 18km/h | 1630m | -9.7m/s | 15.9°C | 68.2% | 0hPa | 2.7V | 08:02:55 | 02:46:36 | 00:00:00 | |
| IW2NTF | 2026-08-31 01:20:56 | 45.77503 | 9.87876 | 84° | 15km/h | 1649m | -9.6m/s | 15.8°C | 69% | 0hPa | 2.6V | 08:02:57 | 02:46:34 | 00:00:00 | |
| IW2NTF | 2026-08-31 01:20:49 | 45.77504 | 9.87864 | 88° | 18km/h | 1667m | -9.8m/s | 15.6°C | 69.7% | 0hPa | 2.7V | 08:02:59 | 02:46:32 | 00:00:00 | |
| IW2NTF | 2026-08-31 01:20:49 | 45.77503 | 9.87852 | 90° | 15km/h | 1686m | -8.9m/s | 15.4°C | 70.6% | 0hPa | 2.7V | 08:03:01 | 02:46:30 | 00:00:00 | |
| IW2NTF | 2026-08-31 01:20:49 | 45.77504 | 9.87839 | 86° | 20km/h | 1703m | -8.9m/s | 15.2°C | 71.7% | 0hPa | 2.7V | 08:03:03 | 02:46:28 | 00:00:00 | |
| IW2NTF | 2026-08-31 01:20:43 | 45.77504 | 9.87825 | 94° | 18km/h | 1722m | -10.7m/s | 15.1°C | 72.5% | 0hPa | 2.6V | 08:03:05 | 02:46:26 | 00:00:00 | |
| IW2NTF | 2026-08-31 01:20:43 | 45.77503 | 9.87812 | 86° | 16km/h | 1742m | -9.8m/s | 14.9°C | 73.1% | 0hPa | 2.7V | 08:03:07 | 02:46:24 | 00:00:00 | |
| IW2NTF | 2026-08-31 01:20:43 | 45.77504 | 9.87799 | 90° | 20km/h | 1761m | -9m/s | 14.7°C | 74.1% | 0hPa | 2.7V | 08:03:09 | 02:46:22 | 00:00:00 | |
| IW2NTF | 2026-08-31 01:20:37 | 45.77503 | 9.87785 | 95° | 20km/h | 1779m | -10.3m/s | 14.5°C | 75% | 0hPa | 2.7V | 08:03:11 | 02:46:20 | 00:00:00 | |
| IW2NTF | 2026-08-31 01:20:37 | 45.77503 | 9.87771 | 83° | 18km/h | 1798m | -9.8m/s | 14.3°C | 76.2% | 0hPa | 2.6V | 08:03:13 | 02:46:18 | 00:00:00 | |
| IW2NTF | 2026-08-31 01:20:37 | 45.77503 | 9.87757 | 97° | 20km/h | 1817m | -8.6m/s | 14.2°C | 77.6% | 0hPa | 2.7V | 08:03:15 | 02:46:16 | 00:00:00 | |
| IW2NTF | 2026-08-31 01:20:31 | 45.77503 | 9.87742 | 85° | 20km/h | 1834m | -10.2m/s | 14°C | 78.4% | 0hPa | 2.7V | 08:03:17 | 02:46:14 | 00:00:00 | |
| IW2NTF | 2026-08-31 01:20:31 | 45.77503 | 9.87729 | 97° | 18km/h | 1853m | -9.2m/s | 13.8°C | 79.1% | 0hPa | 2.6V | 08:03:19 | 02:46:12 | 00:00:00 | |
| IW2NTF | 2026-08-31 01:20:31 | 45.77504 | 9.87714 | 90° | 22km/h | 1870m | -9m/s | 13.7°C | 80.1% | 0hPa | 2.6V | 08:03:21 | 02:46:10 | 00:00:00 | |
| IW2NTF | 2026-08-31 01:20:25 | 45.77504 | 9.87699 | 88° | 18km/h | 1888m | -10.2m/s | 13.5°C | 81.3% | 0hPa | 2.7V | 08:03:23 | 02:46:08 | 00:00:00 | |
| IW2NTF | 2026-08-31 01:20:25 | 45.77504 | 9.87686 | 99° | 18km/h | 1908m | -8.8m/s | 13.3°C | 82% | 0hPa | 2.7V | 08:03:25 | 02:46:06 | 00:00:00 | |
| IW2NTF | 2026-08-31 01:20:25 | 45.77506 | 9.87671 | 97° | 22km/h | 1925m | -9.7m/s | 13.2°C | 81.9% | 0hPa | 2.7V | 08:03:27 | 02:46:04 | 00:00:00 | |
| IW2NTF | 2026-08-31 01:20:19 | 45.77507 | 9.87657 | 92° | 18km/h | 1944m | -10.2m/s | 13.2°C | 77.3% | 0hPa | 2.7V | 08:03:29 | 02:46:02 | 00:00:00 | |
| IW2NTF | 2026-08-31 01:20:19 | 45.77508 | 9.87644 | 105° | 18km/h | 1964m | -10.2m/s | 13.1°C | 72.8% | 0hPa | 2.7V | 08:03:31 | 02:46:00 | 00:00:00 | |
| IW2NTF | 2026-08-31 01:20:19 | 45.77510 | 9.87630 | 101° | 20km/h | 1982m | -9.7m/s | 12.9°C | 74.5% | 0hPa | 2.6V | 08:03:33 | 02:45:58 | 00:00:00 | |
| IW2NTF | 2026-08-31 01:20:13 | 45.77517 | 9.87590 | 106° | 22km/h | 2037m | -9.8m/s | 12.6°C | 71.6% | 0hPa | 2.6V | 08:03:39 | 02:45:52 | 00:00:00 | |
| IW2NTF | 2026-08-31 01:20:07 | 45.77530 | 9.87549 | 121° | 22km/h | 2091m | -9.1m/s | 12.5°C | 63.4% | 0hPa | 2.6V | 08:03:45 | 02:45:46 | 00:00:00 | |
| IW2NTF | 2026-08-31 01:20:01 | 45.77546 | 9.87506 | 114° | 20km/h | 2142m | -9.9m/s | 12.2°C | 71% | 0hPa | 2.7V | 08:03:51 | 02:45:40 | 00:00:00 | |
| IW2NTF | 2026-08-31 01:19:55 | 45.77562 | 9.87462 | 122° | 24km/h | 2199m | -10.3m/s | 11.7°C | 75.4% | 0hPa | 2.7V | 08:03:57 | 02:45:34 | 00:00:00 | |
| IW2NTF | 2026-08-31 01:19:49 | 45.77577 | 9.87415 | 114° | 22km/h | 2258m | -9.8m/s | 11.1°C | 83% | 0hPa | 2.6V | 08:04:03 | 02:45:28 | 00:00:00 | |
| IW2NTF | 2026-08-31 01:19:43 | 45.77593 | 9.87367 | 108° | 27km/h | 2312m | -9.9m/s | 10.5°C | 90.1% | 0hPa | 2.6V | 08:04:09 | 02:45:22 | 00:00:00 | |
| IW2NTF | 2026-08-31 01:19:37 | 45.77608 | 9.87315 | 109° | 26km/h | 2363m | -8.8m/s | 10°C | 92.8% | 0hPa | 2.6V | 08:04:15 | 02:45:16 | 00:00:00 | |
| IW2NTF | 2026-08-31 01:19:31 | 45.77621 | 9.87264 | 105° | 24km/h | 2415m | -9.1m/s | 9.7°C | 93.6% | 0hPa | 2.6V | 08:04:21 | 02:45:10 | 00:00:00 | |
| IW2NTF | 2026-08-31 01:19:25 | 45.77632 | 9.87219 | 110° | 18km/h | 2473m | -9.4m/s | 9.4°C | 88.3% | 0hPa | 2.6V | 08:04:27 | 02:45:04 | 00:00:00 | |
| IW2NTF | 2026-08-31 01:19:20 | 45.77642 | 9.87176 | 103° | 20km/h | 2532m | -9.3m/s | 9°C | 88.4% | 0hPa | 2.6V | 08:04:33 | 02:44:58 | 00:00:00 | |
| IW2NTF | 2026-08-31 01:19:13 | 45.77652 | 9.87137 | 104° | 20km/h | 2587m | -10.4m/s | 8.7°C | 94.8% | 0hPa | 2.6V | 08:04:39 | 02:44:52 | 00:00:00 | |
| IW2NTF | 2026-08-31 01:19:07 | 45.77660 | 9.87098 | 110° | 20km/h | 2644m | -10.5m/s | 8.2°C | 96.7% | 0hPa | 2.6V | 08:04:45 | 02:44:46 | 00:00:00 | |
| IW2NTF | 2026-08-31 01:19:01 | 45.77665 | 9.87059 | 103° | 18km/h | 2705m | -10.5m/s | 7.9°C | 96.4% | 0hPa | 2.5V | 08:04:51 | 02:44:40 | 00:00:00 | |
| IW2NTF | 2026-08-31 01:18:55 | 45.77668 | 9.87020 | 92° | 16km/h | 2758m | -9m/s | 7.9°C | 88.5% | 0hPa | 2.5V | 08:04:57 | 02:44:34 | 00:00:00 | |
| IW2NTF | 2026-08-31 01:18:49 | 45.77666 | 9.86984 | 81° | 15km/h | 2811m | -9.8m/s | 8.2°C | 79.1% | 0hPa | 2.5V | 08:05:03 | 02:44:28 | 00:00:00 | |
| IW2NTF | 2026-08-31 01:18:43 | 45.77657 | 9.86952 | 63° | 18km/h | 2865m | -9.3m/s | 8.2°C | 76.6% | 0hPa | 2.5V | 08:05:09 | 02:44:22 | 00:00:00 | |
| IW2NTF | 2026-08-31 01:18:37 | 45.77646 | 9.86919 | 70° | 18km/h | 2920m | -9.1m/s | 8°C | 72.5% | 0hPa | 2.6V | 08:05:15 | 02:44:16 | 00:00:00 | |
| IW2NTF | 2026-08-31 01:18:31 | 45.77640 | 9.86883 | 80° | 16km/h | 2972m | -8.8m/s | 7.7°C | 70.3% | 0hPa | 2.6V | 08:05:21 | 02:44:10 | 00:00:00 | |
| IW2NTF | 2026-08-31 01:18:25 | 45.77635 | 9.86848 | 77° | 18km/h | 3030m | -10.8m/s | 7.4°C | 67.4% | 0hPa | 2.6V | 08:05:27 | 02:44:04 | 00:00:00 | |
| IW2NTF | 2026-08-31 01:18:19 | 45.77631 | 9.86811 | 78° | 18km/h | 3091m | -9m/s | 6.9°C | 67.5% | 0hPa | 2.6V | 08:05:33 | 02:43:58 | 00:00:00 | |
| IW2NTF | 2026-08-31 01:18:13 | 45.77628 | 9.86773 | 79° | 16km/h | 3142m | -9.9m/s | 6.5°C | 69.5% | 0hPa | 2.6V | 08:05:39 | 02:43:52 | 00:00:00 | |
| IW2NTF | 2026-08-31 01:18:07 | 45.77619 | 9.86734 | 68° | 20km/h | 3199m | -10.5m/s | 6°C | 73.9% | 0hPa | 2.6V | 08:05:45 | 02:43:46 | 00:00:00 | |
| IW2NTF | 2026-08-31 01:18:01 | 45.77608 | 9.86694 | 67° | 18km/h | 3254m | -9m/s | 5.5°C | 77.8% | 0hPa | 2.6V | 08:05:51 | 02:43:40 | 00:00:00 | |
| IW2NTF | 2026-08-31 01:17:55 | 45.77596 | 9.86646 | 67° | 26km/h | 3310m | -9.3m/s | 5.2°C | 80.6% | 0hPa | 2.6V | 08:05:57 | 02:43:34 | 00:00:00 | |
| IW2NTF | 2026-08-31 01:17:49 | 45.77581 | 9.86592 | 69° | 27km/h | 3368m | -9.9m/s | 4.7°C | 83.1% | 0hPa | 2.6V | 08:06:03 | 02:43:28 | 00:00:00 | |
| IW2NTF | 2026-08-31 01:17:41 | 45.77559 | 9.86518 | 62° | 29km/h | 3450m | -11m/s | 4.2°C | 81.6% | 0hPa | 2.5V | 08:06:11 | 02:43:20 | 00:00:00 | |
| IW2NTF | 2026-08-31 01:17:35 | 45.77541 | 9.86454 | 66° | 31km/h | 3514m | -11m/s | 3.7°C | 80.7% | 0hPa | 2.6V | 08:06:17 | 02:43:14 | 00:00:00 | |
| IW2NTF | 2026-08-31 01:17:29 | 45.77528 | 9.86390 | 77° | 31km/h | 3572m | -9.8m/s | 3.3°C | 83% | 0hPa | 2.6V | 08:06:23 | 02:43:08 | 00:00:00 | |
| IW2NTF | 2026-08-31 01:17:21 | 45.77517 | 9.86304 | 82° | 29km/h | 3645m | -10.1m/s | 2.6°C | 87.1% | 0hPa | 2.6V | 08:06:31 | 02:43:00 | 00:00:00 | |
| IW2NTF | 2026-08-31 01:17:15 | 45.77513 | 9.86236 | 84° | 29km/h | 3706m | -12.2m/s | 2.2°C | 84.9% | 0hPa | 2.6V | 08:06:37 | 02:42:54 | 00:00:00 | |
| IW2NTF | 2026-08-31 01:17:07 | 45.77512 | 9.86140 | 90° | 37km/h | 3788m | -9.5m/s | 1.5°C | 86.5% | 0hPa | 2.6V | 08:06:45 | 02:42:46 | 00:00:00 | |
| IW2NTF | 2026-08-31 01:17:01 | 45.77512 | 9.86064 | 86° | 37km/h | 3847m | -11.6m/s | 1.2°C | 75.9% | 0hPa | 2.5V | 08:06:51 | 02:42:40 | 00:00:00 | |
| IW2NTF | 2026-08-31 01:16:55 | 45.77509 | 9.85987 | 83° | 33km/h | 3911m | -12m/s | 0.8°C | 65.5% | 0hPa | 2.6V | 08:06:57 | 02:42:34 | 00:00:00 | |
| IW2NTF | 2026-08-31 01:16:49 | 45.77506 | 9.85911 | 87° | 33km/h | 3975m | -10.3m/s | 0.1°C | 85.4% | 0hPa | 2.6V | 08:07:03 | 02:42:28 | 00:00:00 | |
| IW2NTF | 2026-08-31 01:16:43 | 45.77499 | 9.85835 | 82° | 33km/h | 4041m | -11.9m/s | -0.5°C | 90.9% | 0hPa | 2.6V | 08:07:09 | 02:42:22 | 00:00:00 | |
| IW2NTF | 2026-08-31 01:16:38 | 45.77491 | 9.85756 | 77° | 37km/h | 4107m | -11.4m/s | -0.9°C | 91.7% | 0hPa | 2.6V | 08:07:15 | 02:42:16 | 00:00:00 | |
| IW2NTF | 2026-08-31 01:16:31 | 45.77481 | 9.85677 | 78° | 40km/h | 4172m | -11.9m/s | -1.3°C | 89% | 0hPa | 2.6V | 08:07:21 | 02:42:10 | 00:00:00 | |
| IW2NTF | 2026-08-31 01:16:25 | 45.77468 | 9.85598 | 77° | 38km/h | 4243m | -12.1m/s | -1.8°C | 85.9% | 0hPa | 2.6V | 08:07:27 | 02:42:04 | 00:00:00 | |
| IW2NTF | 2026-08-31 01:16:19 | 45.77453 | 9.85522 | 74° | 35km/h | 4307m | -11.7m/s | -2.3°C | 89.1% | 0hPa | 2.5V | 08:07:33 | 02:41:58 | 00:00:00 | |
| IW2NTF | 2026-08-31 01:16:13 | 45.77436 | 9.85449 | 68° | 38km/h | 4378m | -13.3m/s | -2.9°C | 85.3% | 0hPa | 2.5V | 08:07:39 | 02:41:52 | 00:00:00 | |
| IW2NTF | 2026-08-31 01:16:07 | 45.77416 | 9.85375 | 65° | 38km/h | 4450m | -12.8m/s | -3.5°C | 89.9% | 0hPa | 2.6V | 08:07:45 | 02:41:46 | 00:00:00 | |
| IW2NTF | 2026-08-31 01:16:01 | 45.77393 | 9.85303 | 60° | 35km/h | 4523m | -12.1m/s | -4.2°C | 97.7% | 0hPa | 2.6V | 08:07:51 | 02:41:40 | 00:00:00 | |
| IW2NTF | 2026-08-31 01:15:56 | 45.77367 | 9.85232 | 58° | 38km/h | 4593m | -10.8m/s | -4.8°C | 0% | 0hPa | 2.6V | 08:07:57 | 02:41:34 | 00:00:00 | |
| IW2NTF | 2026-08-31 01:15:49 | 45.77337 | 9.85162 | 56° | 40km/h | 4661m | -12.3m/s | -5.2°C | 99.6% | 0hPa | 2.6V | 08:08:03 | 02:41:28 | 00:00:00 | |
| IW2NTF | 2026-08-31 01:15:43 | 45.77305 | 9.85086 | 56° | 40km/h | 4728m | -12.2m/s | -5.7°C | 93% | 0hPa | 2.6V | 08:08:09 | 02:41:22 | 00:00:00 | |
| IW2NTF | 2026-08-31 01:15:37 | 45.77275 | 9.85007 | 61° | 44km/h | 4797m | -13.3m/s | -6.1°C | 84.3% | 0hPa | 2.6V | 08:08:15 | 02:41:16 | 00:00:00 | |
| IW2NTF | 2026-08-31 01:15:26 | 45.77250 | 9.84921 | 72° | 46km/h | 4867m | -12m/s | -5.6°C | 56.8% | 0hPa | 2.6V | 08:08:21 | 02:41:10 | 00:00:00 | |
| IW2NTF | 2026-08-31 01:15:26 | 45.77231 | 9.84825 | 70° | 47km/h | 4940m | -12.1m/s | -5.7°C | 55.3% | 0hPa | 2.5V | 08:08:27 | 02:41:04 | 00:00:00 | |
| IW2NTF | 2026-08-31 01:15:21 | 45.77208 | 9.84723 | 72° | 49km/h | 5016m | -13.8m/s | -5.8°C | 53.6% | 0hPa | 2.5V | 08:08:33 | 02:40:58 | 00:00:00 | |
| IW2NTF | 2026-08-31 01:15:09 | 45.77172 | 9.84538 | 72° | 51km/h | 5140m | -9.7m/s | -3.8°C | 3.5% | 0hPa | 2.6V | 08:08:43 | 02:40:48 | 00:00:00 | |
| IW2NTF | 2026-08-31 01:14:59 | 45.77134 | 9.84350 | 75° | 55km/h | 5229m | -9.2m/s | -4°C | 3.8% | 0hPa | 2.6V | 08:08:53 | 02:40:38 | 00:00:00 | |
| IW2NTF | 2026-08-31 01:14:50 | 45.77094 | 9.84152 | 73° | 58km/h | 5320m | -9.4m/s | -4.7°C | 30% | 0hPa | 2.5V | 08:09:03 | 02:40:28 | 00:00:00 | |
| IW2NTF | 2026-08-31 01:14:39 | 45.77057 | 9.83935 | 77° | 64km/h | 5412m | -9.3m/s | -5.4°C | 30.3% | 0hPa | 2.6V | 08:09:13 | 02:40:18 | 00:00:00 | |
| IW2NTF | 2026-08-31 01:14:29 | 45.77019 | 9.83704 | 75° | 68km/h | 5506m | -9.9m/s | -6.1°C | 32.3% | 0hPa | 2.6V | 08:09:23 | 02:40:08 | 00:00:00 | |
| IW2NTF | 2026-08-31 01:14:19 | 45.76982 | 9.83466 | 79° | 68km/h | 5603m | -9.7m/s | -7°C | 34.2% | 0hPa | 2.6V | 08:09:33 | 02:39:58 | 00:00:00 | |
| IW2NTF | 2026-08-31 01:14:09 | 45.76946 | 9.83222 | 77° | 69km/h | 5696m | -10.7m/s | -7.9°C | 35.8% | 0hPa | 2.5V | 08:09:43 | 02:39:48 | 00:00:00 | |
| IW2NTF | 2026-08-31 01:13:59 | 45.76914 | 9.82973 | 80° | 69km/h | 5810m | -13.1m/s | -8.8°C | 33.2% | 0hPa | 2.5V | 08:09:53 | 02:39:38 | 00:00:00 | |
| IW2NTF | 2026-08-31 01:13:49 | 45.76886 | 9.82731 | 78° | 66km/h | 5925m | -12.1m/s | -9.3°C | 26.9% | 0hPa | 2.6V | 08:10:03 | 02:39:28 | 00:00:00 | |
| IW2NTF | 2026-08-31 01:13:39 | 45.76852 | 9.82498 | 78° | 66km/h | 6041m | -9.5m/s | -10.1°C | 22.7% | 0hPa | 2.5V | 08:10:13 | 02:39:18 | 00:00:00 | |
| IW2NTF | 2026-08-31 01:13:29 | 45.76816 | 9.82271 | 76° | 68km/h | 6155m | -13.4m/s | -10.4°C | 23.6% | 0hPa | 2.6V | 08:10:23 | 02:39:08 | 00:00:00 | |
| IW2NTF | 2026-08-31 01:13:20 | 45.76775 | 9.82041 | 74° | 64km/h | 6272m | -12m/s | -11.5°C | 30.8% | 0hPa | 2.6V | 08:10:33 | 02:38:58 | 00:00:00 | |
| IW2NTF | 2026-08-31 01:13:09 | 45.76725 | 9.81815 | 70° | 68km/h | 6387m | -10.9m/s | -11.8°C | 20.7% | 0hPa | 2.5V | 08:10:43 | 02:38:48 | 00:00:00 | |
| IW2NTF | 2026-08-31 01:12:59 | 45.76671 | 9.81583 | 73° | 71km/h | 6508m | -13.4m/s | -12.1°C | 7.5% | 0hPa | 2.5V | 08:10:53 | 02:38:38 | 00:00:00 | |
| IW2NTF | 2026-08-31 01:12:49 | 45.76617 | 9.81341 | 71° | 68km/h | 6629m | -13.8m/s | -13.1°C | 7.8% | 0hPa | 2.5V | 08:11:03 | 02:38:28 | 00:00:00 | |
| IW2NTF | 2026-08-31 01:12:39 | 45.76561 | 9.81104 | 71° | 69km/h | 6765m | -13m/s | -14.2°C | 8% | 0hPa | 2.5V | 08:11:13 | 02:38:18 | 00:00:00 | |
| IW2NTF | 2026-08-31 01:12:29 | 45.76504 | 9.80860 | 72° | 75km/h | 6907m | -13.5m/s | -15.2°C | 9.5% | 0hPa | 2.5V | 08:11:23 | 02:38:08 | 00:00:00 | |
| IW2NTF | 2026-08-31 01:12:19 | 45.76451 | 9.80612 | 74° | 71km/h | 7042m | -14.1m/s | -16.1°C | 10.4% | 0hPa | 2.5V | 08:11:33 | 02:37:58 | 00:00:00 | |
| IW2NTF | 2026-08-31 01:12:09 | 45.76397 | 9.80361 | 72° | 75km/h | 7179m | -13.4m/s | -17.3°C | 10.2% | 0hPa | 2.6V | 08:11:43 | 02:37:48 | 00:00:00 | |
| IW2NTF | 2026-08-31 01:11:59 | 45.76340 | 9.80112 | 71° | 75km/h | 7311m | -14.7m/s | -18.4°C | 11.9% | 0hPa | 2.6V | 08:11:53 | 02:37:38 | 00:00:00 | |
| IW2NTF | 2026-08-31 01:11:50 | 45.76289 | 9.79849 | 76° | 78km/h | 7447m | -14.6m/s | -19.6°C | 11.8% | 0hPa | 2.5V | 08:12:03 | 02:37:28 | 00:00:00 | |
| IW2NTF | 2026-08-31 01:11:34 | 45.76239 | 9.79565 | 75° | 80km/h | 7587m | -16.1m/s | -20.4°C | 8.6% | 0hPa | 2.5V | 08:12:13 | 02:37:18 | 00:00:00 | |
| IW2NTF | 2026-08-31 01:11:29 | 45.76188 | 9.79265 | 77° | 86km/h | 7737m | -14.1m/s | -21.5°C | 10.9% | 0hPa | 2.6V | 08:12:23 | 02:37:08 | 00:00:00 | |
| IW2NTF | 2026-08-31 01:11:19 | 45.76137 | 9.78953 | 76° | 89km/h | 7872m | -13.2m/s | -22.4°C | 9.7% | 0hPa | 2.5V | 08:12:33 | 02:36:58 | 00:00:00 | |
| IW2NTF | 2026-08-31 01:11:09 | 45.76083 | 9.78626 | 76° | 97km/h | 8013m | -14.3m/s | -22.7°C | 7% | 0hPa | 2.5V | 08:12:43 | 02:36:48 | 00:00:00 | |
| IW2NTF | 2026-08-31 01:10:59 | 45.76027 | 9.78279 | 77° | 104km/h | 8155m | -14.2m/s | -23.8°C | 9.4% | 0hPa | 2.5V | 08:12:53 | 02:36:38 | 00:00:00 | |
| IW2NTF | 2026-08-31 01:10:49 | 45.75967 | 9.77927 | 75° | 100km/h | 8298m | -12.8m/s | -24.7°C | 16.9% | 0hPa | 2.6V | 08:13:03 | 02:36:28 | 00:00:00 | |
| IW2NTF | 2026-08-31 01:10:37 | 45.75895 | 9.77513 | 77° | 97km/h | 8454m | -13.5m/s | -26.1°C | 23.8% | 0hPa | 2.5V | 08:13:15 | 02:36:16 | 00:00:00 | |
| IW2NTF | 2026-08-31 01:10:21 | 45.75806 | 9.76964 | 75° | 97km/h | 8671m | -14.4m/s | -28.3°C | 31.6% | 0hPa | 2.5V | 08:13:31 | 02:36:00 | 00:00:00 | |
| IW2NTF | 2026-08-31 01:10:11 | 45.75739 | 9.76609 | 75° | 102km/h | 8802m | -12.3m/s | -29.1°C | 24.9% | 0hPa | 2.5V | 08:13:41 | 02:35:50 | 00:00:00 | |
| IW2NTF | 2026-08-31 01:10:00 | 45.75669 | 9.76245 | 73° | 106km/h | 8933m | -13.4m/s | -30°C | 23.5% | 0hPa | 2.5V | 08:13:51 | 02:35:40 | 00:00:00 | |
| IW2NTF | 2026-08-31 01:09:50 | 45.75597 | 9.75880 | 72° | 102km/h | 9063m | -14.5m/s | -31.1°C | 25.3% | 0hPa | 2.5V | 08:14:01 | 02:35:30 | 00:00:00 | |
| DO3MHA-11 | 2026-08-31 01:09:41 | 45.75558 | 9.75701 | 73° | 102km/h | 9133m | -14.3m/s | -31.6°C | 25.7% | 0hPa | 2.5V | 08:14:00 | 02:35:25 | 00:00:00 | |
| IW2NTF | 2026-08-31 01:09:38 | 45.75518 | 9.75524 | 71° | 104km/h | 9208m | -14.2m/s | -32.2°C | 24.8% | 0hPa | 2.6V | 08:14:11 | 02:35:20 | 00:00:00 | |
| DO3MHA-11 | 2026-08-31 01:09:30 | 45.75471 | 9.75314 | 72° | 100km/h | 9294m | -14.4m/s | -33.0°C | 24.7% | 0hPa | 2.5V | 00:00:00 | 02:35:14 | 00:00:00 | |
| IW2NTF | 2026-08-31 01:09:28 | 45.75441 | 9.75174 | 73° | 100km/h | 9345m | -15.1m/s | -33.4°C | 24.3% | 0hPa | 2.5V | 08:14:21 | 02:35:10 | 00:00:00 | |
| DO3MHA-11 | 2026-08-31 01:09:20 | 45.75399 | 9.74967 | 76° | 106km/h | 9434m | -15.5m/s | -34.1°C | 22.8% | 0hPa | 2.5V | 00:00:00 | 02:35:04 | 00:00:00 | |
| IW2NTF | 2026-08-31 01:09:18 | 45.75373 | 9.74823 | 74° | 102km/h | 9491m | -14.8m/s | -34.6°C | 22.7% | 0hPa | 2.5V | 08:14:31 | 02:35:00 | 00:00:00 | |
| DO3MHA-11 | 2026-08-31 01:09:09 | 45.75330 | 9.74561 | 79° | 113km/h | 9594m | -16.1m/s | -35.3°C | 22.0% | 0hPa | 2.5V | 00:00:00 | 02:34:53 | 00:00:00 | |
| IW2NTF | 2026-08-31 01:09:08 | 45.75312 | 9.74442 | 78° | 115km/h | 9640m | -15.9m/s | -35.6°C | 21% | 0hPa | 2.5V | 08:14:41 | 02:34:50 | 00:00:00 | |
| DO3MHA-11 | 2026-08-31 01:08:59 | 45.75271 | 9.74156 | 76° | 115km/h | 9744m | -16.7m/s | -36.1°C | 19.5% | 0hPa | 2.6V | 00:00:00 | 02:34:43 | 00:00:00 | |
| IW2NTF | 2026-08-31 01:08:58 | 45.75250 | 9.74033 | 75° | 113km/h | 9791m | -15.8m/s | -36.5°C | 20.1% | 0hPa | 2.6V | 08:14:51 | 02:34:40 | 00:00:00 | |
| DO3MHA-11 | 2026-08-31 01:08:49 | 45.75203 | 9.73751 | 77° | 117km/h | 9896m | -15.9m/s | -37.4°C | 22.4% | 0hPa | 2.6V | 00:00:00 | 02:34:33 | 00:00:00 | |
| IW2NTF | 2026-08-31 01:08:48 | 45.75184 | 9.73629 | 78° | 117km/h | 9942m | -17m/s | -37.9°C | 22.8% | 0hPa | 2.6V | 08:15:01 | 02:34:30 | 00:00:00 | |
| DO3MHA-11 | 2026-08-31 01:08:39 | 45.75145 | 9.73341 | 81° | 119km/h | 10051m | -15.5m/s | -38.8°C | 23.5% | 0hPa | 2.5V | 00:00:00 | 02:34:23 | 00:00:00 | |
| IW2NTF | 2026-08-31 01:08:38 | 45.75131 | 9.73216 | 79° | 117km/h | 10097m | -16.4m/s | -39.2°C | 23.4% | 0hPa | 2.5V | 08:15:11 | 02:34:20 | 00:00:00 | |
| DO3MHA-11 | 2026-08-31 01:08:29 | 45.75096 | 9.72920 | 82° | 117km/h | 10211m | -17.7m/s | -40.0°C | 24.5% | 0hPa | 2.5V | 00:00:00 | 02:34:13 | 00:00:00 | |
| IW2NTF | 2026-08-31 01:08:28 | 45.75082 | 9.72794 | 80° | 115km/h | 10257m | -15m/s | -40.5°C | 26.3% | 0hPa | 2.5V | 08:15:21 | 02:34:10 | 00:00:00 | |
| DO3MHA-11 | 2026-08-31 01:08:19 | 45.75049 | 9.72499 | 81° | 117km/h | 10363m | -15.0m/s | -41.5°C | 27.5% | 0hPa | 2.5V | 00:00:00 | 02:34:03 | 00:00:00 | |
| IW2NTF | 2026-08-31 01:08:18 | 45.75035 | 9.72375 | 81° | 115km/h | 10407m | -16.7m/s | -41.9°C | 27% | 0hPa | 2.5V | 08:15:31 | 02:34:00 | 00:00:00 | |
| DO3MHA-11 | 2026-08-31 01:08:09 | 45.75004 | 9.72082 | 81° | 119km/h | 10520m | -15.0m/s | -42.8°C | 31.1% | 0hPa | 2.5V | 08:15:00 | 02:33:53 | 00:00:00 | |
| IW2NTF | 2026-08-31 01:08:08 | 45.74990 | 9.71955 | 81° | 120km/h | 10564m | -15.3m/s | -43.3°C | 32.7% | 0hPa | 2.5V | 08:15:41 | 02:33:50 | 00:00:00 | |
| DO3MHA-11 | 2026-08-31 01:07:59 | 45.74960 | 9.71657 | 82° | 120km/h | 10675m | -13.8m/s | -44.2°C | 40.2% | 0hPa | 2.6V | 00:00:00 | 02:33:43 | 00:00:00 | |
| IW2NTF | 2026-08-31 01:07:58 | 45.74947 | 9.71526 | 83° | 122km/h | 10717m | -14.9m/s | -44.6°C | 41.9% | 0hPa | 2.6V | 08:15:51 | 02:33:40 | 00:00:00 | |
| DO3MHA-11 | 2026-08-31 01:07:49 | 45.74921 | 9.71223 | 84° | 120km/h | 10831m | -17.3m/s | -45.5°C | 43.0% | 0hPa | 2.5V | 00:00:00 | 02:33:33 | 00:00:00 | |
| IW2NTF | 2026-08-31 01:07:48 | 45.74909 | 9.71093 | 82° | 119km/h | 10881m | -16m/s | -45.9°C | 44.2% | 0hPa | 2.5V | 08:16:01 | 02:33:30 | 00:00:00 | |
| DB0UT-7 | 2026-08-31 01:07:48 | 45.74917 | 9.71180 | 82° | 124km/h | 10848m | -16.3m/s | -45.6°C | 43.4% | 0hPa | 2.6V | 00:00:00 | 00:00:00 | 00:00:00 | |
| DO3MHA-11 | 2026-08-31 01:07:39 | 45.74878 | 9.70788 | 83° | 122km/h | 10995m | -16.9m/s | -46.9°C | 46.3% | 0hPa | 2.6V | 00:00:00 | 02:33:23 | 00:00:00 | |
| IW2NTF | 2026-08-31 01:07:38 | 45.74864 | 9.70657 | 82° | 122km/h | 11043m | -15.4m/s | -47.4°C | 47% | 0hPa | 2.5V | 08:16:11 | 02:33:20 | 00:00:00 | |
| DO3MHA-11 | 2026-08-31 01:07:29 | 45.74831 | 9.70348 | 82° | 128km/h | 11160m | -17.2m/s | -48.2°C | 47.1% | 0hPa | 2.5V | 00:00:00 | 02:33:13 | 00:00:00 | |
| IW2NTF | 2026-08-31 01:07:28 | 45.74818 | 9.70211 | 83° | 130km/h | 11212m | -17.7m/s | -48.7°C | 47.1% | 0hPa | 2.5V | 08:16:21 | 02:33:10 | 00:00:00 | |
| DO3MHA-11 | 2026-08-31 01:07:19 | 45.74794 | 9.69888 | 84° | 131km/h | 11335m | -17.0m/s | -49.6°C | 48.3% | 0hPa | 2.6V | 00:00:00 | 02:33:03 | 00:00:00 | |
| IW2NTF | 2026-08-31 01:07:18 | 45.74783 | 9.69748 | 84° | 133km/h | 11381m | -14.2m/s | -50°C | 49% | 0hPa | 2.6V | 08:16:31 | 02:33:00 | 00:00:00 | |
| DB0UT-7 | 2026-08-31 01:07:17 | 45.74787 | 9.69795 | 84° | 130km/h | 11366m | -15.5m/s | -49.9°C | 49.0% | 0hPa | 2.6V | 00:00:00 | 02:33:01 | 00:00:00 | |
| DO3MHA-11 | 2026-08-31 01:07:09 | 45.74759 | 9.69417 | 84° | 131km/h | 11506m | -18.4m/s | -50.8°C | 50.1% | 0hPa | 2.5V | 00:00:00 | 02:32:53 | 00:00:00 | |
| IW2NTF | 2026-08-31 01:07:08 | 45.74748 | 9.69275 | 83° | 130km/h | 11562m | -18m/s | -51.3°C | 51% | 0hPa | 2.6V | 08:16:41 | 02:32:50 | 00:00:00 | |
| DO3MHA-11 | 2026-08-31 01:06:59 | 45.74723 | 9.68945 | 84° | 130km/h | 11681m | -16.0m/s | -52.2°C | 52.4% | 0hPa | 2.5V | 00:00:00 | 02:32:43 | 00:00:00 | |
| IW2NTF | 2026-08-31 01:06:58 | 45.74712 | 9.68806 | 83° | 128km/h | 11731m | -17.2m/s | -52.6°C | 51.7% | 0hPa | 2.5V | 08:16:51 | 02:32:40 | 00:00:00 | |
| DO3MHA-11 | 2026-08-31 01:06:49 | 45.74689 | 9.68480 | 85° | 130km/h | 11838m | -15.4m/s | -53.4°C | 54.7% | 0hPa | 2.5V | 00:00:00 | 02:32:33 | 00:00:00 | |
| IW2NTF | 2026-08-31 01:06:48 | 45.74680 | 9.68339 | 85° | 131km/h | 11883m | -16.3m/s | -53.8°C | 55.9% | 0hPa | 2.5V | 08:17:01 | 02:32:30 | 00:00:00 | |
| DB0UT-7 | 2026-08-31 01:06:47 | 45.74682 | 9.68387 | 85° | 133km/h | 11869m | -14.4m/s | -53.7°C | 55.8% | 0hPa | 2.5V | 00:00:00 | 00:00:00 | 00:00:00 | |
| DO3MHA-11 | 2026-08-31 01:06:39 | 45.74662 | 9.68010 | 88° | 131km/h | 12008m | -17.9m/s | -54.9°C | 58.3% | 0hPa | 2.5V | 08:17:00 | 02:32:23 | 00:00:00 | |
| IW2NTF | 2026-08-31 01:06:37 | 45.74656 | 9.67868 | 87° | 130km/h | 12061m | -17m/s | -55.4°C | 58.7% | 0hPa | 2.5V | 08:17:11 | 02:32:20 | 00:00:00 | |
| DO3MHA-11 | 2026-08-31 01:06:29 | 45.74643 | 9.67535 | 86° | 133km/h | 12183m | -16.9m/s | -56.4°C | 56.9% | 0hPa | 2.5V | 00:00:00 | 02:32:13 | 00:00:00 | |
| IW2NTF | 2026-08-31 01:06:25 | 45.74618 | 9.67100 | 85° | 137km/h | 12347m | -16.2m/s | -57.5°C | 53.5% | 0hPa | 2.5V | 08:17:27 | 02:32:04 | 00:00:00 | |
| DO3MHA-11 | 2026-08-31 01:06:19 | 45.74615 | 9.67051 | 86° | 135km/h | 12363m | -16.7m/s | -57.6°C | 53.2% | 0hPa | 2.6V | 00:00:00 | 02:32:03 | 00:00:00 | |
| DB0UT-7 | 2026-08-31 01:06:17 | 45.74608 | 9.66954 | 85° | 130km/h | 12395m | -14.7m/s | -57.8°C | 52.5% | 0hPa | 2.6V | 00:00:00 | 02:32:01 | 00:00:00 | |
| IW2NTF | 2026-08-31 01:06:15 | 45.74585 | 9.66615 | 83° | 135km/h | 12516m | -17.3m/s | -58.6°C | 48.8% | 0hPa | 2.6V | 08:17:37 | 02:31:54 | 00:00:00 | |
| DO3MHA-11 | 2026-08-31 01:06:09 | 45.74581 | 9.66566 | 84° | 135km/h | 12534m | -18.3m/s | -58.7°C | 47.6% | 0hPa | 2.5V | 00:00:00 | 02:31:53 | 00:00:00 | |
| IW2NTF | 2026-08-31 01:06:05 | 45.74545 | 9.66128 | 83° | 133km/h | 12700m | -17.9m/s | -59.9°C | 37.6% | 0hPa | 2.6V | 08:17:47 | 02:31:44 | 00:00:00 | |
| DO3MHA-11 | 2026-08-31 01:05:59 | 45.74541 | 9.66080 | 85° | 124km/h | 12719m | -18.4m/s | -59.9°C | 36.2% | 0hPa | 2.5V | 00:00:00 | 02:31:43 | 00:00:00 | |
| IW2NTF | 2026-08-31 01:05:55 | 45.74511 | 9.65678 | 83° | 119km/h | 12880m | -19m/s | -59.7°C | 31.2% | 0hPa | 2.5V | 08:17:57 | 02:31:34 | 00:00:00 | |
| NBG1-10 | 2026-08-31 01:05:55 | 45.74526 | 9.65897 | 86° | 113km/h | 12791m | -17.4m/s | -59.8°C | 33.6% | 0hPa | 2.5V | 00:00:00 | 02:31:39 | 00:00:00 | |
| DO3MHA-11 | 2026-08-31 01:05:49 | 45.74507 | 9.65635 | 84° | 117km/h | 12900m | -19.5m/s | -59.8°C | 31.2% | 0hPa | 2.5V | 00:00:00 | 02:31:33 | 00:00:00 | |
| DB0UT-7 | 2026-08-31 01:05:47 | 45.74501 | 9.65549 | 84° | 110km/h | 12937m | -19.1m/s | -60.1°C | 31.1% | 0hPa | 2.5V | 08:18:00 | 00:00:00 | 00:00:00 | |
| IW2NTF | 2026-08-31 01:05:45 | 45.74478 | 9.65260 | 82° | 119km/h | 13079m | -20.3m/s | -60.6°C | 28.5% | 0hPa | 2.5V | 08:18:07 | 02:31:24 | 00:00:00 | |
| DO3MHA-11 | 2026-08-31 01:05:39 | 45.74473 | 9.65217 | 83° | 113km/h | 13100m | -20.4m/s | -60.6°C | 28.1% | 0hPa | 2.5V | 00:00:00 | 02:31:23 | 00:00:00 | |
| IW2NTF | 2026-08-31 01:05:36 | 45.74432 | 9.64856 | 79° | 111km/h | 13275m | -15m/s | -61.4°C | 26% | 0hPa | 2.6V | 08:18:17 | 02:31:14 | 00:00:00 | |
| DO3MHA-11 | 2026-08-31 01:05:29 | 45.74427 | 9.64817 | 80° | 106km/h | 13290m | -15.0m/s | -61.3°C | 25.4% | 0hPa | 2.5V | 00:00:00 | 02:31:13 | 00:00:00 | |
| IW2NTF | 2026-08-31 01:05:25 | 45.74376 | 9.64485 | 76° | 100km/h | 13461m | -20.9m/s | -60.7°C | 19.3% | 0hPa | 2.5V | 08:18:27 | 02:31:04 | 00:00:00 | |
| NBG1-10 | 2026-08-31 01:05:21 | 45.74382 | 9.64521 | 77° | 102km/h | 13440m | -20.1m/s | -60.8°C | 20.0% | 0hPa | 2.6V | 00:00:00 | 02:31:05 | 00:00:00 | |
| DO3MHA-11 | 2026-08-31 01:05:19 | 45.74370 | 9.64450 | 77° | 99km/h | 13482m | -22.1m/s | -60.7°C | 18.9% | 0hPa | 2.5V | 00:00:00 | 02:31:03 | 00:00:00 | |
| DB0UT-7 | 2026-08-31 01:05:17 | 45.74358 | 9.64382 | 76° | 102km/h | 13524m | -21.3m/s | -60.7°C | 18.0% | 0hPa | 2.5V | 00:00:00 | 02:31:01 | 00:00:00 | |
| IW2NTF | 2026-08-31 01:05:15 | 45.74319 | 9.64141 | 76° | 100km/h | 13651m | -16.5m/s | -61.4°C | 16.7% | 0hPa | 2.5V | 08:18:37 | 02:30:54 | 00:00:00 | |
| DO3MHA-11 | 2026-08-31 01:05:09 | 45.74314 | 9.64106 | 78° | 102km/h | 13668m | -17.0m/s | -61.4°C | 16.6% | 0hPa | 2.5V | 08:18:00 | 02:30:53 | 00:00:00 | |
| IW2NTF | 2026-08-31 01:05:01 | 45.74263 | 9.63784 | 76° | 108km/h | 13822m | -18.6m/s | -61.8°C | 15.4% | 0hPa | 2.5V | 08:18:47 | 02:30:44 | 00:00:00 | |
| DO3MHA-11 | 2026-08-31 01:04:59 | 45.74257 | 9.63746 | 77° | 106km/h | 13842m | -21.2m/s | -61.8°C | 15.2% | 0hPa | 2.6V | 00:00:00 | 02:30:43 | 00:00:00 | |
| IW2NTF | 2026-08-31 01:04:55 | 45.74210 | 9.63410 | 81° | 104km/h | 14034m | -21.9m/s | -62.4°C | 13.8% | 0hPa | 2.6V | 08:18:57 | 02:30:34 | 00:00:00 | |
| DO3MHA-11 | 2026-08-31 01:04:49 | 45.74206 | 9.63373 | 83° | 97km/h | 14056m | -22.3m/s | -62.4°C | 13.7% | 0hPa | 2.5V | 00:00:00 | 02:30:33 | 00:00:00 | |
| NBG1-10 | 2026-08-31 01:04:48 | 45.74203 | 9.63337 | 84° | 88km/h | 14077m | -22.1m/s | -62.6°C | 13.5% | 0hPa | 2.5V | 00:00:00 | 02:30:32 | 00:00:00 | |
| DB0UT-7 | 2026-08-31 01:04:47 | 45.74201 | 9.63302 | 83° | 88km/h | 14099m | -22.0m/s | -62.7°C | 13.5% | 0hPa | 2.5V | 00:00:00 | 00:00:00 | 00:00:00 | |
| IW2NTF | 2026-08-31 01:04:45 | 45.74180 | 9.63060 | 84° | 93km/h | 14240m | -18.7m/s | -63.1°C | 12.6% | 0hPa | 2.5V | 08:19:07 | 02:30:24 | 00:00:00 | |
| DO3MHA-11 | 2026-08-31 01:04:39 | 45.74178 | 9.63027 | 85° | 86km/h | 14259m | -19.7m/s | -62.8°C | 12.2% | 0hPa | 2.5V | 00:00:00 | 02:30:23 | 00:00:00 | |
| IW2NTF | 2026-08-31 01:04:35 | 45.74149 | 9.62752 | 80° | 82km/h | 14441m | -22m/s | -61.8°C | 9.7% | 0hPa | 2.6V | 08:19:17 | 02:30:14 | 00:00:00 | |
| DO3MHA-11 | 2026-08-31 01:04:29 | 45.74145 | 9.62722 | 82° | 84km/h | 14463m | -21.3m/s | -61.7°C | 9.8% | 0hPa | 2.5V | 00:00:00 | 02:30:13 | 00:00:00 | |
| IW2NTF | 2026-08-31 01:04:25 | 45.74112 | 9.62456 | 79° | 82km/h | 14632m | -18.5m/s | -60.8°C | 8.4% | 0hPa | 2.5V | 08:19:27 | 02:30:04 | 00:00:00 | |
| DO3MHA-11 | 2026-08-31 01:04:19 | 45.74108 | 9.62427 | 78° | 80km/h | 14651m | -19.8m/s | -60.7°C | 8.4% | 0hPa | 2.6V | 00:00:00 | 02:30:03 | 00:00:00 | |
| DB0UT-7 | 2026-08-31 01:04:17 | 45.74098 | 9.62369 | 77° | 73km/h | 14691m | -20.9m/s | -60.5°C | 8.1% | 0hPa | 2.6V | 00:00:00 | 02:30:01 | 00:00:00 | |
| IW2NTF | 2026-08-31 01:04:15 | 45.74062 | 9.62175 | 75° | 75km/h | 14833m | -21.3m/s | -60°C | 7.8% | 0hPa | 2.6V | 08:19:37 | 02:29:54 | 00:00:00 | |
| NBG1-10 | 2026-08-31 01:04:15 | 45.74088 | 9.62312 | 73° | 84km/h | 14732m | -20.3m/s | -60.6°C | 8.3% | 0hPa | 2.6V | 00:00:00 | 02:29:59 | 00:00:00 | |
| DO3MHA-11 | 2026-08-31 01:04:09 | 45.74057 | 9.62148 | 77° | 71km/h | 14854m | -20.2m/s | -59.8°C | 7.6% | 0hPa | 2.6V | 00:00:00 | 02:29:53 | 00:00:00 | |
| IW2NTF | 2026-08-31 01:04:05 | 45.74020 | 9.61921 | 71° | 71km/h | 15031m | -20.4m/s | -60.4°C | 7.5% | 0hPa | 2.5V | 08:19:47 | 02:29:44 | 00:00:00 | |
| DO3MHA-11 | 2026-08-31 01:03:59 | 45.74014 | 9.61897 | 73° | 69km/h | 15051m | -19.8m/s | -60.5°C | 7.6% | 0hPa | 2.5V | 00:00:00 | 02:29:43 | 00:00:00 | |
| IW2NTF | 2026-08-31 01:03:55 | 45.73956 | 9.61688 | 65° | 69km/h | 15217m | -21.3m/s | -60°C | 7.1% | 0hPa | 2.5V | 08:19:57 | 02:29:34 | 00:00:00 | |
| DO3MHA-11 | 2026-08-31 01:03:49 | 45.73948 | 9.61664 | 65° | 77km/h | 15239m | -21.5m/s | -60.0°C | 7.1% | 0hPa | 2.5V | 00:00:00 | 02:29:33 | 00:00:00 | |
| DB0UT-7 | 2026-08-31 01:03:47 | 45.73931 | 9.61615 | 66° | 75km/h | 15285m | -23.0m/s | -60.2°C | 7.1% | 0hPa | 2.5V | 00:00:00 | 00:00:00 | 00:00:00 | |
| IW2NTF | 2026-08-31 01:03:45 | 45.73880 | 9.61436 | 69° | 80km/h | 15432m | -21.4m/s | -60.8°C | 7.4% | 0hPa | 2.5V | 08:20:07 | 02:29:24 | 00:00:00 | |
| DO3MHA-11 | 2026-08-31 01:03:39 | 45.73873 | 9.61410 | 70° | 73km/h | 15454m | -21.3m/s | -60.8°C | 7.5% | 0hPa | 2.6V | 08:20:00 | 02:29:23 | 00:00:00 | |
| IW2NTF | 2026-08-31 01:03:36 | 45.73804 | 9.61194 | 58° | 66km/h | 15655m | -23.6m/s | -61.1°C | 7.3% | 0hPa | 2.5V | 08:20:17 | 02:29:14 | 00:00:00 | |
| DO3MHA-11 | 2026-08-31 01:03:29 | 45.73795 | 9.61173 | 58° | 71km/h | 15678m | -23.7m/s | -61.0°C | 7.1% | 0hPa | 2.6V | 00:00:00 | 02:29:13 | 00:00:00 | |
| IW2NTF | 2026-08-31 01:03:25 | 45.73713 | 9.60970 | 63° | 77km/h | 15882m | -22.8m/s | -61°C | 6.9% | 0hPa | 2.6V | 08:20:27 | 02:29:04 | 00:00:00 | |
| DO3MHA-11 | 2026-08-31 01:03:19 | 45.73704 | 9.60945 | 64° | 84km/h | 15905m | -23.4m/s | -61.0°C | 6.9% | 0hPa | 2.6V | 00:00:00 | 02:29:03 | 00:00:00 | |
| DB0UT-7 | 2026-08-31 01:03:17 | 45.73687 | 9.60891 | 66° | 71km/h | 15948m | -19.7m/s | -61.2°C | 7.2% | 0hPa | 2.6V | 00:00:00 | 02:29:01 | 00:00:00 | |
| IW2NTF | 2026-08-31 01:03:15 | 45.73638 | 9.60685 | 75° | 86km/h | 16079m | -21.4m/s | -59.9°C | 6.3% | 0hPa | 2.6V | 08:20:37 | 02:28:54 | 00:00:00 | |
| DO3MHA-11 | 2026-08-31 01:03:09 | 45.73632 | 9.60654 | 78° | 84km/h | 16100m | -20.1m/s | -60.0°C | 6.4% | 0hPa | 2.5V | 00:00:00 | 02:28:53 | 00:00:00 | |
| IW2NTF | 2026-08-31 01:03:05 | 45.73618 | 9.60380 | 93° | 77km/h | 16292m | -24.2m/s | -59.3°C | 5.9% | 0hPa | 2.6V | 08:20:47 | 02:28:44 | 00:00:00 | |
| DO3MHA-11 | 2026-08-31 01:02:59 | 45.73619 | 9.60353 | 95° | 64km/h | 16317m | -24.2m/s | -59.3°C | 5.9% | 0hPa | 2.5V | 00:00:00 | 02:28:43 | 00:00:00 | |
| IW2NTF | 2026-08-31 01:02:55 | 45.73642 | 9.60148 | 99° | 51km/h | 16534m | -21.9m/s | -59.3°C | 5.8% | 0hPa | 2.5V | 08:20:57 | 02:28:34 | 00:00:00 | |
| DO3MHA-11 | 2026-08-31 01:02:49 | 45.73645 | 9.60130 | 104° | 38km/h | 16557m | -24.4m/s | -59.2°C | 5.8% | 0hPa | 2.6V | 00:00:00 | 02:28:33 | 00:00:00 | |
| DB0UT-7 | 2026-08-31 01:02:47 | 45.73651 | 9.60099 | 101° | 33km/h | 16605m | -23.1m/s | -58.6°C | 5.5% | 0hPa | 2.6V | 00:00:00 | 00:00:00 | 00:00:00 | |
| IW2NTF | 2026-08-31 01:02:44 | 45.73662 | 9.60009 | 93° | 29km/h | 16771m | -24.9m/s | -58.3°C | 5.4% | 0hPa | 2.5V | 08:21:07 | 02:28:24 | 00:00:00 | |
| DO3MHA-11 | 2026-08-31 01:02:39 | 45.73662 | 9.59999 | 91° | 24km/h | 16795m | -24.2m/s | -58.4°C | 5.4% | 0hPa | 2.5V | 00:00:00 | 02:28:23 | 00:00:00 | |
| IW2NTF | 2026-08-31 01:02:34 | 45.73649 | 9.59925 | 51° | 26km/h | 17006m | -24.7m/s | -58.8°C | 5.8% | 0hPa | 2.5V | 08:21:17 | 02:28:14 | 00:00:00 | |
| DO3MHA-11 | 2026-08-31 01:02:29 | 45.73645 | 9.59917 | 55° | 37km/h | 17030m | -23.9m/s | -58.5°C | 5.6% | 0hPa | 2.5V | 00:00:00 | 02:28:13 | 00:00:00 | |
| NBG1-10 | 2026-08-31 01:02:26 | 45.73630 | 9.59891 | 48° | 42km/h | 17101m | -24.3m/s | -58.1°C | 5.4% | 0hPa | 2.5V | 00:00:00 | 02:28:10 | 00:00:00 | |
| IW2NTF | 2026-08-31 01:02:24 | 45.73591 | 9.59827 | 52° | 44km/h | 17243m | -21.9m/s | -57.7°C | 5.4% | 0hPa | 2.5V | 08:21:27 | 02:28:04 | 00:00:00 | |
| DO3MHA-11 | 2026-08-31 01:02:19 | 45.73584 | 9.59816 | 49° | 47km/h | 17265m | -20.8m/s | -57.7°C | 5.4% | 0hPa | 2.5V | 00:00:00 | 02:28:03 | 00:00:00 | |
| DB0UT-7 | 2026-08-31 01:02:17 | 45.73571 | 9.59792 | 56° | 38km/h | 17306m | -19.5m/s | -57.5°C | 5.5% | 0hPa | 2.5V | 00:00:00 | 02:28:01 | 00:00:00 | |
| IW2NTF | 2026-08-31 01:02:14 | 45.73519 | 9.59696 | 53° | 53km/h | 17465m | -24.9m/s | -56.5°C | 4.9% | 0hPa | 2.5V | 08:21:37 | 02:27:54 | 00:00:00 | |
| OE5DRO-10 | 2026-08-31 01:02:11 | 45.73527 | 9.59711 | 53° | 35km/h | 17440m | -24.6m/s | -56.4°C | 4.9% | 0hPa | 2.5V | 08:21:00 | 00:00:00 | 00:00:00 | |
| DO3MHA-11 | 2026-08-31 01:02:09 | 45.73511 | 9.59681 | 55° | 46km/h | 17491m | -24.9m/s | -56.4°C | 4.9% | 0hPa | 2.5V | 08:21:00 | 02:27:53 | 00:00:00 | |
| IW2NTF | 2026-08-31 01:02:04 | 45.73458 | 9.59555 | 63° | 35km/h | 17699m | -22.7m/s | -56.3°C | 4.8% | 0hPa | 2.5V | 08:21:47 | 02:27:44 | 00:00:00 | |
| DO3MHA-11 | 2026-08-31 01:01:59 | 45.73455 | 9.59543 | 67° | 26km/h | 17723m | -23.1m/s | -56.1°C | 4.7% | 0hPa | 2.5V | 00:00:00 | 02:27:43 | 00:00:00 | |
| IW2NTF | 2026-08-31 01:01:54 | 45.73428 | 9.59470 | 44° | 22km/h | 17901m | -19.7m/s | -55.8°C | 4.6% | 0hPa | 2.5V | 08:21:57 | 02:27:34 | 00:00:00 | |
| NBG1-10 | 2026-08-31 01:01:53 | 45.73437 | 9.59488 | 60° | 26km/h | 17844m | -19.3m/s | -56.0°C | 4.7% | 0hPa | 2.5V | 00:00:00 | 02:27:37 | 00:00:00 | |
| OE5DRO-10 | 2026-08-31 01:01:50 | 45.73427 | 9.59469 | 45° | 26km/h | 17901m | -19.6m/s | -55.7°C | 4.6% | 0hPa | 2.5V | 00:00:00 | 00:00:00 | 00:00:00 | |
| DO3MHA-11 | 2026-08-31 01:01:49 | 45.73424 | 9.59463 | 55° | 22km/h | 17920m | -18.8m/s | -55.5°C | 4.6% | 0hPa | 2.5V | 00:00:00 | 02:27:33 | 00:00:00 | |
| DB0UT-7 | 2026-08-31 01:01:47 | 45.73417 | 9.59451 | 51° | 24km/h | 17959m | -19.3m/s | -55.5°C | 4.6% | 0hPa | 2.5V | 00:00:00 | 00:00:00 | 00:00:00 | |
| IW2NTF | 2026-08-31 01:01:42 | 45.73399 | 9.59400 | 70° | 27km/h | 18112m | -22.5m/s | -55.9°C | 4.6% | 0hPa | 2.5V | 08:22:07 | 02:27:24 | 00:00:00 | |
| DO3MHA-11 | 2026-08-31 01:01:39 | 45.73397 | 9.59391 | 77° | 29km/h | 18134m | -23.3m/s | -55.9°C | 4.6% | 0hPa | 2.5V | 00:00:00 | 02:27:23 | 00:00:00 | |
| IW2NTF | 2026-08-31 01:01:33 | 45.73393 | 9.59298 | 95° | 31km/h | 18343m | -21.6m/s | -55.9°C | 4.6% | 0hPa | 2.5V | 08:22:17 | 02:27:14 | 00:00:00 | |
| OE5DRO-10 | 2026-08-31 01:01:31 | 45.73392 | 9.59308 | 95° | 24km/h | 18321m | -24.3m/s | -55.9°C | 4.6% | 0hPa | 2.5V | 00:00:00 | 00:00:00 | 00:00:00 | |
| DO3MHA-11 | 2026-08-31 01:01:29 | 45.73394 | 9.59287 | 102° | 22km/h | 18364m | -20.7m/s | -56.0°C | 4.7% | 0hPa | 2.5V | 00:00:00 | 02:27:13 | 00:00:00 | |
| IW2NTF | 2026-08-31 01:01:21 | 45.73392 | 9.59222 | 46° | 16km/h | 18546m | -23.2m/s | -56.3°C | 4.8% | 0hPa | 2.5V | 08:22:27 | 02:27:04 | 00:00:00 | |
| NBG1-10 | 2026-08-31 01:01:20 | 45.73392 | 9.59222 | 47° | 27km/h | 18546m | -23.2m/s | -56.3°C | 4.8% | 0hPa | 2.5V | 08:22:00 | 02:27:04 | 00:00:00 | |
| DO3MHA-11 | 2026-08-31 01:01:19 | 45.73389 | 9.59217 | 54° | 29km/h | 18569m | -22.2m/s | -56.2°C | 4.8% | 0hPa | 2.6V | 00:00:00 | 02:27:03 | 00:00:00 | |
| DB0UT-7 | 2026-08-31 01:01:17 | 45.73382 | 9.59206 | 41° | 29km/h | 18614m | -23.3m/s | -56.1°C | 4.8% | 0hPa | 2.6V | 08:22:00 | 02:27:01 | 00:00:00 | |
| IW2NTF | 2026-08-31 01:01:12 | 45.73340 | 9.59156 | 37° | 33km/h | 18781m | -24.9m/s | -56.2°C | 4.8% | 0hPa | 2.6V | 08:22:37 | 02:26:54 | 00:00:00 | |
| DO3MHA-11 | 2026-08-31 01:01:09 | 45.73334 | 9.59148 | 44° | 33km/h | 18808m | -25.4m/s | -56.0°C | 4.7% | 0hPa | 2.5V | 00:00:00 | 02:26:53 | 00:00:00 | |
| IW2NTF | 2026-08-31 01:01:06 | 45.73289 | 9.59059 | 64° | 33km/h | 19023m | -22.4m/s | -56.1°C | 4.7% | 0hPa | 2.6V | 08:22:47 | 02:26:44 | 00:00:00 | |
| DO3MHA-11 | 2026-08-31 01:00:59 | 45.73286 | 9.59048 | 73° | 27km/h | 19045m | -20.6m/s | -56.1°C | 4.7% | 0hPa | 2.6V | 00:00:00 | 02:26:43 | 00:00:00 | |
| IW2NTF | 2026-08-31 01:00:55 | 45.73287 | 9.58962 | 102° | 20km/h | 19262m | -26.3m/s | -55.9°C | 4.4% | 0hPa | 2.6V | 08:22:57 | 02:26:34 | 00:00:00 | |
| OE5DRO-10 | 2026-08-31 01:00:53 | 45.73284 | 9.58986 | 97° | 11km/h | 19187m | -23.4m/s | -55.6°C | 4.4% | 0hPa | 2.5V | 00:00:00 | 00:00:00 | 00:00:00 | |
| DO3MHA-11 | 2026-08-31 01:00:49 | 45.73289 | 9.58955 | 103° | 7km/h | 19288m | -25.7m/s | -56.0°C | 4.5% | 0hPa | 2.5V | 00:00:00 | 02:26:33 | 00:00:00 | |
| DB0UT-7 | 2026-08-31 01:00:47 | 45.73291 | 9.58945 | 103° | 15km/h | 19339m | -25.4m/s | -56.1°C | 4.5% | 0hPa | 2.5V | 00:00:00 | 00:00:00 | 00:00:00 | |
| IW2NTF | 2026-08-31 01:00:45 | 45.73287 | 9.58936 | 318° | 5km/h | 19506m | -22.3m/s | -56.5°C | 4.6% | 0hPa | 2.5V | 08:23:07 | 02:26:24 | 00:00:00 | |
| DO3MHA-11 | 2026-08-31 01:00:39 | 45.73285 | 9.58937 | 325° | 16km/h | 19530m | -23.2m/s | -56.6°C | 4.7% | 0hPa | 2.6V | 08:23:00 | 02:26:23 | 00:00:00 | |
| IW2NTF | 2026-08-31 01:00:35 | 45.73247 | 9.58938 | 19° | 22km/h | 19755m | -26m/s | -57.7°C | 5.3% | 0hPa | 2.5V | 08:23:17 | 02:26:14 | 00:00:00 | |
| OE5DRO-10 | 2026-08-31 01:00:34 | 45.73267 | 9.58943 | 1° | 16km/h | 19655m | -24.8m/s | -57.3°C | 5.1% | 0hPa | 2.5V | 00:00:00 | 00:00:00 | 00:00:00 | |
| DO3MHA-11 | 2026-08-31 01:00:29 | 45.73241 | 9.58935 | 28° | 18km/h | 19781m | -25.9m/s | -57.8°C | 5.4% | 0hPa | 2.5V | 00:00:00 | 02:26:13 | 00:00:00 | |
| IW2NTF | 2026-08-31 01:00:25 | 45.73219 | 9.58887 | 70° | 11km/h | 20012m | -27.2m/s | -57.5°C | 5.4% | 0hPa | 2.5V | 08:23:27 | 02:26:04 | 00:00:00 | |
| DO3MHA-11 | 2026-08-31 01:00:19 | 45.73218 | 9.58884 | 63° | 15km/h | 20039m | -26.7m/s | -57.3°C | 5.4% | 0hPa | 2.6V | 00:00:00 | 02:26:03 | 00:00:00 | |
| DB0UT-7 | 2026-08-31 01:00:17 | 45.73216 | 9.58878 | 60° | 13km/h | 20092m | -26.1m/s | -57.0°C | 5.2% | 0hPa | 2.6V | 00:00:00 | 02:26:01 | 00:00:00 | |
| IW2NTF | 2026-08-31 01:00:16 | 45.73203 | 9.58872 | 11° | 11km/h | 20279m | -26.9m/s | -56°C | 4.9% | 0hPa | 2.6V | 08:23:37 | 02:25:54 | 00:00:00 | |
| OE5DRO-10 | 2026-08-31 01:00:15 | 45.73214 | 9.58875 | 17° | 13km/h | 20143m | -27.3m/s | -56.7°C | 5.1% | 0hPa | 2.6V | 00:00:00 | 00:00:00 | 00:00:00 | |
| NBG1-10 | 2026-08-31 01:00:14 | 45.73212 | 9.58874 | 25° | 13km/h | 20171m | -27.2m/s | -56.6°C | 5.1% | 0hPa | 2.5V | 00:00:00 | 02:25:58 | 00:00:00 | |
| IW2NTF | 2026-08-31 01:00:05 | 45.73171 | 9.58871 | 9° | 18km/h | 20546m | -22.5m/s | -55.9°C | 4.8% | 0hPa | 2.5V | 08:23:47 | 02:25:44 | 00:00:00 | |
| DO3MHA-11 | 2026-08-31 00:59:57 | 45.73158 | 9.58862 | 30° | 13km/h | 20619m | -24.9m/s | -55.6°C | 4.8% | 0hPa | 2.6V | 00:00:00 | 02:25:41 | 00:00:00 | |
| IW2NTF | 2026-08-31 00:59:55 | 45.73138 | 9.58839 | 19° | 7km/h | 20754m | -17.9m/s | -55.2°C | 4.6% | 0hPa | 2.6V | 08:23:57 | 02:25:34 | 00:00:00 | |
| DO3MHA-11 | 2026-08-31 00:59:47 | 45.73134 | 9.58839 | 310° | 15km/h | 20832m | -28.8m/s | -54.7°C | 4.3% | 0hPa | 2.5V | 00:00:00 | 02:25:31 | 00:00:00 | |
| IW2NTF | 2026-08-31 00:59:45 | 45.73123 | 9.58863 | 319° | 18km/h | 21013m | -24.9m/s | -55.3°C | 4.6% | 0hPa | 2.5V | 08:24:07 | 02:25:24 | 00:00:00 | |
| NBG1-10 | 2026-08-31 00:59:41 | 45.73126 | 9.58859 | 314° | 20km/h | 20989m | -23.8m/s | -55.2°C | 4.6% | 0hPa | 2.5V | 00:00:00 | 02:25:25 | 00:00:00 | |
| DO3MHA-11 | 2026-08-31 00:59:37 | 45.73110 | 9.58874 | 344° | 18km/h | 21094m | -28.2m/s | -55.2°C | 4.6% | 0hPa | 2.6V | 00:00:00 | 02:25:21 | 00:00:00 | |
| OE5DRO-10 | 2026-08-31 00:59:36 | 45.73105 | 9.58877 | 345° | 24km/h | 21122m | -28.9m/s | -55.2°C | 4.6% | 0hPa | 2.6V | 00:00:00 | 00:00:00 | 00:00:00 | |
| IW2NTF | 2026-08-31 00:59:35 | 45.73064 | 9.58880 | 4° | 26km/h | 21293m | -25.6m/s | -55.1°C | 4.5% | 0hPa | 2.6V | 08:24:17 | 02:25:14 | 00:00:00 | |
| IW2NTF | 2026-08-31 00:59:25 | 45.73001 | 9.58851 | 32° | 13km/h | 21604m | -27.1m/s | -55.3°C | 4.6% | 0hPa | 2.5V | 08:24:28 | 02:25:03 | 00:00:00 | |
| DB0UT-7 | 2026-08-31 00:59:18 | 45.72996 | 9.58847 | 37° | 9km/h | 21657m | -25.5m/s | -55.2°C | 4.6% | 0hPa | 2.6V | 00:00:00 | 02:25:01 | 00:00:00 | |
| IW2NTF | 2026-08-31 00:59:15 | 45.72989 | 9.58847 | 9° | 5km/h | 21866m | -24.2m/s | -54.9°C | 4.5% | 0hPa | 2.6V | 08:24:38 | 02:24:53 | 00:00:00 | |
| NBG1-10 | 2026-08-31 00:59:08 | 45.72987 | 9.58847 | 12° | 13km/h | 21892m | -27.2m/s | -54.9°C | 4.5% | 0hPa | 2.5V | 00:00:00 | 02:24:52 | 00:00:00 | |
| IW2NTF | 2026-08-31 00:59:04 | 45.72979 | 9.58837 | 148° | 9km/h | 22160m | -29.7m/s | -55.3°C | 4.7% | 0hPa | 2.5V | 08:24:48 | 02:24:43 | 00:00:00 | |
| OE5DRO-10 | 2026-08-31 00:58:58 | 45.72981 | 9.58835 | 162° | 15km/h | 22190m | -28.6m/s | -55.3°C | 4.8% | 0hPa | 2.6V | 00:00:00 | 00:00:00 | 00:00:00 | |
| OE5DXL-15 | 2026-08-31 00:58:55 | 45.72991 | 9.58838 | 208° | 16km/h | 22276m | -28.9m/s | -55.1°C | 4.7% | 0hPa | 2.6V | 08:24:00 | 00:00:00 | 00:00:00 | |
| IW2NTF | 2026-08-31 00:58:54 | 45.73009 | 9.58859 | 244° | 13km/h | 22453m | -31m/s | -55°C | 4.6% | 0hPa | 2.6V | 08:24:58 | 02:24:33 | 00:00:00 | |
| DB0UT-7 | 2026-08-31 00:58:47 | 45.73011 | 9.58868 | 259° | 18km/h | 22515m | -31.4m/s | -54.9°C | 4.6% | 0hPa | 2.5V | 00:00:00 | 00:00:00 | 00:00:00 | |
| IW2NTF | 2026-08-31 00:58:44 | 45.73020 | 9.58906 | 251° | 20km/h | 22757m | -30.2m/s | -54.5°C | 4.5% | 0hPa | 2.5V | 08:25:08 | 02:24:23 | 00:00:00 | |
| OE5DRO-10 | 2026-08-31 00:58:39 | 45.73020 | 9.58906 | 252° | 20km/h | 22758m | -30.2m/s | -54.4°C | 4.5% | 0hPa | 2.5V | 00:00:00 | 00:00:00 | 00:00:00 | |
| NBG1-10 | 2026-08-31 00:58:35 | 45.73024 | 9.58932 | 272° | 18km/h | 22880m | -32.5m/s | -54.0°C | 4.3% | 0hPa | 2.5V | 00:00:00 | 02:24:19 | 00:00:00 | |
| IW2NTF | 2026-08-31 00:58:34 | 45.73013 | 9.58972 | 317° | 20km/h | 23079m | -33.8m/s | -54.3°C | 4.3% | 0hPa | 2.5V | 08:25:18 | 02:24:13 | 00:00:00 | |
| S52SK | 2026-08-31 00:58:33 | 45.73023 | 9.58938 | 281° | 22km/h | 22913m | -32.8m/s | -53.9°C | 1.4% | 0hPa | 2.6V | 00:00:00 | 00:00:00 | 00:00:00 | |
| S52SK | 2026-08-31 00:58:27 | 45.73009 | 9.58977 | 327° | 24km/h | 23113m | -34.2m/s | -54.5°C | 1.4% | 0hPa | 2.6V | 00:00:00 | 00:00:00 | 00:00:00 | |
| OE5DXL-15 | 2026-08-31 00:58:25 | 45.72994 | 9.58989 | 335° | 16km/h | 23217m | -33.8m/s | -54.6°C | 4.5% | 0hPa | 2.6V | 00:00:00 | 00:00:00 | 00:00:00 | |
| IW2NTF | 2026-08-31 00:58:24 | 45.72971 | 9.59006 | 316° | 16km/h | 23414m | -32.5m/s | -54.4°C | 4.5% | 0hPa | 2.6V | 08:25:28 | 02:24:03 | 00:00:00 | |
| S52SK | 2026-08-31 00:58:21 | 45.72981 | 9.58997 | 334° | 16km/h | 23318m | -33.1m/s | -54.4°C | 1.4% | 0hPa | 2.6V | 00:00:00 | 00:00:00 | 00:00:00 | |
| OE5DRO-10 | 2026-08-31 00:58:20 | 45.72974 | 9.59003 | 329° | 18km/h | 23382m | -31.4m/s | -54.4°C | 4.5% | 0hPa | 2.6V | 00:00:00 | 00:00:00 | 00:00:00 | |
| DB0UT-7 | 2026-08-31 00:58:17 | 45.72967 | 9.59013 | 307° | 13km/h | 23475m | -30.1m/s | -54.2°C | 4.5% | 0hPa | 2.5V | 00:00:00 | 02:24:01 | 00:00:00 | |
| IW2NTF | 2026-08-31 00:58:15 | 45.72947 | 9.59049 | 328° | 20km/h | 23720m | -30.2m/s | -53.6°C | 4.2% | 0hPa | 2.5V | 08:25:38 | 02:23:53 | 00:00:00 | |
| DO3MHA-11 | 2026-08-31 00:58:12 | 45.72957 | 9.59036 | 310° | 20km/h | 23629m | -30.0m/s | -53.8°C | 4.4% | 0hPa | 2.6V | 00:00:00 | 02:23:56 | 00:00:00 | |
| IW2NTF | 2026-08-31 00:58:04 | 45.72904 | 9.59060 | 28° | 13km/h | 24016m | -28.9m/s | -54.2°C | 4.6% | 0hPa | 2.5V | 08:25:48 | 02:23:43 | 00:00:00 | |
| DO3MHA-11 | 2026-08-31 00:58:02 | 45.72915 | 9.59064 | 8° | 9km/h | 23927m | -31.4m/s | -54.0°C | 4.5% | 0hPa | 2.6V | 00:00:00 | 02:23:46 | 00:00:00 | |
| OE5DRO-10 | 2026-08-31 00:58:01 | 45.72911 | 9.59064 | 17° | 5km/h | 23958m | -29.8m/s | -54.0°C | 4.5% | 0hPa | 2.6V | 00:00:00 | 00:00:00 | 00:00:00 | |
| OE5DXL-15 | 2026-08-31 00:57:55 | 45.72897 | 9.59053 | 83° | 16km/h | 24133m | -30.6m/s | -53.7°C | 4.4% | 0hPa | 2.6V | 00:00:00 | 00:00:00 | 00:00:00 | |
| DO3MHA-11 | 2026-08-31 00:57:52 | 45.72897 | 9.59051 | 124° | 4km/h | 24224m | -30.9m/s | -53.4°C | 4.3% | 0hPa | 2.6V | 00:00:00 | 02:23:36 | 00:00:00 | |
| IN3HCDX | 2026-08-31 00:57:51 | 45.72897 | 9.59051 | 125° | 5km/h | 24224m | -30.9m/s | -53.5°C | 0% | 0hPa | 2.6V | 00:00:00 | 00:00:00 | 00:00:00 | |
| IW2NTF | 2026-08-31 00:57:50 | 45.72900 | 9.59049 | 164° | 4km/h | 24312m | -28.7m/s | -53.7°C | 4.5% | 0hPa | 2.6V | 08:25:58 | 02:23:33 | 00:00:00 | |
| DB0UT-7 | 2026-08-31 00:57:47 | 45.72901 | 9.59047 | 110° | 15km/h | 24371m | -28.4m/s | -53.5°C | 4.5% | 0hPa | 2.5V | 00:00:00 | 00:00:00 | 00:00:00 | |
| IW2NTF | 2026-08-31 00:57:44 | 45.72903 | 9.59062 | 261° | 15km/h | 24610m | -31.7m/s | -53°C | 4.4% | 0hPa | 2.5V | 08:26:08 | 02:23:23 | 00:00:00 | |
| DO3MHA-11 | 2026-08-31 00:57:42 | 45.72902 | 9.59051 | 255° | 16km/h | 24513m | -33.5m/s | -52.9°C | 4.2% | 0hPa | 2.6V | 08:26:00 | 02:23:26 | 00:00:00 | |
| RDZBGO | 2026-08-31 00:57:38 | 45.72903 | 9.59062 | 263° | 15km/h | 24610m | -31.7m/s | -53.0°C | 1.4% | 0hPa | 2.5V | 08:26:00 | 00:00:00 | 00:00:00 | |
| IW2NTF | 2026-08-31 00:57:35 | 45.72890 | 9.59132 | 311° | 24km/h | 24903m | -29.9m/s | -52.9°C | 4.6% | 0hPa | 2.5V | 08:26:18 | 02:23:13 | 00:00:00 | |
| DO3MHA-11 | 2026-08-31 00:57:33 | 45.72899 | 9.59110 | 296° | 22km/h | 24818m | -28.2m/s | -53.1°C | 4.5% | 0hPa | 2.6V | 00:00:00 | 02:23:16 | 00:00:00 | |
| IN3HCDX | 2026-08-31 00:57:31 | 45.72897 | 9.59118 | 302° | 24km/h | 24847m | -29.1m/s | -53.1°C | 0% | 0hPa | 2.6V | 00:00:00 | 00:00:00 | 00:00:00 | |
| IW2NTF | 2026-08-31 00:57:25 | 45.72858 | 9.59169 | 264° | 15km/h | 25219m | -32.6m/s | -51.5°C | 4.2% | 0hPa | 2.6V | 08:26:28 | 02:23:03 | 00:00:00 | |
| OE5DRO-10 | 2026-08-31 00:57:23 | 45.72864 | 9.59155 | 337° | 15km/h | 25091m | -30.3m/s | -52.2°C | 4.4% | 0hPa | 2.5V | 00:00:00 | 00:00:00 | 00:00:00 | |
| DO3MHA-11 | 2026-08-31 00:57:22 | 45.72861 | 9.59158 | 320° | 15km/h | 25122m | -32.6m/s | -52.1°C | 4.4% | 0hPa | 2.5V | 00:00:00 | 02:23:06 | 00:00:00 | |
| DB0UT-7 | 2026-08-31 00:57:17 | 45.72858 | 9.59180 | 260° | 16km/h | 25282m | -30.5m/s | -50.9°C | 4.0% | 0hPa | 2.5V | 00:00:00 | 02:23:01 | 00:00:00 | |
| IW2NTF | 2026-08-31 00:57:14 | 45.72847 | 9.59221 | 311° | 13km/h | 25525m | -29.7m/s | -50.2°C | 3.7% | 0hPa | 2.5V | 08:26:38 | 02:22:53 | 00:00:00 | |
| RDZBGO | 2026-08-31 00:57:13 | 45.72858 | 9.59199 | 290° | 18km/h | 25373m | -31.9m/s | -50.6°C | 1.2% | 0hPa | 2.6V | 08:26:00 | 00:00:00 | 00:00:00 | |
| DO3MHA-11 | 2026-08-31 00:57:12 | 45.72854 | 9.59209 | 310° | 11km/h | 25437m | -30.9m/s | -50.6°C | 3.9% | 0hPa | 2.6V | 00:00:00 | 02:22:56 | 00:00:00 | |
| OE3JTB-15 | 2026-08-31 00:57:05 | 45.72840 | 9.59233 | 287° | 18km/h | 25649m | -32.7m/s | -49.4°C | 3.5% | 0hPa | 2.6V | 00:00:00 | 00:00:00 | 00:00:00 | |
| IW2NTF | 2026-08-31 00:57:04 | 45.72845 | 9.59248 | 228° | 11km/h | 25831m | -28.6m/s | -49.7°C | 3.7% | 0hPa | 2.6V | 08:26:48 | 02:22:43 | 00:00:00 | |
| OE5DRO-10 | 2026-08-31 00:57:04 | 45.72840 | 9.59235 | 273° | 20km/h | 25682m | -34.9m/s | -49.3°C | 3.4% | 0hPa | 2.6V | 00:00:00 | 00:00:00 | 00:00:00 | |
| DF7PN | 2026-08-31 00:56:55 | 45.72861 | 9.59271 | 233° | 22km/h | 25970m | -32.4m/s | -50.0°C | 1.0% | -1.0hPa | 2.6V | 00:00:00 | 00:00:00 | 00:00:00 | |
| DL1ZP-14 | 2026-08-31 00:56:53 | 45.72864 | 9.59279 | 241° | 27km/h | 26002m | -31.6m/s | -50.0°C | 1.1% | -1.0hPa | 2.6V | 00:00:00 | 00:00:00 | 00:00:00 | |
| OE5DXL-15 | 2026-08-31 00:56:51 | 45.72869 | 9.59298 | 259° | 29km/h | 26067m | -33.1m/s | -50.1°C | 3.8% | 0hPa | 2.6V | 00:00:00 | 00:00:00 | 00:00:00 | |
| NBG1-10 | 2026-08-31 00:56:50 | 45.72871 | 9.59309 | 260° | 16km/h | 26101m | -32.9m/s | -50.0°C | 3.8% | 0hPa | 2.6V | 00:00:00 | 02:22:34 | 00:00:00 | |
| DB0UT-7 | 2026-08-31 00:56:47 | 45.72870 | 9.59339 | 285° | 15km/h | 26197m | -32.6m/s | -49.9°C | 3.8% | 0hPa | 2.6V | 08:27:00 | 00:00:00 | 00:00:00 | |
| OE5DRO-10 | 2026-08-31 00:56:45 | 45.72865 | 9.59356 | 306° | 11km/h | 26263m | -33.3m/s | -49.9°C | 3.9% | 0hPa | 2.6V | 00:00:00 | 00:00:00 | 00:00:00 | |
| DO3MHA-11 | 2026-08-31 00:56:42 | 45.72855 | 9.59370 | 326° | 7km/h | 26366m | -35.2m/s | -49.7°C | 3.8% | 0hPa | 2.6V | 00:00:00 | 02:22:26 | 00:00:00 | |
| IW2NTF | 2026-08-31 00:56:35 | 45.72835 | 9.59393 | 308° | 15km/h | 26823m | -34.8m/s | -48.5°C | 3.4% | 0hPa | 2.6V | 08:27:18 | 02:22:13 | 00:00:00 | |
| IN3HCDX | 2026-08-31 00:56:34 | 45.72840 | 9.59381 | 347° | 4km/h | 26607m | -36.8m/s | -49.1°C | 0% | 0hPa | 2.5V | 00:00:00 | 00:00:00 | 00:00:00 | |
| DO3MHA-11 | 2026-08-31 00:56:32 | 45.72838 | 9.59384 | 316° | 15km/h | 26717m | -36.5m/s | -48.6°C | 3.4% | 0hPa | 2.5V | 00:00:00 | 02:22:16 | 00:00:00 | |
| OE5DRO-10 | 2026-08-31 00:56:26 | 45.72829 | 9.59407 | 302° | 20km/h | 26925m | -33.9m/s | -48.6°C | 3.4% | 0hPa | 2.5V | 08:27:00 | 00:00:00 | 00:00:00 | |
| IW2NTF | 2026-08-31 00:56:24 | 45.72801 | 9.59442 | 337° | 24km/h | 27170m | -33.6m/s | -49°C | 3.6% | 0hPa | 2.5V | 08:27:28 | 02:22:03 | 00:00:00 | |
| DK5PH-5 | 2026-08-31 00:56:24 | 45.72822 | 9.59419 | 310° | 15km/h | 26995m | -35.2m/s | -48.7°C | 3.5% | 0hPa | 2.6V | 00:00:00 | 02:22:08 | 00:00:00 | |
| RDZBGO | 2026-08-31 00:56:23 | 45.72822 | 9.59419 | 311° | 20km/h | 26995m | -35.3m/s | -48.8°C | 1.1% | 0hPa | 2.6V | 00:00:00 | 00:00:00 | 00:00:00 | |
| DO3MHA-11 | 2026-08-31 00:56:22 | 45.72814 | 9.59430 | 320° | 20km/h | 27067m | -38.6m/s | -48.8°C | 3.5% | 0hPa | 2.6V | 00:00:00 | 02:22:06 | 00:00:00 | |
| DB0UT-7 | 2026-08-31 00:56:17 | 45.72791 | 9.59448 | 337° | 13km/h | 27238m | -33.1m/s | -49.0°C | 3.6% | 0hPa | 2.6V | 00:00:00 | 02:22:01 | 00:00:00 | |
| IN3HCDX | 2026-08-31 00:56:14 | 45.72776 | 9.59454 | 356° | 20km/h | 27342m | -36.1m/s | 0°C | 0% | 0hPa | 2.6V | 00:00:00 | 00:00:00 | 00:00:00 | |
| DO3MHA-11 | 2026-08-31 00:56:12 | 45.72767 | 9.59453 | 11° | 15km/h | 27414m | -34.8m/s | -49.1°C | 3.7% | 0hPa | 2.6V | 08:27:00 | 02:21:56 | 00:00:00 | |
| IW2NTF | 2026-08-31 00:56:11 | 45.72748 | 9.59435 | 51° | 13km/h | 27625m | -35.5m/s | -48.8°C | 3.7% | 0hPa | 2.6V | 08:27:42 | 02:21:49 | 00:00:00 | |
| OE5DRO-10 | 2026-08-31 00:56:07 | 45.72753 | 9.59442 | 43° | 9km/h | 27561m | -28.5m/s | -48.9°C | 3.8% | 0hPa | 2.5V | 00:00:00 | 00:00:00 | 00:00:00 | |
| DF7PN | 2026-08-31 00:55:53 | 45.72730 | 9.59399 | 67° | 7km/h | 28084m | -37.3m/s | -47.5°C | 1.0% | -1.0hPa | 2.5V | 00:00:00 | 00:00:00 | 00:00:00 | |
| DO3MHA-11 | 2026-08-31 00:55:52 | 45.72730 | 9.59399 | 68° | 7km/h | 28084m | -37.2m/s | -47.5°C | 3.5% | 0hPa | 2.5V | 00:00:00 | 02:21:36 | 00:00:00 | |
| PG1ADW-2 | 2026-08-31 00:55:51 | 45.72729 | 9.59397 | 53° | 7km/h | 28121m | -36.8m/s | -47.3°C | 3.4% | 0hPa | 2.5V | 08:27:00 | 02:21:35 | 00:00:00 | |
| OE5DRO-10 | 2026-08-31 00:55:48 | 45.72725 | 9.59392 | 21° | 9km/h | 28235m | -39.4m/s | -46.6°C | 3.2% | 0hPa | 2.6V | 00:00:00 | 00:00:00 | 00:00:00 | |
| DB0UT-7 | 2026-08-31 00:55:47 | 45.72724 | 9.59392 | 359° | 11km/h | 28274m | -38.9m/s | -46.4°C | 3.3% | 0hPa | 2.6V | 00:00:00 | 00:00:00 | 00:00:00 | |
| NBG1-10 | 2026-08-31 00:55:44 | 45.72718 | 9.59389 | 51° | 11km/h | 28382m | -34.9m/s | -46.2°C | 3.2% | 0hPa | 2.6V | 00:00:00 | 02:21:28 | 00:00:00 | |
| DO3MHA-11 | 2026-08-31 00:55:42 | 45.72717 | 9.59383 | 75° | 9km/h | 28455m | -40.1m/s | -46.0°C | 3.1% | 0hPa | 2.6V | 00:00:00 | 02:21:26 | 00:00:00 | |
| IW2NTF | 2026-08-31 00:55:40 | 45.72718 | 9.59367 | 81° | 9km/h | 28610m | -43m/s | -46.2°C | 3.2% | 0hPa | 2.5V | 08:28:09 | 02:21:22 | 00:00:00 | |
| RDZBGO | 2026-08-31 00:55:37 | 45.72718 | 9.59364 | 79° | 5km/h | 28654m | -44.4m/s | -46.3°C | 0.9% | 0hPa | 2.5V | 08:28:00 | 00:00:00 | 00:00:00 | |
| DO3MHA-11 | 2026-08-31 00:55:32 | 45.72714 | 9.59359 | 342° | 13km/h | 28862m | -39.4m/s | -46.6°C | 3.4% | 0hPa | 2.5V | 00:00:00 | 02:21:16 | 00:00:00 | |
| IW2NTF | 2026-08-31 00:55:30 | 45.72696 | 9.59365 | 347° | 16km/h | 29110m | -43.1m/s | -46°C | 3.3% | 0hPa | 2.5V | 08:28:21 | 02:21:10 | 00:00:00 | |
| PG1ADW-2 | 2026-08-31 00:55:30 | 45.72709 | 9.59360 | 349° | 13km/h | 28940m | -41.6m/s | -46.5°C | 3.3% | 0hPa | 2.6V | 00:00:00 | 00:00:00 | 00:00:00 | |
| OE5DRO-10 | 2026-08-31 00:55:29 | 45.72706 | 9.59361 | 356° | 13km/h | 28983m | -43.1m/s | -46.4°C | 3.4% | 0hPa | 2.6V | 00:00:00 | 00:00:00 | 00:00:00 | |
| DK5PH-5 | 2026-08-31 00:55:24 | 45.72689 | 9.59367 | 352° | 15km/h | 29197m | -43.9m/s | -45.8°C | 3.2% | 0hPa | 2.6V | 00:00:00 | 02:21:08 | 00:00:00 | |
| DF7PN | 2026-08-31 00:55:22 | 45.72678 | 9.59368 | 3° | 9km/h | 29330m | -44.0m/s | -45.4°C | 0.9% | -1.0hPa | 2.5V | 00:00:00 | 00:00:00 | 00:00:00 | |
| IW2NTF | 2026-08-31 00:55:20 | 45.72660 | 9.59366 | 6° | 13km/h | 29595m | -45.8m/s | -45.5°C | 3.2% | 0hPa | 2.5V | 08:28:32 | 02:20:59 | 00:00:00 | |
| DB0UT-7 | 2026-08-31 00:55:17 | 45.72666 | 9.59367 | 360° | 15km/h | 29506m | -44.8m/s | -45.5°C | 3.2% | 0hPa | 2.6V | 00:00:00 | 02:21:01 | 00:00:00 | |
| RDZBGO | 2026-08-31 00:55:15 | 45.72663 | 9.59366 | 15° | 11km/h | 29550m | -45.4m/s | -45.5°C | 0.9% | 0hPa | 2.6V | 08:29:00 | 00:00:00 | 00:00:00 | |
| S52SK | 2026-08-31 00:55:14 | 45.72660 | 9.59366 | 7° | 13km/h | 29596m | -45.8m/s | -45.6°C | 1.0% | 0hPa | 2.6V | 00:00:00 | 00:00:00 | 00:00:00 | |
| OE5DXL-15 | 2026-08-31 00:55:13 | 45.72654 | 9.59364 | 7° | 15km/h | 29688m | -46.7m/s | -45.4°C | 3.2% | 0hPa | 2.6V | 00:00:00 | 00:00:00 | 00:00:00 | |
| DO3MHA-11 | 2026-08-31 00:55:12 | 45.72651 | 9.59363 | 14° | 16km/h | 29734m | -44.7m/s | -45.3°C | 3.2% | 0hPa | 2.6V | 00:00:00 | 02:20:56 | 00:00:00 | |
| IW2NTF | 2026-08-31 00:55:11 | 45.72624 | 9.59351 | 26° | 18km/h | 30048m | -43m/s | -44.7°C | 3.1% | 0hPa | 2.6V | 08:28:42 | 02:20:49 | 00:00:00 | |
| PG1ADW-2 | 2026-08-31 00:55:10 | 45.72644 | 9.59360 | 16° | 15km/h | 29826m | -48.4m/s | -45.2°C | 3.2% | 0hPa | 2.6V | 00:00:00 | 00:00:00 | 00:00:00 | |
| S52SK | 2026-08-31 00:55:08 | 45.72640 | 9.59359 | 19° | 16km/h | 29874m | -46.6m/s | -45.2°C | 0.9% | 0hPa | 2.6V | 00:00:00 | 00:00:00 | 00:00:00 | |
| S52SK | 2026-08-31 00:55:03 | 45.72620 | 9.59348 | 36° | 16km/h | 30092m | -43.0m/s | -44.6°C | 0.9% | 0hPa | 2.6V | 00:00:00 | 00:00:00 | 00:00:00 | |
| DO3MHA-11 | 2026-08-31 00:55:02 | 45.72614 | 9.59341 | 39° | 15km/h | 30178m | -42.9m/s | -44.5°C | 3.1% | 0hPa | 2.6V | 00:00:00 | 02:20:46 | 00:00:00 | |
| IW2NTF | 2026-08-31 00:55:00 | 45.72594 | 9.59314 | 48° | 13km/h | 30488m | -45.7m/s | -43.5°C | 2.9% | 0hPa | 2.6V | 08:28:52 | 02:20:39 | 00:00:00 | |
| S52SK | 2026-08-31 00:54:57 | 45.72601 | 9.59324 | 42° | 16km/h | 30350m | -44.8m/s | -43.9°C | 0.9% | 0hPa | 2.5V | 00:00:00 | 00:00:00 | 00:00:00 | |
| RDZBGO | 2026-08-31 00:54:55 | 45.72596 | 9.59317 | 38° | 15km/h | 30443m | -46.4m/s | -43.6°C | 0.9% | 0hPa | 2.5V | 08:29:00 | 00:00:00 | 00:00:00 | |
| DK5PH-5 | 2026-08-31 00:54:54 | 45.72592 | 9.59312 | 19° | 24km/h | 30534m | -44.8m/s | -43.3°C | 2.9% | 0hPa | 2.5V | 00:00:00 | 02:20:38 | 00:00:00 | |
| DO3MHA-11 | 2026-08-31 00:54:52 | 45.72587 | 9.59311 | 9° | 11km/h | 30622m | -43.8m/s | -43.3°C | 2.9% | 0hPa | 2.5V | 00:00:00 | 02:20:36 | 00:00:00 | |
| OE5DRO-10 | 2026-08-31 00:54:51 | 45.72585 | 9.59311 | 339° | 24km/h | 30665m | -43.1m/s | -43.3°C | 3.0% | 0hPa | 2.5V | 00:00:00 | 00:00:00 | 00:00:00 | |
| IW2NTF | 2026-08-31 00:54:50 | 45.72571 | 9.59319 | 348° | 11km/h | 30915m | -42.9m/s | -43.1°C | 3% | 0hPa | 2.5V | 08:29:02 | 02:20:29 | 00:00:00 | |
| DL1ZP-14 | 2026-08-31 00:54:49 | 45.72581 | 9.59313 | 329° | 9km/h | 30749m | -42.3m/s | -43.5°C | 0.8% | -1.0hPa | 2.5V | 00:00:00 | 00:00:00 | 00:00:00 | |
| DB0UT-7 | 2026-08-31 00:54:47 | 45.72576 | 9.59316 | 347° | 29km/h | 30830m | -42.1m/s | -43.4°C | 3.1% | 0hPa | 2.6V | 00:00:00 | 00:00:00 | 00:00:00 | |
| DO3MHA-11 | 2026-08-31 00:54:42 | 45.72560 | 9.59323 | 349° | 35km/h | 31042m | -42.9m/s | -42.5°C | 2.9% | 0hPa | 2.6V | 00:00:00 | 02:20:26 | 08:30:00 | |
| IW2NTF | 2026-08-31 00:54:40 | 45.72498 | 9.59320 | 15° | 40km/h | 31356m | -46.1m/s | -41.6°C | 2.8% | 0hPa | 2.6V | 08:29:12 | 02:20:19 | 00:00:00 | |
| NBG1-10 | 2026-08-31 00:54:38 | 45.72528 | 9.59326 | 5° | 29km/h | 31220m | -45.1m/s | -42.0°C | 2.9% | 0hPa | 2.5V | 00:00:00 | 02:20:22 | 00:00:00 | |
| RDZBGO | 2026-08-31 00:54:34 | 45.72498 | 9.59320 | 17° | 40km/h | 31356m | -46.1m/s | -41.6°C | 0.8% | 0hPa | 2.5V | 08:29:00 | 00:00:00 | 00:00:00 | |
| DO3MHA-11 | 2026-08-31 00:54:32 | 45.72475 | 9.59303 | 41° | 33km/h | 31498m | -49.6m/s | -40.6°C | 2.6% | 0hPa | 2.5V | 00:00:00 | 02:20:16 | 00:00:00 | |
| IW2NTF | 2026-08-31 00:54:30 | 45.72437 | 9.59258 | 33° | 31km/h | 31839m | -48.9m/s | -40.3°C | 2.7% | 0hPa | 2.5V | 08:30:00 | 02:20:09 | 00:00:00 | |
| PG1ADW-2 | 2026-08-31 00:54:30 | 45.72464 | 9.59290 | 47° | 16km/h | 31596m | -48.5m/s | -40.5°C | 2.6% | 0hPa | 2.5V | 00:00:00 | 02:20:14 | 00:00:00 | |
| DK5PH-5 | 2026-08-31 00:54:24 | 45.72430 | 9.59251 | 33° | 22km/h | 31887m | -48.4m/s | -40.2°C | 2.7% | 0hPa | 2.5V | 00:00:00 | 02:20:08 | 00:00:00 | |
| IW2NTF | 2026-08-31 00:54:20 | 45.72369 | 9.59179 | 64° | 33km/h | 32325m | -52.4m/s | -38.4°C | 2.4% | 0hPa | 2.5V | 08:30:00 | 02:19:59 | 00:00:00 | |
| DF7PN | 2026-08-31 00:54:20 | 45.72390 | 9.59215 | 38° | 35km/h | 32130m | -48.6m/s | -39.7°C | 0.7% | -1.0hPa | 2.5V | 00:00:00 | 00:00:00 | 00:00:00 | |
| DL1ZP-14 | 2026-08-31 00:54:18 | 45.72384 | 9.59207 | 44° | 33km/h | 32178m | -48.8m/s | -39.4°C | 0.7% | -1.0hPa | 2.5V | 00:00:00 | 00:00:00 | 00:00:00 | |
| DB0UT-7 | 2026-08-31 00:54:17 | 45.72378 | 9.59198 | 52° | 16km/h | 32227m | -48.4m/s | -38.9°C | 2.5% | 0hPa | 2.6V | 00:00:00 | 02:20:01 | 00:00:00 | |
| DO3MHA-11 | 2026-08-31 00:54:14 | 45.72367 | 9.59169 | 75° | 18km/h | 32377m | -50.5m/s | -38.2°C | 2.4% | 0hPa | 2.6V | 00:00:00 | 02:19:58 | 00:00:00 | |
| OE5DRO-10 | 2026-08-31 00:54:13 | 45.72365 | 9.59159 | 83° | 15km/h | 32428m | -52.5m/s | -38.0°C | 2.3% | 0hPa | 2.6V | 00:00:00 | 00:00:00 | 00:00:00 | |
| IW2NTF | 2026-08-31 00:54:09 | 45.72371 | 9.59103 | 98° | 13km/h | 32961m | -55.2m/s | -37.1°C | 2.3% | 0hPa | 2.6V | 08:30:00 | 02:19:47 | 00:00:00 | |
| NBG1-10 | 2026-08-31 00:54:05 | 45.72370 | 9.59114 | 93° | 18km/h | 32852m | -54.7m/s | -37.3°C | 2.3% | 0hPa | 2.6V | 00:00:00 | 02:19:49 | 00:00:00 | |
| DO3MHA-11 | 2026-08-31 00:54:04 | 45.72370 | 9.59108 | 98° | 13km/h | 32907m | -56.0m/s | -37.2°C | 2.2% | 0hPa | 2.6V | 00:00:00 | 02:19:48 | 00:00:00 | |
| IW2NTF | 2026-08-31 00:53:58 | 45.72372 | 9.59060 | 87° | 15km/h | 33504m | -54.7m/s | -36°C | 2.1% | 0hPa | 2.6V | 08:30:00 | 02:19:37 | 00:00:00 | |
| DO3MHA-11 | 2026-08-31 00:53:54 | 45.72372 | 9.59065 | 73° | 15km/h | 33449m | -55.8m/s | -36.1°C | 2.1% | 0hPa | 2.5V | 00:00:00 | 02:19:38 | 00:00:00 | |
| IW2NTF | 2026-08-31 00:53:48 | 45.72387 | 9.59022 | 2° | 13km/h | 33991m | -40.4m/s | -35.3°C | 2% | 0hPa | 2.5V | 08:30:00 | 02:19:27 | 00:00:00 | |
| DB0UT-7 | 2026-08-31 00:53:47 | 45.72386 | 9.59030 | 130° | 31km/h | 33816m | -47.1m/s | -34.9°C | 1.9% | 0hPa | 2.6V | 00:00:00 | 00:00:00 | 00:00:00 | |
| DO3MHA-11 | 2026-08-31 00:53:44 | 45.72388 | 9.59023 | 32° | 20km/h | 33951m | -41.7m/s | -35.3°C | 2.0% | 0hPa | 2.5V | 00:00:00 | 02:19:28 | 00:00:00 | |
| OE5DXL-15 | 2026-08-31 00:53:43 | 45.72386 | 9.59022 | 3° | 37km/h | 33992m | -40.3m/s | -35.3°C | 2.0% | 0hPa | 2.5V | 00:00:00 | 02:19:27 | 08:30:00 | |
| PG1ADW-2 | 2026-08-31 00:53:42 | 45.72383 | 9.59022 | 352° | 20km/h | 34032m | -41.1m/s | -35.0°C | 2.0% | 0hPa | 2.5V | 00:00:00 | 00:00:00 | 00:00:00 | |
| OE5DRO-10 | 2026-08-31 00:53:35 | 45.72370 | 9.58992 | 118° | 40km/h | 34318m | -31.0m/s | -34.7°C | 1.9% | 0hPa | 2.5V | 00:00:00 | 00:00:00 | 08:30:00 | |
| DO3MHA-11 | 2026-08-31 00:53:34 | 45.72377 | 9.58978 | 125° | 38km/h | 34347m | -27.1m/s | -34.6°C | 1.9% | 0hPa | 2.6V | 00:00:00 | 02:19:18 | 00:00:00 | |
| RDZBGO | 2026-08-31 00:53:33 | 45.72377 | 9.58978 | 126° | 53km/h | 34347m | -27.1m/s | -34.7°C | 0.5% | 0hPa | 2.6V | 00:00:00 | 00:00:00 | 00:00:00 | |
| NBG1-10 | 2026-08-31 00:53:32 | 45.72397 | 9.58942 | 133° | 35km/h | 34403m | -29.7m/s | -34.5°C | 1.9% | 0hPa | 2.6V | 00:00:00 | 02:19:16 | 00:00:00 | |
| IW2NTF | 2026-08-31 00:53:27 | 45.72390 | 9.58973 | 321° | 37km/h | 34677m | -32.5m/s | -34.4°C | 1.8% | 0hPa | 2.6V | 08:30:00 | 02:19:06 | 00:00:00 | |
| DO3MHA-11 | 2026-08-31 00:53:24 | 45.72413 | 9.58946 | 319° | 42km/h | 34626m | -21.9m/s | -34.3°C | 1.8% | 0hPa | 2.5V | 00:00:00 | 02:19:08 | 00:00:00 | |
| DB0UT-7 | 2026-08-31 00:53:17 | 45.72423 | 9.58956 | 159° | 33km/h | 34799m | -4.4m/s | -34.9°C | 2.0% | 0hPa | 2.5V | 00:00:00 | 02:19:01 | 00:00:00 | |
| OE5DRO-10 | 2026-08-31 00:53:16 | 45.72432 | 9.58951 | 159° | 35km/h | 34798m | 6.4m/s | -34.8°C | 1.9% | 0hPa | 2.5V | 00:00:00 | 00:00:00 | 00:00:00 | |
| DO3MHA-11 | 2026-08-31 00:53:14 | 45.72454 | 9.58944 | 179° | 26km/h | 34788m | 3.6m/s | -34.8°C | 1.9% | 0hPa | 2.5V | 00:00:00 | 02:18:58 | 00:00:00 | |
| DM0DOS-11 | 2026-08-31 00:53:13 | 45.72480 | 9.58956 | 225° | 27km/h | 34775m | 6m/s | -34.8°C | 0% | 0hPa | 2.5V | 08:30:00 | 02:18:55 | 00:00:00 | |
| OE5DXL-15 | 2026-08-31 00:53:13 | 45.72464 | 9.58945 | 191° | 38km/h | 34784m | 3.2m/s | -34.8°C | 2.0% | 0hPa | 2.5V | 00:00:00 | 00:00:00 | 00:00:00 | |
| S52SK | 2026-08-31 00:53:11 | 45.72473 | 9.58949 | 206° | 35km/h | 34781m | 4.3m/s | -34.8°C | 0.5% | 0hPa | 2.5V | 00:00:00 | 00:00:00 | 00:00:00 | |
| IW2NTF | 2026-08-31 00:53:10 | 45.72476 | 9.58976 | 9° | 13km/h | 34755m | 2.8m/s | -34.8°C | 1.9% | 0hPa | 2.5V | 08:30:00 | 02:18:51 | 00:00:00 | |
| S52SK | 2026-08-31 00:53:05 | 45.72474 | 9.58973 | 71° | 13km/h | 34752m | 3.6m/s | -34.8°C | 0.5% | 0hPa | 2.6V | 00:00:00 | 00:00:00 | 00:00:00 | |
| DO3MHA-11 | 2026-08-31 00:53:04 | 45.72478 | 9.58959 | 133° | 38km/h | 34741m | 6.4m/s | -34.7°C | 1.9% | 0hPa | 2.6V | 00:00:00 | 02:18:48 | 08:30:00 | |
| DM0DOS-11 | 2026-08-31 00:53:03 | 45.72522 | 9.58938 | 185° | 49km/h | 34722m | 3.7m/s | -34.7°C | 0% | 0hPa | 2.5V | 08:30:00 | 02:18:44 | 00:00:00 | |
| IW2NTF | 2026-08-31 00:53:01 | 45.72546 | 9.58959 | 249° | 31km/h | 34706m | 5.7m/s | -34.6°C | 1.9% | 0hPa | 2.6V | 08:30:00 | 02:18:41 | 00:00:00 | |
| NBG1-10 | 2026-08-31 00:53:00 | 45.72533 | 9.58942 | 203° | 27km/h | 34718m | 4.6m/s | -34.6°C | 1.9% | 0hPa | 2.5V | 00:00:00 | 02:18:43 | 00:00:00 | |
| S52SK | 2026-08-31 00:52:59 | 45.72533 | 9.58942 | 204° | 42km/h | 34718m | 4.7m/s | -34.7°C | 0.5% | 0hPa | 2.6V | 00:00:00 | 00:00:00 | 00:00:00 | |
| OE5DRO-10 | 2026-08-31 00:52:57 | 45.72546 | 9.58959 | 250° | 27km/h | 34707m | 5.6m/s | -34.6°C | 1.9% | 0hPa | 2.6V | 00:00:00 | 00:00:00 | 00:00:00 | |
| DK5PH-5 | 2026-08-31 00:52:54 | 45.72542 | 9.58980 | 349° | 26km/h | 34694m | 3.2m/s | -34.6°C | 1.9% | 0hPa | 2.6V | 00:00:00 | 02:18:38 | 00:00:00 | |
| DM0DOS-11 | 2026-08-31 00:52:53 | 45.72548 | 9.58947 | 126° | 51km/h | 34673m | 6.2m/s | 0°C | 0% | 0hPa | 2.6V | 08:30:00 | 02:18:34 | 00:00:00 | |
| IW2NTF | 2026-08-31 00:52:50 | 45.72589 | 9.58909 | 173° | 37km/h | 34657m | 4.4m/s | -34.7°C | 1.9% | 0hPa | 2.5V | 08:30:00 | 02:18:30 | 00:00:00 | |
| DF7PN | 2026-08-31 00:52:46 | 45.72590 | 9.58909 | 173° | 37km/h | 34657m | 4.4m/s | -34.7°C | 0.5% | -1.0hPa | 2.6V | 00:00:00 | 00:00:00 | 00:00:00 | |
| DL1ZP-14 | 2026-08-31 00:52:45 | 45.72602 | 9.58914 | 231° | 18km/h | 34645m | 6.8m/s | -34.7°C | 0.5% | -1.0hPa | 2.6V | 00:00:00 | 00:00:00 | 00:00:00 | |
| DO3MHA-11 | 2026-08-31 00:52:44 | 45.72602 | 9.58914 | 232° | 24km/h | 34646m | 6.7m/s | -34.7°C | 1.9% | 0hPa | 2.5V | 00:00:00 | 02:18:28 | 00:00:00 | |
| DM0DOS-11 | 2026-08-31 00:52:43 | 45.72598 | 9.58935 | 350° | 7km/h | 34625m | 3.5m/s | 0°C | 0% | 0hPa | 2.5V | 00:00:00 | 02:18:24 | 00:00:00 | |
| OE5DXL-15 | 2026-08-31 00:52:42 | 45.72602 | 9.58927 | 295° | 20km/h | 34634m | 5.0m/s | -34.7°C | 1.9% | 0hPa | 2.5V | 00:00:00 | 00:00:00 | 00:00:00 | |
| IW2NTF | 2026-08-31 00:52:40 | 45.72607 | 9.58909 | 129° | 44km/h | 34604m | 6.3m/s | -34.8°C | 1.9% | 0hPa | 2.5V | 08:30:00 | 02:18:20 | 00:00:00 | |
| OE5DRO-10 | 2026-08-31 00:52:38 | 45.72597 | 9.58929 | 116° | 26km/h | 34616m | 5.7m/s | -34.7°C | 1.9% | 0hPa | 2.6V | 00:00:00 | 00:00:00 | 00:00:00 | |
| DO3MHA-11 | 2026-08-31 00:52:34 | 45.72623 | 9.58885 | 137° | 16km/h | 34593m | 4.6m/s | -34.7°C | 1.9% | 0hPa | 2.5V | 00:00:00 | 02:18:18 | 00:00:00 | |
| DM0DOS-11 | 2026-08-31 00:52:33 | 45.72646 | 9.58861 | 174° | 9km/h | 34573m | 5.8m/s | 0°C | 0% | 0hPa | 2.6V | 00:00:00 | 02:18:14 | 00:00:00 | |
| RDZBGO | 2026-08-31 00:52:33 | 45.72631 | 9.58875 | 141° | 38km/h | 34588m | 4.1m/s | -34.8°C | 0.5% | 0hPa | 2.5V | 00:00:00 | 00:00:00 | 00:00:00 | |
| IW2NTF | 2026-08-31 00:52:30 | 45.72649 | 9.58865 | 153° | 5km/h | 34553m | 4.6m/s | -34.8°C | 1.9% | 0hPa | 2.5V | 08:30:00 | 02:18:10 | 00:00:00 | |
| S52SK | 2026-08-31 00:52:28 | 45.72647 | 9.58864 | 262° | 5km/h | 34563m | 5.0m/s | -34.8°C | 0.5% | 0hPa | 2.5V | 00:00:00 | 00:00:00 | 00:00:00 | |
| NBG1-10 | 2026-08-31 00:52:25 | 45.72651 | 9.58862 | 139° | 22km/h | 34549m | 4.7m/s | 0°C | 0% | 0hPa | 2.5V | 00:00:00 | 02:18:09 | 00:00:00 | |
| DM0DOS-11 | 2026-08-31 00:52:24 | 45.72675 | 9.58823 | 126° | 31km/h | 34523m | 5.1m/s | 0°C | 0% | 0hPa | 2.5V | 00:00:00 | 02:18:04 | 00:00:00 | |
| S52SK | 2026-08-31 00:52:22 | 45.72659 | 9.58851 | 133° | 31km/h | 34539m | 5.1m/s | -34.9°C | 0.5% | 0hPa | 2.6V | 00:00:00 | 00:00:00 | 00:00:00 | |
| IW2NTF | 2026-08-31 00:52:20 | 45.72686 | 9.58799 | 128° | 11km/h | 34503m | 4.6m/s | -35°C | 2% | 0hPa | 2.6V | 08:30:00 | 02:18:00 | 00:00:00 | |
| OE5DRO-10 | 2026-08-31 00:52:19 | 45.72679 | 9.58814 | 126° | 20km/h | 34519m | 5.2m/s | -34.9°C | 1.9% | 0hPa | 2.6V | 00:00:00 | 00:00:00 | 00:00:00 | |
| DB0UT-7 | 2026-08-31 00:52:17 | 45.72684 | 9.58802 | 124° | 22km/h | 34509m | 4.7m/s | -35.0°C | 1.9% | 0hPa | 2.6V | 00:00:00 | 02:18:01 | 08:30:00 | |
| DF7PN | 2026-08-31 00:52:15 | 45.72688 | 9.58795 | 135° | 11km/h | 34499m | 5.1m/s | -35.1°C | 0.5% | -1.0hPa | 2.5V | 00:00:00 | 00:00:00 | 00:00:00 | |
| DL1ZP-14 | 2026-08-31 00:52:14 | 45.72694 | 9.58789 | 141° | 16km/h | 34488m | 5.3m/s | -35.1°C | 0.5% | -1.0hPa | 2.5V | 00:00:00 | 00:00:00 | 00:00:00 | |
| OE5DXL-15 | 2026-08-31 00:52:12 | 45.72697 | 9.58784 | 140° | 24km/h | 34483m | 4.6m/s | -35.1°C | 2.0% | 0hPa | 2.6V | 00:00:00 | 00:00:00 | 00:00:00 | |
| IW2NTF | 2026-08-31 00:52:11 | 45.72708 | 9.58746 | 73° | 20km/h | 34452m | 5.4m/s | -35.1°C | 1.9% | 0hPa | 2.6V | 08:30:00 | 02:17:50 | 00:00:00 | |
| DO3MHA-11 | 2026-08-31 00:52:04 | 45.72705 | 9.58731 | 83° | 22km/h | 34443m | 4.5m/s | -35.1°C | 2.0% | 0hPa | 2.5V | 00:00:00 | 02:17:48 | 00:00:00 | |
| IW2NTF | 2026-08-31 00:52:00 | 45.72724 | 9.58675 | 57° | 13km/h | 34402m | 6.3m/s | -35.3°C | 2% | 0hPa | 2.5V | 08:30:00 | 02:17:40 | 00:00:00 | |
| OE5DRO-10 | 2026-08-31 00:52:00 | 45.72714 | 9.58699 | 131° | 26km/h | 34421m | 5.2m/s | -35.2°C | 2.0% | 0hPa | 2.6V | 00:00:00 | 00:00:00 | 00:00:00 | |
| DO3MHA-11 | 2026-08-31 00:51:54 | 45.72715 | 9.58668 | 22° | 31km/h | 34390m | 5.4m/s | -35.2°C | 1.9% | 0hPa | 2.6V | 00:00:00 | 02:17:38 | 00:00:00 | |
| NBG1-10 | 2026-08-31 00:51:52 | 45.72703 | 9.58658 | 40° | 24km/h | 34381m | 3.4m/s | -35.2°C | 2.0% | 0hPa | 2.6V | 00:00:00 | 02:17:36 | 00:00:00 | |
| RDZBGO | 2026-08-31 00:51:51 | 45.72703 | 9.58658 | 41° | 29km/h | 34381m | 3.4m/s | -35.3°C | 0.6% | 0hPa | 2.6V | 00:00:00 | 00:00:00 | 00:00:00 | |
| IW2NTF | 2026-08-31 00:51:50 | 45.72710 | 9.58596 | 130° | 33km/h | 34349m | 3.5m/s | -35.3°C | 1.9% | 0hPa | 2.6V | 08:30:00 | 02:17:30 | 00:00:00 | |
| DB0UT-7 | 2026-08-31 00:51:47 | 45.72704 | 9.58606 | 127° | 22km/h | 34354m | 4.2m/s | -35.2°C | 1.9% | 0hPa | 2.6V | 00:00:00 | 00:00:00 | 00:00:00 | |
| DO3MHA-11 | 2026-08-31 00:51:44 | 45.72717 | 9.58583 | 116° | 27km/h | 34341m | 5.5m/s | -35.3°C | 2.0% | 0hPa | 2.6V | 00:00:00 | 02:17:28 | 00:00:00 | |
| DL1ZP-14 | 2026-08-31 00:51:43 | 45.72714 | 9.58579 | 6° | 18km/h | 34329m | 6.1m/s | -35.4°C | 0.5% | -1.0hPa | 2.6V | 00:00:00 | 00:00:00 | 00:00:00 | |
| OE5DXL-15 | 2026-08-31 00:51:42 | 45.72714 | 9.58579 | 7° | 20km/h | 34329m | 6.0m/s | -35.3°C | 1.9% | 0hPa | 2.6V | 00:00:00 | 00:00:00 | 00:00:00 | |
| OE5DRO-10 | 2026-08-31 00:51:41 | 45.72708 | 9.58578 | 9° | 24km/h | 34323m | 5.2m/s | -35.4°C | 2.0% | 0hPa | 2.6V | 00:00:00 | 00:00:00 | 00:00:00 | |
| IW2NTF | 2026-08-31 00:51:40 | 45.72680 | 9.58540 | 79° | 38km/h | 34297m | 5.2m/s | -35.5°C | 2% | 0hPa | 2.6V | 08:30:00 | 02:17:20 | 00:00:00 | |
| DO3MHA-11 | 2026-08-31 00:51:34 | 45.72680 | 9.58514 | 100° | 16km/h | 34287m | 5.3m/s | -35.6°C | 2.0% | 0hPa | 2.5V | 00:00:00 | 02:17:18 | 08:30:00 | |
| RDZBGO | 2026-08-31 00:51:31 | 45.72684 | 9.58498 | 117° | 15km/h | 34276m | 5.6m/s | -35.7°C | 0.5% | 0hPa | 2.5V | 00:00:00 | 00:00:00 | 00:00:00 | |
| IW2NTF | 2026-08-31 00:51:25 | 45.72670 | 9.58485 | 38° | 26km/h | 34237m | 5.2m/s | -35.6°C | 2% | 0hPa | 2.5V | 08:30:00 | 02:17:09 | 00:00:00 | |
| DK5PH-5 | 2026-08-31 00:51:25 | 45.72665 | 9.58479 | 43° | 16km/h | 34232m | 5.0m/s | -35.5°C | 2.0% | 0hPa | 2.5V | 00:00:00 | 02:17:08 | 00:00:00 | |
| DO3MHA-11 | 2026-08-31 00:51:24 | 45.72665 | 9.58479 | 43° | 15km/h | 34232m | 5.0m/s | -35.5°C | 2.0% | 0hPa | 2.5V | 00:00:00 | 02:17:08 | 00:00:00 | |
| OE5DRO-10 | 2026-08-31 00:51:22 | 45.72655 | 9.58465 | 45° | 13km/h | 34222m | 5.3m/s | -35.5°C | 2.0% | 0hPa | 2.5V | 00:00:00 | 00:00:00 | 00:00:00 | |
| NBG1-10 | 2026-08-31 00:51:19 | 45.72648 | 9.58455 | 64° | 16km/h | 34205m | 5.6m/s | -35.4°C | 2.0% | 0hPa | 2.5V | 00:00:00 | 02:17:03 | 08:30:00 | |
| IW2NTF | 2026-08-31 00:51:17 | 45.72651 | 9.58430 | 58° | 18km/h | 34167m | 4.6m/s | -35.5°C | 2% | 0hPa | 2.6V | 08:30:00 | 02:16:56 | 00:00:00 | |
| DB0UT-7 | 2026-08-31 00:51:17 | 45.72649 | 9.58453 | 147° | 18km/h | 34194m | 5.1m/s | -35.4°C | 2.0% | 0hPa | 2.5V | 00:00:00 | 02:17:01 | 00:00:00 | |
| DO3MHA-11 | 2026-08-31 00:51:14 | 45.72653 | 9.58442 | 93° | 16km/h | 34177m | 5.3m/s | -35.5°C | 2.0% | 0hPa | 2.5V | 00:00:00 | 02:16:58 | 00:00:00 | |
| DF7PN | 2026-08-31 00:51:13 | 45.72653 | 9.58436 | 75° | 16km/h | 34172m | 4.5m/s | -35.5°C | 0.5% | -1.0hPa | 2.5V | 00:00:00 | 00:00:00 | 00:00:00 | |
| OE5DXL-15 | 2026-08-31 00:51:12 | 45.72651 | 9.58430 | 59° | 18km/h | 34167m | 4.6m/s | -35.5°C | 2.0% | 0hPa | 2.5V | 00:00:00 | 00:00:00 | 00:00:00 | |
| RDZBGO | 2026-08-31 00:51:11 | 45.72651 | 9.58430 | 59° | 18km/h | 34167m | 4.6m/s | -35.5°C | 0.5% | 0hPa | 2.5V | 00:00:00 | 00:00:00 | 00:00:00 | |
| DO3MHA-11 | 2026-08-31 00:51:04 | 45.72626 | 9.58430 | 113° | 18km/h | 34125m | 5.9m/s | -35.5°C | 2.0% | 0hPa | 2.5V | 00:00:00 | 02:16:48 | 00:00:00 | |
| OE5DRO-10 | 2026-08-31 00:51:03 | 45.72628 | 9.58426 | 122° | 20km/h | 34119m | 7.6m/s | -35.5°C | 2.0% | 0hPa | 2.6V | 00:00:00 | 00:00:00 | 00:00:00 | |
| IW2NTF | 2026-08-31 00:51:00 | 45.72639 | 9.58401 | 123° | 29km/h | 34100m | 3.9m/s | -35.6°C | 2% | 0hPa | 2.6V | 08:30:00 | 02:16:44 | 00:00:00 | |
| DO3MHA-11 | 2026-08-31 00:50:54 | 45.72636 | 9.58399 | 329° | 22km/h | 34067m | 4.4m/s | -35.8°C | 2.0% | 0hPa | 2.5V | 00:00:00 | 02:16:38 | 00:00:00 | |
| IW2NTF | 2026-08-31 00:50:51 | 45.72625 | 9.58383 | 109° | 29km/h | 34039m | 5.9m/s | -36°C | 2% | 0hPa | 2.5V | 08:30:00 | 02:16:33 | 00:00:00 | |
| RDZBGO | 2026-08-31 00:50:50 | 45.72625 | 9.58398 | 64° | 16km/h | 34052m | 5.9m/s | -36.0°C | 0.6% | 0hPa | 2.5V | 00:00:00 | 00:00:00 | 00:00:00 | |
| DB0UT-7 | 2026-08-31 00:50:47 | 45.72633 | 9.58365 | 135° | 16km/h | 34029m | 4.7m/s | -36.0°C | 2.0% | 0hPa | 2.5V | 00:00:00 | 00:00:00 | 00:00:00 | |
| NBG1-10 | 2026-08-31 00:50:46 | 45.72638 | 9.58359 | 152° | 16km/h | 34024m | 5.1m/s | -36.0°C | 2.0% | 0hPa | 2.6V | 00:00:00 | 02:16:30 | 00:00:00 | |
| OE5DRO-10 | 2026-08-31 00:50:45 | 45.72645 | 9.58359 | 225° | 13km/h | 34013m | 6.0m/s | -36.1°C | 2.1% | 0hPa | 2.6V | 00:00:00 | 00:00:00 | 08:30:00 | |
| DO3MHA-11 | 2026-08-31 00:50:44 | 45.72645 | 9.58359 | 225° | 15km/h | 34013m | 6.0m/s | -36.1°C | 2.1% | 0hPa | 2.5V | 00:00:00 | 02:16:28 | 00:00:00 | |
| OE5DXL-15 | 2026-08-31 00:50:42 | 45.72646 | 9.58369 | 284° | 16km/h | 34001m | 5.2m/s | -36.1°C | 2.1% | 0hPa | 2.5V | 00:00:00 | 00:00:00 | 00:00:00 | |
| IW2NTF | 2026-08-31 00:50:40 | 45.72642 | 9.58380 | 353° | 4km/h | 33986m | 5.7m/s | -36.1°C | 2.1% | 0hPa | 2.6V | 08:30:00 | 02:16:23 | 00:00:00 | |
| DO3MHA-11 | 2026-08-31 00:50:34 | 45.72658 | 9.58357 | 150° | 13km/h | 33957m | 5.0m/s | -35.9°C | 2.1% | 0hPa | 2.5V | 00:00:00 | 02:16:18 | 00:00:00 | |
| IW2NTF | 2026-08-31 00:50:30 | 45.72672 | 9.58354 | 309° | 4km/h | 33928m | 5.5m/s | -35.8°C | 2% | 0hPa | 2.5V | 08:30:00 | 02:16:13 | 00:00:00 | |
| S52SK | 2026-08-31 00:50:29 | 45.72672 | 9.58353 | 243° | 5km/h | 33934m | 5.8m/s | -35.8°C | 0.6% | 0hPa | 2.6V | 00:00:00 | 00:00:00 | 00:00:00 | |
| OE5DRO-10 | 2026-08-31 00:50:25 | 45.72672 | 9.58346 | 124° | 22km/h | 33907m | 5.4m/s | -35.6°C | 2.0% | 0hPa | 2.6V | 00:00:00 | 00:00:00 | 00:00:00 | |
| DK5PH-5 | 2026-08-31 00:50:24 | 45.72675 | 9.58340 | 136° | 24km/h | 33902m | 5.5m/s | -35.6°C | 2.0% | 0hPa | 2.6V | 00:00:00 | 02:16:08 | 00:00:00 | |
| S52SK | 2026-08-31 00:50:23 | 45.72676 | 9.58340 | 136° | 24km/h | 33902m | 5.5m/s | -35.6°C | 0.6% | 0hPa | 2.6V | 00:00:00 | 00:00:00 | 00:00:00 | |
| IW2NTF | 2026-08-31 00:50:20 | 45.72699 | 9.58325 | 17° | 11km/h | 33861m | 5.5m/s | -35.5°C | 2% | 0hPa | 2.6V | 08:30:00 | 02:16:01 | 00:00:00 | |
| DB0UT-7 | 2026-08-31 00:50:17 | 45.72699 | 9.58325 | 18° | 26km/h | 33862m | 5.5m/s | -35.5°C | 2.0% | 0hPa | 2.5V | 00:00:00 | 02:16:01 | 00:00:00 | |
| S52SK | 2026-08-31 00:50:16 | 45.72699 | 9.58325 | 18° | 11km/h | 33862m | 5.5m/s | -35.5°C | 0.6% | 0hPa | 2.5V | 00:00:00 | 00:00:00 | 00:00:00 | |
| DO3MHA-11 | 2026-08-31 00:50:14 | 45.72690 | 9.58310 | 75° | 24km/h | 33846m | 5.4m/s | -35.6°C | 2.0% | 0hPa | 2.5V | 00:00:00 | 02:15:58 | 00:00:00 | |
| NBG1-10 | 2026-08-31 00:50:13 | 45.72690 | 9.58300 | 95° | 27km/h | 33840m | 5.9m/s | -35.6°C | 2.0% | 0hPa | 2.5V | 00:00:00 | 02:15:57 | 00:00:00 | |
| OE5DXL-15 | 2026-08-31 00:50:12 | 45.72692 | 9.58289 | 113° | 27km/h | 33834m | 5.9m/s | -35.6°C | 2.0% | 0hPa | 2.5V | 00:00:00 | 00:00:00 | 00:00:00 | |
| IW2NTF | 2026-08-31 00:50:11 | 45.72721 | 9.58261 | 188° | 15km/h | 33808m | 5.4m/s | -35.8°C | 2% | 0hPa | 2.5V | 08:30:00 | 02:15:51 | 00:00:00 | |
| S52SK | 2026-08-31 00:50:11 | 45.72696 | 9.58279 | 129° | 37km/h | 33829m | 5.5m/s | -35.7°C | 0.6% | 0hPa | 2.6V | 00:00:00 | 00:00:00 | 00:00:00 | |
| DL1ZP-14 | 2026-08-31 00:50:10 | 45.72710 | 9.58264 | 157° | 31km/h | 33818m | 5.0m/s | -35.7°C | 0.5% | -1.0hPa | 2.6V | 00:00:00 | 00:00:00 | 00:00:00 | |
| RDZBGO | 2026-08-31 00:50:08 | 45.72710 | 9.58264 | 158° | 31km/h | 33818m | 5.0m/s | -35.7°C | 0.6% | 0hPa | 2.6V | 00:00:00 | 00:00:00 | 00:00:00 | |
| OE5DRO-10 | 2026-08-31 00:50:06 | 45.72724 | 9.58262 | 232° | 26km/h | 33803m | 5.6m/s | -35.8°C | 2.0% | 0hPa | 2.6V | 00:00:00 | 00:00:00 | 00:00:00 | |
| S52SK | 2026-08-31 00:50:05 | 45.72724 | 9.58262 | 233° | 4km/h | 33803m | 5.7m/s | -35.8°C | 0.6% | 0hPa | 2.6V | 00:00:00 | 00:00:00 | 00:00:00 | |
| DO3MHA-11 | 2026-08-31 00:50:04 | 45.72720 | 9.58260 | 26° | 31km/h | 33791m | 6.0m/s | -35.8°C | 2.0% | 0hPa | 2.6V | 00:00:00 | 02:15:48 | 08:30:00 | |
| IW2NTF | 2026-08-31 00:50:00 | 45.72713 | 9.58187 | 136° | 31km/h | 33751m | 6m/s | -36°C | 2% | 0hPa | 2.6V | 08:30:00 | 02:15:41 | 00:00:00 | |
| S52SK | 2026-08-31 00:49:59 | 45.72704 | 9.58222 | 88° | 38km/h | 33768m | 5.1m/s | -36.0°C | 0.6% | 0hPa | 2.5V | 00:00:00 | 00:00:00 | 00:00:00 | |
| DO3MHA-11 | 2026-08-31 00:49:54 | 45.72727 | 9.58178 | 179° | 27km/h | 33734m | 5.5m/s | -36.2°C | 2.0% | 0hPa | 2.5V | 00:00:00 | 02:15:38 | 00:00:00 | |
| IW2NTF | 2026-08-31 00:49:50 | 45.72716 | 9.58098 | 106° | 35km/h | 33682m | 5.7m/s | -36.6°C | 2% | 0hPa | 2.5V | 08:30:00 | 02:15:29 | 00:00:00 | |
| DB0UT-7 | 2026-08-31 00:49:47 | 45.72713 | 9.58125 | 90° | 20km/h | 33694m | 5.6m/s | -36.5°C | 2.0% | 0hPa | 2.5V | 00:00:00 | 00:00:00 | 00:00:00 | |
| DO3MHA-11 | 2026-08-31 00:49:44 | 45.72719 | 9.58087 | 114° | 18km/h | 33677m | 5.8m/s | -36.6°C | 2.1% | 0hPa | 2.5V | 00:00:00 | 02:15:28 | 00:00:00 | |
| OE5DXL-15 | 2026-08-31 00:49:42 | 45.72723 | 9.58073 | 111° | 16km/h | 33665m | 5.6m/s | -36.7°C | 2.1% | 0hPa | 2.5V | 00:00:00 | 00:00:00 | 00:00:00 | |
| NBG1-10 | 2026-08-31 00:49:40 | 45.72723 | 9.58066 | 60° | 16km/h | 33654m | 5.7m/s | -36.6°C | 2.1% | 0hPa | 2.5V | 00:00:00 | 02:15:24 | 00:00:00 | |
| IW2NTF | 2026-08-31 00:49:38 | 45.72710 | 9.58022 | 76° | 15km/h | 33614m | 5.8m/s | -36.7°C | 2.1% | 0hPa | 2.5V | 08:30:00 | 02:15:17 | 00:00:00 | |
| DO3MHA-11 | 2026-08-31 00:49:34 | 45.72711 | 9.58028 | 80° | 15km/h | 33620m | 5.2m/s | -36.6°C | 2.1% | 0hPa | 2.6V | 00:00:00 | 02:15:18 | 00:00:00 | |
| IW2NTF | 2026-08-31 00:49:28 | 45.72691 | 9.57971 | 75° | 29km/h | 33556m | 4.4m/s | -37°C | 2.1% | 0hPa | 2.5V | 08:30:00 | 02:15:07 | 00:00:00 | |
| OE5DRO-10 | 2026-08-31 00:49:28 | 45.72702 | 9.58012 | 39° | 16km/h | 33586m | 4.7m/s | -36.8°C | 2.1% | 0hPa | 2.5V | 00:00:00 | 00:00:00 | 00:00:00 | |
| RDZBGO | 2026-08-31 00:49:27 | 45.72699 | 9.58007 | 57° | 18km/h | 33581m | 5.5m/s | -36.9°C | 0.6% | 0hPa | 2.5V | 00:00:00 | 00:00:00 | 00:00:00 | |
| DO3MHA-11 | 2026-08-31 00:49:24 | 45.72693 | 9.57982 | 77° | 15km/h | 33562m | 5.4m/s | -36.9°C | 2.1% | 0hPa | 2.5V | 00:00:00 | 02:15:08 | 00:00:00 | |
| DB0UT-7 | 2026-08-31 00:49:17 | 45.72677 | 9.57956 | 332° | 16km/h | 33523m | 5.8m/s | -37.2°C | 2.1% | 0hPa | 2.5V | 00:00:00 | 02:15:01 | 00:00:00 | |
| DO3MHA-11 | 2026-08-31 00:49:14 | 45.72673 | 9.57953 | 72° | 18km/h | 33506m | 5.3m/s | -37.2°C | 2.1% | 0hPa | 2.5V | 00:00:00 | 02:14:58 | 00:00:00 | |
| OE5DXL-15 | 2026-08-31 00:49:12 | 45.72671 | 9.57942 | 72° | 20km/h | 33495m | 5.5m/s | -37.2°C | 2.1% | 0hPa | 2.5V | 00:00:00 | 00:00:00 | 08:30:00 | |
| IW2NTF | 2026-08-31 00:49:10 | 45.72658 | 9.57906 | 78° | 15km/h | 33461m | 5.8m/s | -37.3°C | 2.1% | 0hPa | 2.6V | 08:30:00 | 02:14:50 | 00:00:00 | |
| OE5DRO-10 | 2026-08-31 00:49:09 | 45.72664 | 9.57922 | 57° | 18km/h | 33477m | 5.4m/s | -37.2°C | 2.1% | 0hPa | 2.5V | 00:00:00 | 00:00:00 | 00:00:00 | |
| NBG1-10 | 2026-08-31 00:49:07 | 45.72659 | 9.57911 | 65° | 18km/h | 33467m | 4.9m/s | -37.2°C | 2.1% | 0hPa | 2.5V | 00:00:00 | 02:14:51 | 00:00:00 | |
| RDZBGO | 2026-08-31 00:49:05 | 45.72658 | 9.57906 | 80° | 15km/h | 33462m | 5.8m/s | -37.3°C | 0.6% | 0hPa | 2.5V | 00:00:00 | 00:00:00 | 00:00:00 | |
| DO3MHA-11 | 2026-08-31 00:49:04 | 45.72659 | 9.57895 | 116° | 15km/h | 33450m | 5.8m/s | -37.3°C | 2.1% | 0hPa | 2.5V | 00:00:00 | 02:14:48 | 00:00:00 | |
| IW2NTF | 2026-08-31 00:48:59 | 45.72672 | 9.57855 | 79° | 33km/h | 33391m | 4.8m/s | -38°C | 2.2% | 0hPa | 2.6V | 08:30:00 | 02:14:38 | 00:00:00 | |
| DO3MHA-11 | 2026-08-31 00:48:54 | 45.72672 | 9.57855 | 80° | 26km/h | 33392m | 4.8m/s | -38.0°C | 2.2% | 0hPa | 2.5V | 00:00:00 | 02:14:38 | 00:00:00 | |
| OE5DRO-10 | 2026-08-31 00:48:50 | 45.72674 | 9.57822 | 149° | 20km/h | 33371m | 6.8m/s | -38.0°C | 2.2% | 0hPa | 2.5V | 00:00:00 | 00:00:00 | 00:00:00 | |
| IW2NTF | 2026-08-31 00:48:48 | 45.72712 | 9.57805 | 104° | 27km/h | 33332m | 5.8m/s | -38°C | 2.2% | 0hPa | 2.5V | 08:30:00 | 02:14:27 | 00:00:00 | |
| DB0UT-7 | 2026-08-31 00:48:47 | 45.72690 | 9.57822 | 185° | 22km/h | 33353m | 4.4m/s | -38.0°C | 2.2% | 0hPa | 2.6V | 00:00:00 | 00:00:00 | 00:00:00 | |
| DO3MHA-11 | 2026-08-31 00:48:44 | 45.72709 | 9.57814 | 129° | 18km/h | 33338m | 5.8m/s | -38.0°C | 2.2% | 0hPa | 2.6V | 00:00:00 | 02:14:28 | 00:00:00 | |
| OE5DXL-15 | 2026-08-31 00:48:42 | 45.72712 | 9.57795 | 88° | 22km/h | 33327m | 5.5m/s | -38.0°C | 2.2% | 0hPa | 2.6V | 00:00:00 | 00:00:00 | 00:00:00 | |
| IW2NTF | 2026-08-31 00:48:38 | 45.72704 | 9.57754 | 126° | 24km/h | 33274m | 6.2m/s | -38.2°C | 2.2% | 0hPa | 2.6V | 08:30:00 | 02:14:17 | 00:00:00 | |
| DF7PN | 2026-08-31 00:48:38 | 45.72701 | 9.57766 | 20° | 7km/h | 33298m | 5.0m/s | -38.1°C | 0.6% | -1.0hPa | 2.5V | 00:00:00 | 00:00:00 | 00:00:00 | |
| DL1ZP-14 | 2026-08-31 00:48:36 | 45.72700 | 9.57765 | 59° | 2km/h | 33292m | 5.2m/s | -38.2°C | 0.6% | -1.0hPa | 2.5V | 00:00:00 | 00:00:00 | 00:00:00 | |
| DO3MHA-11 | 2026-08-31 00:48:34 | 45.72701 | 9.57760 | 127° | 22km/h | 33281m | 6.5m/s | -38.1°C | 2.2% | 0hPa | 2.5V | 00:00:00 | 02:14:18 | 08:30:00 | |
| OE5DRO-10 | 2026-08-31 00:48:31 | 45.72712 | 9.57737 | 123° | 24km/h | 33263m | 4.8m/s | -38.2°C | 2.3% | 0hPa | 2.5V | 00:00:00 | 00:00:00 | 00:00:00 | |
| IW2NTF | 2026-08-31 00:48:28 | 45.72708 | 9.57685 | 42° | 31km/h | 33217m | 6.3m/s | -38.4°C | 2.2% | 0hPa | 2.5V | 08:30:00 | 02:14:07 | 00:00:00 | |
| DK5PH-5 | 2026-08-31 00:48:24 | 45.72713 | 9.57692 | 39° | 26km/h | 33224m | 6.6m/s | -38.3°C | 2.2% | 0hPa | 2.5V | 00:00:00 | 02:14:08 | 00:00:00 | |
| RDZBGO | 2026-08-31 00:48:23 | 45.72713 | 9.57692 | 39° | 26km/h | 33224m | 6.7m/s | -38.4°C | 0.6% | 0hPa | 2.5V | 00:00:00 | 00:00:00 | 00:00:00 | |
| IW2NTF | 2026-08-31 00:48:19 | 45.72710 | 9.57606 | 85° | 27km/h | 33164m | 6m/s | -38.6°C | 2.3% | 0hPa | 2.5V | 08:30:00 | 02:13:57 | 00:00:00 | |
| DB0UT-7 | 2026-08-31 00:48:17 | 45.72699 | 9.57634 | 132° | 24km/h | 33184m | 6.0m/s | -38.5°C | 2.3% | 0hPa | 2.6V | 00:00:00 | 02:14:01 | 00:00:00 | |
| DO3MHA-11 | 2026-08-31 00:48:14 | 45.72709 | 9.57614 | 108° | 27km/h | 33170m | 5.1m/s | -38.5°C | 2.3% | 0hPa | 2.6V | 00:00:00 | 02:13:58 | 00:00:00 | |
| OE5DXL-15 | 2026-08-31 00:48:12 | 45.72708 | 9.57595 | 68° | 22km/h | 33158m | 6.6m/s | -38.6°C | 2.3% | 0hPa | 2.6V | 00:00:00 | 00:00:00 | 00:00:00 | |
| IW2NTF | 2026-08-31 00:48:08 | 45.72679 | 9.57540 | 149° | 18km/h | 33109m | 4.1m/s | -38.5°C | 2.3% | 0hPa | 2.6V | 08:30:00 | 02:13:47 | 00:00:00 | |
| DF7PN | 2026-08-31 00:48:07 | 45.72674 | 9.57545 | 36° | 9km/h | 33127m | 7.0m/s | -38.6°C | 0.6% | -1.0hPa | 2.6V | 00:00:00 | 00:00:00 | 00:00:00 | |
| DL1ZP-14 | 2026-08-31 00:48:05 | 45.72674 | 9.57544 | 137° | 4km/h | 33120m | 6.6m/s | -38.5°C | 0.6% | -1.0hPa | 2.6V | 00:00:00 | 00:00:00 | 00:00:00 | |
| DO3MHA-11 | 2026-08-31 00:48:04 | 45.72675 | 9.57542 | 163° | 27km/h | 33114m | 5.3m/s | -38.4°C | 2.3% | 0hPa | 2.6V | 00:00:00 | 02:13:48 | 00:00:00 | |
| S52SK | 2026-08-31 00:48:03 | 45.72676 | 9.57542 | 164° | 13km/h | 33114m | 5.3m/s | -38.5°C | 0.7% | 0hPa | 2.5V | 00:00:00 | 00:00:00 | 00:00:00 | |
| NBG1-10 | 2026-08-31 00:48:01 | 45.72686 | 9.57527 | 112° | 20km/h | 33099m | 5.9m/s | -38.3°C | 2.3% | 0hPa | 2.5V | 00:00:00 | 02:13:45 | 00:00:00 | |
| S52SK | 2026-08-31 00:47:58 | 45.72687 | 9.57504 | 81° | 38km/h | 33087m | 5.7m/s | -38.3°C | 0.6% | 0hPa | 2.6V | 00:00:00 | 00:00:00 | 00:00:00 | |
| IW2NTF | 2026-08-31 00:47:58 | 45.72670 | 9.57462 | 248° | 4km/h | 33053m | 5.6m/s | -38°C | 2.3% | 0hPa | 2.5V | 08:30:00 | 02:13:37 | 00:00:00 | |
| PG1ADW-2 | 2026-08-31 00:47:56 | 45.72677 | 9.57470 | 53° | 18km/h | 33072m | 5.7m/s | -38.1°C | 2.2% | 0hPa | 2.6V | 00:00:00 | 00:00:00 | 00:00:00 | |
| DO3MHA-11 | 2026-08-31 00:47:54 | 45.72670 | 9.57462 | 16° | 20km/h | 33060m | 6.0m/s | -38.1°C | 2.2% | 0hPa | 2.5V | 00:00:00 | 02:13:38 | 00:00:00 | |
| OE5DRO-10 | 2026-08-31 00:47:53 | 45.72670 | 9.57462 | 249° | 18km/h | 33054m | 5.5m/s | -38.0°C | 2.3% | 0hPa | 2.5V | 00:00:00 | 00:00:00 | 08:30:00 | |
| S52SK | 2026-08-31 00:47:50 | 45.72673 | 9.57464 | 179° | 13km/h | 33043m | 4.9m/s | -38.0°C | 0.6% | 0hPa | 2.6V | 00:00:00 | 00:00:00 | 00:00:00 | |
| IW2NTF | 2026-08-31 00:47:48 | 45.72683 | 9.57399 | 92° | 16km/h | 32999m | 5.7m/s | -37.7°C | 2.2% | 0hPa | 2.6V | 08:30:00 | 02:13:27 | 00:00:00 | |
| DB0UT-7 | 2026-08-31 00:47:47 | 45.72684 | 9.57440 | 96° | 18km/h | 33021m | 5.7m/s | -37.8°C | 2.3% | 0hPa | 2.5V | 00:00:00 | 00:00:00 | 08:30:00 | |
| DO3MHA-11 | 2026-08-31 00:47:44 | 45.72683 | 9.57406 | 85° | 16km/h | 33005m | 5.3m/s | -37.7°C | 2.2% | 0hPa | 2.6V | 00:00:00 | 02:13:28 | 00:00:00 | |
| RDZBGO | 2026-08-31 00:47:43 | 45.72683 | 9.57406 | 86° | 26km/h | 33005m | 5.3m/s | 0°C | 0% | 0hPa | 2.6V | 00:00:00 | 00:00:00 | 00:00:00 | |
| OE5DXL-15 | 2026-08-31 00:47:42 | 45.72684 | 9.57394 | 121° | 20km/h | 32994m | 5.8m/s | -37.6°C | 2.2% | 0hPa | 2.6V | 00:00:00 | 00:00:00 | 00:00:00 | |
| IW2NTF | 2026-08-31 00:47:35 | 45.72705 | 9.57365 | 100° | 15km/h | 32943m | 6.5m/s | -37.5°C | 2.1% | 0hPa | 2.5V | 08:30:00 | 02:13:17 | 00:00:00 | |
| PG1ADW-2 | 2026-08-31 00:47:35 | 45.72703 | 9.57376 | 108° | 16km/h | 32955m | 5.1m/s | -37.5°C | 2.1% | 0hPa | 2.5V | 00:00:00 | 00:00:00 | 00:00:00 | |
| DO3MHA-11 | 2026-08-31 00:47:34 | 45.72704 | 9.57371 | 101° | 20km/h | 32950m | 5.3m/s | -37.5°C | 2.1% | 0hPa | 2.5V | 00:00:00 | 02:13:18 | 00:00:00 | |
| IW2NTF | 2026-08-31 00:47:28 | 45.72742 | 9.57310 | 157° | 16km/h | 32888m | 5.7m/s | -38.1°C | 2.3% | 0hPa | 2.6V | 08:30:00 | 02:13:07 | 00:00:00 | |
| NBG1-10 | 2026-08-31 00:47:28 | 45.72717 | 9.57342 | 136° | 29km/h | 32916m | 5.9m/s | -37.8°C | 2.2% | 0hPa | 2.5V | 00:00:00 | 02:13:12 | 00:00:00 | |
| DO3MHA-11 | 2026-08-31 00:47:24 | 45.72738 | 9.57313 | 144° | 18km/h | 32894m | 4.7m/s | -38.0°C | 2.3% | 0hPa | 2.5V | 00:00:00 | 02:13:08 | 00:00:00 | |
| RDZBGO | 2026-08-31 00:47:22 | 45.72742 | 9.57310 | 158° | 16km/h | 32889m | 5.7m/s | 0°C | 0% | 0hPa | 2.5V | 00:00:00 | 00:00:00 | 00:00:00 | |
| IW2NTF | 2026-08-31 00:47:18 | 45.72787 | 9.57286 | 147° | 51km/h | 32833m | 3.9m/s | -38.1°C | 2.3% | 0hPa | 2.5V | 08:30:00 | 02:12:57 | 00:00:00 | |
| DB0UT-7 | 2026-08-31 00:47:17 | 45.72756 | 9.57318 | 153° | 33km/h | 32858m | 5.6m/s | -38.1°C | 2.3% | 0hPa | 2.5V | 00:00:00 | 02:13:01 | 00:00:00 | |
| PG1ADW-2 | 2026-08-31 00:47:15 | 45.72767 | 9.57306 | 142° | 42km/h | 32845m | 6.9m/s | -38.1°C | 2.3% | 0hPa | 2.5V | 00:00:00 | 02:12:59 | 00:00:00 | |
| DO3MHA-11 | 2026-08-31 00:47:14 | 45.72776 | 9.57296 | 144° | 29km/h | 32838m | 5.8m/s | -38.0°C | 2.3% | 0hPa | 2.5V | 00:00:00 | 02:12:58 | 00:00:00 | |
| OE5DXL-15 | 2026-08-31 00:47:12 | 45.72797 | 9.57277 | 154° | 31km/h | 32830m | 3.0m/s | -38.0°C | 2.3% | 0hPa | 2.5V | 00:00:00 | 00:00:00 | 00:00:00 | |
| IW2NTF | 2026-08-31 00:47:07 | 45.72816 | 9.57243 | 103° | 47km/h | 32775m | 5.8m/s | -37.8°C | 2.3% | 0hPa | 2.5V | 08:30:00 | 02:12:46 | 00:00:00 | |
| DO3MHA-11 | 2026-08-31 00:47:04 | 45.72816 | 9.57269 | 69° | 35km/h | 32788m | 6.1m/s | -37.7°C | 2.3% | 0hPa | 2.6V | 00:00:00 | 02:12:48 | 08:30:00 | |
| DL1ZP-14 | 2026-08-31 00:47:03 | 45.72814 | 9.57258 | 88° | 37km/h | 32782m | 6.5m/s | -37.8°C | 0.6% | -1.0hPa | 2.5V | 00:00:00 | 00:00:00 | 00:00:00 | |
| IW2NTF | 2026-08-31 00:46:57 | 45.72855 | 9.57181 | 47° | 27km/h | 32720m | 6.6m/s | -37.4°C | 2.2% | 0hPa | 2.6V | 08:30:00 | 02:12:36 | 00:00:00 | |
| OE5DRO-10 | 2026-08-31 00:46:56 | 45.72856 | 9.57184 | 190° | 27km/h | 32743m | 5.2m/s | -37.5°C | 2.2% | 0hPa | 2.5V | 00:00:00 | 00:00:00 | 00:00:00 | |
| PG1ADW-2 | 2026-08-31 00:46:55 | 45.72860 | 9.57185 | 216° | 22km/h | 32737m | 5.0m/s | -37.5°C | 2.2% | 0hPa | 2.5V | 00:00:00 | 00:00:00 | 08:30:00 | |
| DK5PH-5 | 2026-08-31 00:46:54 | 45.72860 | 9.57187 | 334° | 31km/h | 32732m | 5.2m/s | -37.4°C | 2.2% | 0hPa | 2.5V | 00:00:00 | 02:12:38 | 00:00:00 | |
| IW2NTF | 2026-08-31 00:46:47 | 45.72865 | 9.57070 | 170° | 15km/h | 32659m | 4.6m/s | -37°C | 2.1% | 0hPa | 2.5V | 08:30:00 | 02:12:26 | 00:00:00 | |
| DB0UT-7 | 2026-08-31 00:46:47 | 45.72841 | 9.57105 | 101° | 31km/h | 32692m | 6.1m/s | -37.1°C | 2.1% | 0hPa | 2.5V | 00:00:00 | 00:00:00 | 00:00:00 | |
| DO3MHA-11 | 2026-08-31 00:46:42 | 45.72865 | 9.57070 | 171° | 24km/h | 32660m | 4.6m/s | -37.0°C | 2.1% | 0hPa | 2.5V | 00:00:00 | 02:12:26 | 00:00:00 | |
| IW2NTF | 2026-08-31 00:46:37 | 45.72843 | 9.56963 | 72° | 18km/h | 32601m | 6.2m/s | -37.4°C | 2.1% | 0hPa | 2.5V | 08:30:00 | 02:12:16 | 00:00:00 | |
| OE5DRO-10 | 2026-08-31 00:46:37 | 45.72862 | 9.57031 | 70° | 33km/h | 32630m | 6.5m/s | -37.0°C | 2.0% | 0hPa | 2.5V | 00:00:00 | 00:00:00 | 00:00:00 | |
| PG1ADW-2 | 2026-08-31 00:46:35 | 45.72853 | 9.56998 | 68° | 31km/h | 32619m | 4.7m/s | -37.1°C | 2.0% | 0hPa | 2.5V | 00:00:00 | 00:00:00 | 00:00:00 | |
| DF7PN | 2026-08-31 00:46:34 | 45.72845 | 9.56972 | 67° | 29km/h | 32608m | 6.0m/s | -37.3°C | 0.6% | -1.0hPa | 2.5V | 00:00:00 | 00:00:00 | 00:00:00 | |
| DL1ZP-14 | 2026-08-31 00:46:32 | 45.72843 | 9.56963 | 72° | 18km/h | 32602m | 6.2m/s | -37.4°C | 0.6% | -1.0hPa | 2.5V | 00:00:00 | 00:00:00 | 00:00:00 | |
| IW2NTF | 2026-08-31 00:46:27 | 45.72846 | 9.56866 | 60° | 42km/h | 32545m | 5.9m/s | -38.6°C | 2.2% | 0hPa | 2.5V | 08:30:00 | 02:12:06 | 00:00:00 | |
| NBG1-10 | 2026-08-31 00:46:22 | 45.72846 | 9.56866 | 61° | 35km/h | 32545m | 5.8m/s | -38.5°C | 2.2% | 0hPa | 2.5V | 00:00:00 | 02:12:06 | 08:30:00 | |
| DB0UT-7 | 2026-08-31 00:46:18 | 45.72825 | 9.56829 | 54° | 35km/h | 32525m | 4.9m/s | -38.9°C | 2.3% | 0hPa | 2.5V | 00:00:00 | 02:12:02 | 00:00:00 | |
| IW2NTF | 2026-08-31 00:46:17 | 45.72803 | 9.56758 | 59° | 40km/h | 32492m | 5.3m/s | -39.1°C | 2.3% | 0hPa | 2.5V | 08:30:00 | 02:11:56 | 00:00:00 | |
| PG1ADW-2 | 2026-08-31 00:46:15 | 45.72815 | 9.56798 | 72° | 31km/h | 32508m | 5.2m/s | -39.1°C | 2.3% | 0hPa | 2.5V | 00:00:00 | 00:00:00 | 00:00:00 | |
| OE5DXL-15 | 2026-08-31 00:46:12 | 45.72803 | 9.56758 | 60° | 33km/h | 32493m | 5.3m/s | -39.1°C | 2.3% | 0hPa | 2.5V | 00:00:00 | 00:00:00 | 00:00:00 | |
| IW2NTF | 2026-08-31 00:46:05 | 45.72731 | 9.56640 | 36° | 31km/h | 32430m | 5.4m/s | -39.2°C | 2.3% | 0hPa | 2.5V | 08:30:00 | 02:11:44 | 00:00:00 | |
| DF7PN | 2026-08-31 00:46:02 | 45.72745 | 9.56659 | 46° | 42km/h | 32440m | 4.7m/s | -39.2°C | 0.6% | -1.0hPa | 2.5V | 00:00:00 | 00:00:00 | 00:00:00 | |
| DL1ZP-14 | 2026-08-31 00:46:01 | 45.72737 | 9.56648 | 41° | 37km/h | 32435m | 4.8m/s | -39.2°C | 0.6% | -1.0hPa | 2.5V | 00:00:00 | 00:00:00 | 00:00:00 | |
| OE5DRO-10 | 2026-08-31 00:45:59 | 45.72725 | 9.56634 | 33° | 29km/h | 32424m | 6.0m/s | -39.2°C | 2.3% | 0hPa | 2.5V | 00:00:00 | 00:00:00 | 00:00:00 | |
| IW2NTF | 2026-08-31 00:45:55 | 45.72681 | 9.56556 | 38° | 55km/h | 32376m | 4.5m/s | -39.5°C | 2.3% | 0hPa | 2.6V | 08:30:00 | 02:11:34 | 00:00:00 | |
| PG1ADW-2 | 2026-08-31 00:45:55 | 45.72713 | 9.56617 | 68° | 35km/h | 32403m | 4.6m/s | -39.3°C | 2.4% | 0hPa | 2.6V | 00:00:00 | 02:11:39 | 00:00:00 | |
| DK5PH-5 | 2026-08-31 00:45:51 | 45.72691 | 9.56569 | 46° | 37km/h | 32381m | 5.1m/s | -39.4°C | 2.4% | 0hPa | 2.5V | 00:00:00 | 02:11:35 | 00:00:00 | |
| NBG1-10 | 2026-08-31 00:45:49 | 45.72670 | 9.56545 | 33° | 38km/h | 32372m | 4.5m/s | -39.4°C | 2.3% | 0hPa | 2.5V | 00:00:00 | 02:11:33 | 00:00:00 | |
| DB0UT-7 | 2026-08-31 00:45:47 | 45.72653 | 9.56531 | 27° | 37km/h | 32361m | 6.1m/s | -39.5°C | 2.4% | 0hPa | 2.5V | 00:00:00 | 00:00:00 | 00:00:00 | |
| IW2NTF | 2026-08-31 00:45:45 | 45.72650 | 9.56481 | 64° | 38km/h | 32319m | 6.3m/s | -39.5°C | 2.3% | 0hPa | 2.5V | 08:30:00 | 02:11:24 | 00:00:00 | |
| OE5DXL-15 | 2026-08-31 00:45:42 | 45.72653 | 9.56504 | 101° | 40km/h | 32330m | 5.0m/s | -39.5°C | 2.3% | 0hPa | 2.5V | 00:00:00 | 00:00:00 | 00:00:00 | |
| OE5DRO-10 | 2026-08-31 00:45:40 | 45.72650 | 9.56481 | 65° | 40km/h | 32319m | 6.3m/s | -39.5°C | 2.3% | 0hPa | 2.5V | 00:00:00 | 00:00:00 | 00:00:00 | |
| IW2NTF | 2026-08-31 00:45:36 | 45.72567 | 9.56395 | 38° | 29km/h | 32255m | 6.3m/s | -40°C | 2.3% | 0hPa | 2.5V | 08:30:00 | 02:11:14 | 00:00:00 | |
| PG1ADW-2 | 2026-08-31 00:45:35 | 45.72605 | 9.56427 | 29° | 40km/h | 32285m | 6.0m/s | -39.6°C | 2.3% | 0hPa | 2.5V | 00:00:00 | 00:00:00 | 00:00:00 | |
| S52SK | 2026-08-31 00:45:34 | 45.72605 | 9.56427 | 30° | 47km/h | 32285m | 6.1m/s | -39.6°C | 0.7% | 0hPa | 2.5V | 00:00:00 | 00:00:00 | 00:00:00 | |
| DF7PN | 2026-08-31 00:45:31 | 45.72572 | 9.56401 | 34° | 27km/h | 32262m | 5.9m/s | -39.9°C | 0.6% | -1.0hPa | 2.5V | 00:00:00 | 00:00:00 | 00:00:00 | |
| DL1ZP-14 | 2026-08-31 00:45:30 | 45.72567 | 9.56395 | 38° | 27km/h | 32255m | 6.3m/s | -40.0°C | 0.7% | -1.0hPa | 2.5V | 00:00:00 | 00:00:00 | 00:00:00 | |
| IW2NTF | 2026-08-31 00:45:25 | 45.72488 | 9.56312 | 19° | 47km/h | 32197m | 6.2m/s | -40.8°C | 2.5% | 0hPa | 2.6V | 08:30:00 | 02:11:04 | 00:00:00 | |
| DK5PH-5 | 2026-08-31 00:45:21 | 45.72499 | 9.56318 | 25° | 40km/h | 32203m | 4.9m/s | -40.8°C | 2.5% | 0hPa | 2.5V | 00:00:00 | 02:11:05 | 00:00:00 | |
| DB0UT-7 | 2026-08-31 00:45:17 | 45.72449 | 9.56298 | 13° | 38km/h | 32179m | 4.7m/s | -40.8°C | 2.5% | 0hPa | 2.5V | 00:00:00 | 02:11:01 | 00:00:00 | |
| IW2NTF | 2026-08-31 00:45:16 | 45.72390 | 9.56248 | 37° | 44km/h | 32137m | 6.3m/s | -41°C | 2.5% | 0hPa | 2.5V | 08:30:00 | 02:10:54 | 00:00:00 | |
| OE5DXL-15 | 2026-08-31 00:45:12 | 45.72404 | 9.56267 | 46° | 35km/h | 32149m | 5.2m/s | -40.9°C | 2.5% | 0hPa | 2.5V | 00:00:00 | 00:00:00 | 00:00:00 | |
| IW2NTF | 2026-08-31 00:45:05 | 45.72289 | 9.56185 | 27° | 35km/h | 32080m | 5.8m/s | -40.8°C | 2.5% | 0hPa | 2.5V | 08:30:00 | 02:10:44 | 00:00:00 | |
| DF7PN | 2026-08-31 00:45:00 | 45.72289 | 9.56185 | 27° | 33km/h | 32080m | 5.8m/s | -40.8°C | 0.7% | -1.0hPa | 2.5V | 00:00:00 | 00:00:00 | 00:00:00 | |
| DL1ZP-14 | 2026-08-31 00:44:59 | 45.72275 | 9.56172 | 34° | 29km/h | 32069m | 5.3m/s | -40.9°C | 0.7% | -1.0hPa | 2.5V | 00:00:00 | 00:00:00 | 00:00:00 | |
| PG1ADW-2 | 2026-08-31 00:44:55 | 45.72260 | 9.56155 | 39° | 26km/h | 32050m | 5.9m/s | -40.9°C | 2.5% | 0hPa | 2.6V | 00:00:00 | 00:00:00 | 00:00:00 | |
| IW2NTF | 2026-08-31 00:44:51 | 45.72225 | 9.56143 | 5° | 42km/h | 32020m | 5.4m/s | -41.2°C | 2.5% | 0hPa | 2.6V | 08:30:00 | 02:10:34 | 00:00:00 | |
| DK5PH-5 | 2026-08-31 00:44:51 | 45.72235 | 9.56144 | 6° | 26km/h | 32027m | 6.7m/s | -41.1°C | 2.5% | 0hPa | 2.6V | 00:00:00 | 02:10:35 | 08:30:00 | |
| DB0UT-7 | 2026-08-31 00:44:47 | 45.72196 | 9.56136 | 19° | 24km/h | 32005m | 6.3m/s | -41.2°C | 2.5% | 0hPa | 2.5V | 00:00:00 | 00:00:00 | 00:00:00 | |
| IW2NTF | 2026-08-31 00:44:45 | 45.72170 | 9.56098 | 35° | 24km/h | 31964m | 5.3m/s | -41.3°C | 2.5% | 0hPa | 2.5V | 08:30:00 | 02:10:24 | 00:00:00 | |
| NBG1-10 | 2026-08-31 00:44:43 | 45.72181 | 9.56115 | 62° | 24km/h | 31981m | 6.4m/s | -41.2°C | 2.6% | 0hPa | 2.6V | 00:00:00 | 02:10:27 | 00:00:00 | |
| OE5DXL-15 | 2026-08-31 00:44:42 | 45.72178 | 9.56109 | 54° | 24km/h | 31975m | 5.8m/s | -41.2°C | 2.5% | 0hPa | 2.5V | 00:00:00 | 00:00:00 | 08:30:00 | |
| IW2NTF | 2026-08-31 00:44:35 | 45.72120 | 9.56058 | 44° | 27km/h | 31907m | 5m/s | -41.5°C | 2.6% | 0hPa | 2.5V | 08:30:00 | 02:10:14 | 00:00:00 | |
| PG1ADW-2 | 2026-08-31 00:44:35 | 45.72147 | 9.56083 | 24° | 24km/h | 31935m | 5.1m/s | -41.4°C | 2.6% | 0hPa | 2.6V | 00:00:00 | 02:10:19 | 00:00:00 | |
| DF7PN | 2026-08-31 00:44:29 | 45.72116 | 9.56051 | 53° | 24km/h | 31902m | 6.1m/s | -41.6°C | 0.7% | -1.0hPa | 2.6V | 00:00:00 | 00:00:00 | 00:00:00 | |
| DL1ZP-14 | 2026-08-31 00:44:28 | 45.72111 | 9.56037 | 75° | 18km/h | 31889m | 5.6m/s | -41.6°C | 0.7% | -1.0hPa | 2.6V | 00:00:00 | 00:00:00 | 00:00:00 | |
| IW2NTF | 2026-08-31 00:44:24 | 45.72074 | 9.55976 | 62° | 26km/h | 31838m | 6.3m/s | -41.6°C | 2.6% | 0hPa | 2.5V | 08:30:00 | 02:10:02 | 00:00:00 | |
| OE5DRO-10 | 2026-08-31 00:44:24 | 45.72105 | 9.56018 | 52° | 27km/h | 31873m | 6.4m/s | -41.6°C | 2.6% | 0hPa | 2.5V | 00:00:00 | 00:00:00 | 00:00:00 | |
| DK5PH-5 | 2026-08-31 00:44:21 | 45.72089 | 9.55998 | 37° | 29km/h | 31855m | 4.9m/s | -41.6°C | 2.6% | 0hPa | 2.5V | 00:00:00 | 02:10:05 | 00:00:00 | |
| DB0UT-7 | 2026-08-31 00:44:16 | 45.72070 | 9.55959 | 82° | 31km/h | 31827m | 5.1m/s | -41.6°C | 2.6% | 0hPa | 2.5V | 00:00:00 | 02:10:00 | 00:00:00 | |
| PG1ADW-2 | 2026-08-31 00:44:15 | 45.72069 | 9.55950 | 78° | 29km/h | 31822m | 5.3m/s | -41.6°C | 2.6% | 0hPa | 2.5V | 00:00:00 | 00:00:00 | 00:00:00 | |
| IW2NTF | 2026-08-31 00:44:13 | 45.72038 | 9.55898 | 43° | 24km/h | 31781m | 5.9m/s | -41.6°C | 2.6% | 0hPa | 2.5V | 08:30:00 | 02:09:52 | 00:00:00 | |
| OE5DXL-15 | 2026-08-31 00:44:12 | 45.72059 | 9.55925 | 47° | 31km/h | 31804m | 5.1m/s | -41.6°C | 2.6% | 0hPa | 2.6V | 00:00:00 | 00:00:00 | 00:00:00 | |
| NBG1-10 | 2026-08-31 00:44:10 | 45.72048 | 9.55910 | 40° | 33km/h | 31794m | 5.6m/s | -41.6°C | 2.6% | 0hPa | 2.6V | 00:00:00 | 02:09:54 | 00:00:00 | |
| OE5DRO-10 | 2026-08-31 00:44:05 | 45.72024 | 9.55877 | 45° | 33km/h | 31765m | 5.5m/s | -41.6°C | 2.6% | 0hPa | 2.6V | 00:00:00 | 00:00:00 | 00:00:00 | |
| IW2NTF | 2026-08-31 00:44:03 | 45.71981 | 9.55820 | 46° | 24km/h | 31724m | 5.2m/s | -41.7°C | 2.6% | 0hPa | 2.6V | 08:30:00 | 02:09:42 | 00:00:00 | |
| DF7PN | 2026-08-31 00:43:58 | 45.71981 | 9.55820 | 46° | 22km/h | 31724m | 5.2m/s | -41.7°C | 0.7% | -1.0hPa | 2.5V | 00:00:00 | 00:00:00 | 00:00:00 | |
| DL1ZP-14 | 2026-08-31 00:43:57 | 45.71972 | 9.55809 | 31° | 26km/h | 31714m | 5.6m/s | -41.7°C | 0.7% | -1.0hPa | 2.5V | 00:00:00 | 00:00:00 | 00:00:00 | |
| PG1ADW-2 | 2026-08-31 00:43:55 | 45.71966 | 9.55804 | 26° | 37km/h | 31708m | 6.6m/s | -41.7°C | 2.6% | 0hPa | 2.5V | 00:00:00 | 00:00:00 | 08:30:00 | |
| DK5PH-5 | 2026-08-31 00:43:51 | 45.71930 | 9.55783 | 27° | 42km/h | 31686m | 5.2m/s | -41.7°C | 2.6% | 0hPa | 2.6V | 00:00:00 | 02:09:35 | 00:00:00 | |
| IW2NTF | 2026-08-31 00:43:50 | 45.71909 | 9.55763 | 41° | 27km/h | 31668m | 5.1m/s | -41.7°C | 2.6% | 0hPa | 2.6V | 08:30:00 | 02:09:32 | 00:00:00 | |
| DB0UT-7 | 2026-08-31 00:43:46 | 45.71898 | 9.55750 | 36° | 44km/h | 31658m | 5.5m/s | -41.7°C | 2.6% | 0hPa | 2.5V | 00:00:00 | 00:00:00 | 00:00:00 | |
| IW2NTF | 2026-08-31 00:43:43 | 45.71825 | 9.55711 | 22° | 38km/h | 31614m | 5.1m/s | -41.7°C | 2.6% | 0hPa | 2.5V | 08:30:00 | 02:09:22 | 00:00:00 | |
| OE5DXL-15 | 2026-08-31 00:43:42 | 45.71863 | 9.55730 | 16° | 46km/h | 31636m | 5.0m/s | -41.7°C | 2.6% | 0hPa | 2.5V | 00:00:00 | 00:00:00 | 00:00:00 | |
| NBG1-10 | 2026-08-31 00:43:37 | 45.71816 | 9.55706 | 21° | 49km/h | 31609m | 5.3m/s | -41.6°C | 2.6% | 0hPa | 2.5V | 00:00:00 | 02:09:21 | 00:00:00 | |
| PG1ADW-2 | 2026-08-31 00:43:35 | 45.71796 | 9.55697 | 14° | 46km/h | 31597m | 6.2m/s | -41.6°C | 2.6% | 0hPa | 2.5V | 00:00:00 | 00:00:00 | 00:00:00 | |
| IW2NTF | 2026-08-31 00:43:33 | 45.71726 | 9.55691 | 0° | 42km/h | 31560m | 4.6m/s | -41.7°C | 2.6% | 0hPa | 2.5V | 08:30:00 | 02:09:12 | 00:00:00 | |
| OE3JTB-15 | 2026-08-31 00:43:31 | 45.71754 | 9.55690 | 360° | 26km/h | 31575m | 6.4m/s | -41.5°C | 2.5% | 0hPa | 2.6V | 00:00:00 | 02:09:15 | 00:00:00 | |
| S52SK | 2026-08-31 00:43:30 | 45.71754 | 9.55690 | 361° | 37km/h | 31575m | 6.4m/s | -41.6°C | 0.7% | 0hPa | 2.6V | 00:00:00 | 00:00:00 | 00:00:00 | |
| OE5DRO-10 | 2026-08-31 00:43:27 | 45.71715 | 9.55690 | 4° | 51km/h | 31554m | 6.5m/s | -41.8°C | 2.6% | 0hPa | 2.6V | 00:00:00 | 00:00:00 | 00:00:00 | |
| DL1ZP-14 | 2026-08-31 00:43:25 | 45.71688 | 9.55686 | 8° | 58km/h | 31542m | 5.7m/s | -41.9°C | 0.7% | -1.0hPa | 2.6V | 00:00:00 | 00:00:00 | 00:00:00 | |
| S52SK | 2026-08-31 00:43:24 | 45.71688 | 9.55686 | 10° | 58km/h | 31542m | 5.7m/s | -41.9°C | 0.8% | 0hPa | 2.6V | 00:00:00 | 00:00:00 | 00:00:00 | |
| IW2NTF | 2026-08-31 00:43:23 | 45.71602 | 9.55670 | 356° | 44km/h | 31504m | 5.8m/s | -42°C | 2.6% | 0hPa | 2.6V | 08:30:00 | 02:09:02 | 00:00:00 | |
| DK5PH-5 | 2026-08-31 00:43:21 | 45.71634 | 9.55672 | 10° | 44km/h | 31520m | 5.4m/s | -42.0°C | 2.6% | 0hPa | 2.5V | 00:00:00 | 02:09:05 | 00:00:00 | |
| PG1ADW-2 | 2026-08-31 00:43:15 | 45.71562 | 9.55676 | 353° | 46km/h | 31487m | 5.2m/s | -42.1°C | 2.6% | 0hPa | 2.6V | 00:00:00 | 02:08:59 | 00:00:00 | |
| IW2NTF | 2026-08-31 00:43:13 | 45.71470 | 9.55684 | 5° | 44km/h | 31447m | 6.4m/s | -42.3°C | 2.7% | 0hPa | 2.6V | 08:30:00 | 02:08:52 | 00:00:00 | |
| OE5DXL-15 | 2026-08-31 00:43:12 | 45.71517 | 9.55684 | 356° | 40km/h | 31471m | 6.1m/s | -42.1°C | 2.6% | 0hPa | 2.5V | 00:00:00 | 00:00:00 | 00:00:00 | |
| OE5DRO-10 | 2026-08-31 00:43:08 | 45.71470 | 9.55684 | 6° | 38km/h | 31448m | 6.4m/s | -42.3°C | 2.7% | 0hPa | 2.6V | 00:00:00 | 00:00:00 | 00:00:00 | |
| IW2NTF | 2026-08-31 00:43:03 | 45.71371 | 9.55687 | 351° | 49km/h | 31391m | 6.5m/s | -42.5°C | 2.7% | 0hPa | 2.6V | 08:30:00 | 02:08:42 | 00:00:00 | |
| DF7PN | 2026-08-31 00:42:56 | 45.71346 | 9.55690 | 358° | 47km/h | 31380m | 4.7m/s | -42.6°C | 0.8% | -1.0hPa | 2.5V | 00:00:00 | 00:00:00 | 00:00:00 | |
| DL1ZP-14 | 2026-08-31 00:42:54 | 45.71324 | 9.55689 | 6° | 35km/h | 31369m | 6.4m/s | -42.7°C | 0.7% | -1.0hPa | 2.5V | 00:00:00 | 00:00:00 | 00:00:00 | |
| IW2NTF | 2026-08-31 00:42:53 | 45.71284 | 9.55685 | 349° | 33km/h | 31335m | 5.4m/s | -43°C | 2.7% | 0hPa | 2.5V | 08:30:00 | 02:08:32 | 00:00:00 | |
| DK5PH-5 | 2026-08-31 00:42:51 | 45.71304 | 9.55684 | 7° | 26km/h | 31352m | 4.8m/s | -42.9°C | 2.7% | 0hPa | 2.5V | 00:00:00 | 02:08:35 | 00:00:00 | |
| OE5DRO-10 | 2026-08-31 00:42:49 | 45.71291 | 9.55684 | 355° | 29km/h | 31341m | 5.8m/s | -42.9°C | 2.7% | 0hPa | 2.5V | 00:00:00 | 00:00:00 | 00:00:00 | |
| DO3MHA-11 | 2026-08-31 00:42:48 | 45.71284 | 9.55685 | 350° | 31km/h | 31336m | 5.3m/s | -42.9°C | 2.7% | 0hPa | 2.5V | 00:00:00 | 02:08:32 | 00:00:00 | |
| DB0UT-7 | 2026-08-31 00:42:45 | 45.71260 | 9.55696 | 338° | 22km/h | 31319m | 6.2m/s | -43.0°C | 2.7% | 0hPa | 2.5V | 00:00:00 | 00:00:00 | 00:00:00 | |
| IW2NTF | 2026-08-31 00:42:43 | 45.71204 | 9.55716 | 353° | 27km/h | 31280m | 5.7m/s | -43.1°C | 2.7% | 0hPa | 2.5V | 08:30:00 | 02:08:22 | 00:00:00 | |
| OE5DXL-15 | 2026-08-31 00:42:42 | 45.71237 | 9.55708 | 344° | 16km/h | 31302m | 5.8m/s | -43.0°C | 2.7% | 0hPa | 2.5V | 00:00:00 | 00:00:00 | 00:00:00 | |
| DO3MHA-11 | 2026-08-31 00:42:35 | 45.71189 | 9.55721 | 333° | 20km/h | 31263m | 4.7m/s | -43.1°C | 2.7% | 0hPa | 2.5V | 00:00:00 | 02:08:19 | 00:00:00 | |
| IW2NTF | 2026-08-31 00:42:32 | 45.71140 | 9.55751 | 350° | 13km/h | 31212m | 5.8m/s | -43.5°C | 2.8% | 0hPa | 2.5V | 08:30:00 | 02:08:10 | 00:00:00 | |
| OE5DRO-10 | 2026-08-31 00:42:30 | 45.71160 | 9.55742 | 337° | 18km/h | 31236m | 4.5m/s | -43.3°C | 2.8% | 0hPa | 2.6V | 00:00:00 | 00:00:00 | 00:00:00 | |
| DO3MHA-11 | 2026-08-31 00:42:25 | 45.71137 | 9.55752 | 352° | 13km/h | 31207m | 5.5m/s | -43.6°C | 2.8% | 0hPa | 2.6V | 00:00:00 | 02:08:09 | 00:00:00 | |
| DL1ZP-14 | 2026-08-31 00:42:23 | 45.71129 | 9.55754 | 348° | 16km/h | 31195m | 5.3m/s | -43.6°C | 0.8% | -1.0hPa | 2.5V | 00:00:00 | 00:00:00 | 00:00:00 | |
| NBG1-10 | 2026-08-31 00:42:22 | 45.71125 | 9.55755 | 345° | 13km/h | 31190m | 4.8m/s | -43.6°C | 2.9% | 0hPa | 2.5V | 00:00:00 | 02:08:06 | 00:00:00 | |
| DK5PH-5 | 2026-08-31 00:42:21 | 45.71121 | 9.55757 | 339° | 15km/h | 31185m | 5.2m/s | -43.6°C | 2.9% | 0hPa | 2.5V | 00:00:00 | 02:08:05 | 00:00:00 | |
| IW2NTF | 2026-08-31 00:42:18 | 45.71110 | 9.55770 | 324° | 15km/h | 31157m | 5.2m/s | -43.6°C | 2.8% | 0hPa | 2.5V | 08:30:00 | 02:08:00 | 00:00:00 | |
| DO3MHA-11 | 2026-08-31 00:42:15 | 45.71106 | 9.55773 | 334° | 16km/h | 31151m | 6.8m/s | -43.5°C | 2.8% | 0hPa | 2.5V | 00:00:00 | 02:07:59 | 00:00:00 | |
| OE5DRO-10 | 2026-08-31 00:42:11 | 45.71084 | 9.55783 | 338° | 15km/h | 31130m | 4.7m/s | -43.5°C | 2.8% | 0hPa | 2.5V | 00:00:00 | 00:00:00 | 08:30:00 | |
| DO3MHA-11 | 2026-08-31 00:42:05 | 45.71086 | 9.55803 | 272° | 16km/h | 31095m | 5.9m/s | -43.5°C | 2.8% | 0hPa | 2.5V | 00:00:00 | 02:07:49 | 00:00:00 | |
| DF7PN | 2026-08-31 00:41:55 | 45.71046 | 9.55836 | 319° | 11km/h | 31026m | 4.9m/s | -43.8°C | 0.8% | -1.0hPa | 2.5V | 00:00:00 | 00:00:00 | 00:00:00 | |
| OE5DRO-10 | 2026-08-31 00:41:52 | 45.71044 | 9.55839 | 312° | 15km/h | 31021m | 5.0m/s | -43.8°C | 2.8% | 0hPa | 2.5V | 00:00:00 | 00:00:00 | 00:00:00 | |
| DK5PH-5 | 2026-08-31 00:41:51 | 45.71043 | 9.55842 | 295° | 15km/h | 31016m | 5.8m/s | -43.8°C | 2.8% | 0hPa | 2.5V | 00:00:00 | 02:07:35 | 00:00:00 | |
| IW2NTF | 2026-08-31 00:41:50 | 45.71034 | 9.55853 | 335° | 24km/h | 30976m | 5.3m/s | -44.1°C | 2.8% | 0hPa | 2.5V | 08:30:00 | 02:07:28 | 00:00:00 | |
| NBG1-10 | 2026-08-31 00:41:49 | 45.71043 | 9.55845 | 221° | 16km/h | 31003m | 5.3m/s | -43.9°C | 2.8% | 0hPa | 2.5V | 00:00:00 | 02:07:33 | 00:00:00 | |
| DO3MHA-11 | 2026-08-31 00:41:45 | 45.71039 | 9.55849 | 339° | 18km/h | 30982m | 6.2m/s | -44.0°C | 2.8% | 0hPa | 2.5V | 00:00:00 | 02:07:29 | 00:00:00 | |
| DB0UT-7 | 2026-08-31 00:41:44 | 45.71034 | 9.55853 | 336° | 16km/h | 30976m | 5.2m/s | -44.0°C | 2.8% | 0hPa | 2.5V | 00:00:00 | 00:00:00 | 00:00:00 | |
| IW2NTF | 2026-08-31 00:41:37 | 45.70985 | 9.55938 | 315° | 15km/h | 30894m | 6.1m/s | -44.4°C | 3% | 0hPa | 2.5V | 08:30:00 | 02:07:13 | 00:00:00 | |
| DO3MHA-11 | 2026-08-31 00:41:35 | 45.71006 | 9.55894 | 311° | 20km/h | 30927m | 5.6m/s | -44.3°C | 2.9% | 0hPa | 2.6V | 00:00:00 | 02:07:19 | 00:00:00 | |
| OE5DRO-10 | 2026-08-31 00:41:33 | 45.70999 | 9.55908 | 305° | 15km/h | 30915m | 6.6m/s | -44.3°C | 2.9% | 0hPa | 2.6V | 00:00:00 | 00:00:00 | 00:00:00 | |
| OE5DXL-15 | 2026-08-31 00:41:32 | 45.70995 | 9.55917 | 300° | 13km/h | 30909m | 6.0m/s | -44.4°C | 2.9% | 0hPa | 2.6V | 00:00:00 | 00:00:00 | 00:00:00 | |
| DO3MHA-11 | 2026-08-31 00:41:25 | 45.70978 | 9.55931 | 80° | 13km/h | 30869m | 5.3m/s | -44.4°C | 3.0% | 0hPa | 2.6V | 00:00:00 | 02:07:09 | 00:00:00 | |
| DF7PN | 2026-08-31 00:41:23 | 45.70977 | 9.55929 | 294° | 7km/h | 30853m | 5.3m/s | -44.4°C | 0.8% | -1.0hPa | 2.5V | 00:00:00 | 00:00:00 | 00:00:00 | |
| DK5PH-5 | 2026-08-31 00:41:21 | 45.70976 | 9.55932 | 302° | 13km/h | 30848m | 5.3m/s | -44.3°C | 2.9% | 0hPa | 2.5V | 00:00:00 | 02:07:05 | 00:00:00 | |
| IW2NTF | 2026-08-31 00:41:18 | 45.70962 | 9.55948 | 346° | 15km/h | 30824m | 5m/s | -44.3°C | 3% | 0hPa | 2.5V | 08:30:00 | 02:07:01 | 00:00:00 | |
| S52SK | 2026-08-31 00:41:18 | 45.70970 | 9.55942 | 322° | 20km/h | 30835m | 6.4m/s | -44.3°C | 0.9% | 0hPa | 2.6V | 00:00:00 | 00:00:00 | 00:00:00 | |
| NBG1-10 | 2026-08-31 00:41:16 | 45.70959 | 9.55948 | 4° | 15km/h | 30819m | 5.0m/s | -44.2°C | 2.9% | 0hPa | 2.6V | 00:00:00 | 02:07:00 | 08:30:00 | |
| DO3MHA-11 | 2026-08-31 00:41:15 | 45.70958 | 9.55948 | 46° | 13km/h | 30813m | 6.3m/s | -44.2°C | 2.9% | 0hPa | 2.5V | 00:00:00 | 02:06:59 | 00:00:00 | |
| DB0UT-7 | 2026-08-31 00:41:14 | 45.70958 | 9.55947 | 139° | 15km/h | 30807m | 6.7m/s | -44.2°C | 2.9% | 0hPa | 2.5V | 00:00:00 | 02:06:58 | 00:00:00 | |
| IW2NTF | 2026-08-31 00:41:13 | 45.70955 | 9.55933 | 15° | 24km/h | 30766m | 5m/s | -44.1°C | 2.9% | 0hPa | 2.5V | 08:30:00 | 02:06:51 | 00:00:00 | |
| S52SK | 2026-08-31 00:41:06 | 45.70955 | 9.55933 | 17° | 24km/h | 30766m | 5.0m/s | -44.1°C | 0.9% | 0hPa | 2.5V | 00:00:00 | 00:00:00 | 00:00:00 | |
| DO3MHA-11 | 2026-08-31 00:41:05 | 45.70944 | 9.55930 | 360° | 13km/h | 30755m | 6.3m/s | -44.1°C | 2.9% | 0hPa | 2.5V | 00:00:00 | 02:06:49 | 00:00:00 | |
| OE5DXL-15 | 2026-08-31 00:41:02 | 45.70938 | 9.55934 | 231° | 16km/h | 30737m | 5.5m/s | -44.1°C | 2.9% | 0hPa | 2.5V | 00:00:00 | 00:00:00 | 00:00:00 | |
| IW2NTF | 2026-08-31 00:40:57 | 45.70940 | 9.55914 | 71° | 20km/h | 30707m | 5m/s | -44.1°C | 2.9% | 0hPa | 2.5V | 08:30:00 | 02:06:41 | 00:00:00 | |
| DO3MHA-11 | 2026-08-31 00:40:55 | 45.70935 | 9.55903 | 44° | 20km/h | 30696m | 6.3m/s | -44.0°C | 2.8% | 0hPa | 2.6V | 00:00:00 | 02:06:39 | 00:00:00 | |
| IW2NTF | 2026-08-31 00:40:52 | 45.70895 | 9.55880 | 25° | 13km/h | 30649m | 5.7m/s | -44.1°C | 2.9% | 0hPa | 2.5V | 08:30:00 | 02:06:31 | 00:00:00 | |
| DF7PN | 2026-08-31 00:40:52 | 45.70916 | 9.55892 | 15° | 24km/h | 30672m | 7.0m/s | -44.1°C | 0.8% | -1.0hPa | 2.6V | 00:00:00 | 00:00:00 | 00:00:00 | |
| DL1ZP-14 | 2026-08-31 00:40:51 | 45.70910 | 9.55890 | 19° | 24km/h | 30666m | 6.3m/s | -44.1°C | 0.8% | -1.0hPa | 2.6V | 00:00:00 | 00:00:00 | 00:00:00 | |
| DO3MHA-11 | 2026-08-31 00:40:45 | 45.70892 | 9.55878 | 8° | 18km/h | 30636m | 6.2m/s | -44.1°C | 2.9% | 0hPa | 2.5V | 00:00:00 | 02:06:29 | 00:00:00 | |
| DB0UT-7 | 2026-08-31 00:40:44 | 45.70891 | 9.55878 | 49° | 18km/h | 30630m | 5.1m/s | -44.1°C | 2.9% | 0hPa | 2.5V | 00:00:00 | 00:00:00 | 00:00:00 | |
| IW2NTF | 2026-08-31 00:40:43 | 45.70866 | 9.55847 | 16° | 26km/h | 30589m | 6.1m/s | -44.2°C | 2.9% | 0hPa | 2.5V | 08:30:00 | 02:06:21 | 00:00:00 | |
| OE5DRO-10 | 2026-08-31 00:40:36 | 45.70860 | 9.55845 | 7° | 20km/h | 30583m | 5.5m/s | -44.1°C | 2.8% | 0hPa | 2.5V | 00:00:00 | 00:00:00 | 00:00:00 | |
| DO3MHA-11 | 2026-08-31 00:40:35 | 45.70855 | 9.55845 | 5° | 18km/h | 30578m | 5.0m/s | -44.1°C | 2.8% | 0hPa | 2.5V | 00:00:00 | 02:06:19 | 00:00:00 | |
| IW2NTF | 2026-08-31 00:40:32 | 45.70828 | 9.55809 | 41° | 15km/h | 30530m | 5.7m/s | -44.3°C | 2.8% | 0hPa | 2.5V | 08:30:00 | 02:06:11 | 00:00:00 | |
| OE5DXL-15 | 2026-08-31 00:40:32 | 45.70843 | 9.55838 | 47° | 18km/h | 30560m | 6.2m/s | -44.1°C | 2.8% | 0hPa | 2.6V | 00:00:00 | 00:00:00 | 00:00:00 | |
| DO3MHA-11 | 2026-08-31 00:40:25 | 45.70822 | 9.55802 | 39° | 18km/h | 30520m | 5.1m/s | -44.3°C | 2.9% | 0hPa | 2.6V | 00:00:00 | 02:06:09 | 08:30:00 | |
| IW2NTF | 2026-08-31 00:40:22 | 45.70792 | 9.55760 | 41° | 11km/h | 30472m | 5.1m/s | -44.6°C | 2.9% | 0hPa | 2.5V | 08:30:00 | 02:06:01 | 00:00:00 | |
| DF7PN | 2026-08-31 00:40:21 | 45.70801 | 9.55772 | 45° | 22km/h | 30490m | 6.3m/s | -44.6°C | 0.8% | -1.0hPa | 2.5V | 00:00:00 | 00:00:00 | 00:00:00 | |
| DL1ZP-14 | 2026-08-31 00:40:19 | 45.70798 | 9.55767 | 40° | 16km/h | 30484m | 6.6m/s | -44.6°C | 0.8% | -1.0hPa | 2.5V | 00:00:00 | 00:00:00 | 00:00:00 | |
| OE5DRO-10 | 2026-08-31 00:40:17 | 45.70792 | 9.55760 | 42° | 16km/h | 30472m | 5.1m/s | -44.5°C | 2.9% | 0hPa | 2.5V | 00:00:00 | 00:00:00 | 00:00:00 | |
| DO3MHA-11 | 2026-08-31 00:40:15 | 45.70789 | 9.55753 | 72° | 15km/h | 30460m | 6.7m/s | -44.6°C | 2.9% | 0hPa | 2.5V | 00:00:00 | 02:05:59 | 00:00:00 | |
| DB0UT-7 | 2026-08-31 00:40:14 | 45.70788 | 9.55747 | 79° | 20km/h | 30454m | 6.0m/s | -44.6°C | 2.8% | 0hPa | 2.5V | 00:00:00 | 02:05:58 | 00:00:00 | |
| IW2NTF | 2026-08-31 00:40:13 | 45.70780 | 9.55714 | 18° | 7km/h | 30415m | 4.8m/s | -44.9°C | 2.9% | 0hPa | 2.5V | 08:30:00 | 02:05:51 | 00:00:00 | |
| NBG1-10 | 2026-08-31 00:40:10 | 45.70784 | 9.55719 | 69° | 16km/h | 30432m | 6.4m/s | -44.8°C | 2.9% | 0hPa | 2.6V | 00:00:00 | 02:05:54 | 00:00:00 | |
| DO3MHA-11 | 2026-08-31 00:40:05 | 45.70776 | 9.55710 | 55° | 24km/h | 30403m | 6.3m/s | -45.0°C | 2.9% | 0hPa | 2.6V | 00:00:00 | 02:05:49 | 00:00:00 | |
| IW2NTF | 2026-08-31 00:40:02 | 45.70730 | 9.55657 | 41° | 22km/h | 30343m | 5.2m/s | -45.4°C | 3% | 0hPa | 2.6V | 08:30:00 | 02:05:39 | 00:00:00 | |
| DF7PN | 2026-08-31 00:39:50 | 45.70696 | 9.55646 | 6° | 27km/h | 30309m | 5.6m/s | -45.7°C | 0.9% | -1.0hPa | 2.5V | 00:00:00 | 00:00:00 | 00:00:00 | |
| DL1ZP-14 | 2026-08-31 00:39:48 | 45.70690 | 9.55644 | 16° | 26km/h | 30303m | 6.6m/s | -45.7°C | 0.9% | -1.0hPa | 2.5V | 00:00:00 | 00:00:00 | 00:00:00 | |
| IW2NTF | 2026-08-31 00:39:47 | 45.70665 | 9.55626 | 18° | 13km/h | 30273m | 5.1m/s | -45.8°C | 3.1% | 0hPa | 2.5V | 08:30:00 | 02:05:27 | 00:00:00 | |
| DO3MHA-11 | 2026-08-31 00:39:45 | 45.70673 | 9.55632 | 35° | 15km/h | 30285m | 6.5m/s | -45.7°C | 3.1% | 0hPa | 2.5V | 00:00:00 | 02:05:29 | 00:00:00 | |
| DB0UT-7 | 2026-08-31 00:39:44 | 45.70669 | 9.55628 | 28° | 16km/h | 30279m | 6.1m/s | -45.7°C | 3.1% | 0hPa | 2.5V | 00:00:00 | 00:00:00 | 00:00:00 | |
| OE5DRO-10 | 2026-08-31 00:39:39 | 45.70654 | 9.55622 | 12° | 16km/h | 30250m | 5.5m/s | -45.7°C | 3.1% | 0hPa | 2.5V | 00:00:00 | 00:00:00 | 00:00:00 | |
| IW2NTF | 2026-08-31 00:39:38 | 45.70624 | 9.55630 | 353° | 20km/h | 30217m | 5m/s | -45.7°C | 3.1% | 0hPa | 2.5V | 08:30:00 | 02:05:17 | 00:00:00 | |
| NBG1-10 | 2026-08-31 00:39:37 | 45.70647 | 9.55622 | 353° | 15km/h | 30240m | 5.8m/s | -45.7°C | 3.1% | 0hPa | 2.5V | 00:00:00 | 02:05:21 | 00:00:00 | |
| DO3MHA-11 | 2026-08-31 00:39:35 | 45.70635 | 9.55626 | 342° | 18km/h | 30227m | 5.3m/s | -45.6°C | 3.1% | 0hPa | 2.6V | 00:00:00 | 02:05:19 | 00:00:00 | |
| PG1ADW-2 | 2026-08-31 00:39:33 | 45.70624 | 9.55630 | 354° | 16km/h | 30218m | 4.9m/s | -45.6°C | 3.1% | 0hPa | 2.6V | 00:00:00 | 00:00:00 | 00:00:00 | |
| OE5DXL-15 | 2026-08-31 00:39:32 | 45.70619 | 9.55630 | 12° | 13km/h | 30212m | 6.2m/s | -45.6°C | 3.1% | 0hPa | 2.6V | 00:00:00 | 00:00:00 | 00:00:00 | |
| DO3MHA-11 | 2026-08-31 00:39:25 | 45.70599 | 9.55612 | 336° | 15km/h | 30171m | 5.0m/s | -45.6°C | 3.1% | 0hPa | 2.6V | 00:00:00 | 02:05:09 | 00:00:00 | |
| IW2NTF | 2026-08-31 00:39:24 | 45.70588 | 9.55620 | 359° | 9km/h | 30148m | 5.6m/s | -45.8°C | 3.1% | 0hPa | 2.6V | 08:30:00 | 02:05:05 | 00:00:00 | |
| DK5PH-5 | 2026-08-31 00:39:20 | 45.70586 | 9.55619 | 19° | 15km/h | 30143m | 5.4m/s | -45.7°C | 3.1% | 0hPa | 2.5V | 00:00:00 | 02:05:04 | 00:00:00 | |
| DF7PN | 2026-08-31 00:39:19 | 45.70579 | 9.55616 | 14° | 16km/h | 30132m | 6.1m/s | -45.8°C | 0.9% | -1.0hPa | 2.5V | 00:00:00 | 00:00:00 | 00:00:00 | |
| DL1ZP-14 | 2026-08-31 00:39:18 | 45.70574 | 9.55615 | 9° | 20km/h | 30126m | 6.4m/s | -45.8°C | 0.9% | -1.0hPa | 2.5V | 00:00:00 | 00:00:00 | 00:00:00 | |
| DO3MHA-11 | 2026-08-31 00:39:15 | 45.70563 | 9.55612 | 10° | 13km/h | 30115m | 5.0m/s | -45.7°C | 3.1% | 0hPa | 2.6V | 00:00:00 | 02:04:59 | 00:00:00 | |
| IW2NTF | 2026-08-31 00:39:14 | 45.70550 | 9.55607 | 349° | 7km/h | 30091m | 5.6m/s | -45.9°C | 3.1% | 0hPa | 2.6V | 08:30:00 | 02:04:55 | 00:00:00 | |
| PG1ADW-2 | 2026-08-31 00:39:12 | 45.70552 | 9.55607 | 20° | 13km/h | 30097m | 5.6m/s | -45.8°C | 3.1% | 0hPa | 2.6V | 00:00:00 | 02:04:56 | 00:00:00 | |
| DO3MHA-11 | 2026-08-31 00:39:05 | 45.70542 | 9.55625 | 330° | 16km/h | 30057m | 5.6m/s | -46.0°C | 3.2% | 0hPa | 2.6V | 00:00:00 | 02:04:49 | 00:00:00 | |
| IW2NTF | 2026-08-31 00:39:04 | 45.70529 | 9.55622 | 7° | 24km/h | 30033m | 6m/s | -46.1°C | 3.1% | 0hPa | 2.6V | 08:30:00 | 02:04:45 | 00:00:00 | |
| OE5DXL-15 | 2026-08-31 00:39:02 | 45.70534 | 9.55623 | 12° | 18km/h | 30040m | 6.7m/s | -46.1°C | 3.2% | 0hPa | 2.6V | 00:00:00 | 00:00:00 | 00:00:00 | |
| OE5DRO-10 | 2026-08-31 00:39:01 | 45.70529 | 9.55622 | 8° | 18km/h | 30033m | 5.9m/s | -46.1°C | 3.1% | 0hPa | 2.6V | 00:00:00 | 00:00:00 | 00:00:00 | |
| S52SK | 2026-08-31 00:38:59 | 45.70523 | 9.55621 | 8° | 26km/h | 30028m | 4.8m/s | -46.1°C | 0.9% | 0hPa | 2.6V | 00:00:00 | 00:00:00 | 00:00:00 | |
| DO3MHA-11 | 2026-08-31 00:38:55 | 45.70501 | 9.55612 | 18° | 16km/h | 29999m | 5.6m/s | -46.0°C | 3.1% | 0hPa | 2.6V | 00:00:00 | 02:04:39 | 08:30:00 | |
| IW2NTF | 2026-08-31 00:38:53 | 45.70490 | 9.55618 | 339° | 16km/h | 29977m | 4.8m/s | -46.1°C | 3.1% | 0hPa | 2.6V | 08:30:00 | 02:04:35 | 00:00:00 | |
| DF7PN | 2026-08-31 00:38:48 | 45.70471 | 9.55616 | 16° | 22km/h | 29954m | 5.6m/s | -46.2°C | 0.9% | -1.0hPa | 2.6V | 00:00:00 | 00:00:00 | 00:00:00 | |
| DL1ZP-14 | 2026-08-31 00:38:47 | 45.70466 | 9.55614 | 12° | 24km/h | 29948m | 6.4m/s | -46.3°C | 0.9% | -1.0hPa | 2.6V | 00:00:00 | 00:00:00 | 00:00:00 | |
| DO3MHA-11 | 2026-08-31 00:38:45 | 45.70459 | 9.55612 | 6° | 16km/h | 29943m | 5.3m/s | -46.2°C | 3.2% | 0hPa | 2.5V | 00:00:00 | 02:04:29 | 00:00:00 | |
| DB0UT-7 | 2026-08-31 00:38:44 | 45.70453 | 9.55612 | 2° | 16km/h | 29938m | 4.2m/s | -46.2°C | 3.2% | 0hPa | 2.5V | 00:00:00 | 00:00:00 | 08:30:00 | |
| IW2NTF | 2026-08-31 00:38:43 | 45.70441 | 9.55611 | 8° | 9km/h | 29921m | 6.4m/s | -46.3°C | 3.2% | 0hPa | 2.6V | 08:30:00 | 02:04:25 | 00:00:00 | |
| OE5DRO-10 | 2026-08-31 00:38:42 | 45.70444 | 9.55612 | 4° | 15km/h | 29928m | 6.4m/s | -46.3°C | 3.2% | 0hPa | 2.6V | 00:00:00 | 00:00:00 | 00:00:00 | |
| IW2NTF | 2026-08-31 00:38:37 | 45.70392 | 9.55622 | 21° | 18km/h | 29866m | 5.7m/s | -46.4°C | 3.2% | 0hPa | 2.6V | 08:30:00 | 02:04:15 | 00:00:00 | |
| DO3MHA-11 | 2026-08-31 00:38:35 | 45.70418 | 9.55621 | 344° | 16km/h | 29888m | 4.7m/s | -46.3°C | 3.2% | 0hPa | 2.6V | 00:00:00 | 02:04:19 | 00:00:00 | |
| PG1ADW-2 | 2026-08-31 00:38:32 | 45.70397 | 9.55623 | 12° | 15km/h | 29872m | 5.7m/s | -46.4°C | 3.2% | 0hPa | 2.6V | 00:00:00 | 00:00:00 | 00:00:00 | |
| NBG1-10 | 2026-08-31 00:38:24 | 45.70382 | 9.55623 | 286° | 13km/h | 29827m | 5.1m/s | -46.4°C | 3.1% | 0hPa | 2.6V | 00:00:00 | 02:04:08 | 00:00:00 | |
| IW2NTF | 2026-08-31 00:38:23 | 45.70375 | 9.55627 | 342° | 20km/h | 29811m | 6.7m/s | -46.5°C | 3.2% | 0hPa | 2.6V | 08:30:00 | 02:04:05 | 00:00:00 | |
| OE5DRO-10 | 2026-08-31 00:38:23 | 45.70381 | 9.55623 | 333° | 16km/h | 29822m | 4.3m/s | -46.4°C | 3.2% | 0hPa | 2.5V | 00:00:00 | 00:00:00 | 00:00:00 | |
| DK5PH-5 | 2026-08-31 00:38:20 | 45.70370 | 9.55629 | 343° | 16km/h | 29805m | 6.5m/s | -46.4°C | 3.1% | 0hPa | 2.6V | 00:00:00 | 02:04:04 | 00:00:00 | |
| DF7PN | 2026-08-31 00:38:16 | 45.70343 | 9.55639 | 354° | 16km/h | 29784m | 6.3m/s | -46.5°C | 0.9% | -1.0hPa | 2.6V | 00:00:00 | 00:00:00 | 00:00:00 | |
| DO3MHA-11 | 2026-08-31 00:38:15 | 45.70340 | 9.55638 | 19° | 13km/h | 29778m | 6.3m/s | -46.5°C | 3.2% | 0hPa | 2.6V | 00:00:00 | 02:03:59 | 00:00:00 | |
| DB0UT-7 | 2026-08-31 00:38:14 | 45.70339 | 9.55637 | 80° | 15km/h | 29772m | 5.4m/s | -46.5°C | 3.2% | 0hPa | 2.6V | 00:00:00 | 02:03:58 | 00:00:00 | |
| IW2NTF | 2026-08-31 00:38:13 | 45.70338 | 9.55632 | 5° | 5km/h | 29756m | 5.4m/s | -46.5°C | 3.2% | 0hPa | 2.6V | 08:30:00 | 02:03:55 | 00:00:00 | |
| PG1ADW-2 | 2026-08-31 00:38:12 | 45.70339 | 9.55633 | 88° | 15km/h | 29762m | 5.5m/s | -46.5°C | 3.2% | 0hPa | 2.6V | 00:00:00 | 00:00:00 | 00:00:00 | |
| DO3MHA-11 | 2026-08-31 00:38:05 | 45.70312 | 9.55647 | 344° | 15km/h | 29723m | 5.1m/s | -46.7°C | 3.3% | 0hPa | 2.6V | 00:00:00 | 02:03:49 | 00:00:00 | |
| OE5DRO-10 | 2026-08-31 00:38:04 | 45.70306 | 9.55648 | 350° | 16km/h | 29718m | 5.5m/s | -46.7°C | 3.3% | 0hPa | 2.6V | 00:00:00 | 00:00:00 | 00:00:00 | |
| IW2NTF | 2026-08-31 00:38:03 | 45.70291 | 9.55649 | 13° | 15km/h | 29701m | 4.1m/s | -46.7°C | 3.3% | 0hPa | 2.6V | 08:30:00 | 02:03:45 | 00:00:00 | |
| OE5DXL-15 | 2026-08-31 00:38:02 | 45.70295 | 9.55650 | 3° | 16km/h | 29706m | 5.2m/s | -46.7°C | 3.3% | 0hPa | 2.6V | 00:00:00 | 00:00:00 | 00:00:00 | |
| DO3MHA-11 | 2026-08-31 00:37:55 | 45.70295 | 9.55641 | 228° | 18km/h | 29669m | 5.5m/s | -46.7°C | 3.3% | 0hPa | 2.6V | 00:00:00 | 02:03:39 | 00:00:00 | |
| IW2NTF | 2026-08-31 00:37:53 | 45.70281 | 9.55653 | 346° | 26km/h | 29646m | 5.6m/s | -46.7°C | 3.2% | 0hPa | 2.6V | 08:30:00 | 02:03:35 | 00:00:00 | |
| DF7PN | 2026-08-31 00:37:46 | 45.70255 | 9.55646 | 18° | 11km/h | 29612m | 6.2m/s | -46.6°C | 0.9% | -1.0hPa | 2.6V | 00:00:00 | 00:00:00 | 00:00:00 | |
| DO3MHA-11 | 2026-08-31 00:37:45 | 45.70255 | 9.55646 | 19° | 13km/h | 29612m | 6.2m/s | -46.6°C | 3.2% | 0hPa | 2.6V | 00:00:00 | 02:03:29 | 00:00:00 | |
| DB0UT-7 | 2026-08-31 00:37:44 | 45.70253 | 9.55645 | 354° | 22km/h | 29606m | 5.9m/s | -46.6°C | 3.2% | 0hPa | 2.6V | 00:00:00 | 00:00:00 | 00:00:00 | |
| IW2NTF | 2026-08-31 00:37:43 | 45.70245 | 9.55651 | 324° | 9km/h | 29589m | 5.5m/s | -46.7°C | 3.2% | 0hPa | 2.6V | 08:30:00 | 02:03:25 | 00:00:00 | |
| DO3MHA-11 | 2026-08-31 00:37:35 | 45.70222 | 9.55653 | 359° | 20km/h | 29555m | 5.8m/s | -46.7°C | 3.2% | 0hPa | 2.6V | 00:00:00 | 02:03:19 | 00:00:00 | |
| IW2NTF | 2026-08-31 00:37:33 | 45.70194 | 9.55651 | 14° | 18km/h | 29532m | 6.1m/s | -46.7°C | 3.3% | 0hPa | 2.6V | 08:30:00 | 02:03:15 | 00:00:00 | |
| OE5DXL-15 | 2026-08-31 00:37:32 | 45.70199 | 9.55652 | 9° | 22km/h | 29539m | 6.2m/s | -46.7°C | 3.2% | 0hPa | 2.6V | 00:00:00 | 00:00:00 | 00:00:00 | |
| OE5DRO-10 | 2026-08-31 00:37:26 | 45.70181 | 9.55658 | 313° | 22km/h | 29505m | 4.9m/s | -46.6°C | 3.2% | 0hPa | 2.6V | 00:00:00 | 00:00:00 | 00:00:00 | |
| DO3MHA-11 | 2026-08-31 00:37:25 | 45.70177 | 9.55664 | 322° | 29km/h | 29500m | 4.3m/s | -46.6°C | 3.2% | 0hPa | 2.6V | 00:00:00 | 02:03:09 | 08:30:00 | |
| IW2NTF | 2026-08-31 00:37:24 | 45.70153 | 9.55672 | 8° | 29km/h | 29477m | 5.2m/s | -46.6°C | 3.2% | 0hPa | 2.6V | 08:30:00 | 02:03:05 | 00:00:00 | |
| DK5PH-5 | 2026-08-31 00:37:20 | 45.70145 | 9.55670 | 10° | 20km/h | 29472m | 5.0m/s | -46.6°C | 3.2% | 0hPa | 2.6V | 00:00:00 | 02:03:04 | 00:00:00 | |
| DO3MHA-11 | 2026-08-31 00:37:15 | 45.70105 | 9.55673 | 338° | 15km/h | 29445m | 4.7m/s | -46.5°C | 3.2% | 0hPa | 2.6V | 00:00:00 | 02:02:59 | 00:00:00 | |
| IW2NTF | 2026-08-31 00:37:14 | 45.70094 | 9.55681 | 348° | 4km/h | 29420m | 5.5m/s | -46.5°C | 3.1% | 0hPa | 2.6V | 08:30:00 | 02:02:55 | 00:00:00 | |
| PG1ADW-2 | 2026-08-31 00:37:13 | 45.70095 | 9.55680 | 340° | 16km/h | 29426m | 6.3m/s | -46.5°C | 3.2% | 0hPa | 2.6V | 00:00:00 | 00:00:00 | 00:00:00 | |
| NBG1-10 | 2026-08-31 00:37:10 | 45.70092 | 9.55681 | 337° | 18km/h | 29415m | 5.4m/s | -46.5°C | 3.2% | 0hPa | 2.6V | 00:00:00 | 02:02:54 | 00:00:00 | |
| DO3MHA-11 | 2026-08-31 00:37:05 | 45.70069 | 9.55694 | 348° | 22km/h | 29386m | 6.7m/s | -46.5°C | 3.1% | 0hPa | 2.6V | 00:00:00 | 02:02:49 | 00:00:00 | |
| IW2NTF | 2026-08-31 00:37:03 | 45.70040 | 9.55705 | 331° | 26km/h | 29363m | 6.2m/s | -46.6°C | 3.2% | 0hPa | 2.6V | 08:30:00 | 02:02:45 | 00:00:00 | |
| OE5DXL-15 | 2026-08-31 00:37:02 | 45.70046 | 9.55701 | 343° | 16km/h | 29369m | 5.6m/s | -46.5°C | 3.1% | 0hPa | 2.5V | 00:00:00 | 00:00:00 | 00:00:00 | |
| OE3JTB-15 | 2026-08-31 00:36:59 | 45.70031 | 9.55715 | 303° | 16km/h | 29353m | 4.8m/s | -46.6°C | 3.2% | 0hPa | 2.5V | 00:00:00 | 00:00:00 | 08:30:00 | |
| IW2NTF | 2026-08-31 00:36:57 | 45.70027 | 9.55730 | 331° | 22km/h | 29306m | 5.4m/s | -47°C | 3.2% | 0hPa | 2.6V | 08:30:00 | 02:02:35 | 00:00:00 | |
| S52SK | 2026-08-31 00:36:55 | 45.70032 | 9.55725 | 170° | 5km/h | 29328m | 5.2m/s | -46.8°C | 1.0% | 0hPa | 2.5V | 00:00:00 | 00:00:00 | 00:00:00 | |
| PG1ADW-2 | 2026-08-31 00:36:52 | 45.70031 | 9.55727 | 327° | 18km/h | 29312m | 5.9m/s | -46.9°C | 3.2% | 0hPa | 2.5V | 00:00:00 | 00:00:00 | 00:00:00 | |
| DK5PH-5 | 2026-08-31 00:36:50 | 45.70021 | 9.55734 | 337° | 16km/h | 29301m | 5.7m/s | -47.0°C | 3.3% | 0hPa | 2.6V | 00:00:00 | 02:02:34 | 00:00:00 | |
| OE5DRO-10 | 2026-08-31 00:36:48 | 45.70008 | 9.55740 | 348° | 18km/h | 29288m | 5.9m/s | -47.1°C | 3.3% | 0hPa | 2.6V | 00:00:00 | 00:00:00 | 00:00:00 | |
| DO3MHA-11 | 2026-08-31 00:36:45 | 45.69988 | 9.55747 | 339° | 11km/h | 29271m | 6.4m/s | -47.1°C | 3.3% | 0hPa | 2.6V | 00:00:00 | 02:02:29 | 00:00:00 | |
| IW2NTF | 2026-08-31 00:36:44 | 45.69979 | 9.55757 | 62° | 0km/h | 29248m | 6.6m/s | -47.2°C | 3.2% | 0hPa | 2.6V | 08:30:00 | 02:02:25 | 00:00:00 | |
| DB0UT-7 | 2026-08-31 00:36:44 | 45.69984 | 9.55750 | 329° | 16km/h | 29265m | 5.8m/s | -47.1°C | 3.3% | 0hPa | 2.6V | 00:00:00 | 00:00:00 | 00:00:00 | |
| DF7PN | 2026-08-31 00:36:43 | 45.69981 | 9.55753 | 317° | 11km/h | 29259m | 5.2m/s | -47.2°C | 0.9% | -1.0hPa | 2.6V | 00:00:00 | 00:00:00 | 00:00:00 | |
| DL1ZP-14 | 2026-08-31 00:36:42 | 45.69979 | 9.55757 | 62° | 0km/h | 29248m | 6.6m/s | -47.2°C | 0.9% | -1.0hPa | 2.6V | 00:00:00 | 00:00:00 | 00:00:00 | |
| IW2NTF | 2026-08-31 00:36:37 | 45.69942 | 9.55756 | 355° | 24km/h | 29190m | 5.7m/s | -47.3°C | 3.3% | 0hPa | 2.6V | 08:30:00 | 02:02:15 | 00:00:00 | |
| DO3MHA-11 | 2026-08-31 00:36:35 | 45.69969 | 9.55746 | 344° | 18km/h | 29214m | 5.7m/s | -47.1°C | 3.2% | 0hPa | 2.5V | 00:00:00 | 02:02:19 | 00:00:00 | |
| OE5DRO-10 | 2026-08-31 00:36:29 | 45.69933 | 9.55756 | 3° | 15km/h | 29180m | 5.3m/s | -47.4°C | 3.3% | 0hPa | 2.5V | 00:00:00 | 00:00:00 | 08:30:00 | |
| BAUMI2-15 | 2026-08-31 00:36:27 | 45.69929 | 9.55757 | 326° | 20km/h | 29168m | 6.5m/s | -47.4°C | 3.3% | 0hPa | 2.5V | 00:00:00 | 02:02:11 | 00:00:00 | |
| DO3MHA-11 | 2026-08-31 00:36:25 | 45.69926 | 9.55761 | 309° | 18km/h | 29156m | 5.6m/s | -47.4°C | 3.3% | 0hPa | 2.6V | 00:00:00 | 02:02:09 | 00:00:00 | |
| IW2NTF | 2026-08-31 00:36:22 | 45.69910 | 9.55766 | 347° | 24km/h | 29128m | 6.2m/s | -47.6°C | 3.3% | 0hPa | 2.6V | 08:30:00 | 02:02:04 | 00:00:00 | |
| DK5PH-5 | 2026-08-31 00:36:20 | 45.69910 | 9.55766 | 348° | 15km/h | 29128m | 6.2m/s | -47.6°C | 3.3% | 0hPa | 2.6V | 00:00:00 | 02:02:04 | 00:00:00 | |
| BAUMI2-15 | 2026-08-31 00:36:17 | 45.69891 | 9.55779 | 326° | 16km/h | 29109m | 5.1m/s | -47.7°C | 3.3% | 0hPa | 2.6V | 00:00:00 | 02:02:01 | 00:00:00 | |
| DO3MHA-11 | 2026-08-31 00:36:15 | 45.69882 | 9.55790 | 316° | 15km/h | 29097m | 6.3m/s | -47.8°C | 3.4% | 0hPa | 2.6V | 00:00:00 | 02:01:59 | 00:00:00 | |
| DB0UT-7 | 2026-08-31 00:36:14 | 45.69880 | 9.55793 | 306° | 11km/h | 29092m | 5.3m/s | -47.8°C | 3.4% | 0hPa | 2.6V | 00:00:00 | 02:01:58 | 00:00:00 | |
| IW2NTF | 2026-08-31 00:36:11 | 45.69872 | 9.55808 | 324° | 15km/h | 29069m | 4.8m/s | -47.9°C | 3.4% | 0hPa | 2.6V | 08:30:00 | 02:01:54 | 00:00:00 | |
| DL1ZP-14 | 2026-08-31 00:36:11 | 45.69872 | 9.55808 | 324° | 15km/h | 29069m | 4.8m/s | -47.9°C | 1.0% | -1.0hPa | 2.6V | 00:00:00 | 00:00:00 | 00:00:00 | |
| OE5DRO-10 | 2026-08-31 00:36:10 | 45.69872 | 9.55808 | 325° | 13km/h | 29069m | 4.8m/s | -47.9°C | 3.4% | 0hPa | 2.5V | 00:00:00 | 00:00:00 | 00:00:00 | |
| BAUMI2-15 | 2026-08-31 00:36:07 | 45.69861 | 9.55811 | 9° | 16km/h | 29052m | 6.9m/s | -47.8°C | 3.4% | 0hPa | 2.5V | 00:00:00 | 02:01:51 | 08:30:00 | |
| DO3MHA-11 | 2026-08-31 00:36:06 | 45.69853 | 9.55808 | 17° | 11km/h | 29040m | 5.6m/s | -47.8°C | 3.4% | 0hPa | 2.5V | 00:00:00 | 02:01:49 | 00:00:00 | |
| NBG1-10 | 2026-08-31 00:36:04 | 45.69848 | 9.55807 | 7° | 11km/h | 29033m | 6.0m/s | -47.8°C | 3.4% | 0hPa | 2.5V | 00:00:00 | 02:01:48 | 08:30:00 | |
| IW2NTF | 2026-08-31 00:36:01 | 45.69836 | 9.55816 | 297° | 9km/h | 29011m | 4.8m/s | -47.9°C | 3.4% | 0hPa | 2.6V | 08:30:00 | 02:01:44 | 00:00:00 | |
| BAUMI2-15 | 2026-08-31 00:36:01 | 45.69838 | 9.55812 | 312° | 9km/h | 29016m | 4.5m/s | -47.8°C | 3.4% | 0hPa | 2.6V | 00:00:00 | 02:01:45 | 00:00:00 | |
| BAUMI2-15 | 2026-08-31 00:35:56 | 45.69836 | 9.55813 | 93° | 11km/h | 28988m | 5.3m/s | -47.8°C | 3.4% | 0hPa | 2.6V | 00:00:00 | 02:01:40 | 00:00:00 | |
| DO3MHA-11 | 2026-08-31 00:35:55 | 45.69836 | 9.55809 | 77° | 7km/h | 28982m | 6.0m/s | -47.8°C | 3.4% | 0hPa | 2.6V | 00:00:00 | 02:01:39 | 08:30:00 | |
| IW2NTF | 2026-08-31 00:35:50 | 45.69825 | 9.55802 | 5° | 7km/h | 28953m | 6.2m/s | -47.9°C | 3.5% | 0hPa | 2.6V | 08:30:00 | 02:01:34 | 00:00:00 | |
| BAUMI2-15 | 2026-08-31 00:35:50 | 45.69825 | 9.55802 | 6° | 5km/h | 28953m | 6.2m/s | -47.9°C | 3.5% | 0hPa | 2.6V | 00:00:00 | 02:01:34 | 00:00:00 | |
| IW2NTF | 2026-08-31 00:35:45 | 45.69831 | 9.55791 | 108° | 18km/h | 28896m | 6.7m/s | -47.9°C | 3.4% | 0hPa | 2.6V | 08:30:00 | 02:01:24 | 00:00:00 | |
| BAUMI2-15 | 2026-08-31 00:35:44 | 45.69826 | 9.55799 | 208° | 15km/h | 28918m | 5.4m/s | -47.8°C | 3.4% | 0hPa | 2.5V | 00:00:00 | 02:01:28 | 00:00:00 | |
| DF7PN | 2026-08-31 00:35:41 | 45.69830 | 9.55795 | 116° | 11km/h | 28903m | 6.6m/s | -47.9°C | 1.0% | -1.0hPa | 2.5V | 00:00:00 | 00:00:00 | 00:00:00 | |
| DL1ZP-14 | 2026-08-31 00:35:40 | 45.69832 | 9.55784 | 107° | 22km/h | 28890m | 5.7m/s | -47.9°C | 1.0% | -1.0hPa | 2.5V | 00:00:00 | 00:00:00 | 00:00:00 | |
| BAUMI2-15 | 2026-08-31 00:35:36 | 45.69837 | 9.55764 | 109° | 4km/h | 28873m | 6.4m/s | -47.8°C | 3.4% | 0hPa | 2.6V | 00:00:00 | 02:01:20 | 00:00:00 | |
| DO3MHA-11 | 2026-08-31 00:35:35 | 45.69837 | 9.55762 | 118° | 9km/h | 28867m | 5.7m/s | -47.8°C | 3.4% | 0hPa | 2.6V | 00:00:00 | 02:01:19 | 00:00:00 | |
| IW2NTF | 2026-08-31 00:35:34 | 45.69838 | 9.55756 | 80° | 11km/h | 28839m | 4.8m/s | -47.8°C | 3.4% | 0hPa | 2.6V | 08:30:00 | 02:01:14 | 00:00:00 | |
| PG1ADW-2 | 2026-08-31 00:35:32 | 45.69838 | 9.55761 | 109° | 16km/h | 28851m | 6.2m/s | -47.8°C | 3.4% | 0hPa | 2.6V | 00:00:00 | 00:00:00 | 00:00:00 | |
| BAUMI2-15 | 2026-08-31 00:35:31 | 45.69838 | 9.55759 | 88° | 13km/h | 28845m | 5.7m/s | -47.8°C | 3.4% | 0hPa | 2.6V | 00:00:00 | 02:01:15 | 00:00:00 | |
| BAUMI2-15 | 2026-08-31 00:35:26 | 45.69835 | 9.55736 | 84° | 18km/h | 28817m | 5.2m/s | -47.8°C | 3.4% | 0hPa | 2.6V | 00:00:00 | 02:01:10 | 00:00:00 | |
| DO3MHA-11 | 2026-08-31 00:35:25 | 45.69835 | 9.55730 | 95° | 16km/h | 28812m | 5.2m/s | -47.8°C | 3.4% | 0hPa | 2.6V | 00:00:00 | 02:01:09 | 00:00:00 | |
| IW2NTF | 2026-08-31 00:35:24 | 45.69843 | 9.55696 | 101° | 15km/h | 28785m | 5.2m/s | -47.7°C | 3.4% | 0hPa | 2.6V | 08:30:00 | 02:01:04 | 00:00:00 | |
| BAUMI2-15 | 2026-08-31 00:35:21 | 45.69842 | 9.55702 | 111° | 16km/h | 28790m | 4.0m/s | -47.7°C | 3.4% | 0hPa | 2.6V | 00:00:00 | 02:01:05 | 00:00:00 | |
| DK5PH-5 | 2026-08-31 00:35:20 | 45.69843 | 9.55696 | 102° | 16km/h | 28785m | 5.2m/s | -47.7°C | 3.4% | 0hPa | 2.6V | 00:00:00 | 02:01:04 | 00:00:00 | |
| BAUMI2-15 | 2026-08-31 00:35:16 | 45.69834 | 9.55686 | 19° | 20km/h | 28762m | 4.8m/s | 0°C | 0% | 0hPa | 2.6V | 00:00:00 | 02:01:00 | 08:30:00 | |
| DO3MHA-11 | 2026-08-31 00:35:15 | 45.69830 | 9.55683 | 34° | 20km/h | 28757m | 6.0m/s | -47.6°C | 3.4% | 0hPa | 2.6V | 00:00:00 | 02:00:59 | 00:00:00 | |
| IW2NTF | 2026-08-31 00:35:14 | 45.69823 | 9.55649 | 103° | 20km/h | 28726m | 5.8m/s | -47.6°C | 3.4% | 0hPa | 2.6V | 08:30:00 | 02:00:54 | 00:00:00 | |
| DB0UT-7 | 2026-08-31 00:35:14 | 45.69826 | 9.55678 | 55° | 18km/h | 28751m | 6.1m/s | -47.6°C | 3.4% | 0hPa | 2.5V | 00:00:00 | 02:00:58 | 00:00:00 | |
| OE5DRO-10 | 2026-08-31 00:35:13 | 45.69824 | 9.55671 | 71° | 20km/h | 28744m | 5.9m/s | -47.6°C | 3.4% | 0hPa | 2.5V | 00:00:00 | 00:00:00 | 00:00:00 | |
| PG1ADW-2 | 2026-08-31 00:35:12 | 45.69823 | 9.55664 | 83° | 18km/h | 28739m | 6.0m/s | -47.6°C | 3.4% | 0hPa | 2.5V | 00:00:00 | 02:00:56 | 00:00:00 | |
| BAUMI2-15 | 2026-08-31 00:35:11 | 45.69822 | 9.55656 | 92° | 20km/h | 28732m | 6.3m/s | 0°C | 0% | 0hPa | 2.5V | 00:00:00 | 02:00:55 | 00:00:00 | |
| DF7PN | 2026-08-31 00:35:10 | 45.69825 | 9.55642 | 112° | 18km/h | 28720m | 5.4m/s | -47.6°C | 1.0% | -1.0hPa | 2.5V | 00:00:00 | 00:00:00 | 00:00:00 | |
| DL1ZP-14 | 2026-08-31 00:35:08 | 45.69827 | 9.55635 | 116° | 18km/h | 28715m | 6.2m/s | -47.6°C | 1.0% | -1.0hPa | 2.5V | 00:00:00 | 00:00:00 | 00:00:00 | |
| BAUMI2-15 | 2026-08-31 00:35:06 | 45.69830 | 9.55624 | 104° | 13km/h | 28704m | 4.1m/s | 0°C | 0% | 0hPa | 2.6V | 00:00:00 | 02:00:50 | 00:00:00 | |
| DO3MHA-11 | 2026-08-31 00:35:05 | 45.69830 | 9.55621 | 54° | 20km/h | 28700m | 5.3m/s | -47.5°C | 3.4% | 0hPa | 2.6V | 00:00:00 | 02:00:49 | 00:00:00 | |
| IW2NTF | 2026-08-31 00:35:04 | 45.69807 | 9.55624 | 15° | 22km/h | 28672m | 5.4m/s | -47.5°C | 3.4% | 0hPa | 2.6V | 08:30:00 | 02:00:44 | 00:00:00 | |
| BAUMI2-15 | 2026-08-31 00:35:01 | 45.69813 | 9.55625 | 358° | 24km/h | 28677m | 3.9m/s | 0°C | 0% | 0hPa | 2.6V | 00:00:00 | 02:00:45 | 00:00:00 | |
| NBG1-10 | 2026-08-31 00:34:58 | 45.69800 | 9.55614 | 78° | 15km/h | 28661m | 5.7m/s | -47.4°C | 3.4% | 0hPa | 2.6V | 00:00:00 | 02:00:42 | 00:00:00 | |
| OE3JTB-15 | 2026-08-31 00:34:57 | 45.69800 | 9.55607 | 100° | 15km/h | 28655m | 5.3m/s | 0°C | 0% | 0hPa | 2.6V | 00:00:00 | 00:00:00 | 00:00:00 | |
| BAUMI2-15 | 2026-08-31 00:34:56 | 45.69802 | 9.55599 | 113° | 15km/h | 28650m | 6.0m/s | 0°C | 0% | 0hPa | 2.6V | 00:00:00 | 02:00:40 | 00:00:00 | |
| DO3MHA-11 | 2026-08-31 00:34:55 | 45.69805 | 9.55592 | 123° | 15km/h | 28644m | 5.7m/s | -47.4°C | 3.4% | 0hPa | 2.6V | 00:00:00 | 02:00:39 | 00:00:00 | |
| IW2NTF | 2026-08-31 00:34:54 | 45.69809 | 9.55581 | 355° | 9km/h | 28616m | 6.1m/s | -47.2°C | 3.3% | 0hPa | 2.6V | 08:30:00 | 02:00:34 | 00:00:00 | |
| OE5DRO-10 | 2026-08-31 00:34:54 | 45.69807 | 9.55587 | 130° | 13km/h | 28638m | 4.9m/s | -47.3°C | 3.4% | 0hPa | 2.5V | 00:00:00 | 00:00:00 | 00:00:00 | |
| PG1ADW-2 | 2026-08-31 00:34:52 | 45.69810 | 9.55582 | 121° | 15km/h | 28628m | 5.7m/s | -47.3°C | 3.4% | 0hPa | 2.5V | 00:00:00 | 00:00:00 | 08:30:00 | |
| BAUMI2-15 | 2026-08-31 00:34:51 | 45.69810 | 9.55581 | 20° | 16km/h | 28623m | 6.0m/s | 0°C | 0% | 0hPa | 2.6V | 00:00:00 | 02:00:35 | 00:00:00 | |
| DK5PH-5 | 2026-08-31 00:34:50 | 45.69808 | 9.55581 | 356° | 15km/h | 28616m | 6.0m/s | -47.2°C | 3.3% | 0hPa | 2.6V | 00:00:00 | 02:00:34 | 00:00:00 | |
| DO3MHA-11 | 2026-08-31 00:34:45 | 45.69788 | 9.55595 | 317° | 13km/h | 28588m | 4.5m/s | -47.1°C | 3.3% | 0hPa | 2.6V | 00:00:00 | 02:00:29 | 00:00:00 | |
| IW2NTF | 2026-08-31 00:34:44 | 45.69789 | 9.55587 | 122° | 20km/h | 28560m | 4m/s | -47.3°C | 3.3% | 0hPa | 2.6V | 08:30:00 | 02:00:24 | 00:00:00 | |
| DB0UT-7 | 2026-08-31 00:34:44 | 45.69786 | 9.55599 | 319° | 13km/h | 28584m | 4.9m/s | -47.1°C | 3.3% | 0hPa | 2.5V | 00:00:00 | 00:00:00 | 00:00:00 | |
| S52SK | 2026-08-31 00:34:38 | 45.69792 | 9.55581 | 135° | 18km/h | 28556m | 4.6m/s | -47.4°C | 0% | 0hPa | 2.5V | 00:00:00 | 00:00:00 | 00:00:00 | |
| DL1ZP-14 | 2026-08-31 00:34:37 | 45.69797 | 9.55577 | 212° | 7km/h | 28545m | 5.3m/s | -47.4°C | 1.0% | -1.0hPa | 2.5V | 00:00:00 | 00:00:00 | 00:00:00 | |
| IW2NTF | 2026-08-31 00:34:35 | 45.69780 | 9.55611 | 312° | 11km/h | 28508m | 6m/s | -47.4°C | 3.3% | 0hPa | 2.6V | 08:30:00 | 02:00:14 | 00:00:00 | |
| PG1ADW-2 | 2026-08-31 00:34:32 | 45.69786 | 9.55603 | 322° | 11km/h | 28518m | 4.3m/s | -47.3°C | 3.3% | 0hPa | 2.6V | 00:00:00 | 00:00:00 | 00:00:00 | |
| OE3JTB-15 | 2026-08-31 00:34:28 | 45.69779 | 9.55616 | 223° | 13km/h | 28497m | 5.1m/s | 0°C | 0% | 0hPa | 2.6V | 00:00:00 | 02:00:12 | 00:00:00 | |
| DO3MHA-11 | 2026-08-31 00:34:25 | 45.69782 | 9.55614 | 93° | 13km/h | 28480m | 5.8m/s | -47.3°C | 3.3% | 0hPa | 2.6V | 00:00:00 | 02:00:09 | 08:30:00 | |
| IW2NTF | 2026-08-31 00:34:24 | 45.69774 | 9.55614 | 324° | 15km/h | 28453m | 4.7m/s | -47.4°C | 3.3% | 0hPa | 2.6V | 08:30:00 | 02:00:04 | 00:00:00 | |
| DK5PH-5 | 2026-08-31 00:34:20 | 45.69774 | 9.55614 | 325° | 15km/h | 28453m | 4.6m/s | -47.4°C | 3.3% | 0hPa | 2.6V | 00:00:00 | 02:00:04 | 00:00:00 | |
| OE5DRO-10 | 2026-08-31 00:34:16 | 45.69757 | 9.55620 | 21° | 15km/h | 28432m | 4.3m/s | -47.5°C | 3.4% | 0hPa | 2.6V | 00:00:00 | 00:00:00 | 00:00:00 | |
| DO3MHA-11 | 2026-08-31 00:34:15 | 45.69755 | 9.55617 | 47° | 16km/h | 28427m | 6.3m/s | -47.5°C | 3.4% | 0hPa | 2.6V | 00:00:00 | 01:59:59 | 00:00:00 | |
| IW2NTF | 2026-08-31 00:34:14 | 45.69759 | 9.55589 | 95° | 22km/h | 28398m | 5.6m/s | -47.5°C | 3.3% | 0hPa | 2.6V | 08:30:00 | 01:59:54 | 00:00:00 | |
| DB0UT-7 | 2026-08-31 00:34:14 | 45.69754 | 9.55614 | 90° | 16km/h | 28421m | 6.4m/s | -47.5°C | 3.4% | 0hPa | 2.5V | 00:00:00 | 01:59:58 | 08:30:00 | |
| PG1ADW-2 | 2026-08-31 00:34:11 | 45.69758 | 9.55597 | 109° | 16km/h | 28404m | 5.8m/s | 0°C | 0% | 0hPa | 2.6V | 00:00:00 | 00:00:00 | 00:00:00 | |
| DF7PN | 2026-08-31 00:34:08 | 45.69755 | 9.55570 | 42° | 13km/h | 28384m | 5.5m/s | -47.5°C | 1.0% | -1.0hPa | 2.6V | 00:00:00 | 00:00:00 | 00:00:00 | |
| DL1ZP-14 | 2026-08-31 00:34:06 | 45.69753 | 9.55568 | 11° | 11km/h | 28377m | 6.8m/s | -47.4°C | 1.0% | -1.0hPa | 2.6V | 00:00:00 | 00:00:00 | 00:00:00 | |
| DO3MHA-11 | 2026-08-31 00:34:05 | 45.69750 | 9.55568 | 338° | 15km/h | 28371m | 6.0m/s | -47.4°C | 3.3% | 0hPa | 2.6V | 00:00:00 | 01:59:49 | 00:00:00 | |
| IW2NTF | 2026-08-31 00:34:04 | 45.69740 | 9.55574 | 107° | 7km/h | 28345m | 5m/s | -47.5°C | 3.3% | 0hPa | 2.6V | 08:30:00 | 01:59:44 | 00:00:00 | |
| OE3JTB-15 | 2026-08-31 00:33:59 | 45.69741 | 9.55571 | 130° | 15km/h | 28339m | 6.6m/s | 0°C | 0% | 0hPa | 2.6V | 00:00:00 | 00:00:00 | 00:00:00 | |
| OE5DRO-10 | 2026-08-31 00:33:57 | 45.69748 | 9.55560 | 136° | 16km/h | 28327m | 4.5m/s | -47.5°C | 3.3% | 0hPa | 2.6V | 00:00:00 | 00:00:00 | 00:00:00 | |
| DO3MHA-11 | 2026-08-31 00:33:55 | 45.69754 | 9.55547 | 108° | 15km/h | 28318m | 5.4m/s | -47.5°C | 3.3% | 0hPa | 2.6V | 00:00:00 | 01:59:39 | 00:00:00 | |
| IW2NTF | 2026-08-31 00:33:54 | 45.69739 | 9.55534 | 342° | 18km/h | 28290m | 5.2m/s | -47.7°C | 3.3% | 0hPa | 2.6V | 08:30:00 | 01:59:34 | 00:00:00 | |
| NBG1-10 | 2026-08-31 00:33:52 | 45.69749 | 9.55533 | 15° | 15km/h | 28302m | 5.5m/s | -47.6°C | 3.3% | 0hPa | 2.6V | 00:00:00 | 01:59:36 | 00:00:00 | |
| PG1ADW-2 | 2026-08-31 00:33:51 | 45.69744 | 9.55532 | 357° | 15km/h | 28296m | 6.4m/s | 0°C | 0% | 0hPa | 2.6V | 00:00:00 | 01:59:35 | 00:00:00 | |
| DK5PH-5 | 2026-08-31 00:33:49 | 45.69735 | 9.55536 | 338° | 13km/h | 28286m | 4.2m/s | -47.7°C | 3.4% | 0hPa | 2.6V | 00:00:00 | 01:59:33 | 00:00:00 | |
| IW2NTF | 2026-08-31 00:33:45 | 45.69739 | 9.55504 | 148° | 13km/h | 28240m | 4.3m/s | -48.1°C | 3.4% | 0hPa | 2.6V | 08:30:00 | 01:59:24 | 00:00:00 | |
| DO3MHA-11 | 2026-08-31 00:33:45 | 45.69728 | 9.55531 | 88° | 15km/h | 28266m | 5.2m/s | -47.9°C | 3.4% | 0hPa | 2.5V | 00:00:00 | 01:59:29 | 00:00:00 | |
| DB0UT-7 | 2026-08-31 00:33:43 | 45.69730 | 9.55518 | 113° | 13km/h | 28256m | 4.4m/s | -48.0°C | 3.4% | 0hPa | 2.5V | 00:00:00 | 00:00:00 | 00:00:00 | |
| OE5DRO-10 | 2026-08-31 00:33:38 | 45.69741 | 9.55500 | 82° | 13km/h | 28231m | 5.7m/s | -48.1°C | 3.4% | 0hPa | 2.5V | 00:00:00 | 00:00:00 | 08:30:00 | |
| DF7PN | 2026-08-31 00:33:37 | 45.69733 | 9.55494 | 17° | 18km/h | 28215m | 4.5m/s | -48.2°C | 1.0% | -1.0hPa | 2.6V | 00:00:00 | 00:00:00 | 00:00:00 | |
| DL1ZP-14 | 2026-08-31 00:33:36 | 45.69733 | 9.55494 | 17° | 18km/h | 28215m | 4.5m/s | -48.2°C | 1.0% | -1.0hPa | 2.6V | 00:00:00 | 00:00:00 | 00:00:00 | |
| DO3MHA-11 | 2026-08-31 00:33:35 | 45.69733 | 9.55494 | 18° | 13km/h | 28215m | 4.5m/s | -48.1°C | 3.4% | 0hPa | 2.6V | 00:00:00 | 01:59:19 | 00:00:00 | |
| IW2NTF | 2026-08-31 00:33:34 | 45.69720 | 9.55489 | 129° | 7km/h | 28190m | 4.9m/s | -48.2°C | 3.4% | 0hPa | 2.6V | 08:30:00 | 01:59:14 | 00:00:00 | |
| PG1ADW-2 | 2026-08-31 00:33:32 | 45.69720 | 9.55490 | 74° | 11km/h | 28195m | 4.5m/s | 0°C | 0% | 0hPa | 2.6V | 00:00:00 | 00:00:00 | 00:00:00 | |
| OE3JTB-15 | 2026-08-31 00:33:29 | 45.69722 | 9.55486 | 129° | 11km/h | 28185m | 5.7m/s | 0°C | 0% | 0hPa | 2.6V | 00:00:00 | 00:00:00 | 00:00:00 | |
| DO3MHA-11 | 2026-08-31 00:33:25 | 45.69726 | 9.55467 | 65° | 15km/h | 28165m | 4.7m/s | -48.1°C | 3.4% | 0hPa | 2.6V | 00:00:00 | 01:59:09 | 00:00:00 | |
| IW2NTF | 2026-08-31 00:33:24 | 45.69713 | 9.55472 | 346° | 13km/h | 28139m | 5.5m/s | -48.3°C | 3.4% | 0hPa | 2.6V | 08:30:00 | 01:59:04 | 00:00:00 | |
| NBG1-10 | 2026-08-31 00:33:19 | 45.69710 | 9.55472 | 15° | 9km/h | 28134m | 5.9m/s | -48.3°C | 3.5% | 0hPa | 2.6V | 00:00:00 | 01:59:03 | 00:00:00 | |
| DO3MHA-11 | 2026-08-31 00:33:15 | 45.69697 | 9.55456 | 50° | 7km/h | 28113m | 5.3m/s | -48.4°C | 3.5% | 0hPa | 2.6V | 00:00:00 | 01:58:59 | 00:00:00 | |
| IW2NTF | 2026-08-31 00:33:14 | 45.69696 | 9.55460 | 238° | 7km/h | 28085m | 6.1m/s | -48.5°C | 3.5% | 0hPa | 2.6V | 08:30:00 | 01:58:54 | 00:00:00 | |
| DB0UT-7 | 2026-08-31 00:33:13 | 45.69695 | 9.55453 | 327° | 9km/h | 28102m | 5.8m/s | -48.5°C | 3.5% | 0hPa | 2.6V | 00:00:00 | 01:58:57 | 00:00:00 | |
| PG1ADW-2 | 2026-08-31 00:33:11 | 45.69695 | 9.55457 | 249° | 7km/h | 28091m | 5.0m/s | 0°C | 0% | 0hPa | 2.6V | 00:00:00 | 00:00:00 | 00:00:00 | |
| DO3MHA-11 | 2026-08-31 00:33:05 | 45.69691 | 9.55465 | 351° | 11km/h | 28059m | 5.4m/s | -48.6°C | 3.5% | 0hPa | 2.6V | 00:00:00 | 01:58:49 | 00:00:00 | |
| IW2NTF | 2026-08-31 00:33:04 | 45.69676 | 9.55456 | 89° | 11km/h | 28033m | 4.3m/s | -48.6°C | 3.5% | 0hPa | 2.6V | 08:30:00 | 01:58:44 | 00:00:00 | |
| OE5DRO-10 | 2026-08-31 00:33:00 | 45.69676 | 9.55456 | 90° | 7km/h | 28034m | 4.3m/s | -48.6°C | 3.5% | 0hPa | 2.6V | 00:00:00 | 00:00:00 | 00:00:00 | |
| OE3JTB-15 | 2026-08-31 00:32:59 | 45.69677 | 9.55453 | 112° | 24km/h | 28029m | 5.0m/s | 0°C | 0% | 0hPa | 2.6V | 00:00:00 | 01:58:43 | 00:00:00 | |
| DO3MHA-11 | 2026-08-31 00:32:55 | 45.69678 | 9.55451 | 313° | 7km/h | 28008m | 4.9m/s | -48.5°C | 3.5% | 0hPa | 2.6V | 00:00:00 | 01:58:39 | 08:30:00 | |
| IW2NTF | 2026-08-31 00:32:54 | 45.69675 | 9.55442 | 81° | 7km/h | 27980m | 6.3m/s | -48.6°C | 3.4% | 0hPa | 2.6V | 08:30:00 | 01:58:34 | 00:00:00 | |
| PG1ADW-2 | 2026-08-31 00:32:51 | 45.69676 | 9.55445 | 76° | 11km/h | 27986m | 5.1m/s | 0°C | 0% | 0hPa | 2.5V | 00:00:00 | 00:00:00 | 00:00:00 | |
| DK5PH-5 | 2026-08-31 00:32:48 | 45.69675 | 9.55437 | 93° | 15km/h | 27970m | 5.0m/s | -48.6°C | 3.4% | 0hPa | 2.5V | 00:00:00 | 01:58:32 | 00:00:00 | |
| NBG1-10 | 2026-08-31 00:32:46 | 45.69675 | 9.55430 | 94° | 15km/h | 27958m | 6.3m/s | -48.7°C | 3.4% | 0hPa | 2.6V | 00:00:00 | 01:58:30 | 00:00:00 | |
| DO3MHA-11 | 2026-08-31 00:32:45 | 45.69675 | 9.55425 | 91° | 11km/h | 27952m | 5.1m/s | -48.8°C | 3.5% | 0hPa | 2.6V | 00:00:00 | 01:58:29 | 00:00:00 | |
| IW2NTF | 2026-08-31 00:32:44 | 45.69670 | 9.55411 | 343° | 9km/h | 27925m | 5.2m/s | -49.1°C | 3.6% | 0hPa | 2.6V | 08:30:00 | 01:58:24 | 00:00:00 | |
| DB0UT-7 | 2026-08-31 00:32:42 | 45.69673 | 9.55412 | 49° | 15km/h | 27937m | 6.4m/s | -48.9°C | 3.5% | 0hPa | 2.5V | 00:00:00 | 00:00:00 | 00:00:00 | |
| OE5DRO-10 | 2026-08-31 00:32:41 | 45.69672 | 9.55410 | 360° | 13km/h | 27931m | 5.9m/s | -49.0°C | 3.5% | 0hPa | 2.6V | 00:00:00 | 00:00:00 | 00:00:00 | |
| IW2NTF | 2026-08-31 00:32:35 | 45.69654 | 9.55380 | 77° | 16km/h | 27869m | 6.3m/s | -49.2°C | 3.6% | 0hPa | 2.6V | 08:30:00 | 01:58:14 | 00:00:00 | |
| DL1ZP-14 | 2026-08-31 00:32:33 | 45.69657 | 9.55393 | 69° | 11km/h | 27886m | 5.2m/s | -49.2°C | 1.0% | -1.0hPa | 2.5V | 00:00:00 | 00:00:00 | 00:00:00 | |
| PG1ADW-2 | 2026-08-31 00:32:31 | 45.69655 | 9.55385 | 76° | 16km/h | 27875m | 5.8m/s | 0°C | 0% | 0hPa | 2.6V | 00:00:00 | 01:58:15 | 00:00:00 | |
| DO3MHA-11 | 2026-08-31 00:32:25 | 45.69644 | 9.55360 | 7° | 18km/h | 27842m | 5.0m/s | -49.2°C | 3.6% | 0hPa | 2.6V | 00:00:00 | 01:58:09 | 00:00:00 | |
| IW2NTF | 2026-08-31 00:32:24 | 45.69622 | 9.55329 | 64° | 20km/h | 27804m | 6m/s | -49.5°C | 3.7% | 0hPa | 2.6V | 08:30:00 | 01:58:02 | 00:00:00 | |
| DK5PH-5 | 2026-08-31 00:32:18 | 45.69622 | 9.55329 | 65° | 15km/h | 27804m | 6.0m/s | 0°C | 0% | 0hPa | 2.6V | 00:00:00 | 01:58:02 | 00:00:00 | |
| DO3MHA-11 | 2026-08-31 00:32:15 | 45.69617 | 9.55312 | 74° | 18km/h | 27788m | 5.4m/s | -49.4°C | 3.7% | 0hPa | 2.6V | 00:00:00 | 01:57:59 | 00:00:00 | |
| S52SK | 2026-08-31 00:32:14 | 45.69617 | 9.55312 | 75° | 16km/h | 27788m | 5.5m/s | -49.5°C | 0% | 0hPa | 2.6V | 00:00:00 | 00:00:00 | 00:00:00 | |
| IW2NTF | 2026-08-31 00:32:13 | 45.69598 | 9.55280 | 14° | 22km/h | 27749m | 4.6m/s | -49.4°C | 3.7% | 0hPa | 2.6V | 08:30:00 | 01:57:52 | 00:00:00 | |
| NBG1-10 | 2026-08-31 00:32:13 | 45.69615 | 9.55300 | 73° | 15km/h | 27776m | 4.9m/s | -49.4°C | 3.7% | 0hPa | 2.6V | 00:00:00 | 01:57:57 | 00:00:00 | |
| DB0UT-7 | 2026-08-31 00:32:12 | 45.69613 | 9.55294 | 63° | 15km/h | 27772m | 4.4m/s | -49.4°C | 3.6% | 0hPa | 2.6V | 00:00:00 | 01:57:56 | 00:00:00 | |
| PG1ADW-2 | 2026-08-31 00:32:11 | 45.69610 | 9.55289 | 48° | 15km/h | 27766m | 5.6m/s | 0°C | 0% | 0hPa | 2.6V | 00:00:00 | 00:00:00 | 00:00:00 | |
| S52SK | 2026-08-31 00:32:08 | 45.69603 | 9.55282 | 17° | 20km/h | 27754m | 5.4m/s | -49.4°C | 0% | 0hPa | 2.6V | 00:00:00 | 00:00:00 | 00:00:00 | |
| DO3MHA-11 | 2026-08-31 00:32:05 | 45.69585 | 9.55269 | 61° | 13km/h | 27733m | 5.6m/s | -49.4°C | 3.7% | 0hPa | 2.6V | 00:00:00 | 01:57:49 | 00:00:00 | |
| IW2NTF | 2026-08-31 00:32:03 | 45.69582 | 9.55242 | 30° | 7km/h | 27695m | 6m/s | -49.5°C | 3.7% | 0hPa | 2.6V | 08:30:00 | 01:57:42 | 00:00:00 | |
| OE5DRO-10 | 2026-08-31 00:32:03 | 45.69583 | 9.55256 | 92° | 11km/h | 27723m | 4.6m/s | -49.4°C | 3.6% | 0hPa | 2.6V | 00:00:00 | 00:00:00 | 00:00:00 | |
| DL1ZP-14 | 2026-08-31 00:32:02 | 45.69583 | 9.55251 | 97° | 13km/h | 27718m | 5.8m/s | -49.5°C | 1.1% | -1.0hPa | 2.6V | 00:00:00 | 00:00:00 | 00:00:00 | |
| DO3MHA-11 | 2026-08-31 00:31:55 | 45.69574 | 9.55235 | 28° | 13km/h | 27678m | 5.4m/s | -49.4°C | 3.7% | 0hPa | 2.5V | 00:00:00 | 01:57:39 | 00:00:00 | |
| IW2NTF | 2026-08-31 00:31:53 | 45.69556 | 9.55217 | 62° | 15km/h | 27638m | 4.9m/s | -49.4°C | 3.7% | 0hPa | 2.6V | 08:30:00 | 01:57:32 | 00:00:00 | |
| PG1ADW-2 | 2026-08-31 00:31:51 | 45.69562 | 9.55230 | 33° | 15km/h | 27656m | 5.3m/s | 0°C | 0% | 0hPa | 2.6V | 00:00:00 | 00:00:00 | 00:00:00 | |
| DK5PH-5 | 2026-08-31 00:31:48 | 45.69556 | 9.55217 | 63° | 18km/h | 27638m | 4.9m/s | 0°C | 0% | 0hPa | 2.6V | 00:00:00 | 01:57:32 | 00:00:00 | |
| DO3MHA-11 | 2026-08-31 00:31:45 | 45.69551 | 9.55209 | 12° | 13km/h | 27621m | 4.8m/s | -49.3°C | 3.7% | 0hPa | 2.6V | 00:00:00 | 01:57:29 | 00:00:00 | |
| IW2NTF | 2026-08-31 00:31:44 | 45.69529 | 9.55208 | 356° | 13km/h | 27581m | 4.8m/s | -49.4°C | 3.6% | 0hPa | 2.6V | 08:30:00 | 01:57:22 | 00:00:00 | |
| DB0UT-7 | 2026-08-31 00:31:42 | 45.69542 | 9.55207 | 11° | 20km/h | 27604m | 5.5m/s | -49.3°C | 3.6% | 0hPa | 2.6V | 00:00:00 | 00:00:00 | 00:00:00 | |
| NBG1-10 | 2026-08-31 00:31:40 | 45.69536 | 9.55207 | 356° | 22km/h | 27593m | 6.4m/s | -49.3°C | 3.6% | 0hPa | 2.6V | 00:00:00 | 01:57:24 | 00:00:00 | |
| DO3MHA-11 | 2026-08-31 00:31:35 | 45.69518 | 9.55202 | 34° | 18km/h | 27564m | 5.7m/s | -49.3°C | 3.6% | 0hPa | 2.6V | 00:00:00 | 01:57:19 | 00:00:00 | |
| IW2NTF | 2026-08-31 00:31:34 | 45.69488 | 9.55186 | 5° | 18km/h | 27524m | 5.5m/s | -49.6°C | 3.7% | 0hPa | 2.6V | 08:30:00 | 01:57:12 | 00:00:00 | |
| DF7PN | 2026-08-31 00:31:32 | 45.69504 | 9.55190 | 22° | 16km/h | 27548m | 6.1m/s | -49.5°C | -1.0% | -1.0hPa | 2.6V | 00:00:00 | 00:00:00 | 00:00:00 | |
| OE5DRO-10 | 2026-08-31 00:31:25 | 45.69472 | 9.55188 | 346° | 24km/h | 27508m | 6.7m/s | -49.5°C | 3.7% | 0hPa | 2.6V | 00:00:00 | 00:00:00 | 00:00:00 | |
| IW2NTF | 2026-08-31 00:31:23 | 45.69422 | 9.55187 | 6° | 24km/h | 27467m | 6.7m/s | -49.4°C | 3.7% | 0hPa | 2.6V | 08:30:00 | 01:57:02 | 00:00:00 | |
| DK5PH-5 | 2026-08-31 00:31:18 | 45.69422 | 9.55187 | 7° | 20km/h | 27468m | 6.6m/s | 0°C | 0% | 0hPa | 2.5V | 00:00:00 | 01:57:02 | 00:00:00 | |
| DO3MHA-11 | 2026-08-31 00:31:15 | 45.69408 | 9.55190 | 343° | 22km/h | 27449m | 6.5m/s | -49.3°C | 3.7% | 0hPa | 2.5V | 00:00:00 | 01:56:59 | 00:00:00 | |
| IW2NTF | 2026-08-31 00:31:13 | 45.69375 | 9.55210 | 346° | 26km/h | 27408m | 5.6m/s | -49.3°C | 3.6% | 0hPa | 2.5V | 08:30:00 | 01:56:52 | 00:00:00 | |
| DB0UT-7 | 2026-08-31 00:31:12 | 45.69396 | 9.55195 | 336° | 22km/h | 27432m | 5.2m/s | -49.3°C | 3.6% | 0hPa | 2.6V | 00:00:00 | 01:56:56 | 00:00:00 | |
| NBG1-10 | 2026-08-31 00:31:07 | 45.69369 | 9.55211 | 359° | 22km/h | 27402m | 6.7m/s | -49.2°C | 3.6% | 0hPa | 2.6V | 00:00:00 | 01:56:51 | 08:30:00 | |
| OE5DRO-10 | 2026-08-31 00:31:06 | 45.69362 | 9.55210 | 12° | 20km/h | 27396m | 5.6m/s | -49.2°C | 3.7% | 0hPa | 2.5V | 00:00:00 | 00:00:00 | 00:00:00 | |
| DO3MHA-11 | 2026-08-31 00:31:05 | 45.69357 | 9.55208 | 17° | 16km/h | 27391m | 4.7m/s | -49.2°C | 3.6% | 0hPa | 2.5V | 00:00:00 | 01:56:49 | 00:00:00 | |
| IW2NTF | 2026-08-31 00:31:02 | 45.69333 | 9.55220 | 335° | 16km/h | 27352m | 5.7m/s | -49.3°C | 3.7% | 0hPa | 2.5V | 08:30:00 | 01:56:42 | 00:00:00 | |
| DF7PN | 2026-08-31 00:31:01 | 45.69342 | 9.55210 | 318° | 13km/h | 27369m | 4.7m/s | -49.3°C | -1.0% | -1.0hPa | 2.6V | 00:00:00 | 00:00:00 | 00:00:00 | |
| DL1ZP-14 | 2026-08-31 00:31:00 | 45.69337 | 9.55217 | 324° | 15km/h | 27358m | 6.3m/s | -49.3°C | 1.1% | -1.0hPa | 2.6V | 00:00:00 | 00:00:00 | 00:00:00 | |
| DO3MHA-11 | 2026-08-31 00:30:55 | 45.69320 | 9.55227 | 335° | 24km/h | 27335m | 6.4m/s | -49.2°C | 3.6% | 0hPa | 2.6V | 00:00:00 | 01:56:39 | 00:00:00 | |
| IW2NTF | 2026-08-31 00:30:53 | 45.69282 | 9.55255 | 333° | 20km/h | 27294m | 5.7m/s | -49.2°C | 3.6% | 0hPa | 2.5V | 08:30:00 | 01:56:32 | 00:00:00 | |
| OE5DXL-15 | 2026-08-31 00:30:49 | 45.69286 | 9.55253 | 341° | 24km/h | 27300m | 5.2m/s | -49.2°C | 3.6% | 0hPa | 2.5V | 00:00:00 | 00:00:00 | 00:00:00 | |
| OE5DRO-10 | 2026-08-31 00:30:47 | 45.69278 | 9.55259 | 323° | 24km/h | 27288m | 6.6m/s | -49.2°C | 3.6% | 0hPa | 2.5V | 00:00:00 | 00:00:00 | 08:30:00 | |
| DO3MHA-11 | 2026-08-31 00:30:45 | 45.69269 | 9.55270 | 316° | 26km/h | 27276m | 5.3m/s | -49.2°C | 3.6% | 0hPa | 2.5V | 00:00:00 | 01:56:29 | 00:00:00 | |
| IW2NTF | 2026-08-31 00:30:43 | 45.69230 | 9.55306 | 319° | 29km/h | 27235m | 4.7m/s | -49.3°C | 3.7% | 0hPa | 2.5V | 08:30:00 | 01:56:22 | 00:00:00 | |
| DB0UT-7 | 2026-08-31 00:30:42 | 45.69254 | 9.55285 | 335° | 24km/h | 27258m | 5.3m/s | -49.2°C | 3.6% | 0hPa | 2.5V | 00:00:00 | 00:00:00 | 00:00:00 | |
| DO3MHA-11 | 2026-08-31 00:30:35 | 45.69215 | 9.55323 | 323° | 20km/h | 27218m | 5.9m/s | -49.2°C | 3.7% | 0hPa | 2.5V | 00:00:00 | 01:56:19 | 00:00:00 | |
| IW2NTF | 2026-08-31 00:30:34 | 45.69195 | 9.55367 | 304° | 20km/h | 27179m | 6.6m/s | -49.2°C | 3.6% | 0hPa | 2.5V | 08:30:00 | 01:56:12 | 00:00:00 | |
| DF7PN | 2026-08-31 00:30:30 | 45.69200 | 9.55353 | 295° | 24km/h | 27190m | 4.2m/s | 0°C | -1.0% | -1.0hPa | 2.5V | 00:00:00 | 00:00:00 | 00:00:00 | |
| DL1ZP-14 | 2026-08-31 00:30:29 | 45.69195 | 9.55367 | 304° | 18km/h | 27179m | 6.6m/s | -49.2°C | 1.1% | -1.0hPa | 2.5V | 00:00:00 | 00:00:00 | 00:00:00 | |
| OE5DRO-10 | 2026-08-31 00:30:28 | 45.69195 | 9.55367 | 305° | 24km/h | 27179m | 6.5m/s | -49.2°C | 3.6% | 0hPa | 2.6V | 00:00:00 | 00:00:00 | 00:00:00 | |
| DO3MHA-11 | 2026-08-31 00:30:25 | 45.69184 | 9.55381 | 321° | 26km/h | 27162m | 5.4m/s | -49.1°C | 3.7% | 0hPa | 2.6V | 00:00:00 | 01:56:09 | 00:00:00 | |
| IW2NTF | 2026-08-31 00:30:24 | 45.69156 | 9.55435 | 286° | 20km/h | 27121m | 5m/s | -49°C | 3.6% | 0hPa | 2.6V | 08:30:00 | 01:56:02 | 00:00:00 | |
| OE5DXL-15 | 2026-08-31 00:30:18 | 45.69156 | 9.55435 | 287° | 24km/h | 27121m | 4.9m/s | 0°C | 0% | 0hPa | 2.5V | 00:00:00 | 00:00:00 | 00:00:00 | |
| DO3MHA-11 | 2026-08-31 00:30:15 | 45.69152 | 9.55459 | 286° | 26km/h | 27104m | 5.0m/s | -49.0°C | 3.7% | 0hPa | 2.5V | 00:00:00 | 01:55:59 | 00:00:00 | |
| IW2NTF | 2026-08-31 00:30:13 | 45.69128 | 9.55507 | 303° | 33km/h | 27063m | 5.2m/s | -48.9°C | 3.6% | 0hPa | 2.5V | 08:30:00 | 01:55:52 | 00:00:00 | |
| DB0UT-7 | 2026-08-31 00:30:12 | 45.69145 | 9.55479 | 313° | 22km/h | 27086m | 5.6m/s | -48.9°C | 3.6% | 0hPa | 2.5V | 00:00:00 | 01:55:56 | 00:00:00 | |
| OE5DRO-10 | 2026-08-31 00:30:09 | 45.69133 | 9.55497 | 310° | 22km/h | 27069m | 6.3m/s | -48.9°C | 3.6% | 0hPa | 2.5V | 00:00:00 | 00:00:00 | 00:00:00 | |
| DO3MHA-11 | 2026-08-31 00:30:05 | 45.69118 | 9.55535 | 290° | 20km/h | 27046m | 5.8m/s | -48.8°C | 3.6% | 0hPa | 2.5V | 00:00:00 | 01:55:49 | 00:00:00 | |
| IW2NTF | 2026-08-31 00:30:03 | 45.69108 | 9.55586 | 303° | 18km/h | 27008m | 5.8m/s | -48.7°C | 3.5% | 0hPa | 2.5V | 08:30:00 | 01:55:42 | 00:00:00 | |
| DF7PN | 2026-08-31 00:29:59 | 45.69110 | 9.55580 | 292° | 20km/h | 27014m | 4.8m/s | 0°C | -1.0% | -1.0hPa | 2.6V | 00:00:00 | 00:00:00 | 00:00:00 | |
| DL1ZP-14 | 2026-08-31 00:29:58 | 45.69105 | 9.55591 | 317° | 15km/h | 27002m | 6.9m/s | -48.6°C | 1.0% | -1.0hPa | 2.6V | 00:00:00 | 00:00:00 | 00:00:00 | |
| DO3MHA-11 | 2026-08-31 00:29:55 | 45.69099 | 9.55597 | 333° | 20km/h | 26991m | 4.9m/s | -48.5°C | 3.6% | 0hPa | 2.5V | 00:00:00 | 01:55:39 | 08:30:00 | |
| IW2NTF | 2026-08-31 00:29:54 | 45.69078 | 9.55639 | 283° | 18km/h | 26951m | 5m/s | -48.5°C | 3.6% | 0hPa | 2.5V | 08:30:00 | 01:55:32 | 00:00:00 | |
| OE5DRO-10 | 2026-08-31 00:29:50 | 45.69082 | 9.55626 | 295° | 16km/h | 26962m | 6.2m/s | -48.5°C | 3.6% | 0hPa | 2.5V | 00:00:00 | 00:00:00 | 00:00:00 | |
| OE5DXL-15 | 2026-08-31 00:29:48 | 45.69079 | 9.55639 | 284° | 24km/h | 26951m | 4.9m/s | 0°C | 0% | 0hPa | 2.5V | 00:00:00 | 00:00:00 | 00:00:00 | |
| DO3MHA-11 | 2026-08-31 00:29:45 | 45.69075 | 9.55659 | 289° | 15km/h | 26934m | 4.9m/s | -48.4°C | 3.6% | 0hPa | 2.5V | 00:00:00 | 01:55:29 | 00:00:00 | |
| IW2NTF | 2026-08-31 00:29:43 | 45.69064 | 9.55680 | 299° | 22km/h | 26895m | 5.8m/s | -48.3°C | 3.5% | 0hPa | 2.5V | 08:30:00 | 01:55:22 | 00:00:00 | |
| DB0UT-7 | 2026-08-31 00:29:42 | 45.69071 | 9.55669 | 327° | 13km/h | 26916m | 5.3m/s | -48.3°C | 3.6% | 0hPa | 2.5V | 00:00:00 | 00:00:00 | 08:30:00 | |
| DO3MHA-11 | 2026-08-31 00:29:35 | 45.69057 | 9.55706 | 283° | 11km/h | 26880m | 6.0m/s | -48.3°C | 3.5% | 0hPa | 2.6V | 00:00:00 | 01:55:19 | 00:00:00 | |
| IW2NTF | 2026-08-31 00:29:31 | 45.69054 | 9.55734 | 348° | 7km/h | 26840m | 5.9m/s | -48.2°C | 3.5% | 0hPa | 2.6V | 08:30:00 | 01:55:12 | 00:00:00 | |
| OE5DRO-10 | 2026-08-31 00:29:31 | 45.69057 | 9.55729 | 270° | 11km/h | 26857m | 6.4m/s | -48.2°C | 3.5% | 0hPa | 2.5V | 00:00:00 | 00:00:00 | 00:00:00 | |
| DF7PN | 2026-08-31 00:29:28 | 45.69054 | 9.55734 | 348° | 5km/h | 26840m | 5.9m/s | 0°C | 0% | -1.0hPa | 2.5V | 00:00:00 | 00:00:00 | 00:00:00 | |
| DL1ZP-14 | 2026-08-31 00:29:27 | 45.69050 | 9.55734 | 2° | 7km/h | 26828m | 5.0m/s | -48.1°C | 1.0% | -1.0hPa | 2.5V | 00:00:00 | 00:00:00 | 00:00:00 | |
| DO3MHA-11 | 2026-08-31 00:29:25 | 45.69048 | 9.55735 | 337° | 13km/h | 26824m | 4.4m/s | -48.1°C | 3.5% | 0hPa | 2.5V | 00:00:00 | 01:55:09 | 00:00:00 | |
| S52SK | 2026-08-31 00:29:22 | 45.69043 | 9.55741 | 303° | 18km/h | 26812m | 6.2m/s | -48.1°C | 0% | 0hPa | 2.6V | 00:00:00 | 00:00:00 | 00:00:00 | |
| IW2NTF | 2026-08-31 00:29:21 | 45.69041 | 9.55770 | 244° | 11km/h | 26784m | 5m/s | -48.1°C | 3.4% | 0hPa | 2.6V | 08:30:00 | 01:55:02 | 00:00:00 | |
| S52SK | 2026-08-31 00:29:16 | 45.69042 | 9.55773 | 253° | 7km/h | 26779m | 6.0m/s | -48.1°C | 0% | 0hPa | 2.5V | 00:00:00 | 00:00:00 | 00:00:00 | |
| DO3MHA-11 | 2026-08-31 00:29:15 | 45.69042 | 9.55777 | 342° | 11km/h | 26768m | 5.2m/s | -48.0°C | 3.4% | 0hPa | 2.5V | 00:00:00 | 01:54:59 | 00:00:00 | |
| DB0UT-7 | 2026-08-31 00:29:12 | 45.69037 | 9.55773 | 39° | 9km/h | 26750m | 4.8m/s | -48.0°C | 3.4% | 0hPa | 2.5V | 00:00:00 | 01:54:56 | 00:00:00 | |
| IW2NTF | 2026-08-31 00:29:11 | 45.69028 | 9.55779 | 303° | 16km/h | 26729m | 4.8m/s | -48.1°C | 3.4% | 0hPa | 2.5V | 08:30:00 | 01:54:52 | 00:00:00 | |
| S52SK | 2026-08-31 00:29:10 | 45.69036 | 9.55772 | 11° | 7km/h | 26746m | 4.3m/s | -48.1°C | 0% | 0hPa | 2.5V | 00:00:00 | 00:00:00 | 00:00:00 | |
| NBG1-10 | 2026-08-31 00:29:07 | 45.69027 | 9.55784 | 297° | 9km/h | 26724m | 5.4m/s | -48.1°C | 3.4% | 0hPa | 2.5V | 00:00:00 | 01:54:51 | 00:00:00 | |
| DO3MHA-11 | 2026-08-31 00:29:05 | 45.69025 | 9.55792 | 282° | 7km/h | 26713m | 5.1m/s | -48.1°C | 3.4% | 0hPa | 2.5V | 00:00:00 | 01:54:49 | 00:00:00 | |
| S52SK | 2026-08-31 00:29:04 | 45.69025 | 9.55792 | 283° | 7km/h | 26713m | 5.1m/s | -48.2°C | 0% | 0hPa | 2.5V | 00:00:00 | 00:00:00 | 00:00:00 | |
| IW2NTF | 2026-08-31 00:29:00 | 45.69017 | 9.55786 | 73° | 11km/h | 26674m | 5.8m/s | -48.4°C | 3.4% | 0hPa | 2.5V | 08:30:00 | 01:54:42 | 00:00:00 | |
| DL1ZP-14 | 2026-08-31 00:28:56 | 45.69014 | 9.55779 | 5° | 5km/h | 26658m | 6.3m/s | -48.5°C | 1.0% | -1.0hPa | 2.6V | 00:00:00 | 00:00:00 | 00:00:00 | |
| DO3MHA-11 | 2026-08-31 00:28:55 | 45.69014 | 9.55779 | 6° | 9km/h | 26658m | 6.2m/s | -48.4°C | 3.5% | 0hPa | 2.6V | 00:00:00 | 01:54:39 | 00:00:00 | |
| OE5DRO-10 | 2026-08-31 00:28:53 | 45.69010 | 9.55782 | 302° | 7km/h | 26648m | 4.5m/s | -48.5°C | 3.4% | 0hPa | 2.5V | 00:00:00 | 00:00:00 | 00:00:00 | |
| IW2NTF | 2026-08-31 00:28:50 | 45.69016 | 9.55794 | 219° | 9km/h | 26621m | 5.9m/s | -48.7°C | 3.5% | 0hPa | 2.5V | 08:30:00 | 01:54:32 | 00:00:00 | |
| DO3MHA-11 | 2026-08-31 00:28:45 | 45.69019 | 9.55799 | 222° | 7km/h | 26605m | 4.7m/s | -48.7°C | 3.5% | 0hPa | 2.6V | 00:00:00 | 01:54:29 | 00:00:00 | |
| DB0UT-7 | 2026-08-31 00:28:42 | 45.69019 | 9.55796 | 71° | 15km/h | 26589m | 4.5m/s | -48.8°C | 3.5% | 0hPa | 2.6V | 00:00:00 | 00:00:00 | 00:00:00 | |
| IW2NTF | 2026-08-31 00:28:39 | 45.69012 | 9.55795 | 340° | 9km/h | 26567m | 5.2m/s | -49°C | 3.5% | 0hPa | 2.6V | 08:30:00 | 01:54:22 | 00:00:00 | |
| DO3MHA-11 | 2026-08-31 00:28:35 | 45.69008 | 9.55800 | 293° | 15km/h | 26552m | 4.2m/s | -49.0°C | 3.6% | 0hPa | 2.6V | 00:00:00 | 01:54:19 | 00:00:00 | |
| OE5DRO-10 | 2026-08-31 00:28:34 | 45.69007 | 9.55803 | 299° | 18km/h | 26547m | 5.6m/s | -49.0°C | 3.6% | 0hPa | 2.6V | 00:00:00 | 00:00:00 | 00:00:00 | |
| IW2NTF | 2026-08-31 00:28:29 | 45.68990 | 9.55807 | 33° | 16km/h | 26513m | 4.4m/s | -49.1°C | 3.6% | 0hPa | 2.6V | 08:30:00 | 01:54:12 | 00:00:00 | |
| NBG1-10 | 2026-08-31 00:28:29 | 45.68993 | 9.55810 | 25° | 20km/h | 26519m | 6.0m/s | -49.1°C | 3.5% | 0hPa | 2.5V | 00:00:00 | 01:54:13 | 00:00:00 | |
| DF7PN | 2026-08-31 00:28:26 | 45.68981 | 9.55801 | 18° | 20km/h | 26504m | 5.8m/s | 0°C | -1.0% | -1.0hPa | 2.5V | 00:00:00 | 00:00:00 | 00:00:00 | |
| DL1ZP-14 | 2026-08-31 00:28:25 | 45.68970 | 9.55799 | 352° | 22km/h | 26493m | 5.2m/s | -49.2°C | 1.1% | -1.0hPa | 2.5V | 00:00:00 | 00:00:00 | 00:00:00 | |
| IW2NTF | 2026-08-31 00:28:19 | 45.68946 | 9.55822 | 322° | 20km/h | 26460m | 6.3m/s | -49.2°C | 3.6% | 0hPa | 2.5V | 08:30:00 | 01:54:02 | 00:00:00 | |
| DO3MHA-11 | 2026-08-31 00:28:15 | 45.68930 | 9.55831 | 350° | 22km/h | 26444m | 5.6m/s | -49.2°C | 3.6% | 0hPa | 2.5V | 00:00:00 | 01:53:59 | 00:00:00 | |
| IW2NTF | 2026-08-31 00:28:14 | 45.68867 | 9.55882 | 309° | 22km/h | 26370m | 5m/s | -49.5°C | 3.6% | 0hPa | 2.5V | 08:30:00 | 01:53:45 | 00:00:00 | |
| DB0UT-7 | 2026-08-31 00:28:12 | 45.68916 | 9.55832 | 358° | 22km/h | 26429m | 4.0m/s | -49.2°C | 3.6% | 0hPa | 2.5V | 00:00:00 | 01:53:56 | 00:00:00 | |
| DO3MHA-11 | 2026-08-31 00:28:08 | 45.68879 | 9.55858 | 308° | 22km/h | 26392m | 5.2m/s | -49.3°C | 3.6% | 0hPa | 2.5V | 00:00:00 | 01:53:49 | 00:00:00 | |
| IW2NTF | 2026-08-31 00:27:52 | 45.68807 | 9.56068 | 278° | 33km/h | 26246m | 6.4m/s | -50.1°C | 3.7% | 0hPa | 2.5V | 08:30:00 | 01:53:22 | 00:00:00 | |
| DB0UT-7 | 2026-08-31 00:27:46 | 45.68819 | 9.56021 | 293° | 27km/h | 26268m | 5.9m/s | -50.0°C | 3.7% | 0hPa | 2.6V | 00:00:00 | 00:00:00 | 00:00:00 | |
| OE5DRO-10 | 2026-08-31 00:27:37 | 45.68807 | 9.56080 | 265° | 27km/h | 26241m | 5.7m/s | -50.1°C | 3.7% | 0hPa | 2.6V | 00:00:00 | 00:00:00 | 00:00:00 | |
| DO3MHA-11 | 2026-08-31 00:27:35 | 45.68811 | 9.56099 | 246° | 24km/h | 26230m | 5.3m/s | -50.2°C | 3.7% | 0hPa | 2.6V | 00:00:00 | 01:53:19 | 00:00:00 | |
| IW2NTF | 2026-08-31 00:27:33 | 45.68819 | 9.56155 | 254° | 26km/h | 26192m | 5.5m/s | -50.4°C | 3.8% | 0hPa | 2.6V | 08:30:00 | 01:53:12 | 00:00:00 | |
| DO3MHA-11 | 2026-08-31 00:27:25 | 45.68825 | 9.56184 | 259° | 29km/h | 26176m | 6.1m/s | -50.4°C | 3.7% | 0hPa | 2.5V | 00:00:00 | 01:53:09 | 00:00:00 | |
| NBG1-10 | 2026-08-31 00:27:23 | 45.68827 | 9.56206 | 266° | 26km/h | 26165m | 4.3m/s | -50.3°C | 3.8% | 0hPa | 2.6V | 00:00:00 | 01:53:07 | 00:00:00 | |
| IW2NTF | 2026-08-31 00:27:22 | 45.68848 | 9.56276 | 241° | 22km/h | 26127m | 5.7m/s | -50.4°C | 3.8% | 0hPa | 2.5V | 08:30:00 | 01:53:00 | 00:00:00 | |
| OE5DRO-10 | 2026-08-31 00:27:18 | 45.68840 | 9.56259 | 236° | 26km/h | 26139m | 4.6m/s | -50.3°C | 3.7% | 0hPa | 2.6V | 00:00:00 | 00:00:00 | 00:00:00 | |
| DO3MHA-11 | 2026-08-31 00:27:15 | 45.68850 | 9.56282 | 244° | 24km/h | 26123m | 5.0m/s | -50.4°C | 3.8% | 0hPa | 2.6V | 00:00:00 | 01:52:59 | 00:00:00 | |
| DB0UT-7 | 2026-08-31 00:27:12 | 45.68858 | 9.56299 | 232° | 22km/h | 26106m | 5.5m/s | -50.6°C | 3.8% | 0hPa | 2.6V | 00:00:00 | 01:52:56 | 00:00:00 | |
| IW2NTF | 2026-08-31 00:27:07 | 45.68877 | 9.56350 | 239° | 31km/h | 26074m | 5.4m/s | -50.6°C | 3.8% | 0hPa | 2.6V | 08:30:00 | 01:52:50 | 00:00:00 | |
| DO3MHA-11 | 2026-08-31 00:27:05 | 45.68882 | 9.56359 | 233° | 27km/h | 26069m | 6.2m/s | -50.6°C | 3.9% | 0hPa | 2.6V | 00:00:00 | 01:52:49 | 00:00:00 | |
| IW2NTF | 2026-08-31 00:27:01 | 45.68923 | 9.56424 | 223° | 26km/h | 26021m | 4.9m/s | -50.6°C | 3.9% | 0hPa | 2.6V | 08:30:00 | 01:52:40 | 00:00:00 | |
| DL1ZP-14 | 2026-08-31 00:26:51 | 45.68942 | 9.56460 | 227° | 18km/h | 25988m | 6.4m/s | -50.5°C | -1.0% | -1.0hPa | 2.6V | 00:00:00 | 00:00:00 | 00:00:00 | |
| NBG1-10 | 2026-08-31 00:26:50 | 45.68942 | 9.56460 | 228° | 13km/h | 25989m | 6.3m/s | -50.5°C | 3.9% | 0hPa | 2.5V | 00:00:00 | 01:52:34 | 00:00:00 | |
| S52SK | 2026-08-31 00:26:49 | 45.68942 | 9.56460 | 228° | 18km/h | 25989m | 6.4m/s | -50.5°C | 0% | 0hPa | 2.5V | 00:00:00 | 00:00:00 | 00:00:00 | |
| IW2NTF | 2026-08-31 00:26:47 | 45.68957 | 9.56472 | 200° | 13km/h | 25966m | 5.9m/s | -50.5°C | 3.9% | 0hPa | 2.5V | 08:30:00 | 01:52:30 | 00:00:00 | |
| DO3MHA-11 | 2026-08-31 00:26:45 | 45.68960 | 9.56474 | 202° | 13km/h | 25960m | 4.7m/s | -50.4°C | 3.9% | 0hPa | 2.6V | 00:00:00 | 01:52:29 | 00:00:00 | |
| DB0UT-7 | 2026-08-31 00:26:42 | 45.68967 | 9.56480 | 219° | 11km/h | 25945m | 5.5m/s | -50.4°C | 3.9% | 0hPa | 2.6V | 00:00:00 | 00:00:00 | 00:00:00 | |
| IW2NTF | 2026-08-31 00:26:41 | 45.68978 | 9.56503 | 228° | 5km/h | 25912m | 6.2m/s | -50.4°C | 3.8% | 0hPa | 2.5V | 08:30:00 | 01:52:20 | 00:00:00 | |
| OE5DRO-10 | 2026-08-31 00:26:40 | 45.68973 | 9.56489 | 234° | 11km/h | 25935m | 4.4m/s | -50.4°C | 3.8% | 0hPa | 2.6V | 00:00:00 | 00:00:00 | 00:00:00 | |
| DO3MHA-11 | 2026-08-31 00:26:35 | 45.68979 | 9.56503 | 173° | 13km/h | 25906m | 6.0m/s | -50.3°C | 3.8% | 0hPa | 2.6V | 00:00:00 | 01:52:19 | 00:00:00 | |
| IW2NTF | 2026-08-31 00:26:27 | 45.69001 | 9.56501 | 239° | 18km/h | 25857m | 4.9m/s | -50.2°C | 3.8% | 0hPa | 2.6V | 08:30:00 | 01:52:10 | 00:00:00 | |
| DO3MHA-11 | 2026-08-31 00:26:25 | 45.69003 | 9.56507 | 254° | 7km/h | 25851m | 6.4m/s | -50.1°C | 3.9% | 0hPa | 2.6V | 00:00:00 | 01:52:09 | 00:00:00 | |
| IW2NTF | 2026-08-31 00:26:21 | 45.69006 | 9.56512 | 319° | 2km/h | 25802m | 4.9m/s | -50°C | 3.7% | 0hPa | 2.5V | 08:30:00 | 01:52:00 | 00:00:00 | |
| OE5DRO-10 | 2026-08-31 00:26:21 | 45.69003 | 9.56520 | 219° | 9km/h | 25829m | 6.2m/s | -50.0°C | 3.8% | 0hPa | 2.5V | 00:00:00 | 00:00:00 | 00:00:00 | |
| DL1ZP-14 | 2026-08-31 00:26:20 | 45.69005 | 9.56515 | 114° | 7km/h | 25813m | 5.2m/s | -50.0°C | -1.0% | -1.0hPa | 2.5V | 00:00:00 | 00:00:00 | 00:00:00 | |
| NBG1-10 | 2026-08-31 00:26:17 | 45.69006 | 9.56512 | 100° | 11km/h | 25808m | 5.5m/s | -49.9°C | 3.8% | 0hPa | 2.6V | 00:00:00 | 01:52:01 | 00:00:00 | |
| DO3MHA-11 | 2026-08-31 00:26:15 | 45.69006 | 9.56513 | 280° | 13km/h | 25798m | 4.9m/s | -49.9°C | 3.7% | 0hPa | 2.6V | 00:00:00 | 01:51:59 | 00:00:00 | |
| DB0UT-7 | 2026-08-31 00:26:12 | 45.69008 | 9.56528 | 249° | 11km/h | 25781m | 5.2m/s | -49.9°C | 3.8% | 0hPa | 2.6V | 00:00:00 | 01:51:56 | 00:00:00 | |
| DO3MHA-11 | 2026-08-31 00:26:05 | 45.69003 | 9.56547 | 357° | 7km/h | 25744m | 5.3m/s | -49.8°C | 3.7% | 0hPa | 2.6V | 00:00:00 | 01:51:49 | 00:00:00 | |
| DL1ZP-14 | 2026-08-31 00:25:49 | 45.68988 | 9.56589 | 330° | 0km/h | 25656m | 5.8m/s | -49.9°C | -1.0% | -1.0hPa | 2.6V | 00:00:00 | 00:00:00 | 00:00:00 | |
| DO3MHA-11 | 2026-08-31 00:25:45 | 45.68987 | 9.56596 | 308° | 18km/h | 25636m | 5.8m/s | -50.0°C | 3.6% | 0hPa | 2.6V | 00:00:00 | 01:51:29 | 00:00:00 | |
| NBG1-10 | 2026-08-31 00:25:44 | 45.68985 | 9.56599 | 320° | 18km/h | 25630m | 5.2m/s | -50.1°C | 3.6% | 0hPa | 2.6V | 00:00:00 | 01:51:28 | 08:30:00 | |
| OE5DRO-10 | 2026-08-31 00:25:43 | 45.68981 | 9.56604 | 322° | 18km/h | 25625m | 4.7m/s | -50.1°C | 3.6% | 0hPa | 2.6V | 00:00:00 | 00:00:00 | 00:00:00 | |
| DB0UT-7 | 2026-08-31 00:25:42 | 45.68977 | 9.56609 | 321° | 18km/h | 25620m | 5.1m/s | -50.2°C | 3.7% | 0hPa | 2.6V | 00:00:00 | 00:00:00 | 00:00:00 | |
| DO3MHA-11 | 2026-08-31 00:25:35 | 45.68948 | 9.56642 | 346° | 15km/h | 25582m | 4.9m/s | -50.5°C | 3.8% | 0hPa | 2.6V | 00:00:00 | 01:51:19 | 00:00:00 | |
| IW2NTF | 2026-08-31 00:25:27 | 45.68928 | 9.56671 | 287° | 20km/h | 25535m | 5m/s | -50.5°C | 3.7% | 0hPa | 2.6V | 08:30:00 | 01:51:10 | 00:00:00 | |
| DO3MHA-11 | 2026-08-31 00:25:25 | 45.68927 | 9.56678 | 278° | 18km/h | 25529m | 6.5m/s | -50.5°C | 3.7% | 0hPa | 2.6V | 00:00:00 | 01:51:09 | 08:30:00 | |
| OE5DRO-10 | 2026-08-31 00:25:24 | 45.68927 | 9.56686 | 271° | 22km/h | 25523m | 5.9m/s | -50.6°C | 3.7% | 0hPa | 2.5V | 00:00:00 | 00:00:00 | 00:00:00 | |
| IW2NTF | 2026-08-31 00:25:19 | 45.68921 | 9.56738 | 270° | 15km/h | 25479m | 5.6m/s | -51.1°C | 3.8% | 0hPa | 2.5V | 08:30:00 | 01:51:00 | 00:00:00 | |
| DO3MHA-11 | 2026-08-31 00:25:15 | 45.68920 | 9.56743 | 266° | 26km/h | 25474m | 5.4m/s | -51.0°C | 3.8% | 0hPa | 2.5V | 00:00:00 | 01:50:59 | 00:00:00 | |
| DB0UT-7 | 2026-08-31 00:25:12 | 45.68922 | 9.56762 | 256° | 20km/h | 25458m | 4.1m/s | -51.2°C | 3.9% | 0hPa | 2.5V | 00:00:00 | 01:50:56 | 08:30:00 | |
| NBG1-10 | 2026-08-31 00:25:11 | 45.68924 | 9.56770 | 248° | 18km/h | 25453m | 5.3m/s | -51.2°C | 3.9% | 0hPa | 2.5V | 00:00:00 | 01:50:55 | 00:00:00 | |
| IW2NTF | 2026-08-31 00:25:07 | 45.68943 | 9.56816 | 248° | 26km/h | 25426m | 6m/s | -51.3°C | 3.9% | 0hPa | 2.5V | 08:30:00 | 01:50:50 | 00:00:00 | |
| DO3MHA-11 | 2026-08-31 00:25:05 | 45.68945 | 9.56825 | 261° | 18km/h | 25421m | 5.2m/s | -51.2°C | 3.9% | 0hPa | 2.6V | 00:00:00 | 01:50:49 | 00:00:00 | |
| IW2NTF | 2026-08-31 00:25:01 | 45.68957 | 9.56880 | 253° | 18km/h | 25373m | 4.3m/s | -51.4°C | 3.9% | 0hPa | 2.6V | 08:30:00 | 01:50:40 | 00:00:00 | |
| DO3MHA-11 | 2026-08-31 00:24:55 | 45.68959 | 9.56886 | 249° | 16km/h | 25368m | 5.9m/s | -51.3°C | 3.9% | 0hPa | 2.6V | 00:00:00 | 01:50:39 | 00:00:00 | |
| IW2NTF | 2026-08-31 00:24:51 | 45.68965 | 9.56937 | 256° | 18km/h | 25320m | 4.6m/s | -51.5°C | 3.8% | 0hPa | 2.5V | 08:30:00 | 01:50:30 | 00:00:00 | |
| DL1ZP-14 | 2026-08-31 00:24:47 | 45.68965 | 9.56937 | 256° | 18km/h | 25320m | 4.6m/s | -51.5°C | -1.0% | -1.0hPa | 2.5V | 00:00:00 | 00:00:00 | 00:00:00 | |
| OE5DRO-10 | 2026-08-31 00:24:46 | 45.68965 | 9.56937 | 257° | 13km/h | 25321m | 4.6m/s | -51.5°C | 3.8% | 0hPa | 2.5V | 00:00:00 | 00:00:00 | 00:00:00 | |
| DO3MHA-11 | 2026-08-31 00:24:45 | 45.68966 | 9.56943 | 258° | 9km/h | 25316m | 4.0m/s | -51.6°C | 3.9% | 0hPa | 2.5V | 00:00:00 | 01:50:29 | 00:00:00 | |
| DB0UT-7 | 2026-08-31 00:24:42 | 45.68966 | 9.56960 | 284° | 15km/h | 25301m | 4.6m/s | -51.9°C | 3.9% | 0hPa | 2.5V | 00:00:00 | 00:00:00 | 00:00:00 | |
| NBG1-10 | 2026-08-31 00:24:38 | 45.68966 | 9.56971 | 243° | 15km/h | 25280m | 3.9m/s | 0°C | 0% | 0hPa | 2.5V | 00:00:00 | 01:50:22 | 00:00:00 | |
| DO3MHA-11 | 2026-08-31 00:24:35 | 45.68963 | 9.56973 | 334° | 15km/h | 25264m | 5.4m/s | -52.2°C | 4.0% | 0hPa | 2.5V | 00:00:00 | 01:50:19 | 00:00:00 | |
| IW2NTF | 2026-08-31 00:24:27 | 45.68924 | 9.57009 | 339° | 16km/h | 25195m | 5.4m/s | -52.5°C | 4.1% | 0hPa | 2.5V | 08:30:00 | 01:50:06 | 00:00:00 | |
| OE5DRO-10 | 2026-08-31 00:24:27 | 45.68941 | 9.57003 | 343° | 16km/h | 25222m | 5.4m/s | -52.3°C | 4.1% | 0hPa | 2.5V | 00:00:00 | 00:00:00 | 00:00:00 | |
| DO3MHA-11 | 2026-08-31 00:24:25 | 45.68934 | 9.57005 | 349° | 16km/h | 25211m | 4.7m/s | -52.4°C | 4.1% | 0hPa | 2.5V | 00:00:00 | 01:50:09 | 00:00:00 | |
| DO3MHA-11 | 2026-08-31 00:24:15 | 45.68903 | 9.57039 | 310° | 18km/h | 25158m | 5.6m/s | -52.5°C | 4.2% | 0hPa | 2.5V | 00:00:00 | 01:49:59 | 00:00:00 | |
| IW2NTF | 2026-08-31 00:24:14 | 45.68882 | 9.57059 | 331° | 15km/h | 25128m | 4.8m/s | -52.5°C | 4.1% | 0hPa | 2.5V | 08:30:00 | 01:49:53 | 00:00:00 | |
| DB0UT-7 | 2026-08-31 00:24:12 | 45.68891 | 9.57053 | 331° | 20km/h | 25143m | 6.1m/s | -52.4°C | 4.1% | 0hPa | 2.6V | 00:00:00 | 01:49:56 | 00:00:00 | |
| OE5DRO-10 | 2026-08-31 00:24:08 | 45.68878 | 9.57062 | 325° | 20km/h | 25123m | 5.8m/s | -52.5°C | 4.1% | 0hPa | 2.6V | 00:00:00 | 00:00:00 | 00:00:00 | |
| DO3MHA-11 | 2026-08-31 00:24:05 | 45.68869 | 9.57080 | 295° | 18km/h | 25108m | 5.3m/s | -52.5°C | 4.1% | 0hPa | 2.5V | 00:00:00 | 01:49:49 | 00:00:00 | |
| IW2NTF | 2026-08-31 00:24:01 | 45.68859 | 9.57121 | 299° | 18km/h | 25077m | 5.2m/s | -52.6°C | 4.1% | 0hPa | 2.5V | 08:30:00 | 01:49:43 | 00:00:00 | |
| DO3MHA-11 | 2026-08-31 00:23:55 | 45.68850 | 9.57138 | 314° | 24km/h | 25055m | 5.9m/s | -52.5°C | 4.1% | 0hPa | 2.6V | 00:00:00 | 01:49:39 | 08:30:00 | |
| IW2NTF | 2026-08-31 00:23:52 | 45.68835 | 9.57181 | 280° | 27km/h | 25025m | 5.6m/s | -52.7°C | 4.1% | 0hPa | 2.6V | 08:30:00 | 01:49:33 | 00:00:00 | |
| OE5DRO-10 | 2026-08-31 00:23:49 | 45.68835 | 9.57181 | 281° | 24km/h | 25025m | 5.6m/s | -52.6°C | 4.1% | 0hPa | 2.6V | 00:00:00 | 00:00:00 | 00:00:00 | |
| DO3MHA-11 | 2026-08-31 00:23:45 | 45.68828 | 9.57219 | 290° | 22km/h | 25004m | 6.0m/s | -52.6°C | 4.1% | 0hPa | 2.6V | 00:00:00 | 01:49:29 | 00:00:00 | |
| DB0UT-7 | 2026-08-31 00:23:42 | 45.68821 | 9.57235 | 319° | 26km/h | 24989m | 4.8m/s | -52.7°C | 4.1% | 0hPa | 2.6V | 00:00:00 | 00:00:00 | 00:00:00 | |
| IW2NTF | 2026-08-31 00:23:41 | 45.68809 | 9.57253 | 304° | 27km/h | 24974m | 4.3m/s | -52.9°C | 4.2% | 0hPa | 2.5V | 08:30:00 | 01:49:23 | 00:00:00 | |
| DO3MHA-11 | 2026-08-31 00:23:35 | 45.68801 | 9.57288 | 278° | 24km/h | 24953m | 5.0m/s | -52.9°C | 4.2% | 0hPa | 2.5V | 00:00:00 | 01:49:19 | 00:00:00 | |
| IW2NTF | 2026-08-31 00:23:34 | 45.68798 | 9.57336 | 266° | 22km/h | 24921m | 4.4m/s | -52.9°C | 4.2% | 0hPa | 2.5V | 08:30:00 | 01:49:13 | 00:00:00 | |
| NBG1-10 | 2026-08-31 00:23:32 | 45.68798 | 9.57312 | 277° | 26km/h | 24937m | 4.4m/s | -52.9°C | 4.2% | 0hPa | 2.6V | 00:00:00 | 01:49:16 | 00:00:00 | |
| OE5DRO-10 | 2026-08-31 00:23:30 | 45.68798 | 9.57328 | 265° | 26km/h | 24927m | 5.3m/s | -52.9°C | 4.2% | 0hPa | 2.6V | 00:00:00 | 00:00:00 | 00:00:00 | |
| DO3MHA-11 | 2026-08-31 00:23:25 | 45.68794 | 9.57376 | 282° | 27km/h | 24901m | 4.9m/s | -52.9°C | 4.2% | 0hPa | 2.6V | 00:00:00 | 01:49:09 | 00:00:00 | |
| IW2NTF | 2026-08-31 00:23:21 | 45.68793 | 9.57440 | 273° | 24km/h | 24870m | 5m/s | -52.9°C | 4.1% | 0hPa | 2.6V | 08:30:00 | 01:49:03 | 00:00:00 | |
| DL1ZP-14 | 2026-08-31 00:23:14 | 45.68800 | 9.57487 | 251° | 24km/h | 24839m | 6.0m/s | -53.0°C | -1.0% | -1.0hPa | 2.6V | 00:00:00 | 00:00:00 | 00:00:00 | |
| DB0UT-7 | 2026-08-31 00:23:12 | 45.68801 | 9.57495 | 258° | 20km/h | 24834m | 4.7m/s | -52.9°C | 4.2% | 0hPa | 2.5V | 00:00:00 | 01:48:56 | 00:00:00 | |
| IW2NTF | 2026-08-31 00:23:11 | 45.68806 | 9.57524 | 254° | 27km/h | 24819m | 6m/s | -52.9°C | 4.2% | 0hPa | 2.5V | 08:30:00 | 01:48:53 | 00:00:00 | |
| OE5DRO-10 | 2026-08-31 00:23:11 | 45.68803 | 9.57504 | 261° | 22km/h | 24829m | 4.0m/s | -52.9°C | 4.2% | 0hPa | 2.5V | 00:00:00 | 00:00:00 | 00:00:00 | |
| BAUMI2-15 | 2026-08-31 00:23:07 | 45.68810 | 9.57543 | 247° | 27km/h | 24808m | 5.1m/s | 0°C | 0% | 0hPa | 2.5V | 00:00:00 | 01:48:51 | 00:00:00 | |
| DO3MHA-11 | 2026-08-31 00:23:05 | 45.68815 | 9.57560 | 253° | 20km/h | 24798m | 5.6m/s | -52.9°C | 4.1% | 0hPa | 2.5V | 00:00:00 | 01:48:49 | 00:00:00 | |
| IW2NTF | 2026-08-31 00:23:01 | 45.68826 | 9.57600 | 230° | 20km/h | 24767m | 4.9m/s | -53.1°C | 4.2% | 0hPa | 2.5V | 08:30:00 | 01:48:43 | 00:00:00 | |
| BAUMI2-15 | 2026-08-31 00:23:00 | 45.68823 | 9.57595 | 233° | 20km/h | 24772m | 4.8m/s | 0°C | 0% | 0hPa | 2.6V | 00:00:00 | 01:48:44 | 00:00:00 | |
| NBG1-10 | 2026-08-31 00:22:59 | 45.68826 | 9.57600 | 231° | 15km/h | 24767m | 4.9m/s | -53.0°C | 4.2% | 0hPa | 2.6V | 00:00:00 | 01:48:43 | 00:00:00 | |
| DO3MHA-11 | 2026-08-31 00:22:55 | 45.68833 | 9.57625 | 263° | 18km/h | 24745m | 4.8m/s | -53.2°C | 4.2% | 0hPa | 2.6V | 00:00:00 | 01:48:39 | 00:00:00 | |
| BAUMI2-15 | 2026-08-31 00:22:53 | 45.68835 | 9.57640 | 255° | 20km/h | 24735m | 5.2m/s | 0°C | 0% | 0hPa | 2.5V | 00:00:00 | 01:48:37 | 00:00:00 | |
| OE5DRO-10 | 2026-08-31 00:22:52 | 45.68836 | 9.57648 | 255° | 13km/h | 24730m | 4.2m/s | -53.2°C | 4.3% | 0hPa | 2.5V | 00:00:00 | 00:00:00 | 00:00:00 | |
| IW2NTF | 2026-08-31 00:22:50 | 45.68841 | 9.57677 | 230° | 11km/h | 24703m | 6.2m/s | -53.2°C | 4.2% | 0hPa | 2.5V | 08:30:00 | 01:48:31 | 00:00:00 | |
| BAUMI2-15 | 2026-08-31 00:22:48 | 45.68839 | 9.57673 | 253° | 13km/h | 24709m | 5.4m/s | 0°C | 0% | 0hPa | 2.5V | 00:00:00 | 01:48:32 | 08:30:00 | |
| DO3MHA-11 | 2026-08-31 00:22:45 | 45.68845 | 9.57681 | 208° | 13km/h | 24693m | 4.7m/s | -53.2°C | 4.2% | 0hPa | 2.5V | 00:00:00 | 01:48:29 | 00:00:00 | |
| DB0UT-7 | 2026-08-31 00:22:42 | 45.68850 | 9.57688 | 236° | 11km/h | 24677m | 4.6m/s | -53.2°C | 4.2% | 0hPa | 2.5V | 00:00:00 | 00:00:00 | 00:00:00 | |
| DO3MHA-11 | 2026-08-31 00:22:35 | 45.68863 | 9.57718 | 259° | 9km/h | 24639m | 5.0m/s | -53.2°C | 4.3% | 0hPa | 2.5V | 00:00:00 | 01:48:19 | 00:00:00 | |
| OE5DRO-10 | 2026-08-31 00:22:33 | 45.68865 | 9.57723 | 221° | 9km/h | 24628m | 5.2m/s | -53.2°C | 4.3% | 0hPa | 2.5V | 00:00:00 | 00:00:00 | 00:00:00 | |
| NBG1-10 | 2026-08-31 00:22:26 | 45.68880 | 9.57739 | 214° | 11km/h | 24591m | 4.1m/s | -53.1°C | 4.2% | 0hPa | 2.5V | 00:00:00 | 01:48:10 | 00:00:00 | |
| DO3MHA-11 | 2026-08-31 00:22:25 | 45.68882 | 9.57742 | 226° | 7km/h | 24586m | 5.6m/s | -53.1°C | 4.2% | 0hPa | 2.6V | 00:00:00 | 01:48:09 | 08:30:00 | |
| S52SK | 2026-08-31 00:22:23 | 45.68884 | 9.57745 | 251° | 9km/h | 24581m | 5.7m/s | -53.1°C | 0% | 0hPa | 2.5V | 00:00:00 | 00:00:00 | 00:00:00 | |
| IW2NTF | 2026-08-31 00:22:20 | 45.68885 | 9.57751 | 178° | 5km/h | 24555m | 4.7m/s | -53.1°C | 4.2% | 0hPa | 2.5V | 08:30:00 | 01:48:03 | 00:00:00 | |
| S52SK | 2026-08-31 00:22:18 | 45.68885 | 9.57751 | 180° | 5km/h | 24555m | 4.7m/s | 0°C | 0% | 0hPa | 2.5V | 00:00:00 | 00:00:00 | 00:00:00 | |
| DO3MHA-11 | 2026-08-31 00:22:15 | 45.68892 | 9.57758 | 232° | 11km/h | 24535m | 4.5m/s | -53.0°C | 4.1% | 0hPa | 2.5V | 00:00:00 | 01:47:59 | 00:00:00 | |
| OE5DRO-10 | 2026-08-31 00:22:14 | 45.68894 | 9.57762 | 223° | 11km/h | 24530m | 4.7m/s | 0°C | 0% | 0hPa | 2.5V | 00:00:00 | 00:00:00 | 08:30:00 | |
| DB0UT-7 | 2026-08-31 00:22:12 | 45.68901 | 9.57767 | 198° | 11km/h | 24519m | 5.4m/s | -53.0°C | 4.2% | 0hPa | 2.6V | 00:00:00 | 01:47:56 | 00:00:00 | |
| DL1ZP-14 | 2026-08-31 00:22:11 | 45.68906 | 9.57769 | 188° | 16km/h | 24514m | 4.7m/s | 0°C | -1.0% | -1.0hPa | 2.5V | 00:00:00 | 00:00:00 | 00:00:00 | |
| DO3MHA-11 | 2026-08-31 00:22:05 | 45.68917 | 9.57767 | 118° | 11km/h | 24482m | 5.9m/s | -53.1°C | 4.2% | 0hPa | 2.5V | 00:00:00 | 01:47:49 | 00:00:00 | |
| IW2NTF | 2026-08-31 00:21:58 | 45.68934 | 9.57755 | 160° | 11km/h | 24441m | 5.5m/s | -53.3°C | 4.2% | 0hPa | 2.5V | 08:30:00 | 01:47:41 | 00:00:00 | |
| OE5DRO-10 | 2026-08-31 00:21:55 | 45.68940 | 9.57749 | 137° | 11km/h | 24431m | 4.7m/s | -53.3°C | 4.2% | 0hPa | 2.6V | 00:00:00 | 00:00:00 | 00:00:00 | |
| DO3MHA-11 | 2026-08-31 00:21:54 | 45.68942 | 9.57746 | 134° | 9km/h | 24426m | 5.7m/s | -53.3°C | 4.2% | 0hPa | 2.6V | 00:00:00 | 01:47:38 | 00:00:00 | |
| NBG1-10 | 2026-08-31 00:21:53 | 45.68944 | 9.57742 | 126° | 9km/h | 24420m | 5.7m/s | -53.3°C | 4.2% | 0hPa | 2.6V | 00:00:00 | 01:47:37 | 00:00:00 | |
| IW2NTF | 2026-08-31 00:21:50 | 45.68947 | 9.57722 | 107° | 4km/h | 24388m | 6.2m/s | -53.4°C | 4.2% | 0hPa | 2.6V | 08:30:00 | 01:47:31 | 00:00:00 | |
| DO3MHA-11 | 2026-08-31 00:21:44 | 45.68951 | 9.57721 | 168° | 13km/h | 24372m | 5.8m/s | -53.5°C | 4.2% | 0hPa | 2.5V | 00:00:00 | 01:47:28 | 00:00:00 | |
| IW2NTF | 2026-08-31 00:21:42 | 45.68967 | 9.57698 | 113° | 13km/h | 24333m | 5.5m/s | -53.8°C | 4.4% | 0hPa | 2.5V | 08:30:00 | 01:47:21 | 00:00:00 | |
| DB0UT-7 | 2026-08-31 00:21:42 | 45.68956 | 9.57717 | 141° | 9km/h | 24361m | 5.0m/s | -53.6°C | 4.3% | 0hPa | 2.5V | 00:00:00 | 00:00:00 | 00:00:00 | |
| DL1ZP-14 | 2026-08-31 00:21:40 | 45.68962 | 9.57709 | 133° | 15km/h | 24350m | 6.2m/s | 0°C | -1.0% | -1.0hPa | 2.5V | 00:00:00 | 00:00:00 | 00:00:00 | |
| OE5DRO-10 | 2026-08-31 00:21:36 | 45.68968 | 9.57693 | 108° | 7km/h | 24328m | 5.8m/s | -53.7°C | 4.4% | 0hPa | 2.5V | 00:00:00 | 00:00:00 | 00:00:00 | |
| DO3MHA-11 | 2026-08-31 00:21:34 | 45.68970 | 9.57686 | 105° | 9km/h | 24318m | 4.6m/s | -53.8°C | 4.4% | 0hPa | 2.5V | 00:00:00 | 01:47:18 | 00:00:00 | |
| IW2NTF | 2026-08-31 00:21:30 | 45.68986 | 9.57691 | 173° | 7km/h | 24269m | 5.4m/s | -53.7°C | 4.3% | 0hPa | 2.5V | 08:30:00 | 01:47:09 | 00:00:00 | |
| DO3MHA-11 | 2026-08-31 00:21:24 | 45.68987 | 9.57691 | 154° | 5km/h | 24265m | 4.6m/s | -53.6°C | 4.3% | 0hPa | 2.5V | 00:00:00 | 01:47:08 | 00:00:00 | |
| IW2NTF | 2026-08-31 00:21:20 | 45.68982 | 9.57683 | 215° | 2km/h | 24215m | 5.3m/s | -53.8°C | 4.3% | 0hPa | 2.6V | 08:30:00 | 01:46:59 | 00:00:00 | |
| NBG1-10 | 2026-08-31 00:21:20 | 45.68988 | 9.57682 | 54° | 9km/h | 24243m | 5.8m/s | -53.6°C | 4.2% | 0hPa | 2.5V | 00:00:00 | 01:47:04 | 00:00:00 | |
| OE5DRO-10 | 2026-08-31 00:21:17 | 45.68983 | 9.57682 | 335° | 7km/h | 24227m | 4.9m/s | -53.6°C | 4.2% | 0hPa | 2.5V | 00:00:00 | 00:00:00 | 00:00:00 | |
| DO3MHA-11 | 2026-08-31 00:21:14 | 45.68983 | 9.57684 | 196° | 9km/h | 24210m | 4.9m/s | -53.7°C | 4.3% | 0hPa | 2.6V | 00:00:00 | 01:46:58 | 00:00:00 | |
| DB0UT-7 | 2026-08-31 00:21:12 | 45.68984 | 9.57684 | 177° | 11km/h | 24199m | 5.0m/s | -53.8°C | 4.3% | 0hPa | 2.6V | 00:00:00 | 01:46:56 | 00:00:00 | |
| IW2NTF | 2026-08-31 00:21:10 | 45.68985 | 9.57660 | 50° | 9km/h | 24161m | 5.3m/s | -54°C | 4.5% | 0hPa | 2.6V | 08:30:00 | 01:46:49 | 00:00:00 | |
| DO3MHA-11 | 2026-08-31 00:21:04 | 45.68983 | 9.57658 | 33° | 9km/h | 24157m | 4.7m/s | -54.0°C | 4.5% | 0hPa | 2.5V | 00:00:00 | 01:46:48 | 00:00:00 | |
| IW2NTF | 2026-08-31 00:21:00 | 45.68972 | 9.57634 | 75° | 15km/h | 24108m | 5.8m/s | -53.9°C | 4.4% | 0hPa | 2.5V | 08:30:00 | 01:46:39 | 00:00:00 | |
| OE5DRO-10 | 2026-08-31 00:20:58 | 45.68976 | 9.57644 | 51° | 11km/h | 24125m | 5.4m/s | -53.9°C | 4.4% | 0hPa | 2.5V | 00:00:00 | 00:00:00 | 00:00:00 | |
| DO3MHA-11 | 2026-08-31 00:20:54 | 45.68971 | 9.57628 | 80° | 11km/h | 24103m | 4.6m/s | -53.8°C | 4.4% | 0hPa | 2.5V | 00:00:00 | 01:46:38 | 08:30:00 | |
| IW2NTF | 2026-08-31 00:20:50 | 45.68954 | 9.57614 | 354° | 13km/h | 24055m | 5.6m/s | -54.1°C | 4.4% | 0hPa | 2.6V | 08:30:00 | 01:46:29 | 00:00:00 | |
| NBG1-10 | 2026-08-31 00:20:47 | 45.68959 | 9.57613 | 356° | 16km/h | 24066m | 4.8m/s | -53.9°C | 4.3% | 0hPa | 2.5V | 00:00:00 | 01:46:31 | 08:30:00 | |
| DO3MHA-11 | 2026-08-31 00:20:44 | 45.68951 | 9.57614 | 6° | 15km/h | 24051m | 4.4m/s | -54.1°C | 4.5% | 0hPa | 2.5V | 00:00:00 | 01:46:28 | 00:00:00 | |
| DB0UT-7 | 2026-08-31 00:20:42 | 45.68945 | 9.57611 | 47° | 18km/h | 24040m | 6.2m/s | -54.1°C | 4.4% | 0hPa | 2.5V | 00:00:00 | 00:00:00 | 08:30:00 | |
| OE5DRO-10 | 2026-08-31 00:20:39 | 45.68941 | 9.57597 | 65° | 18km/h | 24026m | 4.6m/s | -54.1°C | 4.4% | 0hPa | 2.5V | 00:00:00 | 00:00:00 | 00:00:00 | |
| IW2NTF | 2026-08-31 00:20:38 | 45.68927 | 9.57587 | 351° | 18km/h | 24005m | 5.3m/s | -54.1°C | 4.4% | 0hPa | 2.5V | 08:30:00 | 01:46:19 | 00:00:00 | |
| BAUMI2-15 | 2026-08-31 00:20:36 | 45.68931 | 9.57587 | 5° | 16km/h | 24010m | 4.6m/s | 0°C | 0% | 0hPa | 2.5V | 00:00:00 | 01:46:20 | 00:00:00 | |
| DO3MHA-11 | 2026-08-31 00:20:34 | 45.68922 | 9.57589 | 342° | 16km/h | 24000m | 5.6m/s | -54.0°C | 4.4% | 0hPa | 2.5V | 00:00:00 | 01:46:18 | 00:00:00 | |
| BAUMI2-15 | 2026-08-31 00:20:31 | 45.68910 | 9.57592 | 2° | 18km/h | 23984m | 5.9m/s | 0°C | 0% | 0hPa | 2.5V | 00:00:00 | 01:46:15 | 00:00:00 | |
| BAUMI2-15 | 2026-08-31 00:20:26 | 45.68891 | 9.57583 | 22° | 18km/h | 23959m | 3.3m/s | 0°C | 0% | 0hPa | 2.5V | 00:00:00 | 01:46:10 | 00:00:00 | |
| IW2NTF | 2026-08-31 00:20:24 | 45.68877 | 9.57577 | 11° | 24km/h | 23943m | 5m/s | -53.9°C | 4.4% | 0hPa | 2.5V | 08:30:00 | 01:46:07 | 00:00:00 | |
| DO3MHA-11 | 2026-08-31 00:20:24 | 45.68882 | 9.57579 | 17° | 22km/h | 23948m | 5.6m/s | -53.9°C | 4.4% | 0hPa | 2.5V | 00:00:00 | 01:46:08 | 00:00:00 | |
| BAUMI2-15 | 2026-08-31 00:20:21 | 45.68865 | 9.57575 | 3° | 22km/h | 23933m | 5.3m/s | 0°C | 0% | 0hPa | 2.6V | 00:00:00 | 01:46:05 | 00:00:00 | |
| OE5DRO-10 | 2026-08-31 00:20:20 | 45.68860 | 9.57575 | 354° | 22km/h | 23927m | 5.6m/s | -53.9°C | 4.3% | 0hPa | 2.6V | 00:00:00 | 00:00:00 | 00:00:00 | |
| IW2NTF | 2026-08-31 00:20:19 | 45.68823 | 9.57592 | 354° | 20km/h | 23891m | 5.6m/s | -53.9°C | 4.3% | 0hPa | 2.6V | 08:30:00 | 01:45:57 | 00:00:00 | |
| DO3MHA-11 | 2026-08-31 00:20:14 | 45.68829 | 9.57591 | 349° | 20km/h | 23897m | 5.5m/s | -53.9°C | 4.4% | 0hPa | 2.7V | 00:00:00 | 01:45:58 | 00:00:00 | |
| DB0UT-7 | 2026-08-31 00:20:12 | 45.68818 | 9.57592 | 358° | 18km/h | 23886m | 4.5m/s | -53.8°C | 4.3% | 0hPa | 2.7V | 00:00:00 | 01:45:56 | 00:00:00 | |
| BAUMI2-15 | 2026-08-31 00:20:09 | 45.68803 | 9.57595 | 345° | 24km/h | 23871m | 5.3m/s | 0°C | 0% | 0hPa | 2.7V | 00:00:00 | 01:45:53 | 00:00:00 | |
| IW2NTF | 2026-08-31 00:20:08 | 45.68770 | 9.57620 | 324° | 26km/h | 23838m | 6.2m/s | -53.9°C | 4.4% | 0hPa | 2.7V | 08:30:00 | 01:45:47 | 00:00:00 | |
| BAUMI2-15 | 2026-08-31 00:20:03 | 45.68770 | 9.57620 | 325° | 22km/h | 23839m | 6.2m/s | 0°C | 0% | 0hPa | 2.5V | 00:00:00 | 01:45:47 | 00:00:00 | |
| OE5DRO-10 | 2026-08-31 00:20:01 | 45.68760 | 9.57630 | 331° | 16km/h | 23829m | 4.6m/s | -53.9°C | 4.4% | 0hPa | 2.5V | 00:00:00 | 00:00:00 | 00:00:00 | |
| BAUMI2-15 | 2026-08-31 00:19:58 | 45.68747 | 9.57637 | 346° | 18km/h | 23813m | 4.0m/s | 0°C | 0% | 0hPa | 2.5V | 00:00:00 | 01:45:42 | 00:00:00 | |
| IW2NTF | 2026-08-31 00:19:54 | 45.68726 | 9.57650 | 333° | 22km/h | 23788m | 5.5m/s | -53.8°C | 4.3% | 0hPa | 2.5V | 08:30:00 | 01:45:37 | 00:00:00 | |
| BAUMI2-15 | 2026-08-31 00:19:53 | 45.68725 | 9.57650 | 334° | 18km/h | 23788m | 5.5m/s | 0°C | 0% | 0hPa | 2.6V | 00:00:00 | 01:45:37 | 00:00:00 | |
| IW2NTF | 2026-08-31 00:19:49 | 45.68702 | 9.57691 | 308° | 11km/h | 23735m | 6m/s | -53.9°C | 4.3% | 0hPa | 2.6V | 08:30:00 | 01:45:27 | 00:00:00 | |
| BAUMI2-15 | 2026-08-31 00:19:43 | 45.68701 | 9.57691 | 309° | 13km/h | 23736m | 5.9m/s | 0°C | 0% | 0hPa | 2.5V | 00:00:00 | 01:45:27 | 00:00:00 | |
| DB0UT-7 | 2026-08-31 00:19:42 | 45.68699 | 9.57694 | 314° | 16km/h | 23730m | 5.1m/s | -53.9°C | 4.4% | 0hPa | 2.5V | 00:00:00 | 00:00:00 | 00:00:00 | |
| NBG1-10 | 2026-08-31 00:19:41 | 45.68697 | 9.57698 | 317° | 16km/h | 23725m | 4.7m/s | -54.0°C | 4.4% | 0hPa | 2.5V | 00:00:00 | 01:45:25 | 00:00:00 | |
| BAUMI2-15 | 2026-08-31 00:19:38 | 45.68688 | 9.57707 | 325° | 16km/h | 23709m | 4.8m/s | 0°C | 0% | 0hPa | 2.5V | 00:00:00 | 01:45:22 | 00:00:00 | |
| IW2NTF | 2026-08-31 00:19:34 | 45.68676 | 9.57734 | 292° | 20km/h | 23684m | 5.5m/s | -54°C | 4.4% | 0hPa | 2.5V | 08:30:00 | 01:45:17 | 00:00:00 | |
| BAUMI2-15 | 2026-08-31 00:19:33 | 45.68676 | 9.57734 | 293° | 16km/h | 23684m | 5.4m/s | 0°C | 0% | 0hPa | 2.5V | 00:00:00 | 01:45:17 | 00:00:00 | |
| BAUMI2-15 | 2026-08-31 00:19:28 | 45.68670 | 9.57757 | 294° | 7km/h | 23658m | 4.9m/s | 0°C | 0% | 0hPa | 2.5V | 00:00:00 | 01:45:12 | 00:00:00 | |
| IW2NTF | 2026-08-31 00:19:26 | 45.68665 | 9.57770 | 294° | 15km/h | 23632m | 5.8m/s | -54°C | 4.4% | 0hPa | 2.5V | 08:30:00 | 01:45:07 | 00:00:00 | |
| BAUMI2-15 | 2026-08-31 00:19:23 | 45.68665 | 9.57770 | 295° | 20km/h | 23633m | 5.8m/s | 0°C | 0% | 0hPa | 2.5V | 00:00:00 | 01:45:07 | 00:00:00 | |
| S52SK | 2026-08-31 00:19:22 | 45.68665 | 9.57770 | 295° | 15km/h | 23633m | 5.8m/s | 0°C | 0% | 0hPa | 2.5V | 00:00:00 | 00:00:00 | 00:00:00 | |
| IW2NTF | 2026-08-31 00:19:18 | 45.68653 | 9.57839 | 281° | 20km/h | 23582m | 4.9m/s | -54.1°C | 4.4% | 0hPa | 2.5V | 08:30:00 | 01:44:57 | 00:00:00 | |
| BAUMI2-15 | 2026-08-31 00:19:18 | 45.68656 | 9.57808 | 282° | 18km/h | 23608m | 4.9m/s | 0°C | 0% | 0hPa | 2.6V | 00:00:00 | 01:45:02 | 00:00:00 | |
| S52SK | 2026-08-31 00:19:16 | 45.68656 | 9.57814 | 278° | 16km/h | 23603m | 4.5m/s | 0°C | 0% | 0hPa | 2.6V | 00:00:00 | 00:00:00 | 00:00:00 | |
| BAUMI2-15 | 2026-08-31 00:19:13 | 45.68653 | 9.57839 | 282° | 16km/h | 23583m | 4.9m/s | 0°C | 0% | 0hPa | 2.6V | 00:00:00 | 01:44:57 | 00:00:00 | |
| DB0UT-7 | 2026-08-31 00:19:12 | 45.68652 | 9.57846 | 282° | 15km/h | 23578m | 4.5m/s | -54.0°C | 4.4% | 0hPa | 2.6V | 00:00:00 | 01:44:56 | 00:00:00 | |
| IW2NTF | 2026-08-31 00:19:09 | 45.68639 | 9.57888 | 295° | 15km/h | 23531m | 5.3m/s | -54.2°C | 4.4% | 0hPa | 2.5V | 08:30:00 | 01:44:47 | 00:00:00 | |
| BAUMI2-15 | 2026-08-31 00:19:08 | 45.68650 | 9.57865 | 297° | 15km/h | 23558m | 4.8m/s | 0°C | 0% | 0hPa | 2.6V | 00:00:00 | 01:44:52 | 00:00:00 | |
| OE5DRO-10 | 2026-08-31 00:19:04 | 45.68640 | 9.57882 | 303° | 15km/h | 23537m | 5.5m/s | -54.2°C | 4.4% | 0hPa | 2.6V | 00:00:00 | 00:00:00 | 00:00:00 | |
| BAUMI2-15 | 2026-08-31 00:19:03 | 45.68638 | 9.57888 | 296° | 13km/h | 23532m | 5.2m/s | 0°C | 0% | 0hPa | 2.6V | 00:00:00 | 01:44:47 | 00:00:00 | |
| IW2NTF | 2026-08-31 00:18:55 | 45.68621 | 9.57919 | 333° | 13km/h | 23480m | 5m/s | -54.3°C | 4.5% | 0hPa | 2.6V | 08:30:00 | 01:44:37 | 00:00:00 | |
| IW2NTF | 2026-08-31 00:18:48 | 45.68588 | 9.57950 | 14° | 9km/h | 23429m | 4.6m/s | -54.4°C | 4.5% | 0hPa | 2.5V | 08:30:00 | 01:44:27 | 00:00:00 | |
| OE5DRO-10 | 2026-08-31 00:18:45 | 45.68593 | 9.57949 | 335° | 16km/h | 23440m | 5.8m/s | -54.4°C | 4.5% | 0hPa | 2.5V | 00:00:00 | 00:00:00 | 00:00:00 | |
| DB0UT-7 | 2026-08-31 00:18:42 | 45.68585 | 9.57948 | 26° | 20km/h | 23424m | 5.4m/s | -54.4°C | 4.5% | 0hPa | 2.5V | 00:00:00 | 00:00:00 | 00:00:00 | |
| IW2NTF | 2026-08-31 00:18:38 | 45.68549 | 9.57958 | 321° | 26km/h | 23380m | 4.6m/s | -54.4°C | 4.5% | 0hPa | 2.5V | 08:30:00 | 01:44:17 | 00:00:00 | |
| OE5DRO-10 | 2026-08-31 00:18:26 | 45.68522 | 9.57967 | 26° | 22km/h | 23347m | 5.6m/s | -54.3°C | 4.4% | 0hPa | 2.5V | 00:00:00 | 00:00:00 | 00:00:00 | |
| IW2NTF | 2026-08-31 00:18:20 | 45.68460 | 9.57997 | 338° | 22km/h | 23293m | 5.4m/s | -54.4°C | 4.3% | 0hPa | 2.6V | 08:30:00 | 01:43:59 | 00:00:00 | |
| NBG1-10 | 2026-08-31 00:18:13 | 45.68452 | 9.58001 | 338° | 24km/h | 23282m | 4.5m/s | -54.4°C | 4.4% | 0hPa | 2.5V | 00:00:00 | 01:43:57 | 00:00:00 | |
| DB0UT-7 | 2026-08-31 00:18:12 | 45.68449 | 9.58003 | 344° | 26km/h | 23278m | 4.4m/s | -54.4°C | 4.3% | 0hPa | 2.5V | 00:00:00 | 01:43:56 | 00:00:00 | |
| IW2NTF | 2026-08-31 00:18:08 | 45.68405 | 9.58034 | 313° | 33km/h | 23231m | 4.3m/s | -54.8°C | 4.6% | 0hPa | 2.5V | 08:30:00 | 01:43:47 | 00:00:00 | |
| OE5DRO-10 | 2026-08-31 00:18:07 | 45.68425 | 9.58009 | 335° | 26km/h | 23252m | 5.5m/s | -54.7°C | 4.5% | 0hPa | 2.6V | 00:00:00 | 00:00:00 | 00:00:00 | |
| IW2NTF | 2026-08-31 00:17:56 | 45.68348 | 9.58110 | 316° | 24km/h | 23170m | 4.6m/s | -54.8°C | 4.6% | 0hPa | 2.6V | 08:30:00 | 01:43:35 | 00:00:00 | |
| OE5DRO-10 | 2026-08-31 00:17:48 | 45.68338 | 9.58132 | 289° | 22km/h | 23155m | 5.5m/s | -54.8°C | 4.5% | 0hPa | 2.5V | 00:00:00 | 00:00:00 | 00:00:00 | |
| IW2NTF | 2026-08-31 00:17:46 | 45.68324 | 9.58192 | 286° | 15km/h | 23119m | 4.9m/s | -54.8°C | 4.6% | 0hPa | 2.5V | 08:30:00 | 01:43:25 | 00:00:00 | |
| DB0UT-7 | 2026-08-31 00:17:42 | 45.68325 | 9.58186 | 287° | 20km/h | 23125m | 5.7m/s | -54.7°C | 4.6% | 0hPa | 2.5V | 00:00:00 | 00:00:00 | 00:00:00 | |
| NBG1-10 | 2026-08-31 00:17:40 | 45.68323 | 9.58197 | 294° | 20km/h | 23115m | 4.6m/s | -54.7°C | 4.6% | 0hPa | 2.5V | 00:00:00 | 01:43:24 | 00:00:00 | |
| IW2NTF | 2026-08-31 00:17:33 | 45.68313 | 9.58256 | 276° | 26km/h | 23069m | 4.4m/s | -54.5°C | 4.5% | 0hPa | 2.5V | 08:30:00 | 01:43:15 | 00:00:00 | |
| OE5DRO-10 | 2026-08-31 00:17:29 | 45.68313 | 9.58272 | 266° | 20km/h | 23060m | 5.1m/s | -54.4°C | 4.5% | 0hPa | 2.5V | 00:00:00 | 00:00:00 | 00:00:00 | |
| IW2NTF | 2026-08-31 00:17:26 | 45.68310 | 9.58315 | 268° | 20km/h | 23018m | 4.5m/s | -54.4°C | 4.4% | 0hPa | 2.6V | 08:30:00 | 01:43:05 | 00:00:00 | |
| IW2NTF | 2026-08-31 00:17:14 | 45.68325 | 9.58409 | 249° | 15km/h | 22957m | 5m/s | -54.6°C | 4.5% | 0hPa | 2.5V | 08:30:00 | 01:42:53 | 00:00:00 | |
| DB0UT-7 | 2026-08-31 00:17:12 | 45.68323 | 9.58394 | 265° | 20km/h | 22972m | 4.3m/s | -54.5°C | 4.4% | 0hPa | 2.6V | 00:00:00 | 01:42:56 | 00:00:00 | |
| OE5DRO-10 | 2026-08-31 00:17:10 | 45.68325 | 9.58404 | 257° | 18km/h | 22962m | 5.6m/s | -54.5°C | 4.4% | 0hPa | 2.6V | 00:00:00 | 00:00:00 | 00:00:00 | |
| NBG1-10 | 2026-08-31 00:17:07 | 45.68328 | 9.58420 | 256° | 18km/h | 22948m | 5.4m/s | -54.6°C | 4.5% | 0hPa | 2.6V | 00:00:00 | 01:42:51 | 00:00:00 | |
| IW2NTF | 2026-08-31 00:17:00 | 45.68352 | 9.58482 | 224° | 18km/h | 22908m | 5.3m/s | -54.7°C | 4.5% | 0hPa | 2.5V | 08:30:00 | 01:42:43 | 00:00:00 | |
| IW2NTF | 2026-08-31 00:16:54 | 45.68372 | 9.58530 | 247° | 24km/h | 22860m | 5.5m/s | -54.9°C | 4.5% | 0hPa | 2.6V | 08:30:00 | 01:42:33 | 00:00:00 | |
| OE5DRO-10 | 2026-08-31 00:16:51 | 45.68369 | 9.58515 | 259° | 16km/h | 22869m | 4.6m/s | -54.8°C | 4.5% | 0hPa | 2.7V | 00:00:00 | 00:00:00 | 00:00:00 | |
| IW2NTF | 2026-08-31 00:16:44 | 45.68399 | 9.58572 | 256° | 5km/h | 22808m | 5.6m/s | -54.9°C | 4.6% | 0hPa | 2.7V | 08:30:00 | 01:42:23 | 00:00:00 | |
| DB0UT-7 | 2026-08-31 00:16:42 | 45.68393 | 9.58568 | 200° | 11km/h | 22823m | 4.9m/s | -54.9°C | 4.6% | 0hPa | 2.5V | 00:00:00 | 00:00:00 | 00:00:00 | |
| S52SK | 2026-08-31 00:16:41 | 45.68393 | 9.58568 | 201° | 13km/h | 22823m | 4.9m/s | 0°C | 0% | 0hPa | 2.5V | 00:00:00 | 00:00:00 | 00:00:00 | |
| S52SK | 2026-08-31 00:16:35 | 45.68399 | 9.58584 | 258° | 15km/h | 22793m | 5.9m/s | 0°C | 0% | 0hPa | 2.5V | 00:00:00 | 00:00:00 | 00:00:00 | |
| IW2NTF | 2026-08-31 00:16:34 | 45.68412 | 9.58617 | 225° | 7km/h | 22758m | 5.5m/s | -54.9°C | 4.6% | 0hPa | 2.5V | 08:30:00 | 01:42:13 | 00:00:00 | |
| NBG1-10 | 2026-08-31 00:16:34 | 45.68403 | 9.58595 | 239° | 11km/h | 22783m | 4.2m/s | -54.9°C | 4.6% | 0hPa | 2.6V | 00:00:00 | 01:42:18 | 00:00:00 | |
| OE5DRO-10 | 2026-08-31 00:16:32 | 45.68408 | 9.58607 | 243° | 11km/h | 22773m | 5.1m/s | -54.8°C | 4.6% | 0hPa | 2.6V | 00:00:00 | 00:00:00 | 08:30:00 | |
| IW2NTF | 2026-08-31 00:16:24 | 45.68418 | 9.58654 | 252° | 16km/h | 22707m | 6m/s | -54.9°C | 4.4% | 0hPa | 2.6V | 08:30:00 | 01:42:03 | 00:00:00 | |
| IW2NTF | 2026-08-31 00:16:15 | 45.68426 | 9.58679 | 294° | 7km/h | 22657m | 5.8m/s | -55.1°C | 4.5% | 0hPa | 2.5V | 08:30:00 | 01:41:53 | 00:00:00 | |
| OE5DRO-10 | 2026-08-31 00:16:13 | 45.68426 | 9.58672 | 197° | 9km/h | 22678m | 4.1m/s | -55.0°C | 4.5% | 0hPa | 2.5V | 00:00:00 | 00:00:00 | 00:00:00 | |
| DB0UT-7 | 2026-08-31 00:16:12 | 45.68427 | 9.58673 | 239° | 11km/h | 22673m | 6.0m/s | -55.0°C | 4.5% | 0hPa | 2.5V | 00:00:00 | 01:41:56 | 08:30:00 | |
| IW2NTF | 2026-08-31 00:16:05 | 45.68428 | 9.58702 | 184° | 11km/h | 22606m | 5.8m/s | -55.6°C | 4.8% | 0hPa | 2.5V | 08:30:00 | 01:41:43 | 00:00:00 | |
| NBG1-10 | 2026-08-31 00:16:01 | 45.68423 | 9.58702 | 183° | 15km/h | 22616m | 5.2m/s | -55.5°C | 4.7% | 0hPa | 2.6V | 00:00:00 | 01:41:45 | 00:00:00 | |
| IW2NTF | 2026-08-31 00:15:54 | 45.68438 | 9.58744 | 262° | 20km/h | 22557m | 5m/s | -55.5°C | 4.8% | 0hPa | 2.6V | 08:30:00 | 01:41:33 | 00:00:00 | |
| OE5DRO-10 | 2026-08-31 00:15:54 | 45.68435 | 9.58712 | 258° | 16km/h | 22582m | 4.1m/s | -55.5°C | 4.8% | 0hPa | 2.5V | 00:00:00 | 00:00:00 | 00:00:00 | |
| IW2NTF | 2026-08-31 00:15:44 | 45.68460 | 9.58778 | 223° | 13km/h | 22506m | 4.3m/s | -55.3°C | 4.6% | 0hPa | 2.5V | 08:30:00 | 01:41:23 | 00:00:00 | |
| DB0UT-7 | 2026-08-31 00:15:42 | 45.68452 | 9.58770 | 214° | 16km/h | 22522m | 4.5m/s | -55.4°C | 4.6% | 0hPa | 2.5V | 00:00:00 | 00:00:00 | 00:00:00 | |
| IW2NTF | 2026-08-31 00:15:35 | 45.68487 | 9.58828 | 199° | 15km/h | 22455m | 4.1m/s | -55.1°C | 4.6% | 0hPa | 2.5V | 08:30:00 | 01:41:13 | 00:00:00 | |
| NBG1-10 | 2026-08-31 00:15:28 | 45.68490 | 9.58830 | 190° | 15km/h | 22450m | 5.1m/s | -55.1°C | 4.6% | 0hPa | 2.5V | 00:00:00 | 01:41:12 | 08:30:00 | |
| IW2NTF | 2026-08-31 00:15:25 | 45.68522 | 9.58855 | 244° | 16km/h | 22404m | 4.4m/s | -55.4°C | 4.5% | 0hPa | 2.6V | 08:30:00 | 01:41:03 | 00:00:00 | |
| OE5DRO-10 | 2026-08-31 00:15:16 | 45.68528 | 9.58868 | 218° | 13km/h | 22390m | 4.2m/s | -55.6°C | 4.7% | 0hPa | 2.5V | 00:00:00 | 00:00:00 | 00:00:00 | |
| IW2NTF | 2026-08-31 00:15:14 | 45.68553 | 9.58858 | 159° | 18km/h | 22353m | 3.9m/s | -55.7°C | 4.8% | 0hPa | 2.5V | 08:30:00 | 01:40:53 | 00:00:00 | |
| DB0UT-7 | 2026-08-31 00:15:12 | 45.68539 | 9.58867 | 151° | 9km/h | 22368m | 5.5m/s | -55.6°C | 4.7% | 0hPa | 2.5V | 00:00:00 | 01:40:56 | 00:00:00 | |
| IW2NTF | 2026-08-31 00:15:05 | 45.68569 | 9.58826 | 94° | 15km/h | 22303m | 4.2m/s | -55.7°C | 4.7% | 0hPa | 2.5V | 08:30:00 | 01:40:43 | 00:00:00 | |
| OE5DRO-10 | 2026-08-31 00:14:57 | 45.68570 | 9.58819 | 104° | 5km/h | 22294m | 5.8m/s | -55.6°C | 4.7% | 0hPa | 2.6V | 00:00:00 | 00:00:00 | 00:00:00 | |
| NBG1-10 | 2026-08-31 00:14:55 | 45.68571 | 9.58818 | 225° | 7km/h | 22284m | 4.5m/s | -55.6°C | 4.7% | 0hPa | 2.6V | 00:00:00 | 01:40:39 | 00:00:00 | |
| IW2NTF | 2026-08-31 00:14:54 | 45.68571 | 9.58815 | 99° | 4km/h | 22253m | 4.8m/s | -55.7°C | 4.7% | 0hPa | 2.6V | 08:30:00 | 01:40:33 | 00:00:00 | |
| IW2NTF | 2026-08-31 00:14:44 | 45.68569 | 9.58787 | 60° | 5km/h | 22202m | 5.1m/s | -55.7°C | 4.8% | 0hPa | 2.5V | 08:30:00 | 01:40:23 | 00:00:00 | |
| DB0UT-7 | 2026-08-31 00:14:42 | 45.68569 | 9.58791 | 108° | 9km/h | 22217m | 4.1m/s | -55.6°C | 4.8% | 0hPa | 2.5V | 00:00:00 | 00:00:00 | 00:00:00 | |
| OE5DRO-10 | 2026-08-31 00:14:38 | 45.68568 | 9.58785 | 46° | 9km/h | 22197m | 4.9m/s | -55.6°C | 4.8% | 0hPa | 2.7V | 00:00:00 | 00:00:00 | 00:00:00 | |
| IW2NTF | 2026-08-31 00:14:35 | 45.68550 | 9.58764 | 39° | 5km/h | 22151m | 4.9m/s | -55.6°C | 4.8% | 0hPa | 2.5V | 08:30:00 | 01:40:13 | 00:00:00 | |
| S52SK | 2026-08-31 00:14:29 | 45.68551 | 9.58766 | 55° | 9km/h | 22157m | 5.8m/s | 0°C | 0% | 0hPa | 2.6V | 00:00:00 | 00:00:00 | 00:00:00 | |
| S52SK | 2026-08-31 00:14:23 | 45.68541 | 9.58759 | 18° | 13km/h | 22127m | 4.4m/s | 0°C | 0% | 0hPa | 2.6V | 00:00:00 | 00:00:00 | 00:00:00 | |
| NBG1-10 | 2026-08-31 00:14:22 | 45.68535 | 9.58758 | 353° | 13km/h | 22116m | 5.6m/s | -55.4°C | 4.7% | 0hPa | 2.6V | 00:00:00 | 01:40:06 | 00:00:00 | |
| IW2NTF | 2026-08-31 00:14:19 | 45.68526 | 9.58759 | 8° | 13km/h | 22100m | 5.6m/s | -55.5°C | 4.7% | 0hPa | 2.6V | 08:30:00 | 01:40:03 | 00:00:00 | |
| OE5DRO-10 | 2026-08-31 00:14:19 | 45.68526 | 9.58759 | 9° | 15km/h | 22100m | 5.6m/s | -55.4°C | 4.7% | 0hPa | 2.5V | 00:00:00 | 00:00:00 | 00:00:00 | |
| IW2NTF | 2026-08-31 00:14:14 | 45.68493 | 9.58760 | 326° | 13km/h | 22049m | 5.2m/s | -55.4°C | 4.7% | 0hPa | 2.5V | 08:30:00 | 01:39:53 | 00:00:00 | |
| DB0UT-7 | 2026-08-31 00:14:12 | 45.68503 | 9.58758 | 7° | 13km/h | 22064m | 4.3m/s | -55.4°C | 4.8% | 0hPa | 2.5V | 00:00:00 | 01:39:56 | 00:00:00 | |
| IW2NTF | 2026-08-31 00:14:02 | 45.68457 | 9.58777 | 23° | 15km/h | 21997m | 4.4m/s | -55.3°C | 4.7% | 0hPa | 2.5V | 08:30:00 | 01:39:43 | 00:00:00 | |
| OE5DRO-10 | 2026-08-31 00:14:00 | 45.68461 | 9.58779 | 14° | 11km/h | 22003m | 6.0m/s | -55.3°C | 4.7% | 0hPa | 2.6V | 00:00:00 | 00:00:00 | 00:00:00 | |
| DO3MHA-11 | 2026-08-31 00:13:55 | 45.68447 | 9.58772 | 357° | 9km/h | 21978m | 4.6m/s | -55.2°C | 4.6% | 0hPa | 2.6V | 00:00:00 | 01:39:39 | 00:00:00 | |
| IW2NTF | 2026-08-31 00:13:51 | 45.68428 | 9.58778 | 330° | 9km/h | 21947m | 4.7m/s | -55.1°C | 4.6% | 0hPa | 2.6V | 08:30:00 | 01:39:33 | 00:00:00 | |
| NBG1-10 | 2026-08-31 00:13:49 | 45.68428 | 9.58778 | 331° | 7km/h | 21948m | 4.6m/s | -55.1°C | 4.6% | 0hPa | 2.6V | 00:00:00 | 01:39:33 | 00:00:00 | |
| DO3MHA-11 | 2026-08-31 00:13:45 | 45.68418 | 9.58779 | 15° | 9km/h | 21927m | 4.5m/s | -55.1°C | 4.6% | 0hPa | 2.5V | 00:00:00 | 01:39:29 | 00:00:00 | |
| IW2NTF | 2026-08-31 00:13:44 | 45.68404 | 9.58778 | 346° | 9km/h | 21896m | 4.9m/s | -55°C | 4.6% | 0hPa | 2.5V | 08:30:00 | 01:39:23 | 00:00:00 | |
| DB0UT-7 | 2026-08-31 00:13:42 | 45.68411 | 9.58777 | 3° | 5km/h | 21912m | 4.4m/s | -55.0°C | 4.6% | 0hPa | 2.5V | 00:00:00 | 00:00:00 | 00:00:00 | |
| OE5DRO-10 | 2026-08-31 00:13:41 | 45.68409 | 9.58777 | 2° | 5km/h | 21907m | 6.0m/s | -55.0°C | 4.6% | 0hPa | 2.5V | 00:00:00 | 00:00:00 | 08:30:00 | |
| DO3MHA-11 | 2026-08-31 00:13:35 | 45.68399 | 9.58782 | 340° | 7km/h | 21876m | 5.2m/s | -54.9°C | 4.6% | 0hPa | 2.5V | 00:00:00 | 01:39:19 | 00:00:00 | |
| IW2NTF | 2026-08-31 00:13:34 | 45.68390 | 9.58783 | 321° | 4km/h | 21846m | 4.8m/s | -55°C | 4.6% | 0hPa | 2.5V | 08:30:00 | 01:39:13 | 00:00:00 | |
| DO3MHA-11 | 2026-08-31 00:13:25 | 45.68386 | 9.58786 | 333° | 4km/h | 21826m | 5.7m/s | -55.0°C | 4.6% | 0hPa | 2.6V | 00:00:00 | 01:39:09 | 00:00:00 | |
| IW2NTF | 2026-08-31 00:13:24 | 45.68382 | 9.58782 | 36° | 7km/h | 21796m | 4.6m/s | -55°C | 4.5% | 0hPa | 2.6V | 08:30:00 | 01:39:03 | 00:00:00 | |
| OE5DRO-10 | 2026-08-31 00:13:22 | 45.68386 | 9.58786 | 65° | 5km/h | 21811m | 5.2m/s | -54.9°C | 4.6% | 0hPa | 2.5V | 00:00:00 | 00:00:00 | 00:00:00 | |
| NBG1-10 | 2026-08-31 00:13:16 | 45.68380 | 9.58779 | 65° | 13km/h | 21781m | 3.9m/s | -55.0°C | 4.5% | 0hPa | 2.5V | 00:00:00 | 01:39:00 | 00:00:00 | |
| DO3MHA-11 | 2026-08-31 00:13:15 | 45.68379 | 9.58777 | 69° | 5km/h | 21776m | 5.7m/s | -55.0°C | 4.5% | 0hPa | 2.5V | 00:00:00 | 01:38:59 | 08:30:00 | |
| DB0UT-7 | 2026-08-31 00:13:12 | 45.68378 | 9.58772 | 66° | 15km/h | 21761m | 5.4m/s | -55.0°C | 4.5% | 0hPa | 2.5V | 00:00:00 | 01:38:56 | 00:00:00 | |
| DO3MHA-11 | 2026-08-31 00:13:05 | 45.68369 | 9.58771 | 357° | 13km/h | 21725m | 4.9m/s | -55.3°C | 4.6% | 0hPa | 2.7V | 00:00:00 | 01:38:49 | 00:00:00 | |
| OE5DRO-10 | 2026-08-31 00:13:03 | 45.68362 | 9.58770 | 14° | 18km/h | 21715m | 5.9m/s | -55.3°C | 4.6% | 0hPa | 2.7V | 00:00:00 | 00:00:00 | 00:00:00 | |
| DO3MHA-11 | 2026-08-31 00:12:55 | 45.68339 | 9.58758 | 7° | 20km/h | 21674m | 4.4m/s | -55.3°C | 4.6% | 0hPa | 2.7V | 00:00:00 | 01:38:39 | 00:00:00 | |
| DO3MHA-11 | 2026-08-31 00:12:45 | 45.68289 | 9.58735 | 22° | 24km/h | 21626m | 4.3m/s | -55.6°C | 4.7% | 0hPa | 2.7V | 00:00:00 | 01:38:29 | 00:00:00 | |
| OE5DRO-10 | 2026-08-31 00:12:44 | 45.68283 | 9.58732 | 19° | 27km/h | 21621m | 4.2m/s | -55.6°C | 4.8% | 0hPa | 2.6V | 00:00:00 | 00:00:00 | 00:00:00 | |
| NBG1-10 | 2026-08-31 00:12:43 | 45.68277 | 9.58729 | 21° | 27km/h | 21616m | 5.5m/s | -55.6°C | 4.8% | 0hPa | 2.7V | 00:00:00 | 01:38:27 | 00:00:00 | |
| DB0UT-7 | 2026-08-31 00:12:42 | 45.68271 | 9.58725 | 23° | 27km/h | 21611m | 5.0m/s | -55.6°C | 4.8% | 0hPa | 2.7V | 00:00:00 | 00:00:00 | 00:00:00 | |
| DO3MHA-11 | 2026-08-31 00:12:35 | 45.68231 | 9.58711 | 17° | 29km/h | 21577m | 5.2m/s | -55.5°C | 4.7% | 0hPa | 2.7V | 00:00:00 | 01:38:19 | 00:00:00 | |
| DO3MHA-11 | 2026-08-31 00:12:25 | 45.68160 | 9.58695 | 353° | 31km/h | 21527m | 5.7m/s | -55.6°C | 4.6% | 0hPa | 2.7V | 00:00:00 | 01:38:09 | 00:00:00 | |
| DO3MHA-11 | 2026-08-31 00:12:15 | 45.68083 | 9.58686 | 8° | 29km/h | 21478m | 4.3m/s | -55.9°C | 4.7% | 0hPa | 2.7V | 00:00:00 | 01:37:59 | 00:00:00 | |
| IW2NTF | 2026-08-31 00:12:14 | 45.68034 | 9.58694 | 7° | 35km/h | 21445m | 4.4m/s | -56.1°C | 4.8% | 0hPa | 2.5V | 08:30:00 | 01:37:52 | 00:00:00 | |
| DB0UT-7 | 2026-08-31 00:12:12 | 45.68064 | 9.58689 | 344° | 31km/h | 21464m | 4.4m/s | -55.9°C | 4.7% | 0hPa | 2.7V | 00:00:00 | 01:37:56 | 00:00:00 | |
| NBG1-10 | 2026-08-31 00:12:10 | 45.68050 | 9.58694 | 352° | 31km/h | 21455m | 4.9m/s | -56.0°C | 4.7% | 0hPa | 2.7V | 00:00:00 | 01:37:54 | 00:00:00 | |
| OE5DRO-10 | 2026-08-31 00:12:06 | 45.68016 | 9.58689 | 12° | 33km/h | 21437m | 4.9m/s | -56.1°C | 4.8% | 0hPa | 2.5V | 00:00:00 | 00:00:00 | 00:00:00 | |
| DO3MHA-11 | 2026-08-31 00:12:05 | 45.68008 | 9.58686 | 10° | 33km/h | 21431m | 5.2m/s | -56.0°C | 4.8% | 0hPa | 2.5V | 00:00:00 | 01:37:49 | 00:00:00 | |
| IW2NTF | 2026-08-31 00:12:03 | 45.67949 | 9.58688 | 338° | 31km/h | 21396m | 4.1m/s | -55.9°C | 4.8% | 0hPa | 2.5V | 08:30:00 | 01:37:42 | 00:00:00 | |
| DO3MHA-11 | 2026-08-31 00:11:55 | 45.67925 | 9.58697 | 354° | 31km/h | 21382m | 4.8m/s | -55.8°C | 4.8% | 0hPa | 2.5V | 00:00:00 | 01:37:39 | 00:00:00 | |
| IW2NTF | 2026-08-31 00:11:53 | 45.67869 | 9.58709 | 348° | 29km/h | 21349m | 5.6m/s | -55.7°C | 4.8% | 0hPa | 2.5V | 08:30:00 | 01:37:32 | 00:00:00 | |
| OE5DRO-10 | 2026-08-31 00:11:47 | 45.67861 | 9.58710 | 353° | 24km/h | 21344m | 4.5m/s | -55.6°C | 4.7% | 0hPa | 2.5V | 00:00:00 | 00:00:00 | 00:00:00 | |
| DO3MHA-11 | 2026-08-31 00:11:45 | 45.67847 | 9.58713 | 351° | 26km/h | 21335m | 5.4m/s | -55.6°C | 4.7% | 0hPa | 2.7V | 00:00:00 | 01:37:29 | 08:30:00 | |
| S52SK | 2026-08-31 00:11:44 | 45.67847 | 9.58713 | 352° | 27km/h | 21335m | 5.4m/s | 0°C | 0% | 0hPa | 2.6V | 00:00:00 | 00:00:00 | 00:00:00 | |
| IW2NTF | 2026-08-31 00:11:43 | 45.67802 | 9.58725 | 345° | 24km/h | 21299m | 5.4m/s | -55.8°C | 4.8% | 0hPa | 2.6V | 08:30:00 | 01:37:22 | 00:00:00 | |
| DB0UT-7 | 2026-08-31 00:11:42 | 45.67827 | 9.58719 | 348° | 24km/h | 21319m | 5.3m/s | -55.6°C | 4.7% | 0hPa | 2.5V | 00:00:00 | 00:00:00 | 08:30:00 | |
| NBG1-10 | 2026-08-31 00:11:37 | 45.67796 | 9.58727 | 343° | 20km/h | 21294m | 4.2m/s | -55.8°C | 4.8% | 0hPa | 2.7V | 00:00:00 | 01:37:21 | 00:00:00 | |
| DO3MHA-11 | 2026-08-31 00:11:35 | 45.67786 | 9.58731 | 352° | 24km/h | 21285m | 5.6m/s | -55.8°C | 4.7% | 0hPa | 2.7V | 00:00:00 | 01:37:19 | 00:00:00 | |
| IW2NTF | 2026-08-31 00:11:33 | 45.67749 | 9.58744 | 339° | 26km/h | 21251m | 4.7m/s | -55.7°C | 4.7% | 0hPa | 2.7V | 08:30:00 | 01:37:12 | 00:00:00 | |
| OE5DRO-10 | 2026-08-31 00:11:28 | 45.67749 | 9.58744 | 340° | 22km/h | 21251m | 4.6m/s | -55.7°C | 4.7% | 0hPa | 2.5V | 00:00:00 | 00:00:00 | 00:00:00 | |
| DO3MHA-11 | 2026-08-31 00:11:25 | 45.67730 | 9.58757 | 327° | 26km/h | 21237m | 4.9m/s | -55.6°C | 4.7% | 0hPa | 2.5V | 00:00:00 | 01:37:09 | 00:00:00 | |
| IW2NTF | 2026-08-31 00:11:23 | 45.67691 | 9.58790 | 319° | 20km/h | 21204m | 5.4m/s | -55.8°C | 4.7% | 0hPa | 2.5V | 08:30:00 | 01:37:02 | 00:00:00 | |
| DO3MHA-11 | 2026-08-31 00:11:15 | 45.67681 | 9.58804 | 325° | 18km/h | 21189m | 5.4m/s | -55.8°C | 4.7% | 0hPa | 2.7V | 00:00:00 | 01:36:59 | 00:00:00 | |
| IW2NTF | 2026-08-31 00:11:13 | 45.67655 | 9.58828 | 328° | 18km/h | 21154m | 3.6m/s | -55.8°C | 4.7% | 0hPa | 2.5V | 08:30:00 | 01:36:52 | 00:00:00 | |
| DB0UT-7 | 2026-08-31 00:11:12 | 45.67670 | 9.58814 | 323° | 16km/h | 21174m | 5.5m/s | -55.8°C | 4.7% | 0hPa | 2.7V | 00:00:00 | 01:36:56 | 00:00:00 | |
| OE5DRO-10 | 2026-08-31 00:11:09 | 45.67659 | 9.58825 | 333° | 15km/h | 21159m | 4.9m/s | -55.8°C | 4.7% | 0hPa | 2.7V | 00:00:00 | 00:00:00 | 00:00:00 | |
| DO3MHA-11 | 2026-08-31 00:11:05 | 45.67646 | 9.58842 | 298° | 16km/h | 21140m | 4.0m/s | -55.8°C | 4.8% | 0hPa | 2.7V | 00:00:00 | 01:36:49 | 00:00:00 | |
| IW2NTF | 2026-08-31 00:11:03 | 45.67632 | 9.58879 | 297° | 15km/h | 21107m | 4.4m/s | -55.9°C | 4.8% | 0hPa | 2.7V | 08:30:00 | 01:36:42 | 00:00:00 | |
| NBG1-10 | 2026-08-31 00:11:01 | 45.67637 | 9.58864 | 304° | 11km/h | 21122m | 3.8m/s | -55.8°C | 4.8% | 0hPa | 2.5V | 00:00:00 | 01:36:45 | 00:00:00 | |
| DO3MHA-11 | 2026-08-31 00:10:55 | 45.67623 | 9.58891 | 325° | 11km/h | 21093m | 4.0m/s | -55.9°C | 4.8% | 0hPa | 2.5V | 00:00:00 | 01:36:39 | 00:00:00 | |
| IW2NTF | 2026-08-31 00:10:54 | 45.67617 | 9.58912 | 277° | 13km/h | 21060m | 4.3m/s | -55.8°C | 4.8% | 0hPa | 2.5V | 08:30:00 | 01:36:32 | 00:00:00 | |
| DO3MHA-11 | 2026-08-31 00:10:45 | 45.67617 | 9.58931 | 263° | 11km/h | 21045m | 4.0m/s | -55.7°C | 4.8% | 0hPa | 2.6V | 00:00:00 | 01:36:29 | 00:00:00 | |
| IW2NTF | 2026-08-31 00:10:43 | 45.67619 | 9.58962 | 186° | 7km/h | 21012m | 4.1m/s | -55.5°C | 4.7% | 0hPa | 2.5V | 08:30:00 | 01:36:22 | 00:00:00 | |
| DB0UT-7 | 2026-08-31 00:10:42 | 45.67617 | 9.58951 | 280° | 7km/h | 21032m | 4.3m/s | -55.6°C | 4.7% | 0hPa | 2.7V | 00:00:00 | 00:00:00 | 00:00:00 | |
| DO3MHA-11 | 2026-08-31 00:10:35 | 45.67622 | 9.58962 | 208° | 9km/h | 20999m | 4.0m/s | -55.4°C | 4.7% | 0hPa | 2.7V | 00:00:00 | 01:36:19 | 00:00:00 | |
| IW2NTF | 2026-08-31 00:10:33 | 45.67625 | 9.58986 | 306° | 9km/h | 20966m | 3.9m/s | -55.3°C | 4.6% | 0hPa | 2.7V | 08:30:00 | 01:36:12 | 00:00:00 | |
| OE5DRO-10 | 2026-08-31 00:10:31 | 45.67626 | 9.58973 | 252° | 9km/h | 20981m | 4.6m/s | -55.3°C | 4.6% | 0hPa | 2.7V | 00:00:00 | 00:00:00 | 00:00:00 | |
| NBG1-10 | 2026-08-31 00:10:28 | 45.67625 | 9.58986 | 307° | 7km/h | 20966m | 3.9m/s | -55.3°C | 4.6% | 0hPa | 2.7V | 00:00:00 | 01:36:12 | 08:30:00 | |
| DO3MHA-11 | 2026-08-31 00:10:25 | 45.67622 | 9.58990 | 305° | 7km/h | 20953m | 4.8m/s | -55.2°C | 4.6% | 0hPa | 2.5V | 00:00:00 | 01:36:09 | 00:00:00 | |
| IW2NTF | 2026-08-31 00:10:20 | 45.67616 | 9.59003 | 280° | 7km/h | 20918m | 4.5m/s | -55.1°C | 4.6% | 0hPa | 2.5V | 08:30:00 | 01:36:02 | 00:00:00 | |
| DO3MHA-11 | 2026-08-31 00:10:15 | 45.67613 | 9.59011 | 315° | 7km/h | 20905m | 4.8m/s | -55.1°C | 4.6% | 0hPa | 2.5V | 00:00:00 | 01:35:59 | 08:30:00 | |
| OE5DRO-10 | 2026-08-31 00:10:13 | 45.67606 | 9.59018 | 336° | 7km/h | 20891m | 5.3m/s | -55.1°C | 4.6% | 0hPa | 2.7V | 00:00:00 | 00:00:00 | 00:00:00 | |
| DB0UT-7 | 2026-08-31 00:10:12 | 45.67606 | 9.59018 | 336° | 9km/h | 20891m | 5.3m/s | -55.1°C | 4.6% | 0hPa | 2.7V | 00:00:00 | 01:35:56 | 00:00:00 | |
| DO3MHA-11 | 2026-08-31 00:10:05 | 45.67598 | 9.59016 | 14° | 9km/h | 20857m | 4.7m/s | -54.9°C | 4.5% | 0hPa | 2.7V | 00:00:00 | 01:35:49 | 00:00:00 | |
| DO3MHA-11 | 2026-08-31 00:09:55 | 45.67577 | 9.59011 | 20° | 13km/h | 20811m | 5.1m/s | -55.3°C | 4.6% | 0hPa | 2.7V | 00:00:00 | 01:35:39 | 00:00:00 | |
| OE5DRO-10 | 2026-08-31 00:09:53 | 45.67570 | 9.59008 | 19° | 16km/h | 20802m | 4.1m/s | -55.3°C | 4.6% | 0hPa | 2.7V | 00:00:00 | 00:00:00 | 00:00:00 | |
| DO3MHA-11 | 2026-08-31 00:09:44 | 45.67545 | 9.58983 | 41° | 20km/h | 20759m | 4.7m/s | -55.4°C | 4.6% | 0hPa | 2.5V | 00:00:00 | 01:35:28 | 00:00:00 | |
| DB0UT-7 | 2026-08-31 00:09:42 | 45.67538 | 9.58975 | 35° | 22km/h | 20750m | 4.6m/s | -55.4°C | 4.6% | 0hPa | 2.7V | 00:00:00 | 00:00:00 | 00:00:00 | |
| DO3MHA-11 | 2026-08-31 00:09:34 | 45.67499 | 9.58951 | 17° | 20km/h | 20710m | 4.6m/s | -55.4°C | 4.6% | 0hPa | 2.7V | 00:00:00 | 01:35:18 | 00:00:00 | |
| DO3MHA-11 | 2026-08-31 00:09:24 | 45.67449 | 9.58932 | 22° | 22km/h | 20662m | 5.4m/s | -55.5°C | 4.6% | 0hPa | 2.7V | 00:00:00 | 01:35:08 | 00:00:00 | |
| NBG1-10 | 2026-08-31 00:09:22 | 45.67437 | 9.58925 | 20° | 16km/h | 20652m | 4.5m/s | -55.5°C | 4.6% | 0hPa | 2.7V | 00:00:00 | 01:35:06 | 00:00:00 | |
| DO3MHA-11 | 2026-08-31 00:09:13 | 45.67392 | 9.58901 | 15° | 18km/h | 20608m | 4.7m/s | -55.9°C | 4.7% | 0hPa | 2.7V | 00:00:00 | 01:34:57 | 00:00:00 | |
| DB0UT-7 | 2026-08-31 00:09:12 | 45.67387 | 9.58899 | 13° | 13km/h | 20604m | 4.5m/s | -55.9°C | 4.7% | 0hPa | 2.5V | 00:00:00 | 01:34:56 | 00:00:00 | |
| DO3MHA-11 | 2026-08-31 00:09:03 | 45.67347 | 9.58897 | 359° | 15km/h | 20560m | 3.7m/s | -56.0°C | 4.7% | 0hPa | 2.5V | 00:00:00 | 01:34:47 | 00:00:00 | |
| IW2NTF | 2026-08-31 00:09:01 | 45.67332 | 9.58897 | 358° | 16km/h | 20540m | 5.7m/s | -56.3°C | 4.8% | 0hPa | 2.5V | 08:30:00 | 01:34:43 | 00:00:00 | |
| OE5DRO-10 | 2026-08-31 00:08:56 | 45.67320 | 9.58900 | 341° | 7km/h | 20526m | 5.5m/s | -56.2°C | 4.8% | 0hPa | 2.7V | 00:00:00 | 00:00:00 | 00:00:00 | |
| DO3MHA-11 | 2026-08-31 00:08:53 | 45.67313 | 9.58906 | 327° | 5km/h | 20512m | 5.0m/s | -56.2°C | 4.8% | 0hPa | 2.7V | 00:00:00 | 01:34:37 | 00:00:00 | |
| NBG1-10 | 2026-08-31 00:08:49 | 45.67306 | 9.58908 | 7° | 9km/h | 20492m | 5.6m/s | -56.1°C | 4.8% | 0hPa | 2.7V | 00:00:00 | 01:34:33 | 00:00:00 | |
| IW2NTF | 2026-08-31 00:08:46 | 45.67299 | 9.58904 | 327° | 5km/h | 20454m | 4.4m/s | -56.2°C | 4.8% | 0hPa | 2.5V | 08:30:00 | 01:34:25 | 00:00:00 | |
| DO3MHA-11 | 2026-08-31 00:08:43 | 45.67301 | 9.58904 | 14° | 11km/h | 20464m | 4.8m/s | -56.2°C | 4.9% | 0hPa | 2.5V | 00:00:00 | 01:34:27 | 08:30:00 | |
| DB0UT-7 | 2026-08-31 00:08:42 | 45.67300 | 9.58903 | 360° | 11km/h | 20459m | 5.2m/s | -56.2°C | 4.8% | 0hPa | 2.5V | 00:00:00 | 00:00:00 | 00:00:00 | |
| OE5DRO-10 | 2026-08-31 00:08:37 | 45.67289 | 9.58912 | 334° | 11km/h | 20434m | 3.6m/s | -56.2°C | 4.8% | 0hPa | 2.5V | 00:00:00 | 00:00:00 | 00:00:00 | |
| IW2NTF | 2026-08-31 00:08:36 | 45.67273 | 9.58919 | 12° | 9km/h | 20405m | 4m/s | -56.1°C | 4.8% | 0hPa | 2.5V | 08:30:00 | 01:34:15 | 00:00:00 | |
| DO3MHA-11 | 2026-08-31 00:08:33 | 45.67278 | 9.58919 | 352° | 11km/h | 20415m | 5.4m/s | -56.0°C | 4.8% | 0hPa | 2.7V | 00:00:00 | 01:34:17 | 00:00:00 | |
| IW2NTF | 2026-08-31 00:08:26 | 45.67247 | 9.58912 | 342° | 9km/h | 20357m | 4.7m/s | -55.8°C | 4.7% | 0hPa | 2.7V | 08:30:00 | 01:34:05 | 00:00:00 | |
| DO3MHA-11 | 2026-08-31 00:08:22 | 45.67249 | 9.58911 | 346° | 11km/h | 20362m | 4.8m/s | -55.8°C | 4.7% | 0hPa | 2.7V | 00:00:00 | 01:34:06 | 00:00:00 | |
| OE5DRO-10 | 2026-08-31 00:08:18 | 45.67240 | 9.58911 | 23° | 13km/h | 20343m | 4.2m/s | -55.7°C | 4.7% | 0hPa | 2.7V | 00:00:00 | 00:00:00 | 00:00:00 | |
| IW2NTF | 2026-08-31 00:08:16 | 45.67216 | 9.58901 | 354° | 18km/h | 20307m | 5.5m/s | -55.8°C | 4.6% | 0hPa | 2.7V | 08:30:00 | 01:33:55 | 00:00:00 | |
| NBG1-10 | 2026-08-31 00:08:16 | 45.67235 | 9.58908 | 31° | 13km/h | 20333m | 5.1m/s | -55.7°C | 4.6% | 0hPa | 2.5V | 00:00:00 | 01:34:00 | 00:00:00 | |
| DO3MHA-11 | 2026-08-31 00:08:12 | 45.67221 | 9.58901 | 6° | 15km/h | 20312m | 4.6m/s | -55.7°C | 4.6% | 0hPa | 2.5V | 00:00:00 | 01:33:56 | 00:00:00 | |
| IW2NTF | 2026-08-31 00:08:04 | 45.67186 | 9.58904 | 39° | 7km/h | 20260m | 3.9m/s | -56.3°C | 4.8% | 0hPa | 2.5V | 08:30:00 | 01:33:45 | 00:00:00 | |
| DO3MHA-11 | 2026-08-31 00:08:02 | 45.67188 | 9.58906 | 48° | 11km/h | 20265m | 4.6m/s | -56.2°C | 4.7% | 0hPa | 2.7V | 00:00:00 | 01:33:46 | 00:00:00 | |
| OE5DRO-10 | 2026-08-31 00:07:59 | 45.67182 | 9.58901 | 18° | 11km/h | 20250m | 5.0m/s | -56.4°C | 4.8% | 0hPa | 2.7V | 00:00:00 | 00:00:00 | 08:30:00 | |
| IW2NTF | 2026-08-31 00:07:56 | 45.67156 | 9.58893 | 27° | 13km/h | 20211m | 5.8m/s | -56.5°C | 4.8% | 0hPa | 2.5V | 08:30:00 | 01:33:35 | 00:00:00 | |
| DO3MHA-11 | 2026-08-31 00:07:52 | 45.67159 | 9.58895 | 27° | 11km/h | 20216m | 4.4m/s | -56.4°C | 4.8% | 0hPa | 2.7V | 00:00:00 | 01:33:36 | 00:00:00 | |
| IW2NTF | 2026-08-31 00:07:46 | 45.67134 | 9.58875 | 37° | 7km/h | 20162m | 4.9m/s | -56.5°C | 4.9% | 0hPa | 2.7V | 08:30:00 | 01:33:25 | 00:00:00 | |
| NBG1-10 | 2026-08-31 00:07:43 | 45.67136 | 9.58877 | 32° | 11km/h | 20172m | 4.4m/s | -56.5°C | 4.9% | 0hPa | 2.7V | 00:00:00 | 01:33:27 | 00:00:00 | |
| DB0UT-7 | 2026-08-31 00:07:42 | 45.67136 | 9.58876 | 38° | 9km/h | 20167m | 5.2m/s | -56.5°C | 5.0% | 0hPa | 2.7V | 00:00:00 | 00:00:00 | 00:00:00 | |
| OE5DRO-10 | 2026-08-31 00:07:40 | 45.67133 | 9.58874 | 37° | 7km/h | 20158m | 4.0m/s | -56.4°C | 4.9% | 0hPa | 2.7V | 00:00:00 | 00:00:00 | 00:00:00 | |
| IW2NTF | 2026-08-31 00:07:33 | 45.67129 | 9.58862 | 80° | 5km/h | 20113m | 4m/s | -56.5°C | 4.9% | 0hPa | 2.7V | 08:30:00 | 01:33:15 | 00:00:00 | |
| DO3MHA-11 | 2026-08-31 00:07:32 | 45.67129 | 9.58864 | 81° | 7km/h | 20117m | 4.8m/s | -56.5°C | 4.9% | 0hPa | 2.5V | 00:00:00 | 01:33:16 | 00:00:00 | |
| IW2NTF | 2026-08-31 00:07:24 | 45.67131 | 9.58829 | 95° | 16km/h | 20063m | 4.8m/s | -56.2°C | 4.7% | 0hPa | 2.5V | 08:30:00 | 01:33:05 | 00:00:00 | |
| DO3MHA-11 | 2026-08-31 00:07:22 | 45.67130 | 9.58835 | 97° | 18km/h | 20069m | 4.8m/s | -56.2°C | 4.7% | 0hPa | 2.5V | 00:00:00 | 01:33:06 | 00:00:00 | |
| OE5DRO-10 | 2026-08-31 00:07:21 | 45.67130 | 9.58829 | 96° | 18km/h | 20064m | 4.7m/s | -56.2°C | 4.7% | 0hPa | 2.5V | 00:00:00 | 00:00:00 | 00:00:00 | |
| IW2NTF | 2026-08-31 00:07:13 | 45.67131 | 9.58767 | 91° | 15km/h | 20014m | 5.3m/s | -56.3°C | 4.7% | 0hPa | 2.5V | 08:30:00 | 01:32:55 | 00:00:00 | |
| DO3MHA-11 | 2026-08-31 00:07:12 | 45.67131 | 9.58772 | 97° | 18km/h | 20019m | 3.9m/s | -56.2°C | 4.6% | 0hPa | 2.7V | 00:00:00 | 01:32:56 | 08:30:00 | |
| NBG1-10 | 2026-08-31 00:07:10 | 45.67131 | 9.58762 | 85° | 24km/h | 20010m | 4.9m/s | -56.3°C | 4.7% | 0hPa | 2.5V | 00:00:00 | 01:32:54 | 00:00:00 | |
| IW2NTF | 2026-08-31 00:07:06 | 45.67130 | 9.58695 | 87° | 24km/h | 19966m | 5.3m/s | -56.9°C | 4.9% | 0hPa | 2.5V | 08:30:00 | 01:32:45 | 00:00:00 | |
| DO3MHA-11 | 2026-08-31 00:07:02 | 45.67130 | 9.58704 | 87° | 24km/h | 19971m | 4.6m/s | -56.8°C | 4.9% | 0hPa | 2.7V | 00:00:00 | 01:32:46 | 00:00:00 | |
| IW2NTF | 2026-08-31 00:06:55 | 45.67120 | 9.58611 | 69° | 29km/h | 19917m | 4.2m/s | -57.2°C | 5% | 0hPa | 2.7V | 08:30:00 | 01:32:35 | 00:00:00 | |
| DO3MHA-11 | 2026-08-31 00:06:52 | 45.67122 | 9.58621 | 73° | 27km/h | 19922m | 4.5m/s | -57.2°C | 4.9% | 0hPa | 2.5V | 00:00:00 | 01:32:36 | 00:00:00 | |
| IW2NTF | 2026-08-31 00:06:45 | 45.67085 | 9.58529 | 57° | 20km/h | 19869m | 4.7m/s | -57.4°C | 5% | 0hPa | 2.5V | 08:30:00 | 01:32:25 | 00:00:00 | |
| OE5DRO-10 | 2026-08-31 00:06:43 | 45.67091 | 9.58542 | 54° | 24km/h | 19879m | 5.9m/s | -57.3°C | 5.0% | 0hPa | 2.5V | 00:00:00 | 00:00:00 | 00:00:00 | |
| DO3MHA-11 | 2026-08-31 00:06:42 | 45.67088 | 9.58535 | 56° | 22km/h | 19874m | 4.9m/s | -57.3°C | 5.0% | 0hPa | 2.5V | 00:00:00 | 01:32:26 | 00:00:00 | |
| NBG1-10 | 2026-08-31 00:06:37 | 45.67072 | 9.58505 | 43° | 24km/h | 19849m | 5.5m/s | -57.3°C | 5.1% | 0hPa | 2.5V | 00:00:00 | 01:32:21 | 00:00:00 | |
| IW2NTF | 2026-08-31 00:06:35 | 45.67040 | 9.58474 | 30° | 29km/h | 19820m | 5.4m/s | -57.3°C | 5.1% | 0hPa | 2.5V | 08:30:00 | 01:32:15 | 00:00:00 | |
| DO3MHA-11 | 2026-08-31 00:06:32 | 45.67046 | 9.58480 | 33° | 24km/h | 19825m | 3.8m/s | -57.3°C | 5.0% | 0hPa | 2.5V | 00:00:00 | 01:32:16 | 00:00:00 | |
| IW2NTF | 2026-08-31 00:06:25 | 45.66983 | 9.58446 | 15° | 29km/h | 19769m | 5.8m/s | -57.3°C | 5.1% | 0hPa | 2.5V | 08:30:00 | 01:32:05 | 00:00:00 | |
| OE5DRO-10 | 2026-08-31 00:06:24 | 45.67003 | 9.58453 | 14° | 24km/h | 19785m | 6.1m/s | -57.4°C | 5.2% | 0hPa | 2.7V | 00:00:00 | 00:00:00 | 00:00:00 | |
| DO3MHA-11 | 2026-08-31 00:06:22 | 45.66990 | 9.58449 | 12° | 26km/h | 19775m | 4.3m/s | -57.3°C | 5.1% | 0hPa | 2.7V | 00:00:00 | 01:32:06 | 00:00:00 | |
| IW2NTF | 2026-08-31 00:06:14 | 45.66924 | 9.58432 | 358° | 22km/h | 19720m | 5.3m/s | -57.1°C | 5.1% | 0hPa | 2.7V | 08:30:00 | 01:31:55 | 00:00:00 | |
| DB0UT-7 | 2026-08-31 00:06:12 | 45.66930 | 9.58432 | 4° | 18km/h | 19726m | 4.9m/s | -57.1°C | 5.1% | 0hPa | 2.7V | 00:00:00 | 01:31:56 | 00:00:00 | |
| IW2NTF | 2026-08-31 00:06:05 | 45.66869 | 9.58434 | 351° | 22km/h | 19673m | 5.2m/s | -56.8°C | 5% | 0hPa | 2.7V | 08:30:00 | 01:31:45 | 00:00:00 | |
| OE5DRO-10 | 2026-08-31 00:06:05 | 45.66890 | 9.58428 | 1° | 18km/h | 19693m | 5.1m/s | 0°C | 0% | 0hPa | 2.5V | 00:00:00 | 00:00:00 | 00:00:00 | |
| NBG1-10 | 2026-08-31 00:06:04 | 45.66885 | 9.58429 | 350° | 18km/h | 19688m | 4.9m/s | -56.9°C | 5.1% | 0hPa | 2.5V | 00:00:00 | 01:31:48 | 00:00:00 | |
| DO3MHA-11 | 2026-08-31 00:06:02 | 45.66875 | 9.58433 | 346° | 20km/h | 19678m | 4.8m/s | -56.8°C | 5.0% | 0hPa | 2.5V | 00:00:00 | 01:31:46 | 00:00:00 | |
| IW2NTF | 2026-08-31 00:05:55 | 45.66820 | 9.58443 | 353° | 20km/h | 19623m | 5.3m/s | -56.8°C | 5% | 0hPa | 2.5V | 08:30:00 | 01:31:35 | 00:00:00 | |
| DO3MHA-11 | 2026-08-31 00:05:52 | 45.66825 | 9.58442 | 360° | 16km/h | 19628m | 4.4m/s | -56.7°C | 5.0% | 0hPa | 2.5V | 00:00:00 | 01:31:36 | 00:00:00 | |
| OE5DRO-10 | 2026-08-31 00:05:46 | 45.66802 | 9.58447 | 354° | 16km/h | 19600m | 4.2m/s | 0°C | 0% | 0hPa | 2.5V | 00:00:00 | 00:00:00 | 00:00:00 | |
| IW2NTF | 2026-08-31 00:05:45 | 45.66784 | 9.58461 | 330° | 20km/h | 19574m | 4.3m/s | -56.4°C | 4.8% | 0hPa | 2.5V | 08:30:00 | 01:31:25 | 00:00:00 | |
| DB0UT-7 | 2026-08-31 00:05:42 | 45.66788 | 9.58457 | 328° | 11km/h | 19579m | 5.5m/s | -56.4°C | 4.9% | 0hPa | 2.5V | 00:00:00 | 00:00:00 | 00:00:00 | |
| IW2NTF | 2026-08-31 00:05:35 | 45.66753 | 9.58492 | 335° | 15km/h | 19525m | 5.4m/s | -56.2°C | 4.9% | 0hPa | 2.5V | 08:30:00 | 01:31:15 | 00:00:00 | |
| DO3MHA-11 | 2026-08-31 00:05:32 | 45.66756 | 9.58491 | 346° | 13km/h | 19531m | 5.2m/s | -56.2°C | 4.9% | 0hPa | 2.5V | 00:00:00 | 01:31:16 | 00:00:00 | |
| NBG1-10 | 2026-08-31 00:05:31 | 45.66753 | 9.58492 | 336° | 15km/h | 19525m | 5.4m/s | -56.1°C | 4.9% | 0hPa | 2.5V | 00:00:00 | 01:31:15 | 08:30:00 | |
| OE5DRO-10 | 2026-08-31 00:05:27 | 45.66741 | 9.58504 | 327° | 5km/h | 19506m | 4.9m/s | 0°C | 0% | 0hPa | 2.7V | 00:00:00 | 00:00:00 | 00:00:00 | |
| IW2NTF | 2026-08-31 00:05:25 | 45.66730 | 9.58518 | 319° | 5km/h | 19476m | 5.8m/s | -55.8°C | 4.8% | 0hPa | 2.7V | 08:30:00 | 01:31:05 | 00:00:00 | |
| DO3MHA-11 | 2026-08-31 00:05:22 | 45.66731 | 9.58516 | 315° | 5km/h | 19481m | 5.3m/s | -55.8°C | 4.8% | 0hPa | 2.7V | 00:00:00 | 01:31:06 | 00:00:00 | |
| IW2NTF | 2026-08-31 00:05:15 | 45.66726 | 9.58517 | 240° | 7km/h | 19375m | 5.9m/s | -55.2°C | 4.5% | 0hPa | 2.7V | 08:30:00 | 01:30:45 | 00:00:00 | |
| DO3MHA-11 | 2026-08-31 00:05:12 | 45.66727 | 9.58530 | 271° | 5km/h | 19430m | 5.7m/s | -55.5°C | 4.7% | 0hPa | 2.5V | 00:00:00 | 01:30:56 | 00:00:00 | |
| IW2NTF | 2026-08-31 00:05:10 | 45.66728 | 9.58522 | 230° | 9km/h | 19365m | 4.2m/s | -55.2°C | 4.6% | 0hPa | 2.5V | 08:30:00 | 01:30:43 | 00:00:00 | |
| OE5DRO-10 | 2026-08-31 00:05:08 | 45.66727 | 9.58530 | 85° | 7km/h | 19409m | 4.5m/s | 0°C | 0% | 0hPa | 2.5V | 00:00:00 | 00:00:00 | 00:00:00 | |
| DO3MHA-11 | 2026-08-31 00:05:02 | 45.66725 | 9.58516 | 213° | 11km/h | 19380m | 4.1m/s | -55.2°C | 4.6% | 0hPa | 2.5V | 00:00:00 | 01:30:46 | 00:00:00 | |
| DO3MHA-11 | 2026-08-31 00:04:52 | 45.66737 | 9.58495 | 85° | 13km/h | 19330m | 4.6m/s | -55.1°C | 4.7% | 0hPa | 2.5V | 00:00:00 | 01:30:36 | 00:00:00 | |
| IW2NTF | 2026-08-31 00:04:51 | 45.66739 | 9.58482 | 118° | 11km/h | 19315m | 5m/s | -55.1°C | 4.6% | 0hPa | 2.5V | 08:30:00 | 01:30:33 | 00:00:00 | |
| IW2NTF | 2026-08-31 00:04:42 | 45.66757 | 9.58438 | 125° | 13km/h | 19265m | 5.9m/s | -55°C | 4.5% | 0hPa | 2.5V | 08:30:00 | 01:30:23 | 00:00:00 | |
| DO3MHA-11 | 2026-08-31 00:04:32 | 45.66768 | 9.58398 | 100° | 24km/h | 19229m | 5.7m/s | -54.7°C | 4.4% | 0hPa | 2.5V | 00:00:00 | 01:30:16 | 00:00:00 | |
| IW2NTF | 2026-08-31 00:04:31 | 45.66771 | 9.58368 | 102° | 29km/h | 19213m | 5.4m/s | -54.8°C | 4.4% | 0hPa | 2.5V | 08:30:00 | 01:30:13 | 00:00:00 | |
| DO3MHA-11 | 2026-08-31 00:04:22 | 45.66775 | 9.58317 | 101° | 27km/h | 19180m | 5.2m/s | -55.2°C | 4.5% | 0hPa | 2.7V | 00:00:00 | 01:30:06 | 00:00:00 | |
| IW2NTF | 2026-08-31 00:04:21 | 45.66781 | 9.58293 | 111° | 27km/h | 19165m | 4.5m/s | -55.4°C | 4.5% | 0hPa | 2.7V | 08:30:00 | 01:30:03 | 00:00:00 | |
| IW2NTF | 2026-08-31 00:04:12 | 45.66782 | 9.58182 | 75° | 37km/h | 19116m | 5m/s | -55.7°C | 4.7% | 0hPa | 2.7V | 08:30:00 | 01:29:53 | 00:00:00 | |
| NBG1-10 | 2026-08-31 00:04:06 | 45.66777 | 9.58142 | 83° | 35km/h | 19102m | 3.9m/s | -55.8°C | 4.7% | 0hPa | 2.5V | 00:00:00 | 01:29:50 | 00:00:00 | |
| DO3MHA-11 | 2026-08-31 00:04:03 | 45.66771 | 9.58092 | 77° | 31km/h | 19083m | 4.7m/s | -55.8°C | 4.7% | 0hPa | 2.5V | 00:00:00 | 01:29:46 | 00:00:00 | |
| IW2NTF | 2026-08-31 00:04:03 | 45.66765 | 9.58069 | 65° | 22km/h | 19069m | 4.5m/s | -55.8°C | 4.7% | 0hPa | 2.7V | 08:30:00 | 01:29:43 | 00:00:00 | |
| IW2NTF | 2026-08-31 00:03:52 | 45.66724 | 9.57950 | 57° | 38km/h | 19022m | 4.9m/s | -55.8°C | 4.7% | 0hPa | 2.5V | 08:30:00 | 01:29:33 | 00:00:00 | |
| DO3MHA-11 | 2026-08-31 00:03:52 | 45.66739 | 9.57987 | 66° | 37km/h | 19036m | 4.4m/s | -55.8°C | 4.7% | 0hPa | 2.5V | 00:00:00 | 01:29:36 | 00:00:00 | |
| DB0UT-7 | 2026-08-31 00:03:42 | 45.66689 | 9.57881 | 60° | 35km/h | 18988m | 1.4m/s | -55.7°C | 4.7% | 0hPa | 2.5V | 00:00:00 | 00:00:00 | 00:00:00 | |
| IW2NTF | 2026-08-31 00:03:41 | 45.66674 | 9.57850 | 53° | 38km/h | 18976m | 4.9m/s | -55.7°C | 4.7% | 0hPa | 2.5V | 08:30:00 | 01:29:23 | 00:00:00 | |
| DO3MHA-11 | 2026-08-31 00:03:33 | 45.66634 | 9.57777 | 46° | 33km/h | 18943m | 5.1m/s | -55.7°C | 4.7% | 0hPa | 2.5V | 00:00:00 | 01:29:16 | 00:00:00 | |
| IW2NTF | 2026-08-31 00:03:32 | 45.66613 | 9.57745 | 45° | 31km/h | 18924m | 5.2m/s | -55.7°C | 4.7% | 0hPa | 2.5V | 08:30:00 | 01:29:12 | 00:00:00 | |
| DO3MHA-11 | 2026-08-31 00:03:22 | 45.66580 | 9.57682 | 54° | 33km/h | 18897m | 5.3m/s | -55.7°C | 4.6% | 0hPa | 2.7V | 00:00:00 | 01:29:06 | 00:00:00 | |
| IW2NTF | 2026-08-31 00:03:21 | 45.66555 | 9.57644 | 43° | 29km/h | 18878m | 4.3m/s | -55.7°C | 4.6% | 0hPa | 2.7V | 08:30:00 | 01:29:02 | 00:00:00 | |
| DO3MHA-11 | 2026-08-31 00:03:14 | 45.66524 | 9.57601 | 51° | 31km/h | 18851m | 4.5m/s | -55.7°C | 4.7% | 0hPa | 2.5V | 00:00:00 | 01:28:56 | 00:00:00 | |
| IW2NTF | 2026-08-31 00:03:12 | 45.66503 | 9.57569 | 39° | 35km/h | 18832m | 3.2m/s | -55.7°C | 4.6% | 0hPa | 2.7V | 08:30:00 | 01:28:52 | 00:00:00 | |
| IW2NTF | 2026-08-31 00:03:02 | 45.66448 | 9.57490 | 46° | 31km/h | 18785m | 4.5m/s | -56.1°C | 4.8% | 0hPa | 2.7V | 08:30:00 | 01:28:42 | 00:00:00 | |
| IW2NTF | 2026-08-31 00:02:53 | 45.66383 | 9.57406 | 46° | 31km/h | 18737m | 5.4m/s | -56.3°C | 4.9% | 0hPa | 2.5V | 08:30:00 | 01:28:32 | 00:00:00 | |
| DO3MHA-11 | 2026-08-31 00:02:48 | 45.66232 | 9.57151 | 70° | 18km/h | 18572m | 4.8m/s | -55.9°C | 4.8% | 0hPa | 2.7V | 00:00:00 | 01:27:56 | 00:00:00 | |
| IW2NTF | 2026-08-31 00:02:42 | 45.66335 | 9.57325 | 46° | 29km/h | 18689m | 3.7m/s | -56°C | 4.7% | 0hPa | 2.5V | 08:30:00 | 01:28:22 | 00:00:00 | |
| DO3MHA-11 | 2026-08-31 00:02:33 | 45.66211 | 9.57090 | 53° | 20km/h | 18526m | 3.8m/s | -55.7°C | 4.7% | 0hPa | 2.5V | 00:00:00 | 01:27:46 | 00:00:00 | |
| IW2NTF | 2026-08-31 00:02:32 | 45.66294 | 9.57255 | 60° | 27km/h | 18644m | 3.8m/s | -56.1°C | 4.8% | 0hPa | 2.5V | 08:30:00 | 01:28:12 | 00:00:00 | |
| NBG1-10 | 2026-08-31 00:02:21 | 45.66192 | 9.57039 | 57° | 22km/h | 18489m | 4.8m/s | -55.8°C | 4.6% | 0hPa | 2.5V | 00:00:00 | 01:27:38 | 00:00:00 | |
| IW2NTF | 2026-08-31 00:02:20 | 45.66249 | 9.57190 | 48° | 20km/h | 18599m | 4.9m/s | -56.2°C | 4.8% | 0hPa | 2.7V | 08:30:00 | 01:28:02 | 00:00:00 | |
| DO3MHA-11 | 2026-08-31 00:02:19 | 45.66188 | 9.57030 | 49° | 20km/h | 18479m | 5.4m/s | -55.8°C | 4.6% | 0hPa | 2.7V | 00:00:00 | 01:27:36 | 00:00:00 | |
| IW2NTF | 2026-08-31 00:02:11 | 45.66224 | 9.57120 | 65° | 20km/h | 18553m | 3.8m/s | -55.8°C | 4.7% | 0hPa | 2.7V | 08:30:00 | 01:27:52 | 00:00:00 | |
| DO3MHA-11 | 2026-08-31 00:02:05 | 45.66181 | 9.56958 | 83° | 24km/h | 18437m | 4.7m/s | -56.1°C | 4.7% | 0hPa | 2.5V | 00:00:00 | 01:27:26 | 00:00:00 | |
| DB0UT-7 | 2026-08-31 00:02:04 | 45.66181 | 9.56958 | 83° | 27km/h | 18437m | 4.7m/s | -56.1°C | 4.7% | 0hPa | 2.7V | 00:00:00 | 00:00:00 | 00:00:00 | |
| IW2NTF | 2026-08-31 00:02:00 | 45.66203 | 9.57066 | 67° | 22km/h | 18508m | 4.8m/s | -55.8°C | 4.7% | 0hPa | 2.7V | 08:30:00 | 01:27:42 | 00:00:00 | |
| IW2NTF | 2026-08-31 00:01:51 | 45.66182 | 9.57012 | 94° | 16km/h | 18461m | 3.9m/s | -56.2°C | 4.8% | 0hPa | 2.5V | 08:30:00 | 01:27:32 | 00:00:00 | |
| DO3MHA-11 | 2026-08-31 00:01:50 | 45.66180 | 9.56873 | 96° | 26km/h | 18394m | 4.0m/s | -56.3°C | 4.6% | 0hPa | 2.5V | 00:00:00 | 01:27:16 | 00:00:00 | |
| IW2NTF | 2026-08-31 00:01:40 | 45.66179 | 9.56927 | 83° | 20km/h | 18420m | 4.8m/s | -56.2°C | 4.6% | 0hPa | 2.5V | 08:30:00 | 01:27:22 | 00:00:00 | |
| DO3MHA-11 | 2026-08-31 00:01:34 | 45.66172 | 9.56783 | 81° | 33km/h | 18350m | 4.6m/s | -57.4°C | 5.2% | 0hPa | 2.5V | 00:00:00 | 01:27:06 | 00:00:00 | |
| NBG1-10 | 2026-08-31 00:01:33 | 45.66171 | 9.56775 | 88° | 31km/h | 18346m | 3.7m/s | -57.4°C | 5.2% | 0hPa | 2.5V | 00:00:00 | 01:27:05 | 00:00:00 | |
| IW2NTF | 2026-08-31 00:01:30 | 45.66179 | 9.56833 | 85° | 26km/h | 18375m | 5.1m/s | -56.8°C | 4.9% | 0hPa | 2.5V | 08:30:00 | 01:27:12 | 00:00:00 | |
| DB0UT-7 | 2026-08-31 00:01:21 | 45.66167 | 9.56663 | 78° | 29km/h | 18307m | 4.2m/s | -57.2°C | 5.1% | 0hPa | 2.7V | 00:00:00 | 01:26:56 | 00:00:00 | |
| IW2NTF | 2026-08-31 00:01:20 | 45.66171 | 9.56746 | 89° | 35km/h | 18333m | 4.7m/s | -57.4°C | 5.1% | 0hPa | 2.5V | 08:30:00 | 01:27:02 | 00:00:00 | |
| IW2NTF | 2026-08-31 00:01:10 | 45.66159 | 9.56618 | 74° | 24km/h | 18288m | 4.5m/s | -57.1°C | 5% | 0hPa | 2.6V | 08:30:00 | 01:26:52 | 00:00:00 | |
| DO3MHA-11 | 2026-08-31 00:01:10 | 45.66147 | 9.56565 | 76° | 29km/h | 18259m | 3.8m/s | -56.9°C | 5.1% | 0hPa | 2.5V | 00:00:00 | 01:26:46 | 00:00:00 | |
| IW2NTF | 2026-08-31 00:01:00 | 45.66137 | 9.56521 | 69° | 31km/h | 18240m | 5.5m/s | -56.9°C | 5.1% | 0hPa | 2.5V | 08:30:00 | 01:26:42 | 00:00:00 | |
| DO3MHA-11 | 2026-08-31 00:00:55 | 45.66116 | 9.56471 | 50° | 27km/h | 18213m | 5.2m/s | -56.8°C | 5.1% | 0hPa | 2.7V | 00:00:00 | 01:26:36 | 00:00:00 | |
| IW2NTF | 2026-08-31 00:00:49 | 45.66095 | 9.56416 | 73° | 31km/h | 18185m | 4.5m/s | -56.7°C | 5% | 0hPa | 2.7V | 08:30:00 | 01:26:30 | 00:00:00 | |
| NBG1-10 | 2026-08-31 00:00:49 | 45.66101 | 9.56438 | 68° | 26km/h | 18194m | 5.0m/s | -56.7°C | 5.0% | 0hPa | 2.7V | 00:00:00 | 01:26:32 | 00:00:00 | |
| DB0UT-7 | 2026-08-31 00:00:44 | 45.66086 | 9.56381 | 61° | 22km/h | 18167m | 5.1m/s | -56.6°C | 5.0% | 0hPa | 2.7V | 00:00:00 | 00:00:00 | 00:00:00 | |
| IW2NTF | 2026-08-31 00:00:39 | 45.66068 | 9.56344 | 59° | 22km/h | 18139m | 5.4m/s | -56.5°C | 5% | 0hPa | 2.7V | 08:30:00 | 01:26:20 | 00:00:00 | |
| DO3MHA-11 | 2026-08-31 00:00:34 | 45.66056 | 9.56311 | 68° | 24km/h | 18121m | 4.2m/s | -56.4°C | 4.9% | 0hPa | 2.5V | 00:00:00 | 01:26:16 | 00:00:00 | |
| IW2NTF | 2026-08-31 00:00:29 | 45.66040 | 9.56263 | 59° | 18km/h | 18092m | 4.1m/s | -56.3°C | 4.9% | 0hPa | 2.5V | 08:30:00 | 01:26:10 | 00:00:00 | |
| DO3MHA-11 | 2026-08-31 00:00:27 | 45.66030 | 9.56240 | 67° | 22km/h | 18074m | 4.9m/s | -56.1°C | 4.8% | 0hPa | 2.5V | 00:00:00 | 01:26:06 | 00:00:00 | |
| IW2NTF | 2026-08-31 00:00:20 | 45.66018 | 9.56195 | 66° | 24km/h | 18048m | 5m/s | -56°C | 4.7% | 0hPa | 2.5V | 08:30:00 | 01:26:00 | 00:00:00 | |
| DB0UT-7 | 2026-08-31 00:00:13 | 45.66007 | 9.56166 | 60° | 24km/h | 18030m | 4.1m/s | -55.9°C | 4.7% | 0hPa | 2.5V | 00:00:00 | 01:25:56 | 00:00:00 | |
| IW2NTF | 2026-08-31 00:00:09 | 45.65993 | 9.56128 | 58° | 24km/h | 18003m | 4m/s | -56.1°C | 4.8% | 0hPa | 2.5V | 08:30:00 | 01:25:50 | 00:00:00 | |
| IW2NTF | 2026-08-30 23:59:59 | 45.65965 | 9.56050 | 65° | 24km/h | 17959m | 3.6m/s | -56.3°C | 4.9% | 0hPa | 2.7V | 08:30:00 | 01:25:40 | 00:00:00 | |
| NBG1-10 | 2026-08-30 23:59:55 | 45.65962 | 9.56043 | 62° | 31km/h | 17955m | 3.8m/s | -56.2°C | 4.9% | 0hPa | 2.7V | 00:00:00 | 01:25:39 | 08:30:00 | |
| DO3MHA-11 | 2026-08-30 23:59:52 | 45.65953 | 9.56020 | 61° | 26km/h | 17942m | 4.2m/s | -56.2°C | 4.9% | 0hPa | 2.7V | 00:00:00 | 01:25:36 | 00:00:00 | |
| IW2NTF | 2026-08-30 23:59:49 | 45.65932 | 9.55974 | 59° | 27km/h | 17916m | 4.1m/s | -56.4°C | 5% | 0hPa | 2.7V | 08:30:00 | 01:25:30 | 00:00:00 | |
| DB0UT-7 | 2026-08-30 23:59:42 | 45.65925 | 9.55937 | 84° | 33km/h | 17899m | 3.9m/s | -56.3°C | 4.9% | 0hPa | 2.5V | 00:00:00 | 00:00:00 | 00:00:00 | |
| IW2NTF | 2026-08-30 23:59:39 | 45.65915 | 9.55872 | 79° | 35km/h | 17872m | 4m/s | -56.4°C | 4.9% | 0hPa | 2.7V | 08:30:00 | 01:25:20 | 00:00:00 | |
| DO3MHA-11 | 2026-08-30 23:59:32 | 45.65907 | 9.55830 | 73° | 35km/h | 17854m | 4.4m/s | -56.3°C | 4.9% | 0hPa | 2.6V | 00:00:00 | 01:25:16 | 00:00:00 | |
| IW2NTF | 2026-08-30 23:59:30 | 45.65895 | 9.55763 | 75° | 42km/h | 17826m | 5.7m/s | -56.3°C | 4.9% | 0hPa | 2.6V | 08:30:00 | 01:25:10 | 00:00:00 | |
| DO3MHA-11 | 2026-08-30 23:59:22 | 45.65884 | 9.55705 | 68° | 35km/h | 17808m | 4.4m/s | -56.2°C | 4.9% | 0hPa | 2.5V | 00:00:00 | 01:25:06 | 00:00:00 | |
| IW2NTF | 2026-08-30 23:59:19 | 45.65867 | 9.55640 | 71° | 33km/h | 17782m | 4.7m/s | -56.1°C | 4.8% | 0hPa | 2.5V | 08:30:00 | 01:25:00 | 00:00:00 | |
| DB0UT-7 | 2026-08-30 23:59:12 | 45.65854 | 9.55590 | 72° | 42km/h | 17764m | 4.3m/s | -56.0°C | 4.8% | 0hPa | 2.5V | 00:00:00 | 01:24:56 | 00:00:00 | |
| DO3MHA-11 | 2026-08-30 23:59:11 | 45.65850 | 9.55577 | 70° | 38km/h | 17760m | 4.1m/s | -56.1°C | 4.8% | 0hPa | 2.5V | 00:00:00 | 01:24:55 | 00:00:00 | |
| IW2NTF | 2026-08-30 23:59:09 | 45.65831 | 9.55510 | 66° | 38km/h | 17738m | 3.4m/s | -56.2°C | 4.9% | 0hPa | 2.5V | 08:30:00 | 01:24:50 | 00:00:00 | |
| DO3MHA-11 | 2026-08-30 23:59:01 | 45.65809 | 9.55453 | 65° | 44km/h | 17715m | 5.1m/s | -56.1°C | 4.8% | 0hPa | 2.6V | 00:00:00 | 01:24:45 | 00:00:00 | |
| NBG1-10 | 2026-08-30 23:59:00 | 45.65805 | 9.55441 | 67° | 49km/h | 17711m | 3.8m/s | -56.1°C | 4.8% | 0hPa | 2.6V | 00:00:00 | 01:24:44 | 00:00:00 | |
| IW2NTF | 2026-08-30 23:58:59 | 45.65786 | 9.55389 | 58° | 46km/h | 17693m | 3.7m/s | -56.4°C | 4.8% | 0hPa | 2.6V | 08:30:00 | 01:24:40 | 00:00:00 | |
| DO3MHA-11 | 2026-08-30 23:58:51 | 45.65756 | 9.55315 | 58° | 44km/h | 17670m | 3.9m/s | -56.6°C | 4.9% | 0hPa | 2.7V | 00:00:00 | 01:24:35 | 00:00:00 | |
| IW2NTF | 2026-08-30 23:58:49 | 45.65729 | 9.55247 | 55° | 40km/h | 17649m | 5.1m/s | -56.9°C | 4.9% | 0hPa | 2.7V | 08:30:00 | 01:24:30 | 00:00:00 | |
| DB0UT-7 | 2026-08-30 23:58:42 | 45.65703 | 9.55197 | 58° | 53km/h | 17631m | 4.4m/s | -57.1°C | 5.1% | 0hPa | 2.6V | 00:00:00 | 00:00:00 | 00:00:00 | |
| DO3MHA-11 | 2026-08-30 23:58:41 | 45.65696 | 9.55182 | 59° | 57km/h | 17627m | 3.9m/s | -57.1°C | 5.1% | 0hPa | 2.6V | 00:00:00 | 01:24:25 | 00:00:00 | |
| IW2NTF | 2026-08-30 23:58:39 | 45.65660 | 9.55098 | 60° | 57km/h | 17603m | 4.6m/s | -57.5°C | 5% | 0hPa | 2.6V | 08:30:00 | 01:24:20 | 00:00:00 | |
| DO3MHA-11 | 2026-08-30 23:58:31 | 45.65619 | 9.55009 | 55° | 53km/h | 17581m | 5.1m/s | -57.5°C | 5.0% | 0hPa | 2.6V | 00:00:00 | 01:24:15 | 00:00:00 | |
| IW2NTF | 2026-08-30 23:58:29 | 45.65577 | 9.54930 | 50° | 51km/h | 17558m | 4m/s | -57.7°C | 5% | 0hPa | 2.6V | 08:30:00 | 01:24:10 | 00:00:00 | |
| NBG1-10 | 2026-08-30 23:58:27 | 45.65585 | 9.54945 | 50° | 44km/h | 17562m | 3.7m/s | -57.5°C | 5.0% | 0hPa | 2.6V | 00:00:00 | 01:24:11 | 00:00:00 | |
| DO3MHA-11 | 2026-08-30 23:58:21 | 45.65540 | 9.54861 | 52° | 49km/h | 17535m | 3.8m/s | -58.4°C | 5.3% | 0hPa | 2.6V | 00:00:00 | 01:24:05 | 00:00:00 | |
| IW2NTF | 2026-08-30 23:58:19 | 45.65504 | 9.54790 | 54° | 55km/h | 17511m | 4.3m/s | -58.6°C | 5.4% | 0hPa | 2.6V | 08:30:00 | 01:24:00 | 00:00:00 | |
| DB0UT-7 | 2026-08-30 23:58:12 | 45.65473 | 9.54732 | 49° | 40km/h | 17495m | 3.8m/s | 0°C | 0% | 0hPa | 2.5V | 00:00:00 | 01:23:56 | 08:30:00 | |
| DO3MHA-11 | 2026-08-30 23:58:11 | 45.65466 | 9.54720 | 45° | 38km/h | 17490m | 5.4m/s | -59.0°C | 5.6% | 0hPa | 2.6V | 00:00:00 | 01:23:55 | 08:30:00 | |
| IW2NTF | 2026-08-30 23:58:09 | 45.65430 | 9.54671 | 49° | 38km/h | 17466m | 4.2m/s | -59°C | 5.6% | 0hPa | 2.6V | 08:30:00 | 01:23:50 | 00:00:00 | |
| DO3MHA-11 | 2026-08-30 23:58:01 | 45.65401 | 9.54617 | 58° | 42km/h | 17443m | 3.6m/s | -59.1°C | 5.6% | 0hPa | 2.5V | 00:00:00 | 01:23:45 | 00:00:00 | |
| IW2NTF | 2026-08-30 23:57:59 | 45.65367 | 9.54561 | 45° | 42km/h | 17420m | 5.2m/s | -59°C | 5.7% | 0hPa | 2.5V | 08:30:00 | 01:23:40 | 00:00:00 | |
| NBG1-10 | 2026-08-30 23:57:54 | 45.65352 | 9.54538 | 47° | 42km/h | 17412m | 3.3m/s | -58.9°C | 5.7% | 0hPa | 2.6V | 00:00:00 | 01:23:38 | 00:00:00 | |
| DO3MHA-11 | 2026-08-30 23:57:51 | 45.65328 | 9.54506 | 40° | 42km/h | 17398m | 4.2m/s | -58.8°C | 5.6% | 0hPa | 2.7V | 00:00:00 | 01:23:35 | 00:00:00 | |
| IW2NTF | 2026-08-30 23:57:49 | 45.65289 | 9.54459 | 38° | 38km/h | 17375m | 5.6m/s | -58.8°C | 5.6% | 0hPa | 2.7V | 08:30:00 | 01:23:30 | 00:00:00 | |
| DO3MHA-11 | 2026-08-30 23:57:41 | 45.65247 | 9.54411 | 36° | 44km/h | 17352m | 5.3m/s | -58.6°C | 5.6% | 0hPa | 2.7V | 00:00:00 | 01:23:25 | 00:00:00 | |
| IW2NTF | 2026-08-30 23:57:40 | 45.65199 | 9.54363 | 35° | 44km/h | 17329m | 4.7m/s | -58.6°C | 5.6% | 0hPa | 2.7V | 08:30:00 | 01:23:20 | 00:00:00 | |
| DO3MHA-11 | 2026-08-30 23:57:31 | 45.65159 | 9.54314 | 49° | 38km/h | 17307m | 3.8m/s | -58.4°C | 5.5% | 0hPa | 2.7V | 00:00:00 | 01:23:15 | 00:00:00 | |
| IW2NTF | 2026-08-30 23:57:29 | 45.65121 | 9.54272 | 31° | 38km/h | 17284m | 4.9m/s | -58.4°C | 5.6% | 0hPa | 2.7V | 08:30:00 | 01:23:10 | 00:00:00 | |
| NBG1-10 | 2026-08-30 23:57:21 | 45.65080 | 9.54236 | 31° | 35km/h | 17261m | 4.1m/s | -58.2°C | 5.6% | 0hPa | 2.7V | 00:00:00 | 01:23:05 | 00:00:00 | |
| IW2NTF | 2026-08-30 23:57:19 | 45.65040 | 9.54195 | 34° | 37km/h | 17239m | 5m/s | -58.1°C | 5.5% | 0hPa | 2.7V | 08:30:00 | 01:23:00 | 00:00:00 | |
| DB0UT-7 | 2026-08-30 23:57:12 | 45.65010 | 9.54169 | 35° | 33km/h | 17222m | 4.4m/s | -58.0°C | 5.5% | 0hPa | 2.7V | 00:00:00 | 01:22:56 | 00:00:00 | |
| DO3MHA-11 | 2026-08-30 23:57:11 | 45.65002 | 9.54161 | 35° | 37km/h | 17218m | 3.9m/s | -57.9°C | 5.4% | 0hPa | 2.7V | 00:00:00 | 01:22:55 | 00:00:00 | |
| DO3MHA-11 | 2026-08-30 23:57:01 | 45.64927 | 9.54093 | 41° | 33km/h | 17173m | 4.2m/s | -57.6°C | 5.3% | 0hPa | 2.7V | 00:00:00 | 01:22:45 | 00:00:00 | |
| DO3MHA-11 | 2026-08-30 23:56:51 | 45.64862 | 9.54027 | 34° | 27km/h | 17125m | 4.9m/s | -57.9°C | 5.3% | 0hPa | 2.7V | 00:00:00 | 01:22:35 | 00:00:00 | |
| NBG1-10 | 2026-08-30 23:56:48 | 45.64846 | 9.54009 | 44° | 27km/h | 17111m | 4.3m/s | -58.0°C | 5.3% | 0hPa | 2.7V | 00:00:00 | 01:22:32 | 00:00:00 | |
| DB0UT-7 | 2026-08-30 23:56:42 | 45.64819 | 9.53962 | 45° | 26km/h | 17081m | 4.0m/s | -58.0°C | 5.3% | 0hPa | 2.7V | 00:00:00 | 00:00:00 | 00:00:00 | |
| DO3MHA-11 | 2026-08-30 23:56:41 | 45.64814 | 9.53953 | 46° | 27km/h | 17077m | 4.1m/s | -58.0°C | 5.3% | 0hPa | 2.7V | 00:00:00 | 01:22:25 | 08:30:00 | |
| DO3MHA-11 | 2026-08-30 23:56:31 | 45.64787 | 9.53866 | 75° | 24km/h | 17032m | 3.8m/s | -58.5°C | 5.5% | 0hPa | 2.5V | 00:00:00 | 01:22:15 | 00:00:00 | |
| DO3MHA-11 | 2026-08-30 23:56:21 | 45.64773 | 9.53785 | 84° | 24km/h | 16986m | 2.7m/s | -59.0°C | 5.7% | 0hPa | 2.5V | 00:00:00 | 01:22:05 | 00:00:00 | |
| NBG1-10 | 2026-08-30 23:56:15 | 45.64776 | 9.53734 | 101° | 37km/h | 16958m | 5.4m/s | -59.6°C | 6.0% | 0hPa | 2.5V | 00:00:00 | 01:21:59 | 00:00:00 | |
| DB0UT-7 | 2026-08-30 23:56:12 | 45.64779 | 9.53710 | 102° | 37km/h | 16945m | 4.9m/s | -59.6°C | 6.1% | 0hPa | 2.7V | 00:00:00 | 01:21:56 | 00:00:00 | |
| DO3MHA-11 | 2026-08-30 23:56:11 | 45.64780 | 9.53701 | 105° | 33km/h | 16940m | 4.5m/s | -59.6°C | 6.1% | 0hPa | 2.7V | 00:00:00 | 01:21:55 | 00:00:00 | |
| DO3MHA-11 | 2026-08-30 23:56:01 | 45.64803 | 9.53583 | 108° | 38km/h | 16897m | 3.6m/s | -59.5°C | 6.0% | 0hPa | 2.6V | 00:00:00 | 01:21:45 | 00:00:00 | |
| IW2NTF | 2026-08-30 23:55:58 | 45.64827 | 9.53476 | 101° | 38km/h | 16861m | 4.2m/s | -59.3°C | 6% | 0hPa | 2.6V | 08:30:00 | 01:21:37 | 00:00:00 | |
| DO3MHA-11 | 2026-08-30 23:55:51 | 45.64830 | 9.53449 | 100° | 37km/h | 16854m | 4.7m/s | -59.2°C | 6.0% | 0hPa | 2.6V | 00:00:00 | 01:21:35 | 00:00:00 | |
| IW2NTF | 2026-08-30 23:55:48 | 45.64844 | 9.53343 | 105° | 37km/h | 16819m | 3.8m/s | -59.2°C | 6% | 0hPa | 2.6V | 08:30:00 | 01:21:27 | 00:00:00 | |
| DB0UT-7 | 2026-08-30 23:55:42 | 45.64846 | 9.53330 | 104° | 44km/h | 16815m | 5.0m/s | -59.2°C | 6.0% | 0hPa | 2.7V | 00:00:00 | 00:00:00 | 00:00:00 | |
| DO3MHA-11 | 2026-08-30 23:55:41 | 45.64848 | 9.53316 | 102° | 40km/h | 16810m | 4.4m/s | -59.2°C | 6.1% | 0hPa | 2.7V | 00:00:00 | 01:21:25 | 00:00:00 | |
| IW2NTF | 2026-08-30 23:55:38 | 45.64862 | 9.53200 | 96° | 40km/h | 16775m | 5.3m/s | -59.1°C | 5.9% | 0hPa | 2.6V | 08:30:00 | 01:21:17 | 00:00:00 | |
| DO3MHA-11 | 2026-08-30 23:55:31 | 45.64864 | 9.53171 | 97° | 44km/h | 16767m | 3.9m/s | -59.0°C | 5.9% | 0hPa | 2.6V | 00:00:00 | 01:21:15 | 00:00:00 | |
| IW2NTF | 2026-08-30 23:55:28 | 45.64871 | 9.53045 | 92° | 40km/h | 16732m | 4.6m/s | -59°C | 5.9% | 0hPa | 2.6V | 08:30:00 | 01:21:07 | 00:00:00 | |
| DO3MHA-11 | 2026-08-30 23:55:21 | 45.64871 | 9.53014 | 88° | 47km/h | 16724m | 3.7m/s | -59.0°C | 6.0% | 0hPa | 2.6V | 00:00:00 | 01:21:05 | 00:00:00 | |
| IW2NTF | 2026-08-30 23:55:18 | 45.64872 | 9.52873 | 92° | 46km/h | 16689m | 4.1m/s | -59.2°C | 6.1% | 0hPa | 2.6V | 08:30:00 | 01:20:57 | 00:00:00 | |
| DB0UT-7 | 2026-08-30 23:55:12 | 45.64873 | 9.52857 | 94° | 46km/h | 16685m | 3.7m/s | -59.2°C | 6.1% | 0hPa | 2.7V | 00:00:00 | 01:20:56 | 00:00:00 | |
| DO3MHA-11 | 2026-08-30 23:55:11 | 45.64873 | 9.52842 | 92° | 49km/h | 16681m | 5.1m/s | -59.1°C | 6.1% | 0hPa | 2.7V | 00:00:00 | 01:20:55 | 08:30:00 | |
| IW2NTF | 2026-08-30 23:55:07 | 45.64867 | 9.52684 | 84° | 51km/h | 16642m | 5m/s | -59.3°C | 6.1% | 0hPa | 2.7V | 08:30:00 | 01:20:46 | 00:00:00 | |
| DO3MHA-11 | 2026-08-30 23:55:01 | 45.64866 | 9.52666 | 88° | 44km/h | 16637m | 5.2m/s | -59.3°C | 6.1% | 0hPa | 2.7V | 00:00:00 | 01:20:45 | 00:00:00 | |
| IW2NTF | 2026-08-30 23:54:57 | 45.64856 | 9.52526 | 79° | 46km/h | 16596m | 5.3m/s | -59°C | 6.1% | 0hPa | 2.7V | 08:30:00 | 01:20:36 | 00:00:00 | |
| DO3MHA-11 | 2026-08-30 23:54:51 | 45.64853 | 9.52510 | 80° | 42km/h | 16592m | 4.1m/s | -59.0°C | 6.2% | 0hPa | 2.7V | 00:00:00 | 01:20:35 | 00:00:00 | |
| IW2NTF | 2026-08-30 23:54:47 | 45.64845 | 9.52375 | 76° | 37km/h | 16552m | 4.6m/s | -59.5°C | 6.2% | 0hPa | 2.7V | 08:30:00 | 01:20:26 | 00:00:00 | |
| DB0UT-7 | 2026-08-30 23:54:42 | 45.64844 | 9.52375 | 77° | 49km/h | 16553m | 4.5m/s | -59.5°C | 6.2% | 0hPa | 2.7V | 00:00:00 | 00:00:00 | 00:00:00 | |
| DO3MHA-11 | 2026-08-30 23:54:41 | 45.64842 | 9.52362 | 80° | 47km/h | 16548m | 5.2m/s | -59.5°C | 6.2% | 0hPa | 2.7V | 00:00:00 | 01:20:25 | 00:00:00 | |
| IW2NTF | 2026-08-30 23:54:37 | 45.64842 | 9.52209 | 93° | 53km/h | 16505m | 4.7m/s | -59.3°C | 6.3% | 0hPa | 2.7V | 08:30:00 | 01:20:16 | 00:00:00 | |
| NBG1-10 | 2026-08-30 23:54:36 | 45.64840 | 9.52281 | 92° | 51km/h | 16523m | 4.7m/s | -59.4°C | 6.4% | 0hPa | 2.7V | 00:00:00 | 01:20:20 | 00:00:00 | |
| DO3MHA-11 | 2026-08-30 23:54:31 | 45.64842 | 9.52190 | 94° | 47km/h | 16501m | 3.8m/s | -59.2°C | 6.4% | 0hPa | 2.7V | 00:00:00 | 01:20:15 | 00:00:00 | |
| IW2NTF | 2026-08-30 23:54:27 | 45.64854 | 9.52040 | 95° | 51km/h | 16460m | 4.4m/s | -59.2°C | 6.4% | 0hPa | 2.7V | 08:30:00 | 01:20:06 | 00:00:00 | |
| DO3MHA-11 | 2026-08-30 23:54:21 | 45.64856 | 9.52021 | 98° | 53km/h | 16456m | 5.3m/s | -59.2°C | 6.4% | 0hPa | 2.7V | 00:00:00 | 01:20:05 | 00:00:00 | |
| IW2NTF | 2026-08-30 23:54:17 | 45.64870 | 9.51851 | 94° | 47km/h | 16414m | 3.4m/s | -59.1°C | 6.3% | 0hPa | 2.7V | 08:30:00 | 01:19:56 | 00:00:00 | |
| DB0UT-7 | 2026-08-30 23:54:12 | 45.64870 | 9.51851 | 95° | 64km/h | 16414m | 3.4m/s | -59.1°C | 6.3% | 0hPa | 2.7V | 00:00:00 | 01:19:56 | 00:00:00 | |
| DO3MHA-11 | 2026-08-30 23:54:11 | 45.64871 | 9.51834 | 92° | 58km/h | 16410m | 4.8m/s | -59.0°C | 6.2% | 0hPa | 2.7V | 00:00:00 | 01:19:55 | 00:00:00 | |
| IW2NTF | 2026-08-30 23:54:07 | 45.64870 | 9.51642 | 91° | 66km/h | 16366m | 4.9m/s | -58.9°C | 6.3% | 0hPa | 2.7V | 08:30:00 | 01:19:46 | 00:00:00 | |
| NBG1-10 | 2026-08-30 23:54:03 | 45.64869 | 9.51665 | 93° | 64km/h | 16371m | 5.2m/s | -58.9°C | 6.3% | 0hPa | 2.6V | 00:00:00 | 01:19:47 | 08:30:00 | |
| DO3MHA-11 | 2026-08-30 23:54:01 | 45.64871 | 9.51618 | 92° | 62km/h | 16361m | 4.8m/s | -58.9°C | 6.3% | 0hPa | 2.6V | 00:00:00 | 01:19:45 | 00:00:00 | |
| DO3MHA-11 | 2026-08-30 23:53:51 | 45.64871 | 9.51391 | 91° | 69km/h | 16316m | 4.3m/s | -59.0°C | 6.5% | 0hPa | 2.6V | 00:00:00 | 01:19:35 | 00:00:00 | |
| IW2NTF | 2026-08-30 23:53:49 | 45.64869 | 9.51319 | 86° | 69km/h | 16302m | 4.7m/s | -58.9°C | 6.4% | 0hPa | 2.6V | 08:30:00 | 01:19:32 | 00:00:00 | |
| DB0UT-7 | 2026-08-30 23:53:42 | 45.64860 | 9.51164 | 85° | 75km/h | 16273m | 5.1m/s | -58.8°C | 6.4% | 0hPa | 2.7V | 00:00:00 | 00:00:00 | 08:30:00 | |
| IW2NTF | 2026-08-30 23:53:39 | 45.64854 | 9.51064 | 83° | 68km/h | 16254m | 4.6m/s | -58.8°C | 6.4% | 0hPa | 2.6V | 08:30:00 | 01:19:22 | 00:00:00 | |
| IW2NTF | 2026-08-30 23:53:33 | 45.64834 | 9.50801 | 83° | 78km/h | 16210m | 4.2m/s | -59.1°C | 6.6% | 0hPa | 2.6V | 08:30:00 | 01:19:12 | 00:00:00 | |
| DO3MHA-11 | 2026-08-30 23:53:31 | 45.64842 | 9.50886 | 83° | 78km/h | 16224m | 3.7m/s | -59.0°C | 6.7% | 0hPa | 2.7V | 00:00:00 | 01:19:15 | 00:00:00 | |
| DO3MHA-11 | 2026-08-30 23:53:21 | 45.64814 | 9.50610 | 83° | 78km/h | 16179m | 3.8m/s | -59.2°C | 6.6% | 0hPa | 2.7V | 00:00:00 | 01:19:05 | 00:00:00 | |
| IW2NTF | 2026-08-30 23:53:17 | 45.64798 | 9.50478 | 80° | 80km/h | 16157m | 4m/s | -59.5°C | 6.8% | 0hPa | 2.7V | 08:30:00 | 01:19:00 | 00:00:00 | |
| DB0UT-7 | 2026-08-30 23:53:12 | 45.64780 | 9.50359 | 77° | 80km/h | 16139m | 4.5m/s | -59.8°C | 6.9% | 0hPa | 2.7V | 00:00:00 | 01:18:56 | 00:00:00 | |
| DO3MHA-11 | 2026-08-30 23:53:11 | 45.64775 | 9.50329 | 78° | 80km/h | 16135m | 4.8m/s | -59.7°C | 6.9% | 0hPa | 2.7V | 00:00:00 | 01:18:55 | 00:00:00 | |
| IW2NTF | 2026-08-30 23:53:07 | 45.64751 | 9.50188 | 73° | 77km/h | 16113m | 4.7m/s | -59.8°C | 7.2% | 0hPa | 2.7V | 08:30:00 | 01:18:50 | 00:00:00 | |
| DO3MHA-11 | 2026-08-30 23:53:01 | 45.64720 | 9.50051 | 69° | 78km/h | 16092m | 3.9m/s | -59.8°C | 7.2% | 0hPa | 2.7V | 00:00:00 | 01:18:45 | 00:00:00 | |
| IW2NTF | 2026-08-30 23:52:57 | 45.64685 | 9.49920 | 67° | 77km/h | 16070m | 4.2m/s | -60.2°C | 7.5% | 0hPa | 2.7V | 08:30:00 | 01:18:40 | 00:00:00 | |
| DO3MHA-11 | 2026-08-30 23:52:51 | 45.64647 | 9.49786 | 66° | 82km/h | 16048m | 5.0m/s | -60.0°C | 7.4% | 0hPa | 2.7V | 00:00:00 | 01:18:35 | 00:00:00 | |
| IW2NTF | 2026-08-30 23:52:47 | 45.64601 | 9.49646 | 63° | 80km/h | 16026m | 5.1m/s | -59.9°C | 7.4% | 0hPa | 2.7V | 08:30:00 | 01:18:30 | 00:00:00 | |
| DB0UT-7 | 2026-08-30 23:52:42 | 45.64566 | 9.49545 | 66° | 77km/h | 16009m | 4.5m/s | -59.8°C | 7.3% | 0hPa | 2.7V | 00:00:00 | 00:00:00 | 00:00:00 | |
| DO3MHA-11 | 2026-08-30 23:52:41 | 45.64558 | 9.49519 | 66° | 78km/h | 16005m | 3.8m/s | -59.8°C | 7.2% | 0hPa | 2.7V | 00:00:00 | 01:18:25 | 00:00:00 | |
| IW2NTF | 2026-08-30 23:52:37 | 45.64511 | 9.49388 | 62° | 80km/h | 15982m | 5.2m/s | -59.7°C | 7.3% | 0hPa | 2.7V | 08:30:00 | 01:18:20 | 00:00:00 | |
| DO3MHA-11 | 2026-08-30 23:52:31 | 45.64469 | 9.49266 | 66° | 78km/h | 15960m | 4.2m/s | -59.7°C | 7.5% | 0hPa | 2.6V | 00:00:00 | 01:18:15 | 00:00:00 | |
| IW2NTF | 2026-08-30 23:52:28 | 45.64429 | 9.49141 | 62° | 80km/h | 15938m | 4m/s | -59.9°C | 7.5% | 0hPa | 2.6V | 08:30:00 | 01:18:10 | 00:00:00 | |
| DO3MHA-11 | 2026-08-30 23:52:21 | 45.64386 | 9.49010 | 68° | 73km/h | 15917m | 4.8m/s | -60.2°C | 7.7% | 0hPa | 2.6V | 00:00:00 | 01:18:05 | 00:00:00 | |
| IW2NTF | 2026-08-30 23:52:17 | 45.64354 | 9.48889 | 66° | 75km/h | 15896m | 4m/s | -60.5°C | 8.2% | 0hPa | 2.6V | 08:30:00 | 01:18:00 | 00:00:00 | |
| DB0UT-7 | 2026-08-30 23:52:12 | 45.64319 | 9.48793 | 60° | 69km/h | 15879m | 3.7m/s | -60.5°C | 8.3% | 0hPa | 2.6V | 00:00:00 | 01:17:56 | 00:00:00 | |
| DO3MHA-11 | 2026-08-30 23:52:11 | 45.64309 | 9.48771 | 60° | 73km/h | 15875m | 4.5m/s | -60.5°C | 8.3% | 0hPa | 2.6V | 00:00:00 | 01:17:55 | 08:30:00 | |
| IW2NTF | 2026-08-30 23:52:07 | 45.64263 | 9.48654 | 60° | 71km/h | 15853m | 3.3m/s | -60.5°C | 8.4% | 0hPa | 2.6V | 08:30:00 | 01:17:50 | 00:00:00 | |
| DO3MHA-11 | 2026-08-30 23:52:01 | 45.64221 | 9.48540 | 60° | 69km/h | 15832m | 4.8m/s | -60.5°C | 8.5% | 0hPa | 2.6V | 00:00:00 | 01:17:45 | 00:00:00 | |
| IW2NTF | 2026-08-30 23:51:57 | 45.64169 | 9.48436 | 52° | 73km/h | 15809m | 4.5m/s | -60.6°C | 8.7% | 0hPa | 2.6V | 08:30:00 | 01:17:40 | 00:00:00 | |
| IW2NTF | 2026-08-30 23:51:47 | 45.64072 | 9.48249 | 55° | 64km/h | 15765m | 4.8m/s | -60.6°C | 8.7% | 0hPa | 2.7V | 08:30:00 | 01:17:30 | 00:00:00 | |
| DB0UT-7 | 2026-08-30 23:51:42 | 45.64036 | 9.48169 | 59° | 58km/h | 15749m | 4.4m/s | -60.6°C | 8.8% | 0hPa | 2.7V | 00:00:00 | 00:00:00 | 00:00:00 | |
| DO3MHA-11 | 2026-08-30 23:51:41 | 45.64027 | 9.48150 | 59° | 60km/h | 15745m | 3.9m/s | -60.6°C | 8.8% | 0hPa | 2.7V | 00:00:00 | 01:17:25 | 00:00:00 | |
| IW2NTF | 2026-08-30 23:51:37 | 45.63986 | 9.48057 | 58° | 60km/h | 15723m | 5.2m/s | -60.7°C | 8.9% | 0hPa | 2.7V | 08:30:00 | 01:17:20 | 00:00:00 | |
| DO3MHA-11 | 2026-08-30 23:51:31 | 45.63943 | 9.47966 | 52° | 57km/h | 15701m | 3.8m/s | -60.7°C | 9.2% | 0hPa | 2.6V | 00:00:00 | 01:17:15 | 00:00:00 | |
| IW2NTF | 2026-08-30 23:51:27 | 45.63894 | 9.47890 | 43° | 55km/h | 15677m | 3.3m/s | -60.7°C | 9.4% | 0hPa | 2.6V | 08:30:00 | 01:17:10 | 00:00:00 | |
| DO3MHA-11 | 2026-08-30 23:51:21 | 45.63849 | 9.47815 | 55° | 57km/h | 15654m | 5.6m/s | -60.6°C | 9.2% | 0hPa | 2.7V | 00:00:00 | 01:17:05 | 00:00:00 | |
| IW2NTF | 2026-08-30 23:51:17 | 45.63803 | 9.47728 | 52° | 49km/h | 15629m | 3.6m/s | -60.6°C | 8.9% | 0hPa | 2.7V | 08:30:00 | 01:17:00 | 00:00:00 | |
| DB0UT-7 | 2026-08-30 23:51:12 | 45.63775 | 9.47669 | 58° | 66km/h | 15606m | 6.3m/s | -60.4°C | 9.1% | 0hPa | 2.7V | 00:00:00 | 01:16:56 | 00:00:00 | |
| DO3MHA-11 | 2026-08-30 23:51:11 | 45.63767 | 9.47651 | 59° | 58km/h | 15600m | 4.5m/s | -60.4°C | 9.1% | 0hPa | 2.7V | 00:00:00 | 01:16:55 | 00:00:00 | |
| IW2NTF | 2026-08-30 23:51:07 | 45.63734 | 9.47551 | 71° | 53km/h | 15573m | 5.1m/s | -60.5°C | 9.2% | 0hPa | 2.7V | 08:30:00 | 01:16:50 | 00:00:00 | |
| DO3MHA-11 | 2026-08-30 23:51:01 | 45.63699 | 9.47463 | 52° | 64km/h | 15549m | 4.3m/s | -60.5°C | 9.0% | 0hPa | 2.6V | 00:00:00 | 01:16:45 | 00:00:00 | |
| IW2NTF | 2026-08-30 23:50:57 | 45.63652 | 9.47372 | 61° | 60km/h | 15523m | 4.8m/s | -60.5°C | 8.7% | 0hPa | 2.6V | 08:30:00 | 01:16:40 | 00:00:00 | |
| DO3MHA-11 | 2026-08-30 23:50:51 | 45.63617 | 9.47264 | 68° | 77km/h | 15488m | 6.1m/s | -60.5°C | 8.7% | 0hPa | 2.6V | 00:00:00 | 01:16:35 | 00:00:00 | |
| IW2NTF | 2026-08-30 23:50:47 | 45.63583 | 9.47141 | 68° | 78km/h | 15462m | 6.2m/s | -60.4°C | 8.6% | 0hPa | 2.6V | 08:30:00 | 01:16:30 | 00:00:00 | |
| DB0UT-7 | 2026-08-30 23:50:42 | 45.63549 | 9.47036 | 64° | 78km/h | 15443m | 4.0m/s | -60.4°C | 8.5% | 0hPa | 2.7V | 00:00:00 | 00:00:00 | 00:00:00 | |
| NBG1-10 | 2026-08-30 23:50:41 | 45.63533 | 9.46988 | 66° | 77km/h | 15435m | 5.5m/s | -60.6°C | 8.5% | 0hPa | 2.7V | 00:00:00 | 01:16:24 | 00:00:00 | |
| IW2NTF | 2026-08-30 23:50:37 | 45.63503 | 9.46885 | 67° | 77km/h | 15416m | 5.2m/s | -60.7°C | 8.5% | 0hPa | 2.7V | 08:30:00 | 01:16:20 | 00:00:00 | |
| DO3MHA-11 | 2026-08-30 23:50:31 | 45.63463 | 9.46752 | 66° | 78km/h | 15395m | 4.0m/s | -60.5°C | 8.5% | 0hPa | 2.6V | 00:00:00 | 01:16:15 | 00:00:00 | |
| IW2NTF | 2026-08-30 23:50:27 | 45.63415 | 9.46624 | 61° | 80km/h | 15370m | 4.1m/s | -60.4°C | 8.4% | 0hPa | 2.6V | 08:30:00 | 01:16:10 | 00:00:00 | |
| DO3MHA-11 | 2026-08-30 23:50:21 | 45.63369 | 9.46502 | 61° | 77km/h | 15348m | 5.3m/s | -60.3°C | 8.3% | 0hPa | 2.7V | 00:00:00 | 01:16:05 | 00:00:00 | |
| IW2NTF | 2026-08-30 23:50:18 | 45.63322 | 9.46380 | 64° | 77km/h | 15325m | 4m/s | -60.3°C | 8.3% | 0hPa | 2.7V | 08:30:00 | 01:16:00 | 00:00:00 | |
| DB0UT-7 | 2026-08-30 23:50:12 | 45.63289 | 9.46278 | 64° | 69km/h | 15307m | 5.4m/s | -60.3°C | 8.4% | 0hPa | 2.7V | 00:00:00 | 01:15:56 | 00:00:00 | |
| DO3MHA-11 | 2026-08-30 23:50:11 | 45.63280 | 9.46254 | 62° | 73km/h | 15302m | 4.4m/s | -60.3°C | 8.4% | 0hPa | 2.7V | 00:00:00 | 01:15:55 | 00:00:00 | |
| IW2NTF | 2026-08-30 23:50:07 | 45.63236 | 9.46140 | 63° | 73km/h | 15281m | 4.7m/s | -60.4°C | 8.3% | 0hPa | 2.6V | 08:30:00 | 01:15:50 | 00:00:00 | |
| NBG1-10 | 2026-08-30 23:50:05 | 45.63228 | 9.46117 | 66° | 68km/h | 15276m | 5.2m/s | -60.3°C | 8.4% | 0hPa | 2.6V | 00:00:00 | 01:15:49 | 00:00:00 | |
| DO3MHA-11 | 2026-08-30 23:50:01 | 45.63200 | 9.46020 | 68° | 68km/h | 15258m | 3.7m/s | -60.2°C | 8.3% | 0hPa | 2.6V | 00:00:00 | 01:15:45 | 00:00:00 | |
| IW2NTF | 2026-08-30 23:49:57 | 45.63166 | 9.45904 | 64° | 68km/h | 15236m | 4.1m/s | -60.2°C | 8.4% | 0hPa | 2.6V | 08:30:00 | 01:15:40 | 00:00:00 | |
| DO3MHA-11 | 2026-08-30 23:49:51 | 45.63131 | 9.45796 | 66° | 68km/h | 15214m | 4.8m/s | -60.3°C | 8.4% | 0hPa | 2.7V | 00:00:00 | 01:15:35 | 00:00:00 | |
| IW2NTF | 2026-08-30 23:49:47 | 45.63099 | 9.45688 | 68° | 64km/h | 15194m | 3.1m/s | -60.4°C | 8.5% | 0hPa | 2.7V | 08:30:00 | 01:15:30 | 00:00:00 | |
| DB0UT-7 | 2026-08-30 23:49:42 | 45.63074 | 9.45594 | 73° | 64km/h | 15177m | 5.2m/s | -60.3°C | 8.5% | 0hPa | 2.6V | 00:00:00 | 00:00:00 | 00:00:00 | |
| DO3MHA-11 | 2026-08-30 23:49:41 | 45.63069 | 9.45569 | 76° | 66km/h | 15173m | 3.9m/s | -60.2°C | 8.5% | 0hPa | 2.6V | 00:00:00 | 01:15:25 | 00:00:00 | |
| IW2NTF | 2026-08-30 23:49:37 | 45.63044 | 9.45450 | 70° | 64km/h | 15152m | 4.6m/s | -60.2°C | 8.6% | 0hPa | 2.6V | 08:30:00 | 01:15:20 | 00:00:00 | |
| NBG1-10 | 2026-08-30 23:49:32 | 45.63024 | 9.45363 | 72° | 64km/h | 15135m | 4.1m/s | -60.2°C | 8.8% | 0hPa | 2.7V | 00:00:00 | 01:15:16 | 00:00:00 | |
| DO3MHA-11 | 2026-08-30 23:49:31 | 45.63019 | 9.45340 | 73° | 66km/h | 15131m | 3.1m/s | -60.2°C | 8.8% | 0hPa | 2.7V | 00:00:00 | 01:15:15 | 00:00:00 | |
| IW2NTF | 2026-08-30 23:49:28 | 45.62997 | 9.45223 | 74° | 68km/h | 15110m | 4.4m/s | -60.4°C | 8.9% | 0hPa | 2.7V | 08:30:00 | 01:15:10 | 00:00:00 | |
| DO3MHA-11 | 2026-08-30 23:49:21 | 45.62975 | 9.45110 | 72° | 60km/h | 15088m | 4.4m/s | -60.3°C | 8.8% | 0hPa | 2.6V | 00:00:00 | 01:15:05 | 00:00:00 | |
| IW2NTF | 2026-08-30 23:49:17 | 45.62955 | 9.45013 | 75° | 57km/h | 15068m | 4.4m/s | -60.4°C | 9.2% | 0hPa | 2.6V | 08:30:00 | 01:15:00 | 00:00:00 | |
| DB0UT-7 | 2026-08-30 23:49:12 | 45.62940 | 9.44926 | 80° | 66km/h | 15051m | 4.0m/s | -60.3°C | 9.3% | 0hPa | 2.7V | 00:00:00 | 01:14:56 | 08:30:00 | |
| DO3MHA-11 | 2026-08-30 23:49:11 | 45.62937 | 9.44902 | 80° | 68km/h | 15047m | 3.3m/s | -60.3°C | 9.4% | 0hPa | 2.7V | 00:00:00 | 01:14:55 | 08:30:00 | |
| IW2NTF | 2026-08-30 23:49:07 | 45.62920 | 9.44781 | 79° | 68km/h | 15027m | 4.6m/s | -60.2°C | 9.7% | 0hPa | 2.6V | 08:30:00 | 01:14:50 | 00:00:00 | |
| IW2NTF | 2026-08-30 23:49:01 | 45.62880 | 9.44563 | 73° | 58km/h | 14985m | 3.4m/s | -59.9°C | 9.5% | 0hPa | 2.7V | 08:30:00 | 01:14:40 | 00:00:00 | |
| DO3MHA-11 | 2026-08-30 23:49:01 | 45.62901 | 9.44666 | 75° | 60km/h | 15006m | 5.2m/s | -60.0°C | 9.6% | 0hPa | 2.6V | 00:00:00 | 01:14:45 | 00:00:00 | |
| NBG1-10 | 2026-08-30 23:48:59 | 45.62893 | 9.44624 | 75° | 69km/h | 14998m | 2.8m/s | -60.0°C | 9.5% | 0hPa | 2.6V | 00:00:00 | 01:14:43 | 00:00:00 | |
| IW2NTF | 2026-08-30 23:48:51 | 45.62852 | 9.44325 | 86° | 69km/h | 14943m | 3.9m/s | -59.8°C | 9.9% | 0hPa | 2.6V | 08:30:00 | 01:14:30 | 00:00:00 | |
| DO3MHA-11 | 2026-08-30 23:48:51 | 45.62864 | 9.44454 | 80° | 71km/h | 14964m | 5.0m/s | -59.8°C | 9.8% | 0hPa | 2.7V | 00:00:00 | 01:14:35 | 00:00:00 | |
| DB0UT-7 | 2026-08-30 23:48:42 | 45.62847 | 9.44224 | 86° | 75km/h | 14926m | 5.1m/s | -59.9°C | 10.0% | 0hPa | 2.7V | 00:00:00 | 00:00:00 | 00:00:00 | |
| IW2NTF | 2026-08-30 23:48:41 | 45.62835 | 9.44077 | 81° | 68km/h | 14900m | 4.6m/s | -60.2°C | 10.5% | 0hPa | 2.7V | 08:30:00 | 01:14:20 | 00:00:00 | |
| DO3MHA-11 | 2026-08-30 23:48:41 | 45.62845 | 9.44199 | 87° | 69km/h | 14921m | 3.9m/s | -60.0°C | 10.2% | 0hPa | 2.6V | 00:00:00 | 01:14:25 | 00:00:00 | |
| IW2NTF | 2026-08-30 23:48:31 | 45.62814 | 9.43813 | 83° | 82km/h | 14859m | 4m/s | -60.9°C | 11.3% | 0hPa | 2.6V | 08:30:00 | 01:14:10 | 00:00:00 | |
| DO3MHA-11 | 2026-08-30 23:48:31 | 45.62823 | 9.43952 | 83° | 78km/h | 14880m | 4.2m/s | -60.3°C | 10.8% | 0hPa | 2.7V | 00:00:00 | 01:14:15 | 00:00:00 | |
| NBG1-10 | 2026-08-30 23:48:26 | 45.62814 | 9.43813 | 84° | 78km/h | 14860m | 4.0m/s | -60.8°C | 11.3% | 0hPa | 2.7V | 00:00:00 | 01:14:10 | 00:00:00 | |
| IW2NTF | 2026-08-30 23:48:21 | 45.62781 | 9.43539 | 78° | 75km/h | 14817m | 5m/s | -61.8°C | 12.8% | 0hPa | 2.7V | 08:30:00 | 01:14:00 | 00:00:00 | |
| DO3MHA-11 | 2026-08-30 23:48:21 | 45.62799 | 9.43669 | 78° | 77km/h | 14837m | 4.0m/s | -61.3°C | 12.0% | 0hPa | 2.6V | 00:00:00 | 01:14:05 | 00:00:00 | |
| IW2NTF | 2026-08-30 23:48:12 | 45.62745 | 9.43262 | 81° | 78km/h | 14776m | 4.2m/s | -62.1°C | 13.7% | 0hPa | 2.6V | 08:30:00 | 01:13:50 | 00:00:00 | |
| DO3MHA-11 | 2026-08-30 23:48:11 | 45.62763 | 9.43401 | 81° | 78km/h | 14797m | 3.6m/s | -62.0°C | 13.2% | 0hPa | 2.6V | 00:00:00 | 01:13:55 | 00:00:00 | |
| IW2NTF | 2026-08-30 23:48:01 | 45.62723 | 9.42981 | 86° | 73km/h | 14735m | 4.2m/s | -62.2°C | 14.4% | 0hPa | 2.7V | 08:30:00 | 01:13:40 | 00:00:00 | |
| DO3MHA-11 | 2026-08-30 23:48:01 | 45.62731 | 9.43119 | 85° | 77km/h | 14756m | 4.4m/s | -62.1°C | 14.2% | 0hPa | 2.6V | 00:00:00 | 01:13:45 | 00:00:00 | |
| NBG1-10 | 2026-08-30 23:47:53 | 45.62719 | 9.42901 | 85° | 84km/h | 14723m | 4.4m/s | -62.2°C | 14.5% | 0hPa | 2.6V | 00:00:00 | 01:13:37 | 00:00:00 | |
| IW2NTF | 2026-08-30 23:47:51 | 45.62706 | 9.42698 | 85° | 82km/h | 14694m | 3.7m/s | -62.2°C | 15.4% | 0hPa | 2.7V | 08:30:00 | 01:13:30 | 00:00:00 | |
| DO3MHA-11 | 2026-08-30 23:47:51 | 45.62714 | 9.42845 | 84° | 82km/h | 14715m | 4.3m/s | -62.2°C | 14.7% | 0hPa | 2.6V | 00:00:00 | 01:13:35 | 00:00:00 | |
| DB0UT-7 | 2026-08-30 23:47:42 | 45.62704 | 9.42579 | 90° | 86km/h | 14678m | 3.6m/s | -62.1°C | 15.6% | 0hPa | 2.6V | 00:00:00 | 00:00:00 | 00:00:00 | |
| IW2NTF | 2026-08-30 23:47:41 | 45.62701 | 9.42398 | 91° | 89km/h | 14654m | 3.9m/s | -62.3°C | 16.5% | 0hPa | 2.6V | 08:30:00 | 01:13:20 | 00:00:00 | |
| DO3MHA-11 | 2026-08-30 23:47:41 | 45.62703 | 9.42549 | 89° | 86km/h | 14674m | 4.6m/s | -62.1°C | 15.7% | 0hPa | 2.6V | 00:00:00 | 01:13:25 | 08:30:00 | |
| IW2NTF | 2026-08-30 23:47:31 | 45.62709 | 9.42095 | 91° | 78km/h | 14611m | 2.8m/s | -62.8°C | 18.3% | 0hPa | 2.7V | 08:30:00 | 01:13:10 | 00:00:00 | |
| DO3MHA-11 | 2026-08-30 23:47:31 | 45.62705 | 9.42239 | 94° | 82km/h | 14633m | 3.9m/s | -62.6°C | 17.3% | 0hPa | 2.7V | 00:00:00 | 01:13:15 | 00:00:00 | |
| IW2NTF | 2026-08-30 23:47:21 | 45.62711 | 9.41775 | 91° | 89km/h | 14570m | 4.8m/s | -63.1°C | 19.1% | 0hPa | 2.7V | 08:30:00 | 01:13:00 | 00:00:00 | |
| DO3MHA-11 | 2026-08-30 23:47:21 | 45.62708 | 9.41941 | 92° | 89km/h | 14591m | 3.9m/s | -62.9°C | 18.2% | 0hPa | 2.6V | 00:00:00 | 01:13:05 | 00:00:00 | |
| NBG1-10 | 2026-08-30 23:47:20 | 45.62708 | 9.41907 | 93° | 88km/h | 14587m | 3.9m/s | -63.0°C | 18.4% | 0hPa | 2.6V | 00:00:00 | 01:13:04 | 00:00:00 | |
| DB0UT-7 | 2026-08-30 23:47:12 | 45.62709 | 9.41651 | 87° | 88km/h | 14554m | 2.9m/s | -63.0°C | 19.5% | 0hPa | 2.6V | 00:00:00 | 01:12:56 | 00:00:00 | |
| IW2NTF | 2026-08-30 23:47:11 | 45.62711 | 9.41473 | 93° | 84km/h | 14529m | 3.1m/s | -63.2°C | 20.2% | 0hPa | 2.6V | 08:30:00 | 01:12:50 | 00:00:00 | |
| DO3MHA-11 | 2026-08-30 23:47:11 | 45.62708 | 9.41621 | 88° | 84km/h | 14550m | 4.3m/s | -63.0°C | 19.3% | 0hPa | 2.6V | 00:00:00 | 01:12:55 | 00:00:00 | |
| IW2NTF | 2026-08-30 23:47:02 | 45.62714 | 9.41165 | 87° | 88km/h | 14487m | 4.5m/s | -63.6°C | 22% | 0hPa | 2.8V | 08:30:00 | 01:12:40 | 00:00:00 | |
| DO3MHA-11 | 2026-08-30 23:47:01 | 45.62717 | 9.41320 | 90° | 88km/h | 14507m | 3.2m/s | -63.4°C | 21.5% | 0hPa | 2.6V | 00:00:00 | 01:12:45 | 00:00:00 | |
| IW2NTF | 2026-08-30 23:46:51 | 45.62714 | 9.40843 | 89° | 89km/h | 14441m | 4.5m/s | -63.8°C | 22.9% | 0hPa | 2.6V | 08:30:00 | 01:12:30 | 00:00:00 | |
| DO3MHA-11 | 2026-08-30 23:46:51 | 45.62713 | 9.41005 | 92° | 91km/h | 14464m | 5.2m/s | -63.7°C | 22.3% | 0hPa | 2.6V | 00:00:00 | 01:12:35 | 00:00:00 | |
| NBG1-10 | 2026-08-30 23:46:47 | 45.62714 | 9.40875 | 91° | 93km/h | 14445m | 3.8m/s | -63.8°C | 22.8% | 0hPa | 2.6V | 00:00:00 | 01:12:31 | 00:00:00 | |
| DB0UT-7 | 2026-08-30 23:46:42 | 45.62712 | 9.40710 | 88° | 95km/h | 14423m | 4.6m/s | -63.8°C | 23.3% | 0hPa | 2.6V | 00:00:00 | 00:00:00 | 00:00:00 | |
| IW2NTF | 2026-08-30 23:46:41 | 45.62701 | 9.40514 | 86° | 89km/h | 14397m | 4.3m/s | -63.9°C | 24.1% | 0hPa | 2.6V | 08:30:00 | 01:12:20 | 00:00:00 | |
| DO3MHA-11 | 2026-08-30 23:46:41 | 45.62710 | 9.40678 | 87° | 91km/h | 14419m | 3.9m/s | -63.8°C | 23.5% | 0hPa | 2.6V | 00:00:00 | 01:12:25 | 00:00:00 | |
| DO3MHA-11 | 2026-08-30 23:46:31 | 45.62692 | 9.40346 | 86° | 95km/h | 14376m | 5.0m/s | -63.8°C | 24.0% | 0hPa | 2.7V | 00:00:00 | 01:12:15 | 00:00:00 | |
| IW2NTF | 2026-08-30 23:46:25 | 45.62679 | 9.40108 | 86° | 93km/h | 14345m | 4.3m/s | -63.9°C | 24.5% | 0hPa | 2.7V | 08:30:00 | 01:12:08 | 00:00:00 | |
| DO3MHA-11 | 2026-08-30 23:46:21 | 45.62672 | 9.40006 | 84° | 97km/h | 14332m | 4.1m/s | -63.8°C | 24.5% | 0hPa | 2.7V | 00:00:00 | 01:12:05 | 00:00:00 | |
| IW2NTF | 2026-08-30 23:46:15 | 45.62651 | 9.39766 | 83° | 99km/h | 14300m | 5.1m/s | -63.8°C | 25.4% | 0hPa | 2.7V | 08:30:00 | 01:11:58 | 00:00:00 | |
| NBG1-10 | 2026-08-30 23:46:13 | 45.62649 | 9.39731 | 85° | 97km/h | 14296m | 3.6m/s | -63.7°C | 25.6% | 0hPa | 2.7V | 00:00:00 | 01:11:57 | 08:30:00 | |
| DB0UT-7 | 2026-08-30 23:46:12 | 45.62646 | 9.39695 | 84° | 97km/h | 14292m | 4.0m/s | -63.7°C | 25.6% | 0hPa | 2.6V | 00:00:00 | 01:11:56 | 00:00:00 | |
| DO3MHA-11 | 2026-08-30 23:46:11 | 45.62643 | 9.39660 | 84° | 97km/h | 14288m | 5.1m/s | -63.7°C | 25.7% | 0hPa | 2.6V | 00:00:00 | 01:11:55 | 08:30:00 | |
| IW2NTF | 2026-08-30 23:46:05 | 45.62619 | 9.39417 | 80° | 97km/h | 14256m | 4.5m/s | -63.6°C | 26.2% | 0hPa | 2.8V | 08:30:00 | 01:11:48 | 00:00:00 | |
| DO3MHA-11 | 2026-08-30 23:46:01 | 45.62606 | 9.39314 | 81° | 95km/h | 14244m | 3.6m/s | -63.5°C | 26.2% | 0hPa | 2.6V | 00:00:00 | 01:11:45 | 00:00:00 | |
| IW2NTF | 2026-08-30 23:45:55 | 45.62582 | 9.39078 | 78° | 91km/h | 14213m | 3.9m/s | -63.7°C | 26.8% | 0hPa | 2.6V | 08:30:00 | 01:11:38 | 00:00:00 | |
| DO3MHA-11 | 2026-08-30 23:45:51 | 45.62566 | 9.38978 | 76° | 97km/h | 14200m | 3.6m/s | -63.6°C | 27.0% | 0hPa | 2.6V | 00:00:00 | 01:11:35 | 00:00:00 | |
| IW2NTF | 2026-08-30 23:45:49 | 45.62526 | 9.38743 | 77° | 97km/h | 14169m | 4.5m/s | -63.6°C | 27.9% | 0hPa | 2.6V | 08:30:00 | 01:11:28 | 00:00:00 | |
| DB0UT-7 | 2026-08-30 23:45:42 | 45.62514 | 9.38674 | 77° | 99km/h | 14161m | 4.8m/s | -63.5°C | 27.9% | 0hPa | 2.7V | 00:00:00 | 00:00:00 | 00:00:00 | |
| DO3MHA-11 | 2026-08-30 23:45:41 | 45.62509 | 9.38639 | 77° | 97km/h | 14156m | 4.7m/s | -63.5°C | 28.0% | 0hPa | 2.7V | 00:00:00 | 01:11:25 | 00:00:00 | |
| NBG1-10 | 2026-08-30 23:45:40 | 45.62503 | 9.38603 | 77° | 97km/h | 14152m | 4.5m/s | -63.5°C | 28.1% | 0hPa | 2.7V | 00:00:00 | 01:11:24 | 00:00:00 | |
| IW2NTF | 2026-08-30 23:45:29 | 45.62411 | 9.38050 | 78° | 104km/h | 14080m | 4.4m/s | -63.2°C | 29.4% | 0hPa | 2.7V | 08:30:00 | 01:11:08 | 00:00:00 | |
| DO3MHA-11 | 2026-08-30 23:45:25 | 45.62416 | 9.38086 | 78° | 99km/h | 14085m | 5.0m/s | -63.2°C | 29.2% | 0hPa | 2.8V | 00:00:00 | 01:11:09 | 00:00:00 | |
| IW2NTF | 2026-08-30 23:45:17 | 45.62363 | 9.37709 | 81° | 93km/h | 14034m | 4.6m/s | -63.3°C | 29.1% | 0hPa | 2.8V | 08:30:00 | 01:10:58 | 00:00:00 | |
| DO3MHA-11 | 2026-08-30 23:45:15 | 45.62367 | 9.37742 | 81° | 97km/h | 14039m | 4.2m/s | -63.3°C | 29.1% | 0hPa | 2.6V | 00:00:00 | 01:10:59 | 00:00:00 | |
| DB0UT-7 | 2026-08-30 23:45:12 | 45.62357 | 9.37642 | 83° | 93km/h | 14026m | 3.7m/s | -63.2°C | 29.5% | 0hPa | 2.6V | 00:00:00 | 01:10:56 | 00:00:00 | |
| IW2NTF | 2026-08-30 23:45:07 | 45.62314 | 9.37369 | 76° | 95km/h | 13988m | 3.8m/s | -63.3°C | 30.7% | 0hPa | 2.6V | 08:30:00 | 01:10:48 | 00:00:00 | |
| NBG1-10 | 2026-08-30 23:45:07 | 45.62332 | 9.37470 | 77° | 93km/h | 14002m | 4.2m/s | -63.2°C | 30.1% | 0hPa | 2.6V | 00:00:00 | 01:10:51 | 00:00:00 | |
| DO3MHA-11 | 2026-08-30 23:45:05 | 45.62320 | 9.37403 | 76° | 95km/h | 13992m | 5.4m/s | -63.3°C | 30.5% | 0hPa | 2.6V | 00:00:00 | 01:10:49 | 00:00:00 | |
| IW2NTF | 2026-08-30 23:44:59 | 45.62262 | 9.37037 | 74° | 97km/h | 13943m | 4.6m/s | -63.6°C | 30.8% | 0hPa | 2.6V | 08:30:00 | 01:10:38 | 00:00:00 | |
| DO3MHA-11 | 2026-08-30 23:44:55 | 45.62269 | 9.37071 | 76° | 91km/h | 13947m | 4.0m/s | -63.5°C | 31.2% | 0hPa | 2.8V | 00:00:00 | 01:10:39 | 00:00:00 | |
| IW2NTF | 2026-08-30 23:44:49 | 45.62202 | 9.36723 | 80° | 89km/h | 13898m | 4.2m/s | -63.4°C | 29.8% | 0hPa | 2.8V | 08:30:00 | 01:10:28 | 00:00:00 | |
| DO3MHA-11 | 2026-08-30 23:44:45 | 45.62206 | 9.36754 | 79° | 93km/h | 13903m | 5.0m/s | -63.4°C | 29.8% | 0hPa | 2.6V | 00:00:00 | 01:10:29 | 00:00:00 | |
| DB0UT-7 | 2026-08-30 23:44:42 | 45.62193 | 9.36658 | 79° | 95km/h | 13890m | 4.8m/s | -63.3°C | 29.6% | 0hPa | 2.6V | 00:00:00 | 00:00:00 | 08:30:00 | |
| IW2NTF | 2026-08-30 23:44:37 | 45.62135 | 9.36329 | 75° | 97km/h | 13845m | 4.5m/s | -63°C | 28.8% | 0hPa | 2.8V | 08:30:00 | 01:10:16 | 00:00:00 | |
| DO3MHA-11 | 2026-08-30 23:44:35 | 45.62153 | 9.36427 | 75° | 97km/h | 13858m | 4.2m/s | -63.1°C | 29.2% | 0hPa | 2.6V | 00:00:00 | 01:10:19 | 08:30:00 | |
| NBG1-10 | 2026-08-30 23:44:34 | 45.62147 | 9.36395 | 75° | 97km/h | 13854m | 3.7m/s | -63.1°C | 28.8% | 0hPa | 2.6V | 00:00:00 | 01:10:18 | 00:00:00 | |
| IW2NTF | 2026-08-30 23:44:27 | 45.62078 | 9.35991 | 77° | 93km/h | 13801m | 4.3m/s | -62.9°C | 29.3% | 0hPa | 2.8V | 08:30:00 | 01:10:06 | 00:00:00 | |
| DO3MHA-11 | 2026-08-30 23:44:25 | 45.62093 | 9.36091 | 78° | 93km/h | 13814m | 4.5m/s | -62.9°C | 29.1% | 0hPa | 2.6V | 00:00:00 | 01:10:09 | 00:00:00 | |
| IW2NTF | 2026-08-30 23:44:17 | 45.62028 | 9.35661 | 79° | 97km/h | 13756m | 4.6m/s | -62.9°C | 32% | 0hPa | 2.6V | 08:30:00 | 01:09:56 | 00:00:00 | |
| DO3MHA-11 | 2026-08-30 23:44:15 | 45.62042 | 9.35761 | 78° | 97km/h | 13770m | 5.1m/s | -62.8°C | 30.7% | 0hPa | 2.6V | 00:00:00 | 01:09:59 | 00:00:00 | |
| DB0UT-7 | 2026-08-30 23:44:12 | 45.62028 | 9.35661 | 80° | 100km/h | 13756m | 4.5m/s | -62.8°C | 32.0% | 0hPa | 2.6V | 00:00:00 | 01:09:56 | 00:00:00 | |
| IW2NTF | 2026-08-30 23:44:08 | 45.61973 | 9.35314 | 80° | 102km/h | 13713m | 3.9m/s | -62.7°C | 33.5% | 0hPa | 2.6V | 08:30:00 | 01:09:46 | 00:00:00 | |
| DO3MHA-11 | 2026-08-30 23:44:05 | 45.61989 | 9.35418 | 76° | 102km/h | 13727m | 3.9m/s | -62.7°C | 32.7% | 0hPa | 2.7V | 00:00:00 | 01:09:49 | 00:00:00 | |
| NBG1-10 | 2026-08-30 23:44:01 | 45.61969 | 9.35277 | 82° | 100km/h | 13709m | 4.6m/s | -62.7°C | 33.5% | 0hPa | 2.6V | 00:00:00 | 01:09:45 | 00:00:00 | |
| IW2NTF | 2026-08-30 23:43:58 | 45.61928 | 9.34949 | 77° | 97km/h | 13670m | 3.9m/s | -62.5°C | 34.6% | 0hPa | 2.6V | 08:30:00 | 01:09:36 | 00:00:00 | |
| DO3MHA-11 | 2026-08-30 23:43:55 | 45.61944 | 9.35053 | 79° | 99km/h | 13683m | 4.8m/s | -62.5°C | 34.2% | 0hPa | 2.8V | 00:00:00 | 01:09:39 | 00:00:00 | |
| IW2NTF | 2026-08-30 23:43:47 | 45.61875 | 9.34597 | 79° | 99km/h | 13625m | 4.6m/s | -62.5°C | 36.5% | 0hPa | 2.8V | 08:30:00 | 01:09:26 | 00:00:00 | |
| DB0UT-7 | 2026-08-30 23:43:42 | 45.61875 | 9.34597 | 80° | 99km/h | 13626m | 4.6m/s | -62.4°C | 36.5% | 0hPa | 2.6V | 00:00:00 | 00:00:00 | 00:00:00 | |
| IW2NTF | 2026-08-30 23:43:37 | 45.61823 | 9.34250 | 80° | 100km/h | 13582m | 5.5m/s | -62.3°C | 37.5% | 0hPa | 2.6V | 08:30:00 | 01:09:16 | 00:00:00 | |
| DO3MHA-11 | 2026-08-30 23:43:35 | 45.61838 | 9.34356 | 77° | 99km/h | 13595m | 4.2m/s | -62.3°C | 37.3% | 0hPa | 2.6V | 00:00:00 | 01:09:19 | 00:00:00 | |
| NBG1-10 | 2026-08-30 23:43:28 | 45.61809 | 9.34109 | 82° | 100km/h | 13565m | 4.2m/s | -62.2°C | 37.9% | 0hPa | 2.8V | 00:00:00 | 01:09:12 | 00:00:00 | |
| IW2NTF | 2026-08-30 23:43:27 | 45.61782 | 9.33897 | 79° | 100km/h | 13539m | 3.8m/s | -62.2°C | 38.6% | 0hPa | 2.8V | 08:30:00 | 01:09:06 | 00:00:00 | |
| DO3MHA-11 | 2026-08-30 23:43:25 | 45.61796 | 9.34003 | 80° | 99km/h | 13552m | 4.6m/s | -62.2°C | 38.2% | 0hPa | 2.8V | 00:00:00 | 01:09:09 | 00:00:00 | |
| IW2NTF | 2026-08-30 23:43:16 | 45.61732 | 9.33472 | 79° | 100km/h | 13488m | 4.7m/s | -62.1°C | 38.3% | 0hPa | 2.8V | 08:30:00 | 01:08:54 | 00:00:00 | |
| DO3MHA-11 | 2026-08-30 23:43:15 | 45.61754 | 9.33651 | 81° | 102km/h | 13510m | 3.6m/s | -62.1°C | 38.2% | 0hPa | 2.6V | 00:00:00 | 01:08:59 | 00:00:00 | |
| DB0UT-7 | 2026-08-30 23:43:12 | 45.61741 | 9.33543 | 81° | 102km/h | 13497m | 3.6m/s | -62.1°C | 38.2% | 0hPa | 2.6V | 00:00:00 | 01:08:56 | 00:00:00 | |
| IW2NTF | 2026-08-30 23:43:05 | 45.61699 | 9.33116 | 83° | 100km/h | 13446m | 3.9m/s | -62°C | 38.6% | 0hPa | 2.6V | 08:30:00 | 01:08:44 | 00:00:00 | |
| DO3MHA-11 | 2026-08-30 23:43:05 | 45.61714 | 9.33290 | 84° | 100km/h | 13468m | 4.6m/s | -62.0°C | 37.9% | 0hPa | 2.6V | 00:00:00 | 01:08:49 | 08:30:00 | |
| DO3MHA-11 | 2026-08-30 23:42:55 | 45.61681 | 9.32932 | 84° | 106km/h | 13427m | 4.2m/s | -61.9°C | 38.9% | 0hPa | 2.8V | 00:00:00 | 01:08:39 | 00:00:00 | |
| IW2NTF | 2026-08-30 23:42:51 | 45.61666 | 9.32741 | 82° | 104km/h | 13406m | 3.8m/s | -61.9°C | 38.9% | 0hPa | 2.8V | 08:30:00 | 01:08:34 | 00:00:00 | |
| IW2NTF | 2026-08-30 23:42:45 | 45.61638 | 9.32364 | 85° | 108km/h | 13365m | 4.6m/s | -61.8°C | 39.4% | 0hPa | 2.8V | 08:30:00 | 01:08:24 | 00:00:00 | |
| DO3MHA-11 | 2026-08-30 23:42:45 | 45.61648 | 9.32553 | 85° | 106km/h | 13385m | 4.6m/s | -61.8°C | 39.2% | 0hPa | 2.6V | 00:00:00 | 01:08:29 | 00:00:00 | |
| DB0UT-7 | 2026-08-30 23:42:42 | 45.61642 | 9.32442 | 87° | 111km/h | 13373m | 4.2m/s | -61.7°C | 39.5% | 0hPa | 2.6V | 00:00:00 | 00:00:00 | 00:00:00 | |
| DO3MHA-11 | 2026-08-30 23:42:35 | 45.61628 | 9.32169 | 86° | 113km/h | 13344m | 3.3m/s | -61.6°C | 40.3% | 0hPa | 2.6V | 00:00:00 | 01:08:19 | 00:00:00 | |
| IW2NTF | 2026-08-30 23:42:31 | 45.61615 | 9.31966 | 85° | 111km/h | 13325m | 4.3m/s | -61.5°C | 39.5% | 0hPa | 2.6V | 08:30:00 | 01:08:14 | 00:00:00 | |
| IW2NTF | 2026-08-30 23:42:25 | 45.61590 | 9.31561 | 82° | 108km/h | 13283m | 5m/s | -61.2°C | 39.2% | 0hPa | 2.8V | 08:30:00 | 01:08:04 | 00:00:00 | |
| DO3MHA-11 | 2026-08-30 23:42:25 | 45.61605 | 9.31761 | 85° | 111km/h | 13305m | 3.7m/s | -61.3°C | 39.5% | 0hPa | 2.8V | 00:00:00 | 01:08:09 | 00:00:00 | |
| NBG1-10 | 2026-08-30 23:42:22 | 45.61596 | 9.31639 | 85° | 117km/h | 13292m | 3.8m/s | -61.2°C | 39.5% | 0hPa | 2.8V | 00:00:00 | 01:08:06 | 00:00:00 | |
| DO3MHA-11 | 2026-08-30 23:42:15 | 45.61575 | 9.31363 | 85° | 120km/h | 13262m | 4.9m/s | -61.1°C | 39.8% | 0hPa | 2.8V | 00:00:00 | 01:07:59 | 00:00:00 | |
| IW2NTF | 2026-08-30 23:42:11 | 45.61560 | 9.31146 | 82° | 124km/h | 13242m | 4.2m/s | -61.2°C | 40.5% | 0hPa | 2.8V | 08:30:00 | 01:07:54 | 00:00:00 | |
| IW2NTF | 2026-08-30 23:42:05 | 45.61513 | 9.30729 | 82° | 115km/h | 13202m | 3.3m/s | -61.1°C | 41% | 0hPa | 2.6V | 08:30:00 | 01:07:44 | 00:00:00 | |
| DO3MHA-11 | 2026-08-30 23:42:05 | 45.61535 | 9.30933 | 81° | 119km/h | 13222m | 2.9m/s | -61.1°C | 40.9% | 0hPa | 2.6V | 00:00:00 | 01:07:49 | 00:00:00 | |
| DO3MHA-11 | 2026-08-30 23:41:55 | 45.61492 | 9.30511 | 82° | 119km/h | 13183m | 4.3m/s | -61.0°C | 40.8% | 0hPa | 2.8V | 00:00:00 | 01:07:39 | 00:00:00 | |
| IW2NTF | 2026-08-30 23:41:51 | 45.61469 | 9.30298 | 81° | 119km/h | 13162m | 4.2m/s | -61°C | 41.3% | 0hPa | 2.8V | 08:30:00 | 01:07:34 | 00:00:00 | |
| NBG1-10 | 2026-08-30 23:41:49 | 45.61465 | 9.30256 | 82° | 117km/h | 13159m | 3.5m/s | 0°C | 0% | 0hPa | 2.8V | 00:00:00 | 01:07:33 | 00:00:00 | |
| DO3MHA-11 | 2026-08-30 23:41:45 | 45.61449 | 9.30088 | 82° | 119km/h | 13143m | 4.3m/s | -60.8°C | 42.1% | 0hPa | 2.8V | 00:00:00 | 01:07:29 | 00:00:00 | |
| IW2NTF | 2026-08-30 23:41:43 | 45.61424 | 9.29790 | 84° | 120km/h | 13116m | 3.4m/s | -60.7°C | 42.7% | 0hPa | 2.8V | 08:30:00 | 01:07:22 | 00:00:00 | |
| DB0UT-7 | 2026-08-30 23:41:42 | 45.61436 | 9.29961 | 83° | 117km/h | 13132m | 4.6m/s | -60.8°C | 41.7% | 0hPa | 2.6V | 00:00:00 | 00:00:00 | 00:00:00 | |
| DO3MHA-11 | 2026-08-30 23:41:35 | 45.61414 | 9.29664 | 83° | 117km/h | 13105m | 3.8m/s | -60.6°C | 42.4% | 0hPa | 2.7V | 00:00:00 | 01:07:19 | 08:30:00 | |
| IW2NTF | 2026-08-30 23:41:31 | 45.61387 | 9.29373 | 85° | 119km/h | 13076m | 4.6m/s | -60.5°C | 42.1% | 0hPa | 2.8V | 08:30:00 | 01:07:12 | 00:00:00 | |
| DO3MHA-11 | 2026-08-30 23:41:25 | 45.61378 | 9.29245 | 84° | 113km/h | 13063m | 5.1m/s | -60.5°C | 43.0% | 0hPa | 2.7V | 00:00:00 | 01:07:09 | 00:00:00 | |
| IW2NTF | 2026-08-30 23:41:23 | 45.61351 | 9.28961 | 83° | 111km/h | 13035m | 3.3m/s | -60.5°C | 44.5% | 0hPa | 2.7V | 08:30:00 | 01:07:02 | 00:00:00 | |
| NBG1-10 | 2026-08-30 23:41:16 | 45.61345 | 9.28879 | 84° | 117km/h | 13028m | 4.1m/s | 0°C | 0% | 0hPa | 2.7V | 00:00:00 | 01:07:00 | 00:00:00 | |
| DO3MHA-11 | 2026-08-30 23:41:15 | 45.61341 | 9.28837 | 84° | 115km/h | 13024m | 3.4m/s | -60.4°C | 44.4% | 0hPa | 2.7V | 00:00:00 | 01:06:59 | 00:00:00 | |
| DB0UT-7 | 2026-08-30 23:41:12 | 45.61332 | 9.28711 | 85° | 115km/h | 13012m | 3.5m/s | -60.4°C | 45.1% | 0hPa | 2.7V | 00:00:00 | 01:06:56 | 00:00:00 | |
| IW2NTF | 2026-08-30 23:41:11 | 45.61317 | 9.28546 | 82° | 113km/h | 12995m | 4.9m/s | -60.4°C | 45.9% | 0hPa | 2.7V | 08:30:00 | 01:06:52 | 00:00:00 | |
| DO3MHA-11 | 2026-08-30 23:41:05 | 45.61308 | 9.28424 | 84° | 117km/h | 12983m | 4.7m/s | -60.3°C | 47.2% | 0hPa | 2.6V | 00:00:00 | 01:06:49 | 00:00:00 | |
| IW2NTF | 2026-08-30 23:41:03 | 45.61281 | 9.28132 | 80° | 115km/h | 12953m | 4.6m/s | -60.2°C | 49.8% | 0hPa | 2.7V | 08:30:00 | 01:06:42 | 00:00:00 | |
| DO3MHA-11 | 2026-08-30 23:40:55 | 45.61267 | 9.28010 | 81° | 111km/h | 12940m | 4.3m/s | -60.1°C | 50.8% | 0hPa | 2.6V | 00:00:00 | 01:06:39 | 00:00:00 | |
| IW2NTF | 2026-08-30 23:40:51 | 45.61238 | 9.27732 | 85° | 111km/h | 12911m | 4.6m/s | -60.4°C | 54.4% | 0hPa | 2.6V | 08:30:00 | 01:06:32 | 00:00:00 | |
| DO3MHA-11 | 2026-08-30 23:40:45 | 45.61229 | 9.27609 | 83° | 117km/h | 12898m | 3.9m/s | -60.4°C | 56.6% | 0hPa | 2.7V | 00:00:00 | 01:06:29 | 00:00:00 | |
| IW2NTF | 2026-08-30 23:40:43 | 45.61196 | 9.27317 | 79° | 113km/h | 12870m | 3.5m/s | -60.5°C | 59.5% | 0hPa | 2.7V | 08:30:00 | 01:06:22 | 00:00:00 | |
| DB0UT-7 | 2026-08-30 23:40:42 | 45.61217 | 9.27482 | 82° | 124km/h | 12886m | 4.1m/s | -60.5°C | 57.3% | 0hPa | 2.7V | 00:00:00 | 00:00:00 | 00:00:00 | |
| DO3MHA-11 | 2026-08-30 23:40:35 | 45.61186 | 9.27191 | 88° | 122km/h | 12858m | 4.3m/s | -60.3°C | 63.3% | 0hPa | 2.7V | 00:00:00 | 01:06:19 | 00:00:00 | |
| IW2NTF | 2026-08-30 23:40:27 | 45.61161 | 9.26799 | 80° | 120km/h | 12816m | 7.2m/s | -60.3°C | 65.4% | 0hPa | 2.6V | 08:30:00 | 01:06:10 | 00:00:00 | |
| DO3MHA-11 | 2026-08-30 23:40:25 | 45.61156 | 9.26756 | 80° | 130km/h | 12809m | 8.1m/s | -60.2°C | 65.5% | 0hPa | 2.7V | 00:00:00 | 01:06:09 | 00:00:00 | |
| IW2NTF | 2026-08-30 23:40:18 | 45.61131 | 9.26339 | 87° | 135km/h | 12754m | 4.2m/s | -60.1°C | 69.2% | 0hPa | 2.7V | 08:30:00 | 01:06:00 | 00:00:00 | |
| DO3MHA-11 | 2026-08-30 23:40:15 | 45.61129 | 9.26291 | 87° | 135km/h | 12750m | 3.9m/s | -60.0°C | 69.3% | 0hPa | 2.7V | 00:00:00 | 01:05:59 | 00:00:00 | |
| DB0UT-7 | 2026-08-30 23:40:12 | 45.61124 | 9.26145 | 88° | 135km/h | 12736m | 4.1m/s | -59.9°C | 70.9% | 0hPa | 2.7V | 00:00:00 | 01:05:56 | 08:30:00 | |
| IW2NTF | 2026-08-30 23:40:07 | 45.61115 | 9.25854 | 88° | 131km/h | 12713m | 3.3m/s | -59.8°C | 71% | 0hPa | 2.7V | 08:30:00 | 01:05:50 | 00:00:00 | |
| DO3MHA-11 | 2026-08-30 23:40:05 | 45.61114 | 9.25807 | 89° | 135km/h | 12710m | 3.6m/s | -59.7°C | 70.5% | 0hPa | 2.7V | 00:00:00 | 01:05:49 | 08:30:00 | |
| IW2NTF | 2026-08-30 23:39:57 | 45.61108 | 9.25367 | 87° | 137km/h | 12674m | 4.4m/s | -59.5°C | 70% | 0hPa | 2.7V | 08:30:00 | 01:05:40 | 00:00:00 | |
| DO3MHA-11 | 2026-08-30 23:39:55 | 45.61107 | 9.25317 | 88° | 135km/h | 12670m | 3.6m/s | -59.4°C | 70.3% | 0hPa | 2.7V | 00:00:00 | 01:05:39 | 00:00:00 | |
| IW2NTF | 2026-08-30 23:39:47 | 45.61099 | 9.24881 | 89° | 133km/h | 12634m | 3.1m/s | -59.3°C | 70.8% | 0hPa | 2.7V | 08:30:00 | 01:05:30 | 00:00:00 | |
| DO3MHA-11 | 2026-08-30 23:39:45 | 45.61099 | 9.24833 | 90° | 137km/h | 12630m | 4.4m/s | -59.2°C | 70.4% | 0hPa | 2.7V | 00:00:00 | 01:05:29 | 00:00:00 | |
| DB0UT-7 | 2026-08-30 23:39:42 | 45.61097 | 9.24686 | 88° | 135km/h | 12618m | 4.7m/s | -59.1°C | 69.9% | 0hPa | 2.7V | 00:00:00 | 00:00:00 | 00:00:00 | |
| IW2NTF | 2026-08-30 23:39:37 | 45.61087 | 9.24385 | 86° | 137km/h | 12593m | 3.7m/s | -59.1°C | 71.5% | 0hPa | 2.7V | 08:30:00 | 01:05:20 | 00:00:00 | |
| DO3MHA-11 | 2026-08-30 23:39:35 | 45.61085 | 9.24336 | 88° | 135km/h | 12589m | 3.6m/s | -59.0°C | 71.3% | 0hPa | 2.7V | 00:00:00 | 01:05:19 | 00:00:00 | |
| IW2NTF | 2026-08-30 23:39:27 | 45.61076 | 9.23900 | 88° | 133km/h | 12554m | 4.5m/s | -58.9°C | 71.9% | 0hPa | 2.8V | 08:30:00 | 01:05:10 | 00:00:00 | |
| DO3MHA-11 | 2026-08-30 23:39:25 | 45.61075 | 9.23852 | 89° | 135km/h | 12550m | 3.1m/s | -58.8°C | 72.2% | 0hPa | 2.8V | 00:00:00 | 01:05:09 | 00:00:00 | |
| IW2NTF | 2026-08-30 23:39:17 | 45.61061 | 9.23416 | 87° | 131km/h | 12514m | 4.7m/s | -58.6°C | 72.1% | 0hPa | 2.8V | 08:30:00 | 01:05:00 | 00:00:00 | |
| DO3MHA-11 | 2026-08-30 23:39:15 | 45.61060 | 9.23369 | 89° | 135km/h | 12511m | 3.5m/s | -58.6°C | 72.5% | 0hPa | 2.8V | 00:00:00 | 01:04:59 | 00:00:00 | |
| DB0UT-7 | 2026-08-30 23:39:12 | 45.61056 | 9.23225 | 88° | 133km/h | 12499m | 3.8m/s | -58.5°C | 71.8% | 0hPa | 2.8V | 00:00:00 | 01:04:56 | 00:00:00 | |
| IW2NTF | 2026-08-30 23:39:07 | 45.61049 | 9.22928 | 87° | 137km/h | 12475m | 3.4m/s | -58.3°C | 71.4% | 0hPa | 2.8V | 08:30:00 | 01:04:50 | 00:00:00 | |
| DO3MHA-11 | 2026-08-30 23:39:05 | 45.61047 | 9.22880 | 89° | 131km/h | 12472m | 4.8m/s | -58.3°C | 71.3% | 0hPa | 2.7V | 00:00:00 | 01:04:49 | 00:00:00 | |
| IW2NTF | 2026-08-30 23:38:57 | 45.61037 | 9.22353 | 89° | 141km/h | 12426m | 3.5m/s | -58°C | 70.6% | 0hPa | 2.8V | 08:30:00 | 01:04:38 | 00:00:00 | |
| DO3MHA-11 | 2026-08-30 23:38:55 | 45.61038 | 9.22403 | 90° | 133km/h | 12430m | 4.7m/s | -57.9°C | 70.6% | 0hPa | 2.7V | 00:00:00 | 01:04:39 | 00:00:00 | |
| IW2NTF | 2026-08-30 23:38:47 | 45.61026 | 9.21873 | 87° | 135km/h | 12387m | 4m/s | -57.6°C | 68.4% | 0hPa | 2.7V | 08:30:00 | 01:04:28 | 00:00:00 | |
| DO3MHA-11 | 2026-08-30 23:38:45 | 45.61028 | 9.21921 | 87° | 133km/h | 12391m | 4.1m/s | -57.6°C | 68.4% | 0hPa | 2.7V | 00:00:00 | 01:04:29 | 00:00:00 | |
| DB0UT-7 | 2026-08-30 23:38:42 | 45.61024 | 9.21775 | 89° | 135km/h | 12379m | 4.2m/s | -57.5°C | 67.8% | 0hPa | 2.7V | 00:00:00 | 00:00:00 | 00:00:00 | |
| IW2NTF | 2026-08-30 23:38:37 | 45.61020 | 9.21344 | 89° | 133km/h | 12341m | 4.8m/s | -57.2°C | 66.3% | 0hPa | 2.7V | 08:30:00 | 01:04:17 | 00:00:00 | |
| DO3MHA-11 | 2026-08-30 23:38:35 | 45.61021 | 9.21439 | 90° | 135km/h | 12349m | 3.7m/s | -57.2°C | 66.8% | 0hPa | 2.7V | 00:00:00 | 01:04:19 | 08:30:00 | |
| IW2NTF | 2026-08-30 23:38:27 | 45.61012 | 9.20848 | 89° | 137km/h | 12303m | 3.7m/s | -56.9°C | 65.7% | 0hPa | 2.8V | 08:30:00 | 01:04:07 | 00:00:00 | |
| DO3MHA-11 | 2026-08-30 23:38:25 | 45.61012 | 9.20948 | 90° | 135km/h | 12311m | 4.2m/s | -56.9°C | 65.4% | 0hPa | 2.7V | 00:00:00 | 01:04:09 | 00:00:00 | |
| IW2NTF | 2026-08-30 23:38:17 | 45.61011 | 9.20361 | 91° | 137km/h | 12262m | 4.1m/s | -56.6°C | 63.3% | 0hPa | 2.7V | 08:30:00 | 01:03:57 | 00:00:00 | |
| DO3MHA-11 | 2026-08-30 23:38:15 | 45.61010 | 9.20460 | 91° | 135km/h | 12270m | 4.7m/s | -56.6°C | 63.7% | 0hPa | 2.8V | 00:00:00 | 01:03:59 | 00:00:00 | |
| DB0UT-7 | 2026-08-30 23:38:12 | 45.61011 | 9.20312 | 91° | 135km/h | 12258m | 4.4m/s | -56.5°C | 63.4% | 0hPa | 2.8V | 00:00:00 | 01:03:56 | 00:00:00 | |
| IW2NTF | 2026-08-30 23:38:07 | 45.61013 | 9.19872 | 92° | 139km/h | 12221m | 4.1m/s | -56.3°C | 62.2% | 0hPa | 2.8V | 08:30:00 | 01:03:47 | 00:00:00 | |
| DO3MHA-11 | 2026-08-30 23:38:05 | 45.61011 | 9.19972 | 90° | 137km/h | 12229m | 3.5m/s | -56.3°C | 62.1% | 0hPa | 2.7V | 00:00:00 | 01:03:49 | 00:00:00 | |
| IW2NTF | 2026-08-30 23:37:57 | 45.61025 | 9.19381 | 91° | 131km/h | 12179m | 4.5m/s | -56°C | 63.5% | 0hPa | 2.7V | 08:30:00 | 01:03:37 | 00:00:00 | |
| DO3MHA-11 | 2026-08-30 23:37:54 | 45.61024 | 9.19429 | 93° | 135km/h | 12183m | 4.6m/s | -56.0°C | 63.0% | 0hPa | 2.8V | 00:00:00 | 01:03:38 | 00:00:00 | |
| IW2NTF | 2026-08-30 23:37:47 | 45.61031 | 9.18891 | 92° | 137km/h | 12136m | 3.3m/s | -55.8°C | 64% | 0hPa | 2.8V | 08:30:00 | 01:03:27 | 00:00:00 | |
| DO3MHA-11 | 2026-08-30 23:37:44 | 45.61029 | 9.18940 | 93° | 133km/h | 12139m | 3.6m/s | -55.8°C | 64.4% | 0hPa | 2.7V | 00:00:00 | 01:03:28 | 00:00:00 | |
| DB0UT-7 | 2026-08-30 23:37:42 | 45.61032 | 9.18842 | 92° | 133km/h | 12132m | 5.0m/s | -55.7°C | 63.2% | 0hPa | 2.7V | 00:00:00 | 00:00:00 | 00:00:00 | |
| IW2NTF | 2026-08-30 23:37:37 | 45.61034 | 9.18416 | 90° | 133km/h | 12092m | 4.5m/s | -55.4°C | 61.6% | 0hPa | 2.7V | 08:30:00 | 01:03:17 | 00:00:00 | |
| DO3MHA-11 | 2026-08-30 23:37:34 | 45.61034 | 9.18464 | 91° | 133km/h | 12096m | 2.8m/s | -55.4°C | 63.0% | 0hPa | 2.7V | 00:00:00 | 01:03:18 | 00:00:00 | |
| IW2NTF | 2026-08-30 23:37:27 | 45.61036 | 9.17938 | 88° | 131km/h | 12040m | 3m/s | -54.9°C | 55.4% | 0hPa | 2.8V | 08:30:00 | 01:03:07 | 00:00:00 | |
| DO3MHA-11 | 2026-08-30 23:37:24 | 45.61037 | 9.17984 | 88° | 133km/h | 12045m | 6.8m/s | -54.9°C | 55.2% | 0hPa | 2.8V | 00:00:00 | 01:03:08 | 00:00:00 | |
| IW2NTF | 2026-08-30 23:37:17 | 45.61034 | 9.17457 | 88° | 130km/h | 11989m | 5m/s | -54.5°C | 55.5% | 0hPa | 2.8V | 08:30:00 | 01:02:57 | 00:00:00 | |
| DO3MHA-11 | 2026-08-30 23:37:14 | 45.61035 | 9.17503 | 88° | 131km/h | 11993m | 4.4m/s | -54.5°C | 56.1% | 0hPa | 2.7V | 00:00:00 | 01:02:58 | 00:00:00 | |
| DB0UT-7 | 2026-08-30 23:37:12 | 45.61034 | 9.17410 | 90° | 130km/h | 11984m | 5.2m/s | -54.4°C | 55.5% | 0hPa | 2.7V | 00:00:00 | 01:02:56 | 00:00:00 | |
| IW2NTF | 2026-08-30 23:37:07 | 45.61032 | 9.16939 | 87° | 128km/h | 11934m | 7.1m/s | -54°C | 54.2% | 0hPa | 2.7V | 08:30:00 | 01:02:46 | 00:00:00 | |
| DO3MHA-11 | 2026-08-30 23:37:04 | 45.61034 | 9.17032 | 89° | 130km/h | 11944m | 6.8m/s | -54.1°C | 54.4% | 0hPa | 2.7V | 00:00:00 | 01:02:48 | 08:30:00 | |
| IW2NTF | 2026-08-30 23:36:57 | 45.61015 | 9.16476 | 87° | 124km/h | 11878m | 7.3m/s | -53.6°C | 55.3% | 0hPa | 2.7V | 08:30:00 | 01:02:36 | 00:00:00 | |
| DO3MHA-11 | 2026-08-30 23:36:54 | 45.61018 | 9.16565 | 88° | 126km/h | 11889m | 6.4m/s | -53.6°C | 54.0% | 0hPa | 2.7V | 00:00:00 | 01:02:38 | 00:00:00 | |
| IW2NTF | 2026-08-30 23:36:47 | 45.60998 | 9.16014 | 84° | 131km/h | 11825m | 3.5m/s | -53.3°C | 60.3% | 0hPa | 2.7V | 08:30:00 | 01:02:26 | 00:00:00 | |
| DO3MHA-11 | 2026-08-30 23:36:44 | 45.61004 | 9.16107 | 86° | 128km/h | 11837m | 6.6m/s | -53.4°C | 59.6% | 0hPa | 2.7V | 00:00:00 | 01:02:28 | 00:00:00 | |
| DB0UT-7 | 2026-08-30 23:36:42 | 45.60998 | 9.16014 | 85° | 128km/h | 11826m | 3.4m/s | -53.3°C | 60.3% | 0hPa | 2.7V | 00:00:00 | 00:00:00 | 00:00:00 | |
| IW2NTF | 2026-08-30 23:36:37 | 45.60984 | 9.15555 | 87° | 130km/h | 11770m | 6.6m/s | -52.9°C | 63.8% | 0hPa | 2.7V | 08:30:00 | 01:02:16 | 00:00:00 | |
| DO3MHA-11 | 2026-08-30 23:36:34 | 45.60986 | 9.15647 | 89° | 126km/h | 11782m | 5.7m/s | 0°C | 0% | 0hPa | 2.7V | 00:00:00 | 01:02:18 | 00:00:00 | |
| IW2NTF | 2026-08-30 23:36:27 | 45.60959 | 9.15100 | 87° | 130km/h | 11713m | 6.1m/s | -52.7°C | 67.7% | 0hPa | 2.7V | 08:30:00 | 01:02:06 | 00:00:00 | |
| DO3MHA-11 | 2026-08-30 23:36:24 | 45.60962 | 9.15192 | 87° | 130km/h | 11724m | 5.1m/s | -52.7°C | 67.9% | 0hPa | 2.8V | 00:00:00 | 01:02:08 | 00:00:00 | |
| IW2NTF | 2026-08-30 23:36:15 | 45.60936 | 9.14540 | 87° | 128km/h | 11645m | 5.8m/s | -52.3°C | 68.2% | 0hPa | 2.8V | 08:30:00 | 01:01:54 | 00:00:00 | |
| DO3MHA-11 | 2026-08-30 23:36:14 | 45.60945 | 9.14725 | 86° | 130km/h | 11666m | 4.2m/s | -52.4°C | 68.0% | 0hPa | 2.8V | 00:00:00 | 01:01:58 | 00:00:00 | |
| DB0UT-7 | 2026-08-30 23:36:12 | 45.60940 | 9.14632 | 86° | 128km/h | 11655m | 6.5m/s | -52.3°C | 67.2% | 0hPa | 2.8V | 00:00:00 | 01:01:56 | 00:00:00 | |
| IW2NTF | 2026-08-30 23:36:06 | 45.60916 | 9.14080 | 80° | 122km/h | 11598m | 5.6m/s | -51.9°C | 66.6% | 0hPa | 2.8V | 08:30:00 | 01:01:44 | 00:00:00 | |
| DO3MHA-11 | 2026-08-30 23:36:06 | 45.60928 | 9.14258 | 89° | 126km/h | 11617m | 4.3m/s | -52.0°C | 67.3% | 0hPa | 2.7V | 00:00:00 | 01:01:48 | 00:00:00 | |
| DO3MHA-11 | 2026-08-30 23:35:54 | 45.60890 | 9.13808 | 86° | 128km/h | 11568m | 6.8m/s | 0°C | 0% | 0hPa | 2.7V | 00:00:00 | 01:01:38 | 00:00:00 | |
| IW2NTF | 2026-08-30 23:35:50 | 45.60883 | 9.13625 | 87° | 130km/h | 11546m | 3.4m/s | -51.5°C | 65% | 0hPa | 2.7V | 08:30:00 | 01:01:34 | 00:00:00 | |
| IW2NTF | 2026-08-30 23:35:45 | 45.60849 | 9.13167 | 82° | 126km/h | 11489m | 5.8m/s | -50.9°C | 60.8% | 0hPa | 2.7V | 08:30:00 | 01:01:24 | 00:00:00 | |
| DO3MHA-11 | 2026-08-30 23:35:44 | 45.60867 | 9.13347 | 83° | 126km/h | 11511m | 6.0m/s | 0°C | 0% | 0hPa | 2.7V | 00:00:00 | 01:01:28 | 00:00:00 | |
| DB0UT-7 | 2026-08-30 23:35:42 | 45.60858 | 9.13257 | 82° | 126km/h | 11500m | 3.0m/s | -51.0°C | 62.5% | 0hPa | 2.7V | 00:00:00 | 00:00:00 | 08:30:00 | |
| IW2NTF | 2026-08-30 23:35:35 | 45.60815 | 9.12713 | 83° | 119km/h | 11437m | 3.6m/s | -50.4°C | 57.4% | 0hPa | 2.8V | 08:30:00 | 01:01:14 | 00:00:00 | |
| DO3MHA-11 | 2026-08-30 23:35:34 | 45.60829 | 9.12890 | 84° | 124km/h | 11456m | 3.7m/s | 0°C | 0% | 0hPa | 2.8V | 00:00:00 | 01:01:18 | 08:30:00 | |
| IW2NTF | 2026-08-30 23:35:25 | 45.60782 | 9.12266 | 83° | 122km/h | 11383m | 5.5m/s | -49.9°C | 56.1% | 0hPa | 2.8V | 08:30:00 | 01:01:04 | 00:00:00 | |
| DO3MHA-11 | 2026-08-30 23:35:24 | 45.60796 | 9.12445 | 85° | 126km/h | 11404m | 4.8m/s | 0°C | 0% | 0hPa | 2.7V | 00:00:00 | 01:01:08 | 00:00:00 | |
| IW2NTF | 2026-08-30 23:35:15 | 45.60751 | 9.11815 | 84° | 126km/h | 11329m | 5.4m/s | -49.6°C | 58.7% | 0hPa | 2.7V | 08:30:00 | 01:00:54 | 00:00:00 | |
| DO3MHA-11 | 2026-08-30 23:35:14 | 45.60762 | 9.11994 | 85° | 124km/h | 11353m | 6.0m/s | 0°C | 0% | 0hPa | 2.7V | 00:00:00 | 01:00:58 | 00:00:00 | |
| IW2NTF | 2026-08-30 23:35:05 | 45.60724 | 9.11376 | 83° | 128km/h | 11268m | 6.1m/s | -49.1°C | 57.5% | 0hPa | 2.7V | 08:30:00 | 01:00:44 | 00:00:00 | |
| DO3MHA-11 | 2026-08-30 23:35:03 | 45.60733 | 9.11507 | 86° | 128km/h | 11287m | 7.7m/s | 0°C | 0% | 0hPa | 2.7V | 00:00:00 | 01:00:47 | 00:00:00 | |
| IW2NTF | 2026-08-30 23:34:55 | 45.60694 | 9.10917 | 87° | 122km/h | 11208m | 8m/s | -48.7°C | 56.2% | 0hPa | 2.7V | 08:30:00 | 01:00:34 | 00:00:00 | |
| DO3MHA-11 | 2026-08-30 23:34:53 | 45.60700 | 9.11048 | 86° | 124km/h | 11228m | 7.3m/s | 0°C | 0% | 0hPa | 2.8V | 00:00:00 | 01:00:37 | 00:00:00 | |
| IW2NTF | 2026-08-30 23:34:45 | 45.60662 | 9.10478 | 83° | 113km/h | 11152m | 5.1m/s | -48.2°C | 52.3% | 0hPa | 2.8V | 08:30:00 | 01:00:24 | 00:00:00 | |
| DO3MHA-11 | 2026-08-30 23:34:43 | 45.60673 | 9.10602 | 84° | 120km/h | 11167m | 5.5m/s | 0°C | 0% | 0hPa | 2.7V | 00:00:00 | 01:00:27 | 00:00:00 | |
| DB0UT-7 | 2026-08-30 23:34:42 | 45.60670 | 9.10560 | 83° | 120km/h | 11162m | 4.3m/s | -48.3°C | 53.5% | 0hPa | 2.7V | 00:00:00 | 00:00:00 | 00:00:00 | |
| DO3MHA-11 | 2026-08-30 23:34:33 | 45.60645 | 9.10173 | 85° | 122km/h | 11111m | 5.8m/s | 0°C | 0% | 0hPa | 2.7V | 00:00:00 | 01:00:17 | 00:00:00 | |
| IW2NTF | 2026-08-30 23:34:31 | 45.60632 | 9.09955 | 85° | 119km/h | 11081m | 3.2m/s | -47.6°C | 49.1% | 0hPa | 2.7V | 08:30:00 | 01:00:12 | 00:00:00 | |
| DO3MHA-11 | 2026-08-30 23:34:23 | 45.60623 | 9.09731 | 87° | 122km/h | 11052m | 5.2m/s | 0°C | 0% | 0hPa | 2.8V | 00:00:00 | 01:00:07 | 00:00:00 | |
| IW2NTF | 2026-08-30 23:34:20 | 45.60609 | 9.09515 | 82° | 117km/h | 11021m | 6.7m/s | -47°C | 45.5% | 0hPa | 2.8V | 08:30:00 | 01:00:02 | 00:00:00 | |
| DO3MHA-11 | 2026-08-30 23:34:13 | 45.60590 | 9.09301 | 85° | 119km/h | 10990m | 7.1m/s | 0°C | 0% | 0hPa | 2.7V | 00:00:00 | 00:59:57 | 00:00:00 | |
| DB0UT-7 | 2026-08-30 23:34:12 | 45.60588 | 9.09258 | 86° | 119km/h | 10984m | 4.7m/s | -46.6°C | 43.9% | 0hPa | 2.7V | 00:00:00 | 00:59:56 | 00:00:00 | |
| IW2NTF | 2026-08-30 23:34:10 | 45.60574 | 9.09004 | 85° | 119km/h | 10947m | 8m/s | -46.3°C | 41% | 0hPa | 2.7V | 08:30:00 | 00:59:50 | 00:00:00 | |
| DO3MHA-11 | 2026-08-30 23:34:03 | 45.60566 | 9.08873 | 85° | 119km/h | 10932m | 6.0m/s | 0°C | 0% | 0hPa | 2.8V | 00:00:00 | 00:59:47 | 00:00:00 | |
| IW2NTF | 2026-08-30 23:34:00 | 45.60548 | 9.08574 | 86° | 120km/h | 10897m | 5.4m/s | -45.8°C | 37.3% | 0hPa | 2.8V | 08:30:00 | 00:59:40 | 00:00:00 | |
| IW2NTF | 2026-08-30 23:33:50 | 45.60516 | 9.08107 | 81° | 117km/h | 10847m | 4.8m/s | -45.4°C | 32.9% | 0hPa | 2.8V | 08:30:00 | 00:59:29 | 00:00:00 | |
| DB0UT-7 | 2026-08-30 23:33:42 | 45.60506 | 9.07982 | 85° | 119km/h | 10834m | 4.8m/s | -45.2°C | 31.8% | 0hPa | 2.8V | 00:00:00 | 00:00:00 | 00:00:00 | |
| IW2NTF | 2026-08-30 23:33:40 | 45.60482 | 9.07680 | 84° | 120km/h | 10803m | 4.6m/s | -45°C | 28.4% | 0hPa | 2.8V | 08:30:00 | 00:59:19 | 00:00:00 | |
| IW2NTF | 2026-08-30 23:33:29 | 45.60443 | 9.07164 | 83° | 122km/h | 10747m | 4.3m/s | -44.5°C | 26.9% | 0hPa | 2.8V | 08:30:00 | 00:59:07 | 00:00:00 | |
| IW2NTF | 2026-08-30 23:33:16 | 45.60407 | 9.06742 | 82° | 119km/h | 10702m | 3.6m/s | -44.1°C | 25.5% | 0hPa | 2.7V | 08:30:00 | 00:58:57 | 00:00:00 | |
| DB0UT-7 | 2026-08-30 23:33:12 | 45.60404 | 9.06699 | 84° | 119km/h | 10698m | 5.0m/s | -44.0°C | 25.1% | 0hPa | 2.8V | 00:00:00 | 00:58:56 | 00:00:00 | |
| IW2NTF | 2026-08-30 23:33:08 | 45.60374 | 9.06320 | 82° | 117km/h | 10658m | 4.4m/s | -43.7°C | 24.3% | 0hPa | 2.8V | 08:30:00 | 00:58:47 | 00:00:00 | |
| IW2NTF | 2026-08-30 23:32:58 | 45.60339 | 9.05889 | 84° | 117km/h | 10613m | 4.5m/s | -43.3°C | 23.5% | 0hPa | 2.8V | 08:30:00 | 00:58:37 | 00:00:00 | |
| IW2NTF | 2026-08-30 23:32:46 | 45.60301 | 9.05468 | 81° | 120km/h | 10570m | 4.2m/s | -42.9°C | 22.9% | 0hPa | 2.7V | 08:30:00 | 00:58:27 | 00:00:00 | |
| DB0UT-7 | 2026-08-30 23:32:42 | 45.60297 | 9.05425 | 82° | 117km/h | 10566m | 3.8m/s | -42.9°C | 22.8% | 0hPa | 2.7V | 00:00:00 | 00:00:00 | 00:00:00 | |
| IW2NTF | 2026-08-30 23:32:30 | 45.60248 | 9.04920 | 79° | 117km/h | 10514m | 4.3m/s | -42.4°C | 22% | 0hPa | 2.8V | 08:30:00 | 00:58:14 | 00:00:00 | |
| IW2NTF | 2026-08-30 23:32:20 | 45.60204 | 9.04461 | 84° | 110km/h | 10467m | 3.8m/s | -42°C | 21.4% | 0hPa | 2.7V | 08:30:00 | 00:58:03 | 00:00:00 | |
| DB0UT-7 | 2026-08-30 23:32:12 | 45.60178 | 9.04171 | 81° | 117km/h | 10438m | 5.1m/s | -41.7°C | 21.2% | 0hPa | 2.8V | 00:00:00 | 00:57:56 | 00:00:00 | |
| IW2NTF | 2026-08-30 23:32:10 | 45.60166 | 9.04046 | 83° | 117km/h | 10426m | 4.7m/s | -41.6°C | 21% | 0hPa | 2.8V | 08:30:00 | 00:57:53 | 00:00:00 | |
| IW2NTF | 2026-08-30 23:32:00 | 45.60128 | 9.03542 | 82° | 111km/h | 10373m | 3.5m/s | -41.2°C | 20.7% | 0hPa | 2.8V | 08:30:00 | 00:57:41 | 00:00:00 | |
| IW2NTF | 2026-08-30 23:31:50 | 45.60091 | 9.03127 | 80° | 110km/h | 10326m | 5.7m/s | -40.7°C | 20.2% | 0hPa | 2.9V | 08:30:00 | 00:57:31 | 00:00:00 | |
| DB0UT-7 | 2026-08-30 23:31:42 | 45.60063 | 9.02927 | 80° | 113km/h | 10300m | 6.2m/s | 0°C | 0% | 0hPa | 2.7V | 00:00:00 | 00:00:00 | 00:00:00 | |
| IW2NTF | 2026-08-30 23:31:40 | 45.60043 | 9.02722 | 83° | 119km/h | 10275m | 5.7m/s | -40.3°C | 19.5% | 0hPa | 2.7V | 08:30:00 | 00:57:21 | 00:00:00 | |
| IW2NTF | 2026-08-30 23:31:30 | 45.59995 | 9.02316 | 79° | 111km/h | 10226m | 4.3m/s | -39.9°C | 19.4% | 0hPa | 2.9V | 08:30:00 | 00:57:11 | 00:00:00 | |
| IW2NTF | 2026-08-30 23:31:20 | 45.59943 | 9.01919 | 80° | 115km/h | 10178m | 5m/s | -39.5°C | 19.4% | 0hPa | 2.7V | 08:30:00 | 00:57:01 | 00:00:00 | |
| DB0UT-7 | 2026-08-30 23:31:12 | 45.59918 | 9.01715 | 78° | 117km/h | 10156m | 4.5m/s | 0°C | 0% | 0hPa | 2.9V | 00:00:00 | 00:56:56 | 00:00:00 | |
| IW2NTF | 2026-08-30 23:31:08 | 45.59884 | 9.01511 | 77° | 115km/h | 10133m | 3.8m/s | -39.2°C | 19.4% | 0hPa | 2.9V | 08:30:00 | 00:56:51 | 00:00:00 | |
| IW2NTF | 2026-08-30 23:30:58 | 45.59832 | 9.01099 | 79° | 124km/h | 10086m | 4.2m/s | -39°C | 21.4% | 0hPa | 2.7V | 08:30:00 | 00:56:41 | 00:00:00 | |
| IW2NTF | 2026-08-30 23:30:48 | 45.59770 | 9.00685 | 78° | 111km/h | 10033m | 3.4m/s | -38.5°C | 21.2% | 0hPa | 2.9V | 08:30:00 | 00:56:31 | 00:00:00 | |
| IW2NTF | 2026-08-30 23:30:38 | 45.59718 | 9.00291 | 76° | 117km/h | 9983m | 6.9m/s | -38.2°C | 21.8% | 0hPa | 2.7V | 08:30:00 | 00:56:21 | 00:00:00 | |
| IW2NTF | 2026-08-30 23:30:28 | 45.59658 | 8.99884 | 82° | 102km/h | 9928m | 4.2m/s | -37.8°C | 22.1% | 0hPa | 2.9V | 08:30:00 | 00:56:11 | 00:00:00 | |
| IW2NTF | 2026-08-30 23:30:20 | 45.59607 | 8.99500 | 75° | 108km/h | 9870m | 5.6m/s | -37.2°C | 21.3% | 0hPa | 2.7V | 08:30:00 | 00:56:01 | 00:00:00 | |
| IW2NTF | 2026-08-30 23:30:09 | 45.59542 | 8.99058 | 83° | 113km/h | 9812m | 6.4m/s | -36.8°C | 21.2% | 0hPa | 2.9V | 08:30:00 | 00:55:50 | 00:00:00 | |
| IW2NTF | 2026-08-30 23:29:59 | 45.59492 | 8.98680 | 77° | 113km/h | 9759m | 3m/s | -36.4°C | 20.9% | 0hPa | 2.7V | 08:30:00 | 00:55:40 | 00:00:00 | |
| IW2NTF | 2026-08-30 23:29:48 | 45.59443 | 8.98290 | 80° | 106km/h | 9708m | 5.8m/s | -35.9°C | 20.5% | 0hPa | 2.9V | 08:30:00 | 00:55:30 | 00:00:00 | |
| IW2NTF | 2026-08-30 23:29:39 | 45.59388 | 8.97898 | 77° | 108km/h | 9655m | 5.6m/s | -35.5°C | 21.1% | 0hPa | 2.9V | 08:30:00 | 00:55:20 | 00:00:00 | |
| IW2NTF | 2026-08-30 23:29:28 | 45.59328 | 8.97518 | 76° | 113km/h | 9609m | 4.2m/s | -35.1°C | 22.9% | 0hPa | 2.9V | 08:30:00 | 00:55:10 | 00:00:00 | |
| IW2NTF | 2026-08-30 23:29:19 | 45.59262 | 8.97134 | 80° | 111km/h | 9558m | 6m/s | -34.6°C | 23.2% | 0hPa | 2.9V | 08:30:00 | 00:55:00 | 00:00:00 | |
| IW2NTF | 2026-08-30 23:29:08 | 45.59192 | 8.96751 | 75° | 113km/h | 9512m | 6.3m/s | -34.3°C | 25.7% | 0hPa | 2.7V | 08:30:00 | 00:54:50 | 00:00:00 | |
| IW2NTF | 2026-08-30 23:28:58 | 45.59127 | 8.96359 | 77° | 108km/h | 9466m | 4m/s | -33.9°C | 26.7% | 0hPa | 2.9V | 08:30:00 | 00:54:40 | 00:00:00 | |
| IW2NTF | 2026-08-30 23:28:48 | 45.59058 | 8.95973 | 75° | 104km/h | 9425m | 2.8m/s | -33.5°C | 26.6% | 0hPa | 2.9V | 08:30:00 | 00:54:30 | 00:00:00 | |
| IW2NTF | 2026-08-30 23:28:39 | 45.58987 | 8.95597 | 73° | 117km/h | 9382m | 5.1m/s | -33.1°C | 25.2% | 0hPa | 2.7V | 08:30:00 | 00:54:20 | 00:00:00 | |
| IW2NTF | 2026-08-30 23:28:29 | 45.58922 | 8.95219 | 76° | 102km/h | 9338m | 6.3m/s | -32.7°C | 24.7% | 0hPa | 2.9V | 08:30:00 | 00:54:10 | 00:00:00 | |
| IW2NTF | 2026-08-30 23:28:18 | 45.58839 | 8.94842 | 71° | 113km/h | 9292m | 5.6m/s | -32.3°C | 23.8% | 0hPa | 2.9V | 08:30:00 | 00:54:00 | 00:00:00 | |
| IW2NTF | 2026-08-30 23:28:09 | 45.58766 | 8.94452 | 77° | 110km/h | 9238m | 4.8m/s | -31.9°C | 22.7% | 0hPa | 2.9V | 08:30:00 | 00:53:50 | 00:00:00 | |
| IW2NTF | 2026-08-30 23:27:59 | 45.58699 | 8.94064 | 79° | 110km/h | 9191m | 3.6m/s | -31.5°C | 21.5% | 0hPa | 2.8V | 08:30:00 | 00:53:40 | 00:00:00 | |
| IW2NTF | 2026-08-30 23:27:49 | 45.58631 | 8.93674 | 75° | 110km/h | 9150m | 4.6m/s | -31.2°C | 20.6% | 0hPa | 2.9V | 08:30:00 | 00:53:30 | 00:00:00 | |
| IW2NTF | 2026-08-30 23:27:38 | 45.58565 | 8.93307 | 72° | 108km/h | 9108m | 6.2m/s | -30.8°C | 19.7% | 0hPa | 2.9V | 08:30:00 | 00:53:20 | 00:00:00 | |
| IW2NTF | 2026-08-30 23:27:28 | 45.58498 | 8.92932 | 75° | 104km/h | 9055m | 6.5m/s | -30.6°C | 23.9% | 0hPa | 2.9V | 08:30:00 | 00:53:10 | 00:00:00 | |
| IW2NTF | 2026-08-30 23:27:21 | 45.58438 | 8.92565 | 76° | 104km/h | 9001m | 5.6m/s | -30.1°C | 24.4% | 0hPa | 2.8V | 08:30:00 | 00:53:00 | 00:00:00 | |
| IW2NTF | 2026-08-30 23:27:08 | 45.58376 | 8.92210 | 75° | 99km/h | 8947m | 4.6m/s | -29.7°C | 26.5% | 0hPa | 2.9V | 08:30:00 | 00:52:50 | 00:00:00 | |
| IW2NTF | 2026-08-30 23:27:02 | 45.58306 | 8.91862 | 76° | 97km/h | 8899m | 5.3m/s | -29.3°C | 27.3% | 0hPa | 2.8V | 08:30:00 | 00:52:40 | 00:00:00 | |
| IW2NTF | 2026-08-30 23:26:48 | 45.58231 | 8.91508 | 73° | 102km/h | 8855m | 4.5m/s | -29°C | 27.5% | 0hPa | 2.8V | 08:30:00 | 00:52:30 | 00:00:00 | |
| IW2NTF | 2026-08-30 23:26:42 | 45.58162 | 8.91154 | 74° | 106km/h | 8815m | 4.4m/s | -28.6°C | 26.5% | 0hPa | 2.9V | 08:30:00 | 00:52:20 | 00:00:00 | |
| IW2NTF | 2026-08-30 23:26:28 | 45.58087 | 8.90787 | 72° | 104km/h | 8772m | 4.2m/s | -28.2°C | 24.8% | 0hPa | 2.9V | 08:30:00 | 00:52:10 | 00:00:00 | |
| IW2NTF | 2026-08-30 23:26:21 | 45.58018 | 8.90428 | 76° | 104km/h | 8724m | 4.4m/s | -27.8°C | 19.1% | 0hPa | 2.8V | 08:30:00 | 00:52:00 | 00:00:00 | |
| IW2NTF | 2026-08-30 23:26:08 | 45.57940 | 8.90067 | 70° | 108km/h | 8682m | 4.2m/s | -27.5°C | 17.5% | 0hPa | 2.8V | 08:30:00 | 00:51:50 | 00:00:00 | |
| IW2NTF | 2026-08-30 23:26:02 | 45.57873 | 8.89707 | 74° | 106km/h | 8640m | 4.8m/s | -27.2°C | 16.3% | 0hPa | 2.9V | 08:30:00 | 00:51:40 | 00:00:00 | |
| IW2NTF | 2026-08-30 23:25:48 | 45.57809 | 8.89339 | 74° | 104km/h | 8597m | 3.5m/s | -26.8°C | 15% | 0hPa | 2.9V | 08:30:00 | 00:51:30 | 00:00:00 | |
| IW2NTF | 2026-08-30 23:25:41 | 45.57738 | 8.88977 | 78° | 104km/h | 8547m | 3.8m/s | -26.4°C | 13.7% | 0hPa | 2.9V | 08:30:00 | 00:51:20 | 00:00:00 | |
| IW2NTF | 2026-08-30 23:25:28 | 45.57668 | 8.88623 | 69° | 102km/h | 8499m | 5.5m/s | -26°C | 13% | 0hPa | 2.9V | 08:30:00 | 00:51:10 | 00:00:00 | |
| IW2NTF | 2026-08-30 23:25:22 | 45.57604 | 8.88279 | 74° | 95km/h | 8447m | 5.5m/s | -25.7°C | 11.3% | 0hPa | 2.9V | 08:30:00 | 00:51:00 | 00:00:00 | |
| IW2NTF | 2026-08-30 23:25:08 | 45.57527 | 8.87950 | 74° | 100km/h | 8400m | 3.4m/s | -25.3°C | 10.6% | 0hPa | 2.9V | 08:30:00 | 00:50:50 | 00:00:00 | |
| IW2NTF | 2026-08-30 23:25:02 | 45.57446 | 8.87621 | 70° | 97km/h | 8345m | 5m/s | -24.9°C | 8.6% | 0hPa | 2.9V | 08:30:00 | 00:50:40 | 00:00:00 | |
| IW2NTF | 2026-08-30 23:24:48 | 45.57371 | 8.87301 | 67° | 91km/h | 8288m | 5m/s | -24.6°C | 7.1% | 0hPa | 2.9V | 08:30:00 | 00:50:30 | 00:00:00 | |
| IW2NTF | 2026-08-30 23:24:42 | 45.57288 | 8.86984 | 73° | 102km/h | 8240m | 5.3m/s | -24.5°C | 7.4% | 0hPa | 2.9V | 08:30:00 | 00:50:20 | 00:00:00 | |
| IW2NTF | 2026-08-30 23:24:28 | 45.57205 | 8.86659 | 69° | 86km/h | 8187m | 6.3m/s | -24.3°C | 8.7% | 0hPa | 2.9V | 08:30:00 | 00:50:10 | 00:00:00 | |
| IW2NTF | 2026-08-30 23:24:21 | 45.57125 | 8.86334 | 68° | 104km/h | 8131m | 5.3m/s | -24°C | 9.2% | 0hPa | 2.9V | 08:30:00 | 00:50:00 | 00:00:00 | |
| IW2NTF | 2026-08-30 23:24:11 | 45.57050 | 8.86012 | 72° | 95km/h | 8079m | 4.4m/s | -23.6°C | 9.2% | 0hPa | 2.9V | 08:30:00 | 00:49:50 | 00:00:00 | |
| IW2NTF | 2026-08-30 23:24:01 | 45.56961 | 8.85676 | 73° | 93km/h | 8019m | 5.7m/s | -23.3°C | 11.3% | 0hPa | 2.9V | 08:30:00 | 00:49:40 | 00:00:00 | |
| IW2NTF | 2026-08-30 23:23:51 | 45.56887 | 8.85355 | 72° | 95km/h | 7962m | 4m/s | -22.9°C | 10% | 0hPa | 2.8V | 08:30:00 | 00:49:30 | 00:00:00 | |
| IW2NTF | 2026-08-30 23:23:41 | 45.56811 | 8.85046 | 75° | 93km/h | 7916m | 4.3m/s | -22.6°C | 9.5% | 0hPa | 2.9V | 08:30:00 | 00:49:20 | 00:00:00 | |
| IW2NTF | 2026-08-30 23:23:32 | 45.56735 | 8.84729 | 71° | 91km/h | 7865m | 5.5m/s | -22.4°C | 11.8% | 0hPa | 2.9V | 08:30:00 | 00:49:10 | 00:00:00 | |
| IW2NTF | 2026-08-30 23:23:21 | 45.56675 | 8.84428 | 74° | 89km/h | 7810m | 6.5m/s | -22.1°C | 14.5% | 0hPa | 2.9V | 08:30:00 | 00:49:00 | 00:00:00 | |
| IW2NTF | 2026-08-30 23:23:10 | 45.56607 | 8.84104 | 71° | 89km/h | 7748m | 6m/s | -21.7°C | 14.2% | 0hPa | 2.9V | 08:30:00 | 00:48:49 | 00:00:00 | |
| IW2NTF | 2026-08-30 23:22:55 | 45.56528 | 8.83768 | 72° | 78km/h | 7691m | 5.1m/s | -21.3°C | 14.6% | 0hPa | 2.9V | 08:30:00 | 00:48:37 | 00:00:00 | |
| IW2NTF | 2026-08-30 23:22:44 | 45.56470 | 8.83484 | 71° | 80km/h | 7647m | 4.8m/s | -20.9°C | 14.7% | 0hPa | 2.9V | 08:30:00 | 00:48:27 | 00:00:00 | |
| IW2NTF | 2026-08-30 23:22:34 | 45.56405 | 8.83178 | 77° | 80km/h | 7596m | 4m/s | -20.5°C | 12.7% | 0hPa | 2.9V | 08:30:00 | 00:48:16 | 00:00:00 | |
| IW2NTF | 2026-08-30 23:22:24 | 45.56336 | 8.82897 | 72° | 93km/h | 7538m | 6.4m/s | -20°C | 12% | 0hPa | 2.9V | 08:30:00 | 00:48:06 | 00:00:00 | |
| IW2NTF | 2026-08-30 23:22:14 | 45.56270 | 8.82544 | 68° | 82km/h | 7454m | 4.1m/s | -19.4°C | 12.6% | 0hPa | 2.9V | 08:30:00 | 00:47:53 | 00:00:00 | |
| IW2NTF | 2026-08-30 23:22:04 | 45.56192 | 8.82256 | 73° | 78km/h | 7381m | 7.5m/s | -18.7°C | 11.3% | 0hPa | 2.9V | 08:30:00 | 00:47:42 | 00:00:00 | |
| IW2NTF | 2026-08-30 23:21:54 | 45.56134 | 8.81985 | 75° | 84km/h | 7322m | 4.9m/s | -18.2°C | 10.7% | 0hPa | 2.9V | 08:30:00 | 00:47:32 | 00:00:00 | |
| IW2NTF | 2026-08-30 23:21:44 | 45.56088 | 8.81727 | 79° | 80km/h | 7274m | 4.4m/s | -17.8°C | 11.5% | 0hPa | 2.9V | 08:30:00 | 00:47:22 | 00:00:00 | |
| IW2NTF | 2026-08-30 23:21:28 | 45.56031 | 8.81454 | 70° | 80km/h | 7218m | 4.7m/s | -17.4°C | 11.1% | 0hPa | 2.8V | 08:30:00 | 00:47:12 | 00:00:00 | |
| IW2NTF | 2026-08-30 23:21:23 | 45.55971 | 8.81183 | 67° | 78km/h | 7165m | 6.3m/s | -16.9°C | 10.6% | 0hPa | 2.9V | 08:30:00 | 00:47:02 | 00:00:00 | |
| IW2NTF | 2026-08-30 23:21:13 | 45.55910 | 8.80921 | 68° | 73km/h | 7109m | 4.5m/s | -16.4°C | 10.6% | 0hPa | 2.9V | 08:30:00 | 00:46:52 | 00:00:00 | |
| IW2NTF | 2026-08-30 23:21:01 | 45.55855 | 8.80660 | 75° | 82km/h | 7060m | 6m/s | -16°C | 10.7% | 0hPa | 2.9V | 08:30:00 | 00:46:42 | 00:00:00 | |
| IW2NTF | 2026-08-30 23:20:53 | 45.55796 | 8.80405 | 71° | 73km/h | 7000m | 5m/s | -15.6°C | 10.3% | 0hPa | 2.9V | 08:30:00 | 00:46:32 | 00:00:00 | |
| IW2NTF | 2026-08-30 23:20:41 | 45.55732 | 8.80152 | 72° | 75km/h | 6942m | 5.2m/s | -15.1°C | 9.9% | 0hPa | 2.9V | 08:30:00 | 00:46:22 | 00:00:00 | |
| IW2NTF | 2026-08-30 23:20:31 | 45.55685 | 8.79894 | 76° | 73km/h | 6886m | 5.5m/s | -14.8°C | 9.7% | 0hPa | 2.9V | 08:30:00 | 00:46:12 | 00:00:00 | |
| IW2NTF | 2026-08-30 23:20:21 | 45.55625 | 8.79626 | 74° | 75km/h | 6820m | 5.7m/s | -14.4°C | 10% | 0hPa | 2.9V | 08:30:00 | 00:46:01 | 00:00:00 | |
| IW2NTF | 2026-08-30 23:20:11 | 45.55574 | 8.79365 | 72° | 68km/h | 6764m | 5.7m/s | -14.2°C | 17.7% | 0hPa | 2.9V | 08:30:00 | 00:45:51 | 00:00:00 | |
| IW2NTF | 2026-08-30 23:20:01 | 45.55521 | 8.79119 | 79° | 75km/h | 6709m | 5.9m/s | -13.9°C | 18.2% | 0hPa | 2.8V | 08:30:00 | 00:45:41 | 00:00:00 | |
| IW2NTF | 2026-08-30 23:19:51 | 45.55483 | 8.78871 | 76° | 73km/h | 6658m | 7.8m/s | -13.8°C | 29.3% | 0hPa | 2.8V | 08:30:00 | 00:45:31 | 00:00:00 | |
| IW2NTF | 2026-08-30 23:19:41 | 45.55431 | 8.78640 | 77° | 75km/h | 6595m | 7.5m/s | -13.4°C | 30.6% | 0hPa | 2.9V | 08:30:00 | 00:45:21 | 00:00:00 | |
| IW2NTF | 2026-08-30 23:19:32 | 45.55381 | 8.78394 | 74° | 71km/h | 6541m | 3.3m/s | -13.1°C | 32.4% | 0hPa | 2.9V | 08:30:00 | 00:45:11 | 00:00:00 | |
| IW2NTF | 2026-08-30 23:19:22 | 45.55338 | 8.78153 | 78° | 71km/h | 6497m | 4.4m/s | -12.8°C | 32.6% | 0hPa | 2.9V | 08:30:00 | 00:45:01 | 00:00:00 | |
| IW2NTF | 2026-08-30 23:19:12 | 45.55289 | 8.77925 | 76° | 68km/h | 6452m | 4.3m/s | -12.3°C | 28.7% | 0hPa | 2.9V | 08:30:00 | 00:44:51 | 00:00:00 | |
| IW2NTF | 2026-08-30 23:19:02 | 45.55247 | 8.77678 | 77° | 71km/h | 6402m | 4.7m/s | -11.9°C | 24.7% | 0hPa | 2.9V | 08:30:00 | 00:44:41 | 00:00:00 | |
| IW2NTF | 2026-08-30 23:18:52 | 45.55217 | 8.77454 | 74° | 73km/h | 6345m | 7.9m/s | -11.3°C | 14.5% | 0hPa | 2.8V | 08:30:00 | 00:44:31 | 00:00:00 | |
| IW2NTF | 2026-08-30 23:18:42 | 45.55177 | 8.77235 | 74° | 55km/h | 6289m | 4.4m/s | -11.2°C | 18.9% | 0hPa | 2.9V | 08:30:00 | 00:44:21 | 00:00:00 | |
| IW2NTF | 2026-08-30 23:18:32 | 45.55145 | 8.77022 | 75° | 64km/h | 6230m | 6.2m/s | -10.7°C | 19.8% | 0hPa | 2.9V | 08:30:00 | 00:44:11 | 00:00:00 | |
| IW2NTF | 2026-08-30 23:18:22 | 45.55115 | 8.76809 | 73° | 60km/h | 6165m | 6.5m/s | -10.8°C | 27.6% | 0hPa | 2.9V | 08:30:00 | 00:44:01 | 00:00:00 | |
| IW2NTF | 2026-08-30 23:18:12 | 45.55074 | 8.76570 | 76° | 68km/h | 6113m | 4.7m/s | -10.7°C | 32.5% | 0hPa | 2.9V | 08:30:00 | 00:43:51 | 00:00:00 | |
| IW2NTF | 2026-08-30 23:18:02 | 45.55039 | 8.76343 | 71° | 68km/h | 6064m | 5.7m/s | -10.3°C | 34.4% | 0hPa | 2.9V | 08:30:00 | 00:43:41 | 00:00:00 | |
| IW2NTF | 2026-08-30 23:17:49 | 45.54993 | 8.76122 | 75° | 64km/h | 6015m | 4.5m/s | -10.2°C | 36.5% | 0hPa | 2.9V | 08:30:00 | 00:43:31 | 00:00:00 | |
| IW2NTF | 2026-08-30 23:17:39 | 45.54950 | 8.75890 | 73° | 66km/h | 5972m | 4.2m/s | -10°C | 35.3% | 0hPa | 2.9V | 08:30:00 | 00:43:21 | 00:00:00 | |
| IW2NTF | 2026-08-30 23:17:32 | 45.54924 | 8.75660 | 79° | 66km/h | 5930m | 4.7m/s | -9.6°C | 36.6% | 0hPa | 2.9V | 08:30:00 | 00:43:11 | 00:00:00 | |
| IW2NTF | 2026-08-30 23:17:22 | 45.54893 | 8.75443 | 77° | 66km/h | 5878m | 5.8m/s | -9.2°C | 35.9% | 0hPa | 2.9V | 08:30:00 | 00:43:01 | 00:00:00 | |
| IW2NTF | 2026-08-30 23:17:12 | 45.54859 | 8.75220 | 77° | 55km/h | 5831m | 4.1m/s | -8.8°C | 34.9% | 0hPa | 2.8V | 08:30:00 | 00:42:51 | 00:00:00 | |
| IW2NTF | 2026-08-30 23:17:02 | 45.54832 | 8.75024 | 76° | 57km/h | 5774m | 3.8m/s | -8.2°C | 34.5% | 0hPa | 2.9V | 08:30:00 | 00:42:41 | 00:00:00 | |
| IW2NTF | 2026-08-30 23:16:52 | 45.54795 | 8.74825 | 83° | 60km/h | 5723m | 4.8m/s | -7.8°C | 33.3% | 0hPa | 2.9V | 08:30:00 | 00:42:31 | 00:00:00 | |
| IW2NTF | 2026-08-30 23:16:42 | 45.54769 | 8.74633 | 76° | 68km/h | 5677m | 5.8m/s | -7.3°C | 34.5% | 0hPa | 2.9V | 08:30:00 | 00:42:21 | 00:00:00 | |
| IW2NTF | 2026-08-30 23:16:32 | 45.54740 | 8.74417 | 77° | 58km/h | 5619m | 6.3m/s | -6.8°C | 34.1% | 0hPa | 2.9V | 08:30:00 | 00:42:11 | 00:00:00 | |
| IW2NTF | 2026-08-30 23:16:22 | 45.54716 | 8.74223 | 81° | 62km/h | 5568m | 6.4m/s | -6.4°C | 30.9% | 0hPa | 2.9V | 08:30:00 | 00:42:01 | 00:00:00 | |
| IW2NTF | 2026-08-30 23:16:13 | 45.54698 | 8.73999 | 87° | 60km/h | 5507m | 4.4m/s | -5.8°C | 27.6% | 0hPa | 2.9V | 08:30:00 | 00:41:51 | 00:00:00 | |
| IW2NTF | 2026-08-30 23:16:02 | 45.54684 | 8.73775 | 82° | 64km/h | 5461m | 3.9m/s | -5.3°C | 20.4% | 0hPa | 2.9V | 08:30:00 | 00:41:41 | 00:00:00 | |
| IW2NTF | 2026-08-30 23:15:52 | 45.54671 | 8.73561 | 86° | 69km/h | 5405m | 6.8m/s | -5°C | 4.4% | 0hPa | 2.9V | 08:30:00 | 00:41:31 | 00:00:00 | |
| IW2NTF | 2026-08-30 23:15:42 | 45.54645 | 8.73349 | 82° | 64km/h | 5344m | 4.5m/s | -4.6°C | 3.9% | 0hPa | 2.9V | 08:30:00 | 00:41:21 | 00:00:00 | |
| IW2NTF | 2026-08-30 23:15:32 | 45.54620 | 8.73146 | 80° | 49km/h | 5290m | 5.5m/s | -4.4°C | 3.3% | 0hPa | 2.9V | 08:30:00 | 00:41:11 | 00:00:00 | |
| IW2NTF | 2026-08-30 23:15:22 | 45.54600 | 8.72960 | 79° | 58km/h | 5243m | 4.5m/s | -4.4°C | 2.9% | 0hPa | 2.9V | 08:30:00 | 00:41:01 | 00:00:00 | |
| IW2NTF | 2026-08-30 23:15:12 | 45.54573 | 8.72773 | 80° | 53km/h | 5195m | 4.9m/s | -4.2°C | 3.9% | 0hPa | 2.9V | 08:30:00 | 00:40:51 | 00:00:00 | |
| IW2NTF | 2026-08-30 23:15:00 | 45.54559 | 8.72560 | 86° | 51km/h | 5144m | 5.1m/s | -3.8°C | 4.3% | 0hPa | 2.9V | 08:30:00 | 00:40:41 | 00:00:00 | |
| IW2NTF | 2026-08-30 23:14:52 | 45.54546 | 8.72385 | 89° | 49km/h | 5082m | 5.4m/s | -4°C | 8.9% | 0hPa | 2.9V | 08:30:00 | 00:40:31 | 00:00:00 | |
| IW2NTF | 2026-08-30 23:14:42 | 45.54522 | 8.72194 | 76° | 51km/h | 5027m | 5.8m/s | -5.2°C | 53.4% | 0hPa | 2.9V | 08:30:00 | 00:40:21 | 00:00:00 | |
| IW2NTF | 2026-08-30 23:14:32 | 45.54471 | 8.72017 | 73° | 55km/h | 4984m | 5m/s | -5.2°C | 56.1% | 0hPa | 2.9V | 08:30:00 | 00:40:11 | 00:00:00 | |
| IW2NTF | 2026-08-30 23:14:26 | 45.54445 | 8.71911 | 69° | 46km/h | 4955m | 4.9m/s | -5°C | 55.1% | 0hPa | 2.9V | 08:30:00 | 00:40:05 | 00:00:00 | |
| IW2NTF | 2026-08-30 23:14:20 | 45.54422 | 8.71804 | 65° | 55km/h | 4927m | 5.3m/s | -5°C | 54.2% | 0hPa | 2.9V | 08:30:00 | 00:39:59 | 00:00:00 | |
| IW2NTF | 2026-08-30 23:14:14 | 45.54403 | 8.71698 | 82° | 55km/h | 4894m | 4.5m/s | -5°C | 56.4% | 0hPa | 2.9V | 08:30:00 | 00:39:53 | 00:00:00 | |
| IW2NTF | 2026-08-30 23:14:08 | 45.54388 | 8.71595 | 78° | 47km/h | 4862m | 5.4m/s | -5.2°C | 61.6% | 0hPa | 2.9V | 08:30:00 | 00:39:47 | 00:00:00 | |
| IW2NTF | 2026-08-30 23:14:02 | 45.54362 | 8.71504 | 64° | 44km/h | 4829m | 6m/s | -5.3°C | 61.5% | 0hPa | 2.9V | 08:30:00 | 00:39:41 | 00:00:00 | |
| IW2NTF | 2026-08-30 23:13:56 | 45.54343 | 8.71420 | 80° | 37km/h | 4796m | 6.5m/s | -5.1°C | 61.4% | 0hPa | 2.9V | 08:30:00 | 00:39:35 | 00:00:00 | |
| IW2NTF | 2026-08-30 23:13:50 | 45.54337 | 8.71338 | 76° | 40km/h | 4766m | 4m/s | -5.1°C | 66.6% | 0hPa | 2.9V | 08:30:00 | 00:39:29 | 00:00:00 | |
| IW2NTF | 2026-08-30 23:13:45 | 45.54328 | 8.71257 | 76° | 35km/h | 4736m | 6.4m/s | -5.1°C | 69.8% | 0hPa | 2.9V | 08:30:00 | 00:39:23 | 00:00:00 | |
| IW2NTF | 2026-08-30 23:13:38 | 45.54316 | 8.71167 | 86° | 40km/h | 4705m | 4.7m/s | -4.9°C | 70.1% | 0hPa | 2.9V | 08:30:00 | 00:39:17 | 00:00:00 | |
| IW2NTF | 2026-08-30 23:13:32 | 45.54299 | 8.71087 | 74° | 44km/h | 4673m | 5.4m/s | -5°C | 81.8% | 0hPa | 2.9V | 08:30:00 | 00:39:11 | 00:00:00 | |
| IW2NTF | 2026-08-30 23:13:26 | 45.54280 | 8.71015 | 60° | 38km/h | 4641m | 4.4m/s | -4.9°C | 85.1% | 0hPa | 2.9V | 08:30:00 | 00:39:05 | 00:00:00 | |
| IW2NTF | 2026-08-30 23:13:20 | 45.54253 | 8.70953 | 53° | 35km/h | 4606m | 5.1m/s | -4.6°C | 85% | 0hPa | 2.9V | 08:30:00 | 00:38:59 | 00:00:00 | |
| IW2NTF | 2026-08-30 23:13:14 | 45.54228 | 8.70896 | 44° | 33km/h | 4573m | 5.5m/s | -4.3°C | 81.5% | 0hPa | 2.9V | 08:30:00 | 00:38:53 | 00:00:00 | |
| IW2NTF | 2026-08-30 23:13:08 | 45.54184 | 8.70835 | 51° | 37km/h | 4539m | 5.4m/s | -4°C | 79.1% | 0hPa | 2.9V | 08:30:00 | 00:38:47 | 00:00:00 | |
| IW2NTF | 2026-08-30 23:13:02 | 45.54162 | 8.70752 | 73° | 38km/h | 4510m | 3.8m/s | -3.8°C | 76.4% | 0hPa | 2.9V | 08:30:00 | 00:38:41 | 00:00:00 | |
| IW2NTF | 2026-08-30 23:12:56 | 45.54137 | 8.70689 | 54° | 42km/h | 4482m | 3.8m/s | -3.5°C | 74% | 0hPa | 2.9V | 08:30:00 | 00:38:35 | 00:00:00 | |
| IW2NTF | 2026-08-30 23:12:50 | 45.54105 | 8.70611 | 57° | 35km/h | 4456m | 4.2m/s | -3.3°C | 74.1% | 0hPa | 2.9V | 08:30:00 | 00:38:29 | 00:00:00 | |
| IW2NTF | 2026-08-30 23:12:44 | 45.54079 | 8.70549 | 71° | 29km/h | 4428m | 4.4m/s | -3.1°C | 73.3% | 0hPa | 3V | 08:30:00 | 00:38:23 | 00:00:00 | |
| IW2NTF | 2026-08-30 23:12:39 | 45.54060 | 8.70488 | 67° | 38km/h | 4404m | 4.1m/s | -2.9°C | 73.1% | 0hPa | 2.9V | 08:30:00 | 00:38:17 | 00:00:00 | |
| IW2NTF | 2026-08-30 23:12:32 | 45.54049 | 8.70421 | 70° | 33km/h | 4376m | 5.7m/s | -2.7°C | 71.9% | 0hPa | 2.9V | 08:30:00 | 00:38:11 | 00:00:00 | |
| IW2NTF | 2026-08-30 23:12:26 | 45.54016 | 8.70355 | 61° | 38km/h | 4345m | 4.6m/s | -2.5°C | 73% | 0hPa | 2.9V | 08:30:00 | 00:38:05 | 00:00:00 | |
| IW2NTF | 2026-08-30 23:12:20 | 45.54000 | 8.70282 | 68° | 37km/h | 4313m | 4.5m/s | -2.2°C | 72.3% | 0hPa | 2.9V | 08:30:00 | 00:37:59 | 00:00:00 | |
| IW2NTF | 2026-08-30 23:12:14 | 45.53986 | 8.70216 | 69° | 33km/h | 4281m | 4m/s | -1.9°C | 72.3% | 0hPa | 2.9V | 08:30:00 | 00:37:53 | 00:00:00 | |
| IW2NTF | 2026-08-30 23:12:08 | 45.53975 | 8.70169 | 72° | 24km/h | 4249m | 5m/s | -1.6°C | 70.9% | 0hPa | 2.9V | 08:30:00 | 00:37:47 | 00:00:00 | |
| IW2NTF | 2026-08-30 23:12:02 | 45.53953 | 8.70111 | 70° | 37km/h | 4213m | 3.4m/s | -1.3°C | 69.1% | 0hPa | 3V | 08:30:00 | 00:37:41 | 00:00:00 | |
| IW2NTF | 2026-08-30 23:11:57 | 45.53947 | 8.70047 | 77° | 29km/h | 4185m | 5.2m/s | -1°C | 67.5% | 0hPa | 2.9V | 08:30:00 | 00:37:35 | 00:00:00 | |
| IW2NTF | 2026-08-30 23:11:50 | 45.53929 | 8.69993 | 75° | 24km/h | 4156m | 4m/s | -0.9°C | 68.7% | 0hPa | 2.9V | 08:30:00 | 00:37:29 | 00:00:00 | |
| IW2NTF | 2026-08-30 23:11:44 | 45.53909 | 8.69928 | 64° | 35km/h | 4122m | 5.1m/s | -0.6°C | 67.4% | 0hPa | 2.9V | 08:30:00 | 00:37:23 | 00:00:00 | |
| IW2NTF | 2026-08-30 23:11:38 | 45.53885 | 8.69852 | 58° | 35km/h | 4092m | 4.5m/s | -0.3°C | 66.2% | 0hPa | 2.9V | 08:30:00 | 00:37:17 | 00:00:00 | |
| IW2NTF | 2026-08-30 23:11:32 | 45.53867 | 8.69799 | 81° | 26km/h | 4057m | 7.1m/s | 0°C | 66.2% | 0hPa | 2.9V | 08:30:00 | 00:37:11 | 00:00:00 | |
| IW2NTF | 2026-08-30 23:11:27 | 45.53855 | 8.69737 | 75° | 29km/h | 4020m | 7.1m/s | 0.3°C | 65.5% | 0hPa | 2.9V | 08:30:00 | 00:37:05 | 00:00:00 | |
| IW2NTF | 2026-08-30 23:11:20 | 45.53842 | 8.69688 | 60° | 35km/h | 3987m | 3.7m/s | 0.6°C | 65.6% | 0hPa | 2.9V | 08:30:00 | 00:36:59 | 00:00:00 | |
| IW2NTF | 2026-08-30 23:11:14 | 45.53818 | 8.69633 | 56° | 27km/h | 3954m | 6.4m/s | 0.9°C | 63.6% | 0hPa | 3V | 08:30:00 | 00:36:53 | 00:00:00 | |
| IW2NTF | 2026-08-30 23:11:08 | 45.53807 | 8.69594 | 83° | 18km/h | 3922m | 4.2m/s | 1.1°C | 61.9% | 0hPa | 2.9V | 08:30:00 | 00:36:47 | 00:00:00 | |
| IW2NTF | 2026-08-30 23:11:02 | 45.53782 | 8.69543 | 56° | 37km/h | 3893m | 4.6m/s | 1.4°C | 64.2% | 0hPa | 3V | 08:30:00 | 00:36:41 | 00:00:00 | |
| IW2NTF | 2026-08-30 23:10:57 | 45.53765 | 8.69484 | 73° | 29km/h | 3862m | 6.1m/s | 1.6°C | 67.8% | 0hPa | 3V | 08:30:00 | 00:36:35 | 00:00:00 | |
| IW2NTF | 2026-08-30 23:10:50 | 45.53753 | 8.69435 | 83° | 26km/h | 3828m | 4.1m/s | 1.9°C | 68.5% | 0hPa | 3V | 08:30:00 | 00:36:29 | 00:00:00 | |
| IW2NTF | 2026-08-30 23:10:44 | 45.53735 | 8.69383 | 51° | 31km/h | 3801m | 5.4m/s | 2.2°C | 66.5% | 0hPa | 2.9V | 08:30:00 | 00:36:23 | 00:00:00 | |
| IW2NTF | 2026-08-30 23:10:38 | 45.53717 | 8.69330 | 58° | 27km/h | 3765m | 5.3m/s | 2.6°C | 61.1% | 0hPa | 3V | 08:30:00 | 00:36:17 | 00:00:00 | |
| IW2NTF | 2026-08-30 23:10:33 | 45.53699 | 8.69275 | 57° | 24km/h | 3730m | 5.4m/s | 2.9°C | 58.7% | 0hPa | 2.9V | 08:30:00 | 00:36:11 | 00:00:00 | |
| IW2NTF | 2026-08-30 23:10:26 | 45.53679 | 8.69222 | 63° | 24km/h | 3697m | 5.5m/s | 3.1°C | 56.9% | 0hPa | 3V | 08:30:00 | 00:36:05 | 00:00:00 | |
| IW2NTF | 2026-08-30 23:10:20 | 45.53656 | 8.69180 | 72° | 26km/h | 3664m | 5.6m/s | 3.4°C | 55.5% | 0hPa | 3V | 08:30:00 | 00:35:59 | 00:00:00 | |
| IW2NTF | 2026-08-30 23:10:14 | 45.53638 | 8.69121 | 64° | 26km/h | 3634m | 6m/s | 3.6°C | 55.1% | 0hPa | 3V | 08:30:00 | 00:35:53 | 00:00:00 | |
| IW2NTF | 2026-08-30 23:10:08 | 45.53622 | 8.69059 | 59° | 33km/h | 3602m | 5.6m/s | 3.9°C | 52.6% | 0hPa | 3V | 08:30:00 | 00:35:47 | 00:00:00 | |
| IW2NTF | 2026-08-30 23:10:03 | 45.53604 | 8.68993 | 71° | 37km/h | 3570m | 6m/s | 4.2°C | 49.6% | 0hPa | 2.9V | 08:30:00 | 00:35:41 | 00:00:00 | |
| IW2NTF | 2026-08-30 23:09:57 | 45.53589 | 8.68930 | 81° | 38km/h | 3537m | 5.7m/s | 4.4°C | 50.4% | 0hPa | 3V | 08:30:00 | 00:35:35 | 00:00:00 | |
| IW2NTF | 2026-08-30 23:09:51 | 45.53573 | 8.68852 | 73° | 27km/h | 3502m | 5.1m/s | 4.7°C | 52.9% | 0hPa | 2.9V | 08:30:00 | 00:35:29 | 00:00:00 | |
| IW2NTF | 2026-08-30 23:09:44 | 45.53565 | 8.68795 | 59° | 26km/h | 3468m | 5m/s | 5°C | 51% | 0hPa | 2.9V | 08:30:00 | 00:35:23 | 00:00:00 | |
| IW2NTF | 2026-08-30 23:09:38 | 45.53549 | 8.68734 | 75° | 29km/h | 3433m | 7.8m/s | 5.2°C | 52.3% | 0hPa | 3V | 08:30:00 | 00:35:17 | 00:00:00 | |
| IW2NTF | 2026-08-30 23:09:32 | 45.53536 | 8.68657 | 85° | 46km/h | 3398m | 6.1m/s | 5.5°C | 50.2% | 0hPa | 3V | 08:30:00 | 00:35:11 | 00:00:00 | |
| IW2NTF | 2026-08-30 23:09:26 | 45.53522 | 8.68573 | 72° | 37km/h | 3368m | 5.1m/s | 5.8°C | 49.3% | 0hPa | 3V | 08:30:00 | 00:35:05 | 00:00:00 | |
| IW2NTF | 2026-08-30 23:09:20 | 45.53511 | 8.68501 | 91° | 29km/h | 3334m | 5.6m/s | 6.1°C | 48.6% | 0hPa | 2.9V | 08:30:00 | 00:34:59 | 00:00:00 | |
| IW2NTF | 2026-08-30 23:09:14 | 45.53506 | 8.68422 | 70° | 38km/h | 3299m | 5.4m/s | 6.4°C | 48.5% | 0hPa | 2.9V | 08:30:00 | 00:34:53 | 00:00:00 | |
| IW2NTF | 2026-08-30 23:09:08 | 45.53492 | 8.68343 | 78° | 37km/h | 3264m | 5.9m/s | 6.7°C | 49.8% | 0hPa | 3V | 08:30:00 | 00:34:47 | 00:00:00 | |
| IW2NTF | 2026-08-30 23:09:02 | 45.53489 | 8.68261 | 95° | 37km/h | 3229m | 7.4m/s | 7°C | 49.3% | 0hPa | 3V | 08:30:00 | 00:34:41 | 00:00:00 | |
| IW2NTF | 2026-08-30 23:08:56 | 45.53489 | 8.68186 | 88° | 31km/h | 3193m | 5.5m/s | 7.3°C | 49% | 0hPa | 3V | 08:30:00 | 00:34:35 | 00:00:00 | |
| IW2NTF | 2026-08-30 23:08:50 | 45.53481 | 8.68126 | 88° | 29km/h | 3159m | 5m/s | 7.5°C | 53.6% | 0hPa | 3V | 08:30:00 | 00:34:29 | 00:00:00 | |
| IW2NTF | 2026-08-30 23:08:44 | 45.53477 | 8.68064 | 91° | 24km/h | 3127m | 5.3m/s | 7.6°C | 56.1% | 0hPa | 3V | 08:30:00 | 00:34:23 | 00:00:00 | |
| IW2NTF | 2026-08-30 23:08:38 | 45.53470 | 8.68005 | 77° | 24km/h | 3093m | 5.4m/s | 7.7°C | 62.8% | 0hPa | 2.9V | 08:30:00 | 00:34:17 | 00:00:00 | |
| IW2NTF | 2026-08-30 23:08:32 | 45.53471 | 8.67939 | 89° | 29km/h | 3057m | 7m/s | 7.8°C | 65.3% | 0hPa | 3V | 08:30:00 | 00:34:11 | 00:00:00 | |
| IW2NTF | 2026-08-30 23:08:27 | 45.53465 | 8.67889 | 93° | 22km/h | 3021m | 3.9m/s | 7.8°C | 70% | 0hPa | 3V | 08:30:00 | 00:34:05 | 00:00:00 | |
| IW2NTF | 2026-08-30 23:08:21 | 45.53469 | 8.67855 | 113° | 18km/h | 2986m | 3.9m/s | 8.1°C | 69.1% | 0hPa | 2.9V | 08:30:00 | 00:33:59 | 00:00:00 | |
| IW2NTF | 2026-08-30 23:08:14 | 45.53485 | 8.67818 | 110° | 22km/h | 2945m | 4.4m/s | 8.2°C | 68.7% | 0hPa | 3V | 08:30:00 | 00:33:53 | 00:00:00 | |
| IW2NTF | 2026-08-30 23:08:08 | 45.53496 | 8.67780 | 108° | 22km/h | 2907m | 5.4m/s | 8.5°C | 67.2% | 0hPa | 3V | 08:30:00 | 00:33:47 | 00:00:00 | |
| IW2NTF | 2026-08-30 23:08:02 | 45.53508 | 8.67733 | 104° | 22km/h | 2874m | 7.6m/s | 8.5°C | 68.2% | 0hPa | 2.9V | 08:30:00 | 00:33:41 | 00:00:00 | |
| IW2NTF | 2026-08-30 23:07:56 | 45.53520 | 8.67671 | 117° | 27km/h | 2842m | 5.4m/s | 8.6°C | 70.6% | 0hPa | 3V | 08:30:00 | 00:33:35 | 00:00:00 | |
| IW2NTF | 2026-08-30 23:07:50 | 45.53540 | 8.67614 | 124° | 26km/h | 2806m | 5.6m/s | 8.9°C | 70.5% | 0hPa | 3V | 08:30:00 | 00:33:29 | 00:00:00 | |
| IW2NTF | 2026-08-30 23:07:44 | 45.53555 | 8.67563 | 115° | 26km/h | 2769m | 4.7m/s | 9.2°C | 70.9% | 0hPa | 3V | 08:30:00 | 00:33:23 | 00:00:00 | |
| IW2NTF | 2026-08-30 23:07:38 | 45.53569 | 8.67512 | 118° | 27km/h | 2734m | 5.4m/s | 9.4°C | 71.2% | 0hPa | 3V | 08:30:00 | 00:33:17 | 00:00:00 | |
| IW2NTF | 2026-08-30 23:07:32 | 45.53590 | 8.67459 | 115° | 29km/h | 2694m | 4.6m/s | 9°C | 83.2% | 0hPa | 2.9V | 08:30:00 | 00:33:11 | 00:00:00 | |
| IW2NTF | 2026-08-30 23:07:26 | 45.53603 | 8.67406 | 118° | 27km/h | 2657m | 6.4m/s | 8.2°C | 99.3% | 0hPa | 3V | 08:30:00 | 00:33:05 | 00:00:00 | |
| IW2NTF | 2026-08-30 23:07:20 | 45.53609 | 8.67364 | 98° | 22km/h | 2619m | 6.5m/s | 8.5°C | 98.7% | 0hPa | 3V | 08:30:00 | 00:32:59 | 00:00:00 | |
| IW2NTF | 2026-08-30 23:07:15 | 45.53613 | 8.67328 | 91° | 16km/h | 2584m | 4m/s | 8.8°C | 97.5% | 0hPa | 2.9V | 08:30:00 | 00:32:53 | 00:00:00 | |
| IW2NTF | 2026-08-30 23:07:09 | 45.53617 | 8.67302 | 75° | 15km/h | 2551m | 5m/s | 8.9°C | 97.7% | 0hPa | 2.9V | 08:30:00 | 00:32:47 | 00:00:00 | |
| IW2NTF | 2026-08-30 23:07:02 | 45.53622 | 8.67252 | 107° | 22km/h | 2519m | 5.4m/s | 8.9°C | 99.5% | 0hPa | 2.9V | 08:30:00 | 00:32:41 | 00:00:00 | |
| IW2NTF | 2026-08-30 23:06:56 | 45.53622 | 8.67216 | 86° | 18km/h | 2485m | 5.3m/s | 9.1°C | 99% | 0hPa | 3V | 08:30:00 | 00:32:35 | 00:00:00 | |
| IW2NTF | 2026-08-30 23:06:50 | 45.53617 | 8.67175 | 89° | 20km/h | 2447m | 6m/s | 9.5°C | 96.7% | 0hPa | 2.9V | 08:30:00 | 00:32:29 | 00:00:00 | |
| IW2NTF | 2026-08-30 23:06:44 | 45.53609 | 8.67129 | 88° | 16km/h | 2412m | 5.8m/s | 9.7°C | 94.4% | 0hPa | 3V | 08:30:00 | 00:32:23 | 00:00:00 | |
| IW2NTF | 2026-08-30 23:06:38 | 45.53604 | 8.67076 | 62° | 29km/h | 2379m | 5.4m/s | 9.9°C | 93.8% | 0hPa | 3V | 08:30:00 | 00:32:17 | 00:00:00 | |
| IW2NTF | 2026-08-30 23:06:32 | 45.53595 | 8.67029 | 78° | 15km/h | 2345m | 6.2m/s | 10.2°C | 93.2% | 0hPa | 3V | 08:30:00 | 00:32:11 | 00:00:00 | |
| IW2NTF | 2026-08-30 23:06:26 | 45.53581 | 8.66994 | 76° | 18km/h | 2311m | 6m/s | 10.5°C | 94.2% | 0hPa | 2.9V | 08:30:00 | 00:32:05 | 00:00:00 | |
| IW2NTF | 2026-08-30 23:06:20 | 45.53572 | 8.66963 | 64° | 16km/h | 2274m | 7.3m/s | 10.8°C | 92.3% | 0hPa | 2.9V | 08:30:00 | 00:31:59 | 00:00:00 | |
| IW2NTF | 2026-08-30 23:06:14 | 45.53562 | 8.66930 | 64° | 16km/h | 2236m | 6m/s | 11.2°C | 87.3% | 0hPa | 2.9V | 08:30:00 | 00:31:53 | 00:00:00 | |
| IW2NTF | 2026-08-30 23:06:09 | 45.53540 | 8.66912 | 25° | 16km/h | 2206m | 5.2m/s | 11.5°C | 84.9% | 0hPa | 3V | 08:30:00 | 00:31:47 | 00:00:00 | |
| IW2NTF | 2026-08-30 23:06:02 | 45.53531 | 8.66885 | 63° | 22km/h | 2175m | 6m/s | 11.8°C | 80.3% | 0hPa | 2.9V | 08:30:00 | 00:31:41 | 00:00:00 | |
| IW2NTF | 2026-08-30 23:05:56 | 45.53514 | 8.66860 | 44° | 15km/h | 2139m | 6.7m/s | 12.2°C | 79.1% | 0hPa | 3V | 08:30:00 | 00:31:35 | 00:00:00 | |
| IW2NTF | 2026-08-30 23:05:50 | 45.53501 | 8.66840 | 84° | 16km/h | 2103m | 6m/s | 12.5°C | 77.6% | 0hPa | 2.9V | 08:30:00 | 00:31:29 | 00:00:00 | |
| IW2NTF | 2026-08-30 23:05:44 | 45.53486 | 8.66809 | 38° | 11km/h | 2071m | 7.5m/s | 12.8°C | 74.1% | 0hPa | 2.9V | 00:00:00 | 00:31:23 | 00:00:00 | |
| IW2NTF | 2026-08-30 23:05:38 | 45.53476 | 8.66791 | 19° | 13km/h | 2037m | 6.4m/s | 13.1°C | 72.3% | 0hPa | 3V | 00:00:00 | 00:31:17 | 00:00:00 | |
| IW2NTF | 2026-08-30 23:05:28 | 45.53467 | 8.66774 | 53° | 11km/h | 1998m | 6.6m/s | 13.5°C | 70.7% | 0hPa | 3V | 00:00:00 | 00:31:11 | 00:00:00 | |
| IW2NTF | 2026-08-30 23:05:28 | 45.53463 | 8.66769 | 37° | 11km/h | 1986m | 6.4m/s | 13.6°C | 69% | 0hPa | 3V | 00:00:00 | 00:31:09 | 00:00:00 | |
| IW2NTF | 2026-08-30 23:05:28 | 45.53458 | 8.66761 | 48° | 18km/h | 1972m | 4.8m/s | 13.7°C | 66.9% | 0hPa | 3V | 00:00:00 | 00:31:07 | 00:00:00 | |
| IW2NTF | 2026-08-30 23:05:22 | 45.53450 | 8.66751 | 37° | 22km/h | 1961m | 7.1m/s | 13.8°C | 64.1% | 0hPa | 3V | 00:00:00 | 00:31:05 | 00:00:00 | |
| IW2NTF | 2026-08-30 23:05:22 | 45.53442 | 8.66743 | 40° | 16km/h | 1949m | 4.8m/s | 13.9°C | 64.2% | 0hPa | 2.9V | 00:00:00 | 00:31:03 | 00:00:00 | |
| IW2NTF | 2026-08-30 23:05:22 | 45.53436 | 8.66733 | 55° | 20km/h | 1938m | 4.9m/s | 13.9°C | 64.9% | 0hPa | 3V | 00:00:00 | 00:31:01 | 00:00:00 | |
| IW2NTF | 2026-08-30 23:05:16 | 45.53429 | 8.66721 | 41° | 22km/h | 1927m | 6.3m/s | 13.9°C | 65.7% | 0hPa | 2.9V | 00:00:00 | 00:30:59 | 00:00:00 | |
| IW2NTF | 2026-08-30 23:05:16 | 45.53421 | 8.66714 | 28° | 15km/h | 1915m | 6.2m/s | 13.9°C | 69.4% | 0hPa | 3V | 00:00:00 | 00:30:57 | 00:00:00 | |
| IW2NTF | 2026-08-30 23:05:16 | 45.53416 | 8.66709 | 41° | 9km/h | 1903m | 5.8m/s | 13.9°C | 73.9% | 0hPa | 3V | 00:00:00 | 00:30:55 | 00:00:00 | |
| IW2NTF | 2026-08-30 23:05:10 | 45.53412 | 8.66702 | 51° | 15km/h | 1893m | 5m/s | 13.9°C | 75.3% | 0hPa | 2.9V | 00:00:00 | 00:30:53 | 00:00:00 | |
| IW2NTF | 2026-08-30 23:05:10 | 45.53406 | 8.66695 | 24° | 15km/h | 1882m | 5.5m/s | 14°C | 75.1% | 0hPa | 3V | 00:00:00 | 00:30:51 | 00:00:00 | |
| IW2NTF | 2026-08-30 23:05:10 | 45.53400 | 8.66694 | 336° | 11km/h | 1871m | 5.8m/s | 14.1°C | 74.6% | 0hPa | 2.9V | 00:00:00 | 00:30:49 | 00:00:00 | |
| IW2NTF | 2026-08-30 23:05:04 | 45.53396 | 8.66699 | 296° | 7km/h | 1861m | 4.7m/s | 14.2°C | 74.1% | 0hPa | 3V | 00:00:00 | 00:30:47 | 00:00:00 | |
| IW2NTF | 2026-08-30 23:05:04 | 45.53394 | 8.66702 | 337° | 5km/h | 1851m | 6.6m/s | 14.3°C | 73.9% | 0hPa | 3V | 00:00:00 | 00:30:45 | 00:00:00 | |
| IW2NTF | 2026-08-30 23:05:04 | 45.53390 | 8.66701 | 22° | 9km/h | 1839m | 5.9m/s | 14.4°C | 73.5% | 0hPa | 3V | 00:00:00 | 00:30:43 | 00:00:00 | |
| IW2NTF | 2026-08-30 23:04:59 | 45.53387 | 8.66696 | 67° | 7km/h | 1827m | 6.5m/s | 14.5°C | 73.1% | 0hPa | 3V | 00:00:00 | 00:30:41 | 00:00:00 | |
| IW2NTF | 2026-08-30 23:04:59 | 45.53386 | 8.66693 | 116° | 2km/h | 1815m | 6.4m/s | 14.6°C | 73.2% | 0hPa | 2.9V | 00:00:00 | 00:30:39 | 00:00:00 | |
| IW2NTF | 2026-08-30 23:04:59 | 45.53384 | 8.66693 | 5° | 9km/h | 1802m | 6.2m/s | 14.7°C | 73.4% | 0hPa | 2.9V | 00:00:00 | 00:30:37 | 00:00:00 | |
| IW2NTF | 2026-08-30 23:04:52 | 45.53378 | 8.66690 | 34° | 18km/h | 1791m | 3.5m/s | 14.8°C | 73.4% | 0hPa | 2.9V | 00:00:00 | 00:30:35 | 00:00:00 | |
| IW2NTF | 2026-08-30 23:04:52 | 45.53371 | 8.66681 | 48° | 16km/h | 1781m | 6.3m/s | 14.9°C | 72.8% | 0hPa | 2.9V | 00:00:00 | 00:30:33 | 00:00:00 | |
| IW2NTF | 2026-08-30 23:04:52 | 45.53366 | 8.66675 | 26° | 9km/h | 1768m | 6.7m/s | 15°C | 71.6% | 0hPa | 2.9V | 00:00:00 | 00:30:31 | 00:00:00 | |
| IW2NTF | 2026-08-30 23:04:47 | 45.53363 | 8.66673 | 42° | 5km/h | 1754m | 7.2m/s | 15.1°C | 70.6% | 0hPa | 2.9V | 00:00:00 | 00:30:29 | 00:00:00 | |
| IW2NTF | 2026-08-30 23:04:47 | 45.53362 | 8.66670 | 61° | 5km/h | 1743m | 4.3m/s | 15.2°C | 69.6% | 0hPa | 3V | 00:00:00 | 00:30:27 | 00:00:00 | |
| IW2NTF | 2026-08-30 23:04:47 | 45.53358 | 8.66668 | 3° | 7km/h | 1732m | 6.6m/s | 15.4°C | 67.2% | 0hPa | 2.9V | 00:00:00 | 00:30:25 | 00:00:00 | |
| IW2NTF | 2026-08-30 23:04:40 | 45.53354 | 8.66669 | 357° | 7km/h | 1721m | 6.1m/s | 15.5°C | 65% | 0hPa | 2.9V | 00:00:00 | 00:30:23 | 00:00:00 | |
| IW2NTF | 2026-08-30 23:04:40 | 45.53351 | 8.66668 | 35° | 5km/h | 1709m | 4.4m/s | 15.6°C | 65% | 0hPa | 3V | 00:00:00 | 00:30:21 | 00:00:00 | |
| IW2NTF | 2026-08-30 23:04:40 | 45.53348 | 8.66666 | 4° | 7km/h | 1698m | 7.9m/s | 15.7°C | 64.9% | 0hPa | 2.9V | 00:00:00 | 00:30:19 | 00:00:00 | |
| IW2NTF | 2026-08-30 23:04:34 | 45.53344 | 8.66667 | 320° | 5km/h | 1684m | 7.6m/s | 15.8°C | 65.1% | 0hPa | 2.9V | 00:00:00 | 00:30:17 | 00:00:00 | |
| IW2NTF | 2026-08-30 23:04:34 | 45.53343 | 8.66668 | 38° | 4km/h | 1671m | 5.3m/s | 15.9°C | 65.5% | 0hPa | 3V | 00:00:00 | 00:30:15 | 00:00:00 | |
| IW2NTF | 2026-08-30 23:04:34 | 45.53340 | 8.66663 | 37° | 15km/h | 1660m | 5m/s | 16°C | 65.7% | 0hPa | 2.9V | 00:00:00 | 00:30:13 | 00:00:00 | |
| IW2NTF | 2026-08-30 23:04:29 | 45.53331 | 8.66657 | 22° | 20km/h | 1650m | 7.2m/s | 16.1°C | 64.9% | 0hPa | 3V | 00:00:00 | 00:30:11 | 00:00:00 | |
| IW2NTF | 2026-08-30 23:04:29 | 45.53323 | 8.66654 | 10° | 13km/h | 1636m | 6m/s | 16.2°C | 64.6% | 0hPa | 2.9V | 00:00:00 | 00:30:09 | 00:00:00 | |
| IW2NTF | 2026-08-30 23:04:29 | 45.53319 | 8.66653 | 45° | 5km/h | 1625m | 5.3m/s | 16.3°C | 64.9% | 0hPa | 3V | 00:00:00 | 00:30:07 | 00:00:00 | |
| IW2NTF | 2026-08-30 23:04:22 | 45.53319 | 8.66648 | 104° | 9km/h | 1614m | 7m/s | 16.4°C | 64.8% | 0hPa | 3V | 00:00:00 | 00:30:05 | 00:00:00 | |
| IW2NTF | 2026-08-30 23:04:22 | 45.53319 | 8.66641 | 94° | 7km/h | 1602m | 6.3m/s | 16.4°C | 64.8% | 0hPa | 3V | 00:00:00 | 00:30:03 | 00:00:00 | |
| IW2NTF | 2026-08-30 23:04:22 | 45.53319 | 8.66638 | 26° | 2km/h | 1591m | 4.5m/s | 16.6°C | 64.7% | 0hPa | 3V | 00:00:00 | 00:30:01 | 00:00:00 | |
| IW2NTF | 2026-08-30 23:04:17 | 45.53316 | 8.66638 | 5° | 9km/h | 1582m | 5.8m/s | 16.6°C | 64% | 0hPa | 2.9V | 00:00:00 | 00:29:59 | 00:00:00 | |
| IW2NTF | 2026-08-30 23:04:17 | 45.53311 | 8.66635 | 33° | 13km/h | 1571m | 5.6m/s | 16.8°C | 63.7% | 0hPa | 3V | 00:00:00 | 00:29:57 | 00:00:00 | |
| IW2NTF | 2026-08-30 23:04:17 | 45.53307 | 8.66629 | 67° | 9km/h | 1560m | 6m/s | 16.8°C | 63.6% | 0hPa | 2.9V | 00:00:00 | 00:29:55 | 00:00:00 | |
| IW2NTF | 2026-08-30 23:04:10 | 45.53306 | 8.66626 | 289° | 2km/h | 1549m | 5.3m/s | 16.9°C | 64.4% | 0hPa | 3V | 00:00:00 | 00:29:53 | 00:00:00 | |
| IW2NTF | 2026-08-30 23:04:10 | 45.53304 | 8.66629 | 315° | 11km/h | 1540m | 4.4m/s | 17°C | 64.1% | 0hPa | 2.9V | 00:00:00 | 00:29:51 | 00:00:00 | |
| IW2NTF | 2026-08-30 23:04:10 | 45.53297 | 8.66635 | 331° | 16km/h | 1531m | 5.4m/s | 17.1°C | 64.6% | 0hPa | 3V | 00:00:00 | 00:29:49 | 00:00:00 | |
| IW2NTF | 2026-08-30 23:04:04 | 45.53292 | 8.66639 | 343° | 9km/h | 1519m | 5.3m/s | 17.1°C | 64.8% | 0hPa | 3V | 00:00:00 | 00:29:47 | 00:00:00 | |
| IW2NTF | 2026-08-30 23:04:04 | 45.53288 | 8.66637 | 55° | 9km/h | 1510m | 4.6m/s | 17.2°C | 64.4% | 0hPa | 3V | 00:00:00 | 00:29:45 | 00:00:00 | |
| IW2NTF | 2026-08-30 23:04:04 | 45.53285 | 8.66630 | 43° | 13km/h | 1499m | 6.3m/s | 17.3°C | 64.6% | 0hPa | 2.9V | 00:00:00 | 00:29:43 | 00:00:00 | |
| IW2NTF | 2026-08-30 23:03:58 | 45.53279 | 8.66625 | 23° | 13km/h | 1487m | 6.2m/s | 17.4°C | 64.8% | 0hPa | 2.9V | 00:00:00 | 00:29:41 | 00:00:00 | |
| IW2NTF | 2026-08-30 23:03:58 | 45.53275 | 8.66622 | 32° | 7km/h | 1474m | 6.4m/s | 17.5°C | 65.2% | 0hPa | 2.9V | 00:00:00 | 00:29:39 | 00:00:00 | |
| IW2NTF | 2026-08-30 23:03:58 | 45.53271 | 8.66617 | 40° | 13km/h | 1463m | 5.6m/s | 17.6°C | 67.2% | 0hPa | 3V | 00:00:00 | 00:29:37 | 00:00:00 | |
| IW2NTF | 2026-08-30 23:03:52 | 45.53265 | 8.66612 | 17° | 15km/h | 1452m | 5.6m/s | 17.7°C | 67% | 0hPa | 3V | 00:00:00 | 00:29:35 | 00:00:00 | |
| IW2NTF | 2026-08-30 23:03:52 | 45.53258 | 8.66611 | 12° | 9km/h | 1440m | 5.4m/s | 17.8°C | 66.7% | 0hPa | 3V | 00:00:00 | 00:29:33 | 00:00:00 | |
| IW2NTF | 2026-08-30 23:03:52 | 45.53255 | 8.66606 | 56° | 11km/h | 1429m | 6.2m/s | 17.9°C | 65.9% | 0hPa | 2.9V | 00:00:00 | 00:29:31 | 00:00:00 | |
| IW2NTF | 2026-08-30 23:03:47 | 45.53251 | 8.66598 | 50° | 16km/h | 1417m | 5.7m/s | 18°C | 65% | 0hPa | 3V | 00:00:00 | 00:29:29 | 00:00:00 | |
| IW2NTF | 2026-08-30 23:03:47 | 45.53245 | 8.66591 | 25° | 13km/h | 1405m | 5.7m/s | 18.1°C | 63.7% | 0hPa | 2.9V | 00:00:00 | 00:29:27 | 00:00:00 | |
| IW2NTF | 2026-08-30 23:03:47 | 45.53240 | 8.66588 | 21° | 5km/h | 1395m | 6.3m/s | 18.2°C | 63.4% | 0hPa | 3V | 00:00:00 | 00:29:25 | 00:00:00 | |
| IW2NTF | 2026-08-30 23:03:41 | 45.53237 | 8.66583 | 50° | 13km/h | 1383m | 4.9m/s | 18.3°C | 63% | 0hPa | 3V | 00:00:00 | 00:29:23 | 00:00:00 | |
| IW2NTF | 2026-08-30 23:03:41 | 45.53231 | 8.66576 | 33° | 16km/h | 1374m | 5.2m/s | 18.4°C | 62.5% | 0hPa | 3V | 00:00:00 | 00:29:21 | 00:00:00 | |
| IW2NTF | 2026-08-30 23:03:41 | 45.53223 | 8.66572 | 11° | 15km/h | 1364m | 5.7m/s | 18.4°C | 62.4% | 0hPa | 2.9V | 00:00:00 | 00:29:19 | 00:00:00 | |
| IW2NTF | 2026-08-30 23:03:34 | 45.53217 | 8.66570 | 20° | 7km/h | 1352m | 6m/s | 18.6°C | 62.1% | 0hPa | 3V | 00:00:00 | 00:29:17 | 00:00:00 | |
| IW2NTF | 2026-08-30 23:03:34 | 45.53214 | 8.66567 | 32° | 13km/h | 1340m | 8.2m/s | 18.7°C | 61.9% | 0hPa | 3V | 00:00:00 | 00:29:15 | 00:00:00 | |
| IW2NTF | 2026-08-30 23:03:34 | 45.53207 | 8.66563 | 15° | 15km/h | 1326m | 4.4m/s | 18.8°C | 0% | 0hPa | 2.9V | 00:00:00 | 00:29:13 | 00:00:00 | |
| IW2NTF | 2026-08-30 23:03:28 | 45.53199 | 8.66562 | 351° | 13km/h | 1315m | 6.3m/s | 18.9°C | 0% | 0hPa | 3V | 00:00:00 | 00:29:11 | 00:00:00 | |
| IW2NTF | 2026-08-30 23:03:28 | 45.53195 | 8.66562 | 20° | 7km/h | 1303m | 6.6m/s | 19°C | 0% | 0hPa | 2.9V | 00:00:00 | 00:29:09 | 00:00:00 | |
| IW2NTF | 2026-08-30 23:03:28 | 45.53191 | 8.66557 | 40° | 15km/h | 1291m | 5.3m/s | 19.1°C | 0% | 0hPa | 3V | 00:00:00 | 00:29:07 | 00:00:00 | |
| IW2NTF | 2026-08-30 23:03:22 | 45.53183 | 8.66552 | 17° | 16km/h | 1279m | 5.5m/s | 19.2°C | 0% | 0hPa | 2.9V | 00:00:00 | 00:29:05 | 00:00:00 | |
| IW2NTF | 2026-08-30 23:03:22 | 45.53176 | 8.66550 | 11° | 11km/h | 1268m | 5.7m/s | 19.3°C | 0% | 0hPa | 3V | 00:00:00 | 00:29:03 | 00:00:00 | |
| IW2NTF | 2026-08-30 23:03:22 | 45.53170 | 8.66546 | 32° | 13km/h | 1257m | 5.7m/s | 19.4°C | 0% | 0hPa | 3V | 00:00:00 | 00:29:01 | 00:00:00 | |
| IW2NTF | 2026-08-30 23:03:16 | 45.53163 | 8.66543 | 9° | 18km/h | 1244m | 5.6m/s | 0°C | 0% | 0hPa | 3V | 00:00:00 | 00:28:59 | 00:00:00 | |
| IW2NTF | 2026-08-30 23:03:16 | 45.53154 | 8.66543 | 345° | 15km/h | 1234m | 5m/s | 0°C | 0% | 0hPa | 2.9V | 00:00:00 | 00:28:57 | 00:00:00 | |
| IW2NTF | 2026-08-30 23:03:16 | 45.53149 | 8.66543 | 23° | 7km/h | 1224m | 5.1m/s | 0°C | 0% | 0hPa | 3V | 00:00:00 | 00:28:55 | 00:00:00 | |
| IW2NTF | 2026-08-30 23:03:08 | 45.53136 | 8.66534 | 9° | 18km/h | 1199m | 5.8m/s | 0°C | 0% | 0hPa | 2.9V | 00:00:00 | 00:28:51 | 00:00:00 | |
| IW2NTF | 2026-08-30 23:03:08 | 45.53129 | 8.66534 | 347° | 9km/h | 1190m | 5m/s | 0°C | 0% | 0hPa | 2.9V | 00:00:00 | 00:28:49 | 00:00:00 | |
| IW2NTF | 2026-08-30 23:03:08 | 45.53126 | 8.66534 | 70° | 5km/h | 1180m | 4.2m/s | 0°C | 0% | 0hPa | 2.9V | 00:00:00 | 00:28:47 | 00:00:00 | |
| IW2NTF | 2026-08-30 23:03:02 | 45.53125 | 8.66530 | 37° | 7km/h | 1168m | 6.7m/s | 0°C | 0% | 0hPa | 2.9V | 00:00:00 | 00:28:45 | 00:00:00 | |
| IW2NTF | 2026-08-30 23:03:02 | 45.53119 | 8.66527 | 13° | 15km/h | 1158m | 4.5m/s | 0°C | 0% | 0hPa | 3V | 00:00:00 | 00:28:43 | 00:00:00 | |
| IW2NTF | 2026-08-30 23:03:02 | 45.53112 | 8.66522 | 37° | 18km/h | 1147m | 7m/s | 0°C | 0% | 0hPa | 3V | 00:00:00 | 00:28:41 | 00:00:00 | |
| IW2NTF | 2026-08-30 23:02:56 | 45.53107 | 8.66513 | 73° | 16km/h | 1135m | 7.2m/s | 0°C | 0% | 0hPa | 2.9V | 00:00:00 | 00:28:39 | 00:00:00 | |
| IW2NTF | 2026-08-30 23:02:56 | 45.53105 | 8.66505 | 39° | 9km/h | 1121m | 7.1m/s | 0°C | 0% | 0hPa | 2.9V | 00:00:00 | 00:28:37 | 00:00:00 | |
| IW2NTF | 2026-08-30 23:02:56 | 45.53100 | 8.66503 | 9° | 15km/h | 1109m | 5.3m/s | 0°C | 0% | 0hPa | 3V | 00:00:00 | 00:28:35 | 00:00:00 | |
| IW2NTF | 2026-08-30 23:02:50 | 45.53093 | 8.66498 | 38° | 18km/h | 1098m | 5.9m/s | 0°C | 0% | 0hPa | 2.9V | 00:00:00 | 00:28:33 | 00:00:00 | |
| IW2NTF | 2026-08-30 23:02:50 | 45.53084 | 8.66473 | 65° | 20km/h | 1077m | 4.5m/s | 0°C | 0% | 0hPa | 2.9V | 00:00:00 | 00:28:29 | 00:00:00 | |
| IW2NTF | 2026-08-30 23:02:44 | 45.53078 | 8.66463 | 32° | 16km/h | 1067m | 5.6m/s | 0°C | 0% | 0hPa | 3V | 00:00:00 | 00:28:27 | 00:00:00 | |
| IW2NTF | 2026-08-30 23:02:44 | 45.53071 | 8.66461 | 351° | 11km/h | 1056m | 4.9m/s | 0°C | 0% | 0hPa | 2.9V | 00:00:00 | 00:28:25 | 00:00:00 | |
| IW2NTF | 2026-08-30 23:02:44 | 45.53068 | 8.66461 | 26° | 4km/h | 1045m | 4.5m/s | 0°C | 0% | 0hPa | 2.9V | 00:00:00 | 00:28:23 | 00:00:00 | |
| IW2NTF | 2026-08-30 23:02:38 | 45.53065 | 8.66456 | 48° | 13km/h | 1036m | 5.2m/s | 0°C | 0% | 0hPa | 3V | 00:00:00 | 00:28:21 | 00:00:00 | |
| IW2NTF | 2026-08-30 23:02:38 | 45.53059 | 8.66451 | 8° | 16km/h | 1025m | 5.2m/s | 0°C | 0% | 0hPa | 2.9V | 00:00:00 | 00:28:19 | 00:00:00 | |
| IW2NTF | 2026-08-30 23:02:38 | 45.53052 | 8.66452 | 332° | 9km/h | 1014m | 5.3m/s | 0°C | 0% | 0hPa | 3V | 00:00:00 | 00:28:17 | 00:00:00 | |
| IW2NTF | 2026-08-30 23:02:32 | 45.53050 | 8.66453 | 60° | 4km/h | 1004m | 5.5m/s | 0°C | 0% | 0hPa | 2.9V | 00:00:00 | 00:28:15 | 00:00:00 | |
| IW2NTF | 2026-08-30 23:02:32 | 45.53048 | 8.66447 | 53° | 13km/h | 993m | 5.2m/s | 0°C | 0% | 0hPa | 2.9V | 00:00:00 | 00:28:13 | 00:00:00 | |
| IW2NTF | 2026-08-30 23:02:32 | 45.53041 | 8.66441 | 12° | 18km/h | 981m | 5.5m/s | 0°C | 0% | 0hPa | 3V | 00:00:00 | 00:28:11 | 00:00:00 | |
| IW2NTF | 2026-08-30 23:02:26 | 45.53034 | 8.66442 | 333° | 13km/h | 970m | 5.1m/s | 0°C | 0% | 0hPa | 2.9V | 00:00:00 | 00:28:09 | 00:00:00 | |
| IW2NTF | 2026-08-30 23:02:26 | 45.53030 | 8.66444 | 2° | 5km/h | 960m | 4.7m/s | 0°C | 0% | 0hPa | 3V | 00:00:00 | 00:28:07 | 00:00:00 | |
| IW2NTF | 2026-08-30 23:02:26 | 45.53026 | 8.66442 | 14° | 15km/h | 950m | 5.5m/s | 0°C | 0% | 0hPa | 2.9V | 00:00:00 | 00:28:05 | 00:00:00 | |
| IW2NTF | 2026-08-30 23:02:20 | 45.53017 | 8.66443 | 336° | 16km/h | 939m | 5.1m/s | 0°C | 0% | 0hPa | 2.9V | 00:00:00 | 00:28:03 | 00:00:00 | |
| IW2NTF | 2026-08-30 23:02:20 | 45.53012 | 8.66449 | 301° | 7km/h | 929m | 4.9m/s | 0°C | 0% | 0hPa | 2.9V | 00:00:00 | 00:28:01 | 00:00:00 | |
| IW2NTF | 2026-08-30 23:02:20 | 45.53011 | 8.66450 | 21° | 5km/h | 918m | 5m/s | 0°C | 0% | 0hPa | 2.9V | 00:00:00 | 00:27:59 | 00:00:00 | |
| IW2NTF | 2026-08-30 23:02:14 | 45.53007 | 8.66449 | 353° | 13km/h | 909m | 4.7m/s | 0°C | 0% | 0hPa | 2.9V | 00:00:00 | 00:27:57 | 00:00:00 | |
| IW2NTF | 2026-08-30 23:02:14 | 45.53002 | 8.66453 | 309° | 7km/h | 900m | 6m/s | 0°C | 0% | 0hPa | 3V | 00:00:00 | 00:27:55 | 00:00:00 | |
| IW2NTF | 2026-08-30 23:02:14 | 45.53001 | 8.66455 | 73° | 2km/h | 888m | 5.6m/s | 0°C | 0% | 0hPa | 2.9V | 00:00:00 | 00:27:53 | 00:00:00 | |
| IW2NTF | 2026-08-30 23:02:09 | 45.52998 | 8.66451 | 18° | 15km/h | 877m | 5.3m/s | 0°C | 0% | 0hPa | 3V | 00:00:00 | 00:27:51 | 00:00:00 | |
| IW2NTF | 2026-08-30 23:02:09 | 45.52987 | 8.66460 | 260° | 9km/h | 856m | 4.8m/s | 0°C | 0% | 0hPa | 3V | 00:00:00 | 00:27:47 | 00:00:00 | |
| IW2NTF | 2026-08-30 23:02:04 | 45.52988 | 8.66462 | 102° | 4km/h | 845m | 6.2m/s | 0°C | 0% | 0hPa | 3V | 00:00:00 | 00:27:45 | 00:00:00 | |
| IW2NTF | 2026-08-30 23:02:04 | 45.52986 | 8.66458 | 10° | 13km/h | 834m | 5m/s | 0°C | 0% | 0hPa | 3V | 00:00:00 | 00:27:43 | 00:00:00 | |
| IW2NTF | 2026-08-30 23:02:04 | 45.52979 | 8.66461 | 318° | 15km/h | 824m | 5m/s | 0°C | 0% | 0hPa | 2.9V | 00:00:00 | 00:27:41 | 00:00:00 |